<?xml version="1.0" encoding="UTF-8" standalone="no" ?>
<gpx xmlns="http://www.topografix.com/GPX/1/1" xmlns:xsi="http://www.w3.org/2001/XMLSchema-instance" xsi:schemaLocation="http://www.topografix.com/GPX/1/1 http://www.topografix.com/GPX/1/1/gpx.xsd" version="1.1" creator="VisuGPX - https://www.visugpx.com">
  <metadata>
    <name>rando bain de bretagne 13.04.2014</name>
    <desc><![CDATA[très belle rando vtt]]></desc>
  </metadata>
  <trk>
    <name><![CDATA[13-AVR-14 11:50:58 AM]]></name>
    <trkseg>
      <trkpt lat="47.8448" lon="-1.68875">
        <ele>-10.44</ele>
        <time>2014-04-13T05:58:34Z</time>
      </trkpt>
      <trkpt lat="47.84481" lon="-1.68872">
        <ele>-10.44</ele>
        <time>2014-04-13T05:58:35Z</time>
      </trkpt>
      <trkpt lat="47.84483" lon="-1.68878">
        <ele>-10.44</ele>
        <time>2014-04-13T05:58:54Z</time>
      </trkpt>
      <trkpt lat="47.84482" lon="-1.68878">
        <ele>-6.59</ele>
        <time>2014-04-13T05:58:55Z</time>
      </trkpt>
      <trkpt lat="47.84482" lon="-1.68878">
        <ele>-2.27</ele>
        <time>2014-04-13T05:58:56Z</time>
      </trkpt>
      <trkpt lat="47.84482" lon="-1.68877">
        <ele>1.58</ele>
        <time>2014-04-13T05:58:57Z</time>
      </trkpt>
      <trkpt lat="47.84482" lon="-1.68877">
        <ele>5.42</ele>
        <time>2014-04-13T05:58:58Z</time>
      </trkpt>
      <trkpt lat="47.84482" lon="-1.68877">
        <ele>8.79</ele>
        <time>2014-04-13T05:58:59Z</time>
      </trkpt>
      <trkpt lat="47.84482" lon="-1.68876">
        <ele>12.15</ele>
        <time>2014-04-13T05:59:00Z</time>
      </trkpt>
      <trkpt lat="47.84481" lon="-1.68876">
        <ele>15.52</ele>
        <time>2014-04-13T05:59:01Z</time>
      </trkpt>
      <trkpt lat="47.8448" lon="-1.68876">
        <ele>18.88</ele>
        <time>2014-04-13T05:59:02Z</time>
      </trkpt>
      <trkpt lat="47.8448" lon="-1.68876">
        <ele>24.65</ele>
        <time>2014-04-13T05:59:04Z</time>
      </trkpt>
      <trkpt lat="47.84479" lon="-1.68875">
        <ele>29.94</ele>
        <time>2014-04-13T05:59:06Z</time>
      </trkpt>
      <trkpt lat="47.84478" lon="-1.68875">
        <ele>34.74</ele>
        <time>2014-04-13T05:59:08Z</time>
      </trkpt>
      <trkpt lat="47.84477" lon="-1.68874">
        <ele>39.07</ele>
        <time>2014-04-13T05:59:10Z</time>
      </trkpt>
      <trkpt lat="47.84477" lon="-1.68874">
        <ele>43.4</ele>
        <time>2014-04-13T05:59:12Z</time>
      </trkpt>
      <trkpt lat="47.84477" lon="-1.68873">
        <ele>46.76</ele>
        <time>2014-04-13T05:59:14Z</time>
      </trkpt>
      <trkpt lat="47.84477" lon="-1.68873">
        <ele>50.61</ele>
        <time>2014-04-13T05:59:16Z</time>
      </trkpt>
      <trkpt lat="47.84477" lon="-1.68872">
        <ele>54.93</ele>
        <time>2014-04-13T05:59:19Z</time>
      </trkpt>
      <trkpt lat="47.84478" lon="-1.6887">
        <ele>58.78</ele>
        <time>2014-04-13T05:59:22Z</time>
      </trkpt>
      <trkpt lat="47.84478" lon="-1.6887">
        <ele>62.14</ele>
        <time>2014-04-13T05:59:25Z</time>
      </trkpt>
      <trkpt lat="47.84478" lon="-1.68871">
        <ele>65.51</ele>
        <time>2014-04-13T05:59:28Z</time>
      </trkpt>
      <trkpt lat="47.84478" lon="-1.68871">
        <ele>68.39</ele>
        <time>2014-04-13T05:59:31Z</time>
      </trkpt>
      <trkpt lat="47.84477" lon="-1.68873">
        <ele>72.24</ele>
        <time>2014-04-13T05:59:35Z</time>
      </trkpt>
      <trkpt lat="47.84478" lon="-1.68874">
        <ele>75.6</ele>
        <time>2014-04-13T05:59:39Z</time>
      </trkpt>
      <trkpt lat="47.84479" lon="-1.68875">
        <ele>78.48</ele>
        <time>2014-04-13T05:59:43Z</time>
      </trkpt>
      <trkpt lat="47.8448" lon="-1.68876">
        <ele>81.85</ele>
        <time>2014-04-13T05:59:48Z</time>
      </trkpt>
      <trkpt lat="47.84481" lon="-1.68878">
        <ele>85.21</ele>
        <time>2014-04-13T05:59:54Z</time>
      </trkpt>
      <trkpt lat="47.84482" lon="-1.6888">
        <ele>88.58</ele>
        <time>2014-04-13T06:00:00Z</time>
      </trkpt>
      <trkpt lat="47.84485" lon="-1.68878">
        <ele>91.94</ele>
        <time>2014-04-13T06:00:06Z</time>
      </trkpt>
      <trkpt lat="47.84485" lon="-1.68876">
        <ele>93.39</ele>
        <time>2014-04-13T06:00:09Z</time>
      </trkpt>
      <trkpt lat="47.84486" lon="-1.68873">
        <ele>93.87</ele>
        <time>2014-04-13T06:00:11Z</time>
      </trkpt>
      <trkpt lat="47.84497" lon="-1.68859">
        <ele>95.79</ele>
        <time>2014-04-13T06:00:17Z</time>
      </trkpt>
      <trkpt lat="47.84516" lon="-1.68852">
        <ele>97.71</ele>
        <time>2014-04-13T06:00:24Z</time>
      </trkpt>
      <trkpt lat="47.84526" lon="-1.68861">
        <ele>98.67</ele>
        <time>2014-04-13T06:00:29Z</time>
      </trkpt>
      <trkpt lat="47.84553" lon="-1.68915">
        <ele>99.63</ele>
        <time>2014-04-13T06:00:40Z</time>
      </trkpt>
      <trkpt lat="47.84556" lon="-1.68918">
        <ele>100.11</ele>
        <time>2014-04-13T06:00:41Z</time>
      </trkpt>
      <trkpt lat="47.8456" lon="-1.68921">
        <ele>100.11</ele>
        <time>2014-04-13T06:00:42Z</time>
      </trkpt>
      <trkpt lat="47.84563" lon="-1.68925">
        <ele>100.11</ele>
        <time>2014-04-13T06:00:43Z</time>
      </trkpt>
      <trkpt lat="47.84566" lon="-1.68929">
        <ele>100.11</ele>
        <time>2014-04-13T06:00:44Z</time>
      </trkpt>
      <trkpt lat="47.84593" lon="-1.68966">
        <ele>101.08</ele>
        <time>2014-04-13T06:00:55Z</time>
      </trkpt>
      <trkpt lat="47.84629" lon="-1.69006">
        <ele>99.15</ele>
        <time>2014-04-13T06:01:05Z</time>
      </trkpt>
      <trkpt lat="47.84674" lon="-1.69056">
        <ele>97.23</ele>
        <time>2014-04-13T06:01:15Z</time>
      </trkpt>
      <trkpt lat="47.84679" lon="-1.6906">
        <ele>96.75</ele>
        <time>2014-04-13T06:01:16Z</time>
      </trkpt>
      <trkpt lat="47.84706" lon="-1.69079">
        <ele>95.79</ele>
        <time>2014-04-13T06:01:21Z</time>
      </trkpt>
      <trkpt lat="47.84736" lon="-1.69114">
        <ele>95.31</ele>
        <time>2014-04-13T06:01:27Z</time>
      </trkpt>
      <trkpt lat="47.84742" lon="-1.69117">
        <ele>95.31</ele>
        <time>2014-04-13T06:01:28Z</time>
      </trkpt>
      <trkpt lat="47.84753" lon="-1.69124">
        <ele>94.35</ele>
        <time>2014-04-13T06:01:30Z</time>
      </trkpt>
      <trkpt lat="47.84757" lon="-1.69133">
        <ele>93.87</ele>
        <time>2014-04-13T06:01:31Z</time>
      </trkpt>
      <trkpt lat="47.84759" lon="-1.69142">
        <ele>93.87</ele>
        <time>2014-04-13T06:01:32Z</time>
      </trkpt>
      <trkpt lat="47.8476" lon="-1.69152">
        <ele>93.39</ele>
        <time>2014-04-13T06:01:33Z</time>
      </trkpt>
      <trkpt lat="47.84761" lon="-1.69162">
        <ele>93.39</ele>
        <time>2014-04-13T06:01:34Z</time>
      </trkpt>
      <trkpt lat="47.84761" lon="-1.69172">
        <ele>93.39</ele>
        <time>2014-04-13T06:01:35Z</time>
      </trkpt>
      <trkpt lat="47.84758" lon="-1.69301">
        <ele>91.94</ele>
        <time>2014-04-13T06:01:49Z</time>
      </trkpt>
      <trkpt lat="47.84757" lon="-1.69316">
        <ele>91.94</ele>
        <time>2014-04-13T06:01:51Z</time>
      </trkpt>
      <trkpt lat="47.84758" lon="-1.69323">
        <ele>91.94</ele>
        <time>2014-04-13T06:01:52Z</time>
      </trkpt>
      <trkpt lat="47.8476" lon="-1.69328">
        <ele>91.46</ele>
        <time>2014-04-13T06:01:53Z</time>
      </trkpt>
      <trkpt lat="47.84763" lon="-1.69332">
        <ele>91.46</ele>
        <time>2014-04-13T06:01:54Z</time>
      </trkpt>
      <trkpt lat="47.84767" lon="-1.69333">
        <ele>91.94</ele>
        <time>2014-04-13T06:01:55Z</time>
      </trkpt>
      <trkpt lat="47.84771" lon="-1.69334">
        <ele>91.94</ele>
        <time>2014-04-13T06:01:56Z</time>
      </trkpt>
      <trkpt lat="47.84776" lon="-1.69333">
        <ele>91.94</ele>
        <time>2014-04-13T06:01:57Z</time>
      </trkpt>
      <trkpt lat="47.84805" lon="-1.6933">
        <ele>91.46</ele>
        <time>2014-04-13T06:02:03Z</time>
      </trkpt>
      <trkpt lat="47.8481" lon="-1.6933">
        <ele>91.46</ele>
        <time>2014-04-13T06:02:04Z</time>
      </trkpt>
      <trkpt lat="47.84824" lon="-1.69331">
        <ele>90.98</ele>
        <time>2014-04-13T06:02:07Z</time>
      </trkpt>
      <trkpt lat="47.84897" lon="-1.69334">
        <ele>88.1</ele>
        <time>2014-04-13T06:02:21Z</time>
      </trkpt>
      <trkpt lat="47.84906" lon="-1.69332">
        <ele>87.62</ele>
        <time>2014-04-13T06:02:23Z</time>
      </trkpt>
      <trkpt lat="47.8491" lon="-1.69329">
        <ele>87.62</ele>
        <time>2014-04-13T06:02:24Z</time>
      </trkpt>
      <trkpt lat="47.84914" lon="-1.69325">
        <ele>87.62</ele>
        <time>2014-04-13T06:02:25Z</time>
      </trkpt>
      <trkpt lat="47.84917" lon="-1.69319">
        <ele>87.14</ele>
        <time>2014-04-13T06:02:26Z</time>
      </trkpt>
      <trkpt lat="47.84919" lon="-1.69313">
        <ele>87.14</ele>
        <time>2014-04-13T06:02:27Z</time>
      </trkpt>
      <trkpt lat="47.84919" lon="-1.69305">
        <ele>87.14</ele>
        <time>2014-04-13T06:02:28Z</time>
      </trkpt>
      <trkpt lat="47.8492" lon="-1.69298">
        <ele>87.14</ele>
        <time>2014-04-13T06:02:29Z</time>
      </trkpt>
      <trkpt lat="47.84921" lon="-1.69292">
        <ele>87.14</ele>
        <time>2014-04-13T06:02:30Z</time>
      </trkpt>
      <trkpt lat="47.84926" lon="-1.69278">
        <ele>87.14</ele>
        <time>2014-04-13T06:02:33Z</time>
      </trkpt>
      <trkpt lat="47.84929" lon="-1.69278">
        <ele>87.14</ele>
        <time>2014-04-13T06:02:34Z</time>
      </trkpt>
      <trkpt lat="47.84932" lon="-1.69278">
        <ele>87.14</ele>
        <time>2014-04-13T06:02:35Z</time>
      </trkpt>
      <trkpt lat="47.84935" lon="-1.69277">
        <ele>87.14</ele>
        <time>2014-04-13T06:02:36Z</time>
      </trkpt>
      <trkpt lat="47.84938" lon="-1.69276">
        <ele>87.62</ele>
        <time>2014-04-13T06:02:37Z</time>
      </trkpt>
      <trkpt lat="47.84941" lon="-1.69277">
        <ele>87.62</ele>
        <time>2014-04-13T06:02:38Z</time>
      </trkpt>
      <trkpt lat="47.84945" lon="-1.69275">
        <ele>87.14</ele>
        <time>2014-04-13T06:02:39Z</time>
      </trkpt>
      <trkpt lat="47.84948" lon="-1.69271">
        <ele>87.14</ele>
        <time>2014-04-13T06:02:40Z</time>
      </trkpt>
      <trkpt lat="47.84951" lon="-1.69266">
        <ele>87.14</ele>
        <time>2014-04-13T06:02:41Z</time>
      </trkpt>
      <trkpt lat="47.84988" lon="-1.69211">
        <ele>85.21</ele>
        <time>2014-04-13T06:02:50Z</time>
      </trkpt>
      <trkpt lat="47.84991" lon="-1.69203">
        <ele>85.21</ele>
        <time>2014-04-13T06:02:51Z</time>
      </trkpt>
      <trkpt lat="47.84994" lon="-1.69194">
        <ele>85.21</ele>
        <time>2014-04-13T06:02:52Z</time>
      </trkpt>
      <trkpt lat="47.8501" lon="-1.69106">
        <ele>82.81</ele>
        <time>2014-04-13T06:03:01Z</time>
      </trkpt>
      <trkpt lat="47.85013" lon="-1.69097">
        <ele>82.81</ele>
        <time>2014-04-13T06:03:02Z</time>
      </trkpt>
      <trkpt lat="47.8502" lon="-1.69084">
        <ele>81.85</ele>
        <time>2014-04-13T06:03:04Z</time>
      </trkpt>
      <trkpt lat="47.85043" lon="-1.69089">
        <ele>81.37</ele>
        <time>2014-04-13T06:03:09Z</time>
      </trkpt>
      <trkpt lat="47.85052" lon="-1.69098">
        <ele>80.41</ele>
        <time>2014-04-13T06:03:11Z</time>
      </trkpt>
      <trkpt lat="47.85055" lon="-1.69105">
        <ele>80.41</ele>
        <time>2014-04-13T06:03:12Z</time>
      </trkpt>
      <trkpt lat="47.85057" lon="-1.69113">
        <ele>79.93</ele>
        <time>2014-04-13T06:03:13Z</time>
      </trkpt>
      <trkpt lat="47.85057" lon="-1.69121">
        <ele>80.41</ele>
        <time>2014-04-13T06:03:14Z</time>
      </trkpt>
      <trkpt lat="47.85057" lon="-1.69129">
        <ele>79.45</ele>
        <time>2014-04-13T06:03:15Z</time>
      </trkpt>
      <trkpt lat="47.85058" lon="-1.6914">
        <ele>78.97</ele>
        <time>2014-04-13T06:03:17Z</time>
      </trkpt>
      <trkpt lat="47.85065" lon="-1.6913">
        <ele>78</ele>
        <time>2014-04-13T06:03:22Z</time>
      </trkpt>
      <trkpt lat="47.85065" lon="-1.69119">
        <ele>78</ele>
        <time>2014-04-13T06:03:24Z</time>
      </trkpt>
      <trkpt lat="47.85067" lon="-1.69113">
        <ele>77.52</ele>
        <time>2014-04-13T06:03:25Z</time>
      </trkpt>
      <trkpt lat="47.85071" lon="-1.69108">
        <ele>77.04</ele>
        <time>2014-04-13T06:03:26Z</time>
      </trkpt>
      <trkpt lat="47.85075" lon="-1.69106">
        <ele>77.04</ele>
        <time>2014-04-13T06:03:27Z</time>
      </trkpt>
      <trkpt lat="47.8508" lon="-1.69105">
        <ele>76.56</ele>
        <time>2014-04-13T06:03:28Z</time>
      </trkpt>
      <trkpt lat="47.85107" lon="-1.69106">
        <ele>76.56</ele>
        <time>2014-04-13T06:03:33Z</time>
      </trkpt>
      <trkpt lat="47.85123" lon="-1.69103">
        <ele>76.56</ele>
        <time>2014-04-13T06:03:36Z</time>
      </trkpt>
      <trkpt lat="47.85129" lon="-1.69103">
        <ele>76.56</ele>
        <time>2014-04-13T06:03:37Z</time>
      </trkpt>
      <trkpt lat="47.85135" lon="-1.69105">
        <ele>76.56</ele>
        <time>2014-04-13T06:03:38Z</time>
      </trkpt>
      <trkpt lat="47.8514" lon="-1.69107">
        <ele>76.56</ele>
        <time>2014-04-13T06:03:39Z</time>
      </trkpt>
      <trkpt lat="47.85146" lon="-1.69111">
        <ele>76.56</ele>
        <time>2014-04-13T06:03:40Z</time>
      </trkpt>
      <trkpt lat="47.85151" lon="-1.69114">
        <ele>76.56</ele>
        <time>2014-04-13T06:03:41Z</time>
      </trkpt>
      <trkpt lat="47.85204" lon="-1.69151">
        <ele>76.56</ele>
        <time>2014-04-13T06:03:54Z</time>
      </trkpt>
      <trkpt lat="47.85206" lon="-1.69155">
        <ele>76.56</ele>
        <time>2014-04-13T06:03:55Z</time>
      </trkpt>
      <trkpt lat="47.8521" lon="-1.69166">
        <ele>75.6</ele>
        <time>2014-04-13T06:03:58Z</time>
      </trkpt>
      <trkpt lat="47.85212" lon="-1.69169">
        <ele>75.12</ele>
        <time>2014-04-13T06:03:59Z</time>
      </trkpt>
      <trkpt lat="47.85213" lon="-1.69173">
        <ele>75.12</ele>
        <time>2014-04-13T06:04:00Z</time>
      </trkpt>
      <trkpt lat="47.85214" lon="-1.69177">
        <ele>75.12</ele>
        <time>2014-04-13T06:04:01Z</time>
      </trkpt>
      <trkpt lat="47.85215" lon="-1.69181">
        <ele>75.12</ele>
        <time>2014-04-13T06:04:02Z</time>
      </trkpt>
      <trkpt lat="47.85217" lon="-1.69185">
        <ele>74.64</ele>
        <time>2014-04-13T06:04:03Z</time>
      </trkpt>
      <trkpt lat="47.85219" lon="-1.69192">
        <ele>74.16</ele>
        <time>2014-04-13T06:04:04Z</time>
      </trkpt>
      <trkpt lat="47.85219" lon="-1.69199">
        <ele>74.16</ele>
        <time>2014-04-13T06:04:05Z</time>
      </trkpt>
      <trkpt lat="47.8522" lon="-1.69206">
        <ele>74.16</ele>
        <time>2014-04-13T06:04:06Z</time>
      </trkpt>
      <trkpt lat="47.8522" lon="-1.69213">
        <ele>73.68</ele>
        <time>2014-04-13T06:04:07Z</time>
      </trkpt>
      <trkpt lat="47.85219" lon="-1.69219">
        <ele>73.68</ele>
        <time>2014-04-13T06:04:08Z</time>
      </trkpt>
      <trkpt lat="47.85219" lon="-1.69226">
        <ele>73.68</ele>
        <time>2014-04-13T06:04:09Z</time>
      </trkpt>
      <trkpt lat="47.8522" lon="-1.69233">
        <ele>73.68</ele>
        <time>2014-04-13T06:04:10Z</time>
      </trkpt>
      <trkpt lat="47.85221" lon="-1.69252">
        <ele>73.68</ele>
        <time>2014-04-13T06:04:13Z</time>
      </trkpt>
      <trkpt lat="47.85227" lon="-1.6928">
        <ele>73.2</ele>
        <time>2014-04-13T06:04:17Z</time>
      </trkpt>
      <trkpt lat="47.85234" lon="-1.69297">
        <ele>73.2</ele>
        <time>2014-04-13T06:04:20Z</time>
      </trkpt>
      <trkpt lat="47.85237" lon="-1.69302">
        <ele>73.2</ele>
        <time>2014-04-13T06:04:21Z</time>
      </trkpt>
      <trkpt lat="47.85244" lon="-1.69319">
        <ele>73.2</ele>
        <time>2014-04-13T06:04:24Z</time>
      </trkpt>
      <trkpt lat="47.85249" lon="-1.69329">
        <ele>73.2</ele>
        <time>2014-04-13T06:04:26Z</time>
      </trkpt>
      <trkpt lat="47.85258" lon="-1.69331">
        <ele>72.72</ele>
        <time>2014-04-13T06:04:29Z</time>
      </trkpt>
      <trkpt lat="47.85261" lon="-1.69328">
        <ele>72.24</ele>
        <time>2014-04-13T06:04:30Z</time>
      </trkpt>
      <trkpt lat="47.85266" lon="-1.69324">
        <ele>71.76</ele>
        <time>2014-04-13T06:04:31Z</time>
      </trkpt>
      <trkpt lat="47.85271" lon="-1.69321">
        <ele>71.27</ele>
        <time>2014-04-13T06:04:32Z</time>
      </trkpt>
      <trkpt lat="47.85276" lon="-1.69319">
        <ele>70.79</ele>
        <time>2014-04-13T06:04:33Z</time>
      </trkpt>
      <trkpt lat="47.85282" lon="-1.69317">
        <ele>70.31</ele>
        <time>2014-04-13T06:04:34Z</time>
      </trkpt>
      <trkpt lat="47.85307" lon="-1.69308">
        <ele>69.35</ele>
        <time>2014-04-13T06:04:39Z</time>
      </trkpt>
      <trkpt lat="47.85353" lon="-1.69292">
        <ele>67.91</ele>
        <time>2014-04-13T06:04:48Z</time>
      </trkpt>
      <trkpt lat="47.85427" lon="-1.69262">
        <ele>65.03</ele>
        <time>2014-04-13T06:05:03Z</time>
      </trkpt>
      <trkpt lat="47.8543" lon="-1.69257">
        <ele>64.55</ele>
        <time>2014-04-13T06:05:04Z</time>
      </trkpt>
      <trkpt lat="47.85436" lon="-1.69248">
        <ele>63.58</ele>
        <time>2014-04-13T06:05:06Z</time>
      </trkpt>
      <trkpt lat="47.85441" lon="-1.69246">
        <ele>63.58</ele>
        <time>2014-04-13T06:05:07Z</time>
      </trkpt>
      <trkpt lat="47.85495" lon="-1.6922">
        <ele>63.1</ele>
        <time>2014-04-13T06:05:19Z</time>
      </trkpt>
      <trkpt lat="47.855" lon="-1.69218">
        <ele>63.1</ele>
        <time>2014-04-13T06:05:20Z</time>
      </trkpt>
      <trkpt lat="47.85524" lon="-1.69198">
        <ele>62.62</ele>
        <time>2014-04-13T06:05:26Z</time>
      </trkpt>
      <trkpt lat="47.85531" lon="-1.69191">
        <ele>62.14</ele>
        <time>2014-04-13T06:05:28Z</time>
      </trkpt>
      <trkpt lat="47.85534" lon="-1.69188">
        <ele>62.14</ele>
        <time>2014-04-13T06:05:29Z</time>
      </trkpt>
      <trkpt lat="47.85542" lon="-1.69183">
        <ele>61.66</ele>
        <time>2014-04-13T06:05:31Z</time>
      </trkpt>
      <trkpt lat="47.85546" lon="-1.69179">
        <ele>61.66</ele>
        <time>2014-04-13T06:05:32Z</time>
      </trkpt>
      <trkpt lat="47.85549" lon="-1.69176">
        <ele>61.66</ele>
        <time>2014-04-13T06:05:33Z</time>
      </trkpt>
      <trkpt lat="47.85551" lon="-1.69172">
        <ele>61.66</ele>
        <time>2014-04-13T06:05:34Z</time>
      </trkpt>
      <trkpt lat="47.85553" lon="-1.69171">
        <ele>61.66</ele>
        <time>2014-04-13T06:05:35Z</time>
      </trkpt>
      <trkpt lat="47.85555" lon="-1.69173">
        <ele>61.18</ele>
        <time>2014-04-13T06:05:36Z</time>
      </trkpt>
      <trkpt lat="47.85556" lon="-1.69175">
        <ele>61.18</ele>
        <time>2014-04-13T06:05:37Z</time>
      </trkpt>
      <trkpt lat="47.85557" lon="-1.69178">
        <ele>61.18</ele>
        <time>2014-04-13T06:05:38Z</time>
      </trkpt>
      <trkpt lat="47.85558" lon="-1.69179">
        <ele>61.18</ele>
        <time>2014-04-13T06:05:39Z</time>
      </trkpt>
      <trkpt lat="47.85559" lon="-1.69178">
        <ele>61.18</ele>
        <time>2014-04-13T06:05:40Z</time>
      </trkpt>
      <trkpt lat="47.8556" lon="-1.69176">
        <ele>60.7</ele>
        <time>2014-04-13T06:05:41Z</time>
      </trkpt>
      <trkpt lat="47.85562" lon="-1.69174">
        <ele>60.7</ele>
        <time>2014-04-13T06:05:42Z</time>
      </trkpt>
      <trkpt lat="47.85564" lon="-1.69171">
        <ele>60.7</ele>
        <time>2014-04-13T06:05:43Z</time>
      </trkpt>
      <trkpt lat="47.85567" lon="-1.69167">
        <ele>60.7</ele>
        <time>2014-04-13T06:05:44Z</time>
      </trkpt>
      <trkpt lat="47.85568" lon="-1.69162">
        <ele>60.7</ele>
        <time>2014-04-13T06:05:45Z</time>
      </trkpt>
      <trkpt lat="47.85569" lon="-1.69157">
        <ele>60.7</ele>
        <time>2014-04-13T06:05:46Z</time>
      </trkpt>
      <trkpt lat="47.8557" lon="-1.69153">
        <ele>60.22</ele>
        <time>2014-04-13T06:05:47Z</time>
      </trkpt>
      <trkpt lat="47.85572" lon="-1.69149">
        <ele>60.7</ele>
        <time>2014-04-13T06:05:48Z</time>
      </trkpt>
      <trkpt lat="47.85574" lon="-1.69146">
        <ele>60.22</ele>
        <time>2014-04-13T06:05:49Z</time>
      </trkpt>
      <trkpt lat="47.85577" lon="-1.69142">
        <ele>60.22</ele>
        <time>2014-04-13T06:05:50Z</time>
      </trkpt>
      <trkpt lat="47.8558" lon="-1.69134">
        <ele>58.78</ele>
        <time>2014-04-13T06:05:52Z</time>
      </trkpt>
      <trkpt lat="47.85583" lon="-1.69133">
        <ele>58.78</ele>
        <time>2014-04-13T06:05:53Z</time>
      </trkpt>
      <trkpt lat="47.85586" lon="-1.69135">
        <ele>58.78</ele>
        <time>2014-04-13T06:05:54Z</time>
      </trkpt>
      <trkpt lat="47.85588" lon="-1.6914">
        <ele>58.3</ele>
        <time>2014-04-13T06:05:55Z</time>
      </trkpt>
      <trkpt lat="47.85591" lon="-1.69145">
        <ele>58.3</ele>
        <time>2014-04-13T06:05:56Z</time>
      </trkpt>
      <trkpt lat="47.85603" lon="-1.69171">
        <ele>57.82</ele>
        <time>2014-04-13T06:06:00Z</time>
      </trkpt>
      <trkpt lat="47.85605" lon="-1.69179">
        <ele>57.34</ele>
        <time>2014-04-13T06:06:01Z</time>
      </trkpt>
      <trkpt lat="47.85619" lon="-1.69252">
        <ele>55.89</ele>
        <time>2014-04-13T06:06:09Z</time>
      </trkpt>
      <trkpt lat="47.85622" lon="-1.6926">
        <ele>56.37</ele>
        <time>2014-04-13T06:06:10Z</time>
      </trkpt>
      <trkpt lat="47.85625" lon="-1.69266">
        <ele>56.37</ele>
        <time>2014-04-13T06:06:11Z</time>
      </trkpt>
      <trkpt lat="47.8563" lon="-1.69272">
        <ele>56.37</ele>
        <time>2014-04-13T06:06:12Z</time>
      </trkpt>
      <trkpt lat="47.85636" lon="-1.69278">
        <ele>55.89</ele>
        <time>2014-04-13T06:06:13Z</time>
      </trkpt>
      <trkpt lat="47.85641" lon="-1.69282">
        <ele>55.89</ele>
        <time>2014-04-13T06:06:14Z</time>
      </trkpt>
      <trkpt lat="47.85647" lon="-1.69286">
        <ele>55.89</ele>
        <time>2014-04-13T06:06:15Z</time>
      </trkpt>
      <trkpt lat="47.85653" lon="-1.6929">
        <ele>55.89</ele>
        <time>2014-04-13T06:06:16Z</time>
      </trkpt>
      <trkpt lat="47.85659" lon="-1.69294">
        <ele>55.41</ele>
        <time>2014-04-13T06:06:17Z</time>
      </trkpt>
      <trkpt lat="47.85664" lon="-1.69298">
        <ele>55.89</ele>
        <time>2014-04-13T06:06:18Z</time>
      </trkpt>
      <trkpt lat="47.85669" lon="-1.69304">
        <ele>55.89</ele>
        <time>2014-04-13T06:06:19Z</time>
      </trkpt>
      <trkpt lat="47.85673" lon="-1.69311">
        <ele>55.41</ele>
        <time>2014-04-13T06:06:20Z</time>
      </trkpt>
      <trkpt lat="47.85678" lon="-1.69318">
        <ele>55.41</ele>
        <time>2014-04-13T06:06:21Z</time>
      </trkpt>
      <trkpt lat="47.85722" lon="-1.694">
        <ele>54.93</ele>
        <time>2014-04-13T06:06:33Z</time>
      </trkpt>
      <trkpt lat="47.85723" lon="-1.69407">
        <ele>55.41</ele>
        <time>2014-04-13T06:06:34Z</time>
      </trkpt>
      <trkpt lat="47.85723" lon="-1.69416">
        <ele>54.93</ele>
        <time>2014-04-13T06:06:35Z</time>
      </trkpt>
      <trkpt lat="47.85722" lon="-1.69424">
        <ele>54.93</ele>
        <time>2014-04-13T06:06:36Z</time>
      </trkpt>
      <trkpt lat="47.85719" lon="-1.69431">
        <ele>54.93</ele>
        <time>2014-04-13T06:06:37Z</time>
      </trkpt>
      <trkpt lat="47.85716" lon="-1.69437">
        <ele>54.93</ele>
        <time>2014-04-13T06:06:38Z</time>
      </trkpt>
      <trkpt lat="47.85712" lon="-1.69442">
        <ele>55.41</ele>
        <time>2014-04-13T06:06:39Z</time>
      </trkpt>
      <trkpt lat="47.85704" lon="-1.69452">
        <ele>55.89</ele>
        <time>2014-04-13T06:06:41Z</time>
      </trkpt>
      <trkpt lat="47.85701" lon="-1.69459">
        <ele>55.89</ele>
        <time>2014-04-13T06:06:42Z</time>
      </trkpt>
      <trkpt lat="47.85699" lon="-1.69466">
        <ele>55.89</ele>
        <time>2014-04-13T06:06:43Z</time>
      </trkpt>
      <trkpt lat="47.85698" lon="-1.69474">
        <ele>55.89</ele>
        <time>2014-04-13T06:06:44Z</time>
      </trkpt>
      <trkpt lat="47.85698" lon="-1.69482">
        <ele>55.89</ele>
        <time>2014-04-13T06:06:45Z</time>
      </trkpt>
      <trkpt lat="47.85699" lon="-1.69491">
        <ele>55.89</ele>
        <time>2014-04-13T06:06:46Z</time>
      </trkpt>
      <trkpt lat="47.85698" lon="-1.69576">
        <ele>54.45</ele>
        <time>2014-04-13T06:06:55Z</time>
      </trkpt>
      <trkpt lat="47.85696" lon="-1.69586">
        <ele>53.97</ele>
        <time>2014-04-13T06:06:56Z</time>
      </trkpt>
      <trkpt lat="47.85692" lon="-1.69606">
        <ele>53.01</ele>
        <time>2014-04-13T06:06:58Z</time>
      </trkpt>
      <trkpt lat="47.85692" lon="-1.69616">
        <ele>53.01</ele>
        <time>2014-04-13T06:06:59Z</time>
      </trkpt>
      <trkpt lat="47.85692" lon="-1.69626">
        <ele>52.53</ele>
        <time>2014-04-13T06:07:00Z</time>
      </trkpt>
      <trkpt lat="47.85701" lon="-1.69738">
        <ele>53.49</ele>
        <time>2014-04-13T06:07:13Z</time>
      </trkpt>
      <trkpt lat="47.85712" lon="-1.69845">
        <ele>53.97</ele>
        <time>2014-04-13T06:07:26Z</time>
      </trkpt>
      <trkpt lat="47.85713" lon="-1.69854">
        <ele>53.49</ele>
        <time>2014-04-13T06:07:27Z</time>
      </trkpt>
      <trkpt lat="47.85746" lon="-1.7001">
        <ele>52.05</ele>
        <time>2014-04-13T06:07:45Z</time>
      </trkpt>
      <trkpt lat="47.85755" lon="-1.70057">
        <ele>51.09</ele>
        <time>2014-04-13T06:07:50Z</time>
      </trkpt>
      <trkpt lat="47.85757" lon="-1.70066">
        <ele>51.09</ele>
        <time>2014-04-13T06:07:51Z</time>
      </trkpt>
      <trkpt lat="47.8578" lon="-1.70177">
        <ele>53.97</ele>
        <time>2014-04-13T06:08:06Z</time>
      </trkpt>
      <trkpt lat="47.85793" lon="-1.70239">
        <ele>55.41</ele>
        <time>2014-04-13T06:08:15Z</time>
      </trkpt>
      <trkpt lat="47.85794" lon="-1.70246">
        <ele>55.41</ele>
        <time>2014-04-13T06:08:16Z</time>
      </trkpt>
      <trkpt lat="47.858" lon="-1.70272">
        <ele>56.37</ele>
        <time>2014-04-13T06:08:20Z</time>
      </trkpt>
      <trkpt lat="47.85802" lon="-1.70277">
        <ele>56.37</ele>
        <time>2014-04-13T06:08:21Z</time>
      </trkpt>
      <trkpt lat="47.85806" lon="-1.70279">
        <ele>56.37</ele>
        <time>2014-04-13T06:08:22Z</time>
      </trkpt>
      <trkpt lat="47.85811" lon="-1.7028">
        <ele>56.37</ele>
        <time>2014-04-13T06:08:23Z</time>
      </trkpt>
      <trkpt lat="47.85815" lon="-1.70278">
        <ele>56.37</ele>
        <time>2014-04-13T06:08:24Z</time>
      </trkpt>
      <trkpt lat="47.8582" lon="-1.70276">
        <ele>55.89</ele>
        <time>2014-04-13T06:08:25Z</time>
      </trkpt>
      <trkpt lat="47.85915" lon="-1.70238">
        <ele>53.49</ele>
        <time>2014-04-13T06:08:41Z</time>
      </trkpt>
      <trkpt lat="47.86008" lon="-1.70199">
        <ele>50.13</ele>
        <time>2014-04-13T06:08:56Z</time>
      </trkpt>
      <trkpt lat="47.86094" lon="-1.70164">
        <ele>47.24</ele>
        <time>2014-04-13T06:09:10Z</time>
      </trkpt>
      <trkpt lat="47.8616" lon="-1.70137">
        <ele>45.32</ele>
        <time>2014-04-13T06:09:22Z</time>
      </trkpt>
      <trkpt lat="47.86161" lon="-1.70133">
        <ele>45.32</ele>
        <time>2014-04-13T06:09:23Z</time>
      </trkpt>
      <trkpt lat="47.86162" lon="-1.70128">
        <ele>44.84</ele>
        <time>2014-04-13T06:09:24Z</time>
      </trkpt>
      <trkpt lat="47.86163" lon="-1.70122">
        <ele>45.32</ele>
        <time>2014-04-13T06:09:25Z</time>
      </trkpt>
      <trkpt lat="47.86163" lon="-1.70105">
        <ele>45.32</ele>
        <time>2014-04-13T06:09:28Z</time>
      </trkpt>
      <trkpt lat="47.86159" lon="-1.7008">
        <ele>45.32</ele>
        <time>2014-04-13T06:09:32Z</time>
      </trkpt>
      <trkpt lat="47.8614" lon="-1.69969">
        <ele>43.88</ele>
        <time>2014-04-13T06:09:48Z</time>
      </trkpt>
      <trkpt lat="47.86129" lon="-1.69916">
        <ele>42.44</ele>
        <time>2014-04-13T06:09:57Z</time>
      </trkpt>
      <trkpt lat="47.86131" lon="-1.69909">
        <ele>41.95</ele>
        <time>2014-04-13T06:09:58Z</time>
      </trkpt>
      <trkpt lat="47.86142" lon="-1.69872">
        <ele>45.32</ele>
        <time>2014-04-13T06:10:06Z</time>
      </trkpt>
      <trkpt lat="47.86143" lon="-1.69869">
        <ele>45.32</ele>
        <time>2014-04-13T06:10:07Z</time>
      </trkpt>
      <trkpt lat="47.86159" lon="-1.69868">
        <ele>45.8</ele>
        <time>2014-04-13T06:10:13Z</time>
      </trkpt>
      <trkpt lat="47.86187" lon="-1.69888">
        <ele>45.32</ele>
        <time>2014-04-13T06:10:23Z</time>
      </trkpt>
      <trkpt lat="47.86216" lon="-1.69911">
        <ele>44.84</ele>
        <time>2014-04-13T06:10:33Z</time>
      </trkpt>
      <trkpt lat="47.86221" lon="-1.6991">
        <ele>44.84</ele>
        <time>2014-04-13T06:10:34Z</time>
      </trkpt>
      <trkpt lat="47.86225" lon="-1.6991">
        <ele>44.36</ele>
        <time>2014-04-13T06:10:35Z</time>
      </trkpt>
      <trkpt lat="47.86228" lon="-1.69907">
        <ele>44.36</ele>
        <time>2014-04-13T06:10:36Z</time>
      </trkpt>
      <trkpt lat="47.86231" lon="-1.69904">
        <ele>43.88</ele>
        <time>2014-04-13T06:10:37Z</time>
      </trkpt>
      <trkpt lat="47.86234" lon="-1.69901">
        <ele>43.88</ele>
        <time>2014-04-13T06:10:38Z</time>
      </trkpt>
      <trkpt lat="47.86237" lon="-1.699">
        <ele>43.88</ele>
        <time>2014-04-13T06:10:39Z</time>
      </trkpt>
      <trkpt lat="47.8624" lon="-1.699">
        <ele>43.4</ele>
        <time>2014-04-13T06:10:40Z</time>
      </trkpt>
      <trkpt lat="47.86243" lon="-1.69901">
        <ele>43.4</ele>
        <time>2014-04-13T06:10:41Z</time>
      </trkpt>
      <trkpt lat="47.86247" lon="-1.699">
        <ele>42.92</ele>
        <time>2014-04-13T06:10:42Z</time>
      </trkpt>
      <trkpt lat="47.86251" lon="-1.69897">
        <ele>42.92</ele>
        <time>2014-04-13T06:10:43Z</time>
      </trkpt>
      <trkpt lat="47.86255" lon="-1.69895">
        <ele>42.44</ele>
        <time>2014-04-13T06:10:44Z</time>
      </trkpt>
      <trkpt lat="47.8626" lon="-1.69891">
        <ele>41.95</ele>
        <time>2014-04-13T06:10:46Z</time>
      </trkpt>
      <trkpt lat="47.8626" lon="-1.69888">
        <ele>42.44</ele>
        <time>2014-04-13T06:10:47Z</time>
      </trkpt>
      <trkpt lat="47.86259" lon="-1.69885">
        <ele>42.44</ele>
        <time>2014-04-13T06:10:48Z</time>
      </trkpt>
      <trkpt lat="47.86257" lon="-1.69882">
        <ele>42.92</ele>
        <time>2014-04-13T06:10:49Z</time>
      </trkpt>
      <trkpt lat="47.86255" lon="-1.69879">
        <ele>42.92</ele>
        <time>2014-04-13T06:10:50Z</time>
      </trkpt>
      <trkpt lat="47.86237" lon="-1.69818">
        <ele>45.8</ele>
        <time>2014-04-13T06:11:03Z</time>
      </trkpt>
      <trkpt lat="47.86233" lon="-1.69802">
        <ele>46.28</ele>
        <time>2014-04-13T06:11:06Z</time>
      </trkpt>
      <trkpt lat="47.86224" lon="-1.69753">
        <ele>47.72</ele>
        <time>2014-04-13T06:11:14Z</time>
      </trkpt>
      <trkpt lat="47.86223" lon="-1.69747">
        <ele>49.16</ele>
        <time>2014-04-13T06:11:15Z</time>
      </trkpt>
      <trkpt lat="47.86212" lon="-1.69689">
        <ele>49.16</ele>
        <time>2014-04-13T06:11:25Z</time>
      </trkpt>
      <trkpt lat="47.8621" lon="-1.69683">
        <ele>49.16</ele>
        <time>2014-04-13T06:11:26Z</time>
      </trkpt>
      <trkpt lat="47.8621" lon="-1.69677">
        <ele>49.16</ele>
        <time>2014-04-13T06:11:27Z</time>
      </trkpt>
      <trkpt lat="47.86211" lon="-1.69672">
        <ele>49.65</ele>
        <time>2014-04-13T06:11:28Z</time>
      </trkpt>
      <trkpt lat="47.86214" lon="-1.69668">
        <ele>49.16</ele>
        <time>2014-04-13T06:11:29Z</time>
      </trkpt>
      <trkpt lat="47.86218" lon="-1.69666">
        <ele>49.65</ele>
        <time>2014-04-13T06:11:30Z</time>
      </trkpt>
      <trkpt lat="47.86222" lon="-1.69664">
        <ele>49.65</ele>
        <time>2014-04-13T06:11:31Z</time>
      </trkpt>
      <trkpt lat="47.86226" lon="-1.69662">
        <ele>49.65</ele>
        <time>2014-04-13T06:11:32Z</time>
      </trkpt>
      <trkpt lat="47.8625" lon="-1.69655">
        <ele>49.65</ele>
        <time>2014-04-13T06:11:37Z</time>
      </trkpt>
      <trkpt lat="47.86275" lon="-1.69644">
        <ele>49.16</ele>
        <time>2014-04-13T06:11:42Z</time>
      </trkpt>
      <trkpt lat="47.86295" lon="-1.6964">
        <ele>48.2</ele>
        <time>2014-04-13T06:11:46Z</time>
      </trkpt>
      <trkpt lat="47.86299" lon="-1.69635">
        <ele>48.2</ele>
        <time>2014-04-13T06:11:47Z</time>
      </trkpt>
      <trkpt lat="47.86302" lon="-1.69629">
        <ele>48.68</ele>
        <time>2014-04-13T06:11:48Z</time>
      </trkpt>
      <trkpt lat="47.86303" lon="-1.69622">
        <ele>48.68</ele>
        <time>2014-04-13T06:11:49Z</time>
      </trkpt>
      <trkpt lat="47.86304" lon="-1.69614">
        <ele>48.2</ele>
        <time>2014-04-13T06:11:50Z</time>
      </trkpt>
      <trkpt lat="47.86305" lon="-1.69606">
        <ele>48.2</ele>
        <time>2014-04-13T06:11:51Z</time>
      </trkpt>
      <trkpt lat="47.86306" lon="-1.69598">
        <ele>48.2</ele>
        <time>2014-04-13T06:11:52Z</time>
      </trkpt>
      <trkpt lat="47.86307" lon="-1.69591">
        <ele>48.2</ele>
        <time>2014-04-13T06:11:53Z</time>
      </trkpt>
      <trkpt lat="47.86309" lon="-1.69584">
        <ele>48.2</ele>
        <time>2014-04-13T06:11:54Z</time>
      </trkpt>
      <trkpt lat="47.86311" lon="-1.69577">
        <ele>48.2</ele>
        <time>2014-04-13T06:11:55Z</time>
      </trkpt>
      <trkpt lat="47.86314" lon="-1.6957">
        <ele>47.72</ele>
        <time>2014-04-13T06:11:56Z</time>
      </trkpt>
      <trkpt lat="47.86316" lon="-1.69564">
        <ele>47.72</ele>
        <time>2014-04-13T06:11:57Z</time>
      </trkpt>
      <trkpt lat="47.86318" lon="-1.69558">
        <ele>47.72</ele>
        <time>2014-04-13T06:11:58Z</time>
      </trkpt>
      <trkpt lat="47.8632" lon="-1.69554">
        <ele>47.24</ele>
        <time>2014-04-13T06:11:59Z</time>
      </trkpt>
      <trkpt lat="47.86323" lon="-1.69553">
        <ele>47.72</ele>
        <time>2014-04-13T06:12:00Z</time>
      </trkpt>
      <trkpt lat="47.86327" lon="-1.69553">
        <ele>47.24</ele>
        <time>2014-04-13T06:12:01Z</time>
      </trkpt>
      <trkpt lat="47.86343" lon="-1.6956">
        <ele>46.76</ele>
        <time>2014-04-13T06:12:05Z</time>
      </trkpt>
      <trkpt lat="47.86357" lon="-1.69568">
        <ele>46.28</ele>
        <time>2014-04-13T06:12:09Z</time>
      </trkpt>
      <trkpt lat="47.86379" lon="-1.69586">
        <ele>45.8</ele>
        <time>2014-04-13T06:12:15Z</time>
      </trkpt>
      <trkpt lat="47.86414" lon="-1.69618">
        <ele>46.28</ele>
        <time>2014-04-13T06:12:26Z</time>
      </trkpt>
      <trkpt lat="47.86416" lon="-1.69617">
        <ele>46.28</ele>
        <time>2014-04-13T06:12:27Z</time>
      </trkpt>
      <trkpt lat="47.86418" lon="-1.69615">
        <ele>46.28</ele>
        <time>2014-04-13T06:12:28Z</time>
      </trkpt>
      <trkpt lat="47.86411" lon="-1.69579">
        <ele>46.28</ele>
        <time>2014-04-13T06:12:36Z</time>
      </trkpt>
      <trkpt lat="47.86409" lon="-1.69574">
        <ele>46.28</ele>
        <time>2014-04-13T06:12:37Z</time>
      </trkpt>
      <trkpt lat="47.86407" lon="-1.69569">
        <ele>46.76</ele>
        <time>2014-04-13T06:12:38Z</time>
      </trkpt>
      <trkpt lat="47.86405" lon="-1.69564">
        <ele>46.28</ele>
        <time>2014-04-13T06:12:39Z</time>
      </trkpt>
      <trkpt lat="47.86403" lon="-1.69559">
        <ele>46.28</ele>
        <time>2014-04-13T06:12:40Z</time>
      </trkpt>
      <trkpt lat="47.86401" lon="-1.69553">
        <ele>46.28</ele>
        <time>2014-04-13T06:12:41Z</time>
      </trkpt>
      <trkpt lat="47.864" lon="-1.69541">
        <ele>46.28</ele>
        <time>2014-04-13T06:12:43Z</time>
      </trkpt>
      <trkpt lat="47.86399" lon="-1.695">
        <ele>46.28</ele>
        <time>2014-04-13T06:12:50Z</time>
      </trkpt>
      <trkpt lat="47.86396" lon="-1.6944">
        <ele>47.72</ele>
        <time>2014-04-13T06:13:01Z</time>
      </trkpt>
      <trkpt lat="47.86404" lon="-1.69429">
        <ele>47.72</ele>
        <time>2014-04-13T06:13:05Z</time>
      </trkpt>
      <trkpt lat="47.86468" lon="-1.69409">
        <ele>48.2</ele>
        <time>2014-04-13T06:13:22Z</time>
      </trkpt>
      <trkpt lat="47.86479" lon="-1.69403">
        <ele>48.2</ele>
        <time>2014-04-13T06:13:25Z</time>
      </trkpt>
      <trkpt lat="47.86494" lon="-1.69409">
        <ele>48.68</ele>
        <time>2014-04-13T06:13:29Z</time>
      </trkpt>
      <trkpt lat="47.8652" lon="-1.69388">
        <ele>49.16</ele>
        <time>2014-04-13T06:13:39Z</time>
      </trkpt>
      <trkpt lat="47.8654" lon="-1.6937">
        <ele>48.68</ele>
        <time>2014-04-13T06:13:45Z</time>
      </trkpt>
      <trkpt lat="47.86574" lon="-1.69349">
        <ele>48.68</ele>
        <time>2014-04-13T06:13:53Z</time>
      </trkpt>
      <trkpt lat="47.86591" lon="-1.6934">
        <ele>48.68</ele>
        <time>2014-04-13T06:13:57Z</time>
      </trkpt>
      <trkpt lat="47.86607" lon="-1.69329">
        <ele>48.2</ele>
        <time>2014-04-13T06:14:01Z</time>
      </trkpt>
      <trkpt lat="47.86616" lon="-1.69324">
        <ele>47.72</ele>
        <time>2014-04-13T06:14:03Z</time>
      </trkpt>
      <trkpt lat="47.86626" lon="-1.69318">
        <ele>47.24</ele>
        <time>2014-04-13T06:14:05Z</time>
      </trkpt>
      <trkpt lat="47.86649" lon="-1.69302">
        <ele>45.32</ele>
        <time>2014-04-13T06:14:11Z</time>
      </trkpt>
      <trkpt lat="47.86663" lon="-1.69291">
        <ele>42.92</ele>
        <time>2014-04-13T06:14:15Z</time>
      </trkpt>
      <trkpt lat="47.867" lon="-1.69287">
        <ele>39.07</ele>
        <time>2014-04-13T06:14:23Z</time>
      </trkpt>
      <trkpt lat="47.86721" lon="-1.6931">
        <ele>36.67</ele>
        <time>2014-04-13T06:14:29Z</time>
      </trkpt>
      <trkpt lat="47.86725" lon="-1.69311">
        <ele>36.19</ele>
        <time>2014-04-13T06:14:31Z</time>
      </trkpt>
      <trkpt lat="47.86739" lon="-1.69308">
        <ele>34.74</ele>
        <time>2014-04-13T06:14:40Z</time>
      </trkpt>
      <trkpt lat="47.86739" lon="-1.69305">
        <ele>35.23</ele>
        <time>2014-04-13T06:14:42Z</time>
      </trkpt>
      <trkpt lat="47.86753" lon="-1.69296">
        <ele>35.71</ele>
        <time>2014-04-13T06:14:49Z</time>
      </trkpt>
      <trkpt lat="47.86781" lon="-1.69272">
        <ele>37.15</ele>
        <time>2014-04-13T06:15:01Z</time>
      </trkpt>
      <trkpt lat="47.86785" lon="-1.6927">
        <ele>36.67</ele>
        <time>2014-04-13T06:15:02Z</time>
      </trkpt>
      <trkpt lat="47.8681" lon="-1.69256">
        <ele>35.23</ele>
        <time>2014-04-13T06:15:13Z</time>
      </trkpt>
      <trkpt lat="47.86811" lon="-1.69255">
        <ele>35.23</ele>
        <time>2014-04-13T06:15:14Z</time>
      </trkpt>
      <trkpt lat="47.8682" lon="-1.69243">
        <ele>35.71</ele>
        <time>2014-04-13T06:15:23Z</time>
      </trkpt>
      <trkpt lat="47.86829" lon="-1.69224">
        <ele>37.15</ele>
        <time>2014-04-13T06:15:30Z</time>
      </trkpt>
      <trkpt lat="47.86839" lon="-1.69202">
        <ele>38.11</ele>
        <time>2014-04-13T06:15:38Z</time>
      </trkpt>
      <trkpt lat="47.86848" lon="-1.69188">
        <ele>39.07</ele>
        <time>2014-04-13T06:15:43Z</time>
      </trkpt>
      <trkpt lat="47.86852" lon="-1.69174">
        <ele>39.55</ele>
        <time>2014-04-13T06:15:47Z</time>
      </trkpt>
      <trkpt lat="47.86855" lon="-1.69157">
        <ele>41.95</ele>
        <time>2014-04-13T06:15:54Z</time>
      </trkpt>
      <trkpt lat="47.8687" lon="-1.6915">
        <ele>39.55</ele>
        <time>2014-04-13T06:16:00Z</time>
      </trkpt>
      <trkpt lat="47.86887" lon="-1.69143">
        <ele>36.19</ele>
        <time>2014-04-13T06:16:06Z</time>
      </trkpt>
      <trkpt lat="47.86897" lon="-1.69131">
        <ele>35.71</ele>
        <time>2014-04-13T06:16:12Z</time>
      </trkpt>
      <trkpt lat="47.86907" lon="-1.69131">
        <ele>33.3</ele>
        <time>2014-04-13T06:16:17Z</time>
      </trkpt>
      <trkpt lat="47.86909" lon="-1.69128">
        <ele>32.34</ele>
        <time>2014-04-13T06:16:19Z</time>
      </trkpt>
      <trkpt lat="47.86916" lon="-1.69116">
        <ele>33.78</ele>
        <time>2014-04-13T06:16:24Z</time>
      </trkpt>
      <trkpt lat="47.86932" lon="-1.69103">
        <ele>33.3</ele>
        <time>2014-04-13T06:16:32Z</time>
      </trkpt>
      <trkpt lat="47.86942" lon="-1.69092">
        <ele>33.3</ele>
        <time>2014-04-13T06:16:36Z</time>
      </trkpt>
      <trkpt lat="47.86966" lon="-1.69084">
        <ele>30.42</ele>
        <time>2014-04-13T06:16:43Z</time>
      </trkpt>
      <trkpt lat="47.86976" lon="-1.69084">
        <ele>29.46</ele>
        <time>2014-04-13T06:16:45Z</time>
      </trkpt>
      <trkpt lat="47.87" lon="-1.69067">
        <ele>29.94</ele>
        <time>2014-04-13T06:16:52Z</time>
      </trkpt>
      <trkpt lat="47.87003" lon="-1.69064">
        <ele>29.94</ele>
        <time>2014-04-13T06:16:53Z</time>
      </trkpt>
      <trkpt lat="47.87006" lon="-1.69062">
        <ele>29.94</ele>
        <time>2014-04-13T06:16:54Z</time>
      </trkpt>
      <trkpt lat="47.87008" lon="-1.6906">
        <ele>30.42</ele>
        <time>2014-04-13T06:16:55Z</time>
      </trkpt>
      <trkpt lat="47.87009" lon="-1.6906">
        <ele>29.94</ele>
        <time>2014-04-13T06:16:56Z</time>
      </trkpt>
      <trkpt lat="47.87011" lon="-1.69059">
        <ele>29.94</ele>
        <time>2014-04-13T06:16:57Z</time>
      </trkpt>
      <trkpt lat="47.87018" lon="-1.69052">
        <ele>30.9</ele>
        <time>2014-04-13T06:17:07Z</time>
      </trkpt>
      <trkpt lat="47.87021" lon="-1.69048">
        <ele>30.9</ele>
        <time>2014-04-13T06:17:13Z</time>
      </trkpt>
      <trkpt lat="47.87024" lon="-1.69045">
        <ele>30.42</ele>
        <time>2014-04-13T06:17:16Z</time>
      </trkpt>
      <trkpt lat="47.87028" lon="-1.69032">
        <ele>31.38</ele>
        <time>2014-04-13T06:17:22Z</time>
      </trkpt>
      <trkpt lat="47.87032" lon="-1.69028">
        <ele>30.9</ele>
        <time>2014-04-13T06:17:25Z</time>
      </trkpt>
      <trkpt lat="47.87042" lon="-1.6902">
        <ele>29.46</ele>
        <time>2014-04-13T06:17:32Z</time>
      </trkpt>
      <trkpt lat="47.87045" lon="-1.69018">
        <ele>29.46</ele>
        <time>2014-04-13T06:17:35Z</time>
      </trkpt>
      <trkpt lat="47.87053" lon="-1.69007">
        <ele>30.42</ele>
        <time>2014-04-13T06:17:47Z</time>
      </trkpt>
      <trkpt lat="47.87067" lon="-1.69003">
        <ele>28.98</ele>
        <time>2014-04-13T06:17:53Z</time>
      </trkpt>
      <trkpt lat="47.87074" lon="-1.68994">
        <ele>29.94</ele>
        <time>2014-04-13T06:18:04Z</time>
      </trkpt>
      <trkpt lat="47.87073" lon="-1.68994">
        <ele>29.94</ele>
        <time>2014-04-13T06:18:05Z</time>
      </trkpt>
      <trkpt lat="47.87072" lon="-1.6899">
        <ele>32.34</ele>
        <time>2014-04-13T06:18:16Z</time>
      </trkpt>
      <trkpt lat="47.8707" lon="-1.68984">
        <ele>34.74</ele>
        <time>2014-04-13T06:18:28Z</time>
      </trkpt>
      <trkpt lat="47.87071" lon="-1.68982">
        <ele>34.74</ele>
        <time>2014-04-13T06:18:30Z</time>
      </trkpt>
      <trkpt lat="47.87081" lon="-1.68974">
        <ele>34.26</ele>
        <time>2014-04-13T06:18:36Z</time>
      </trkpt>
      <trkpt lat="47.87119" lon="-1.68956">
        <ele>33.78</ele>
        <time>2014-04-13T06:18:49Z</time>
      </trkpt>
      <trkpt lat="47.87148" lon="-1.68946">
        <ele>31.86</ele>
        <time>2014-04-13T06:18:55Z</time>
      </trkpt>
      <trkpt lat="47.87154" lon="-1.68945">
        <ele>31.38</ele>
        <time>2014-04-13T06:18:56Z</time>
      </trkpt>
      <trkpt lat="47.87165" lon="-1.68943">
        <ele>30.42</ele>
        <time>2014-04-13T06:18:58Z</time>
      </trkpt>
      <trkpt lat="47.8717" lon="-1.68945">
        <ele>30.42</ele>
        <time>2014-04-13T06:18:59Z</time>
      </trkpt>
      <trkpt lat="47.87173" lon="-1.68947">
        <ele>30.42</ele>
        <time>2014-04-13T06:19:00Z</time>
      </trkpt>
      <trkpt lat="47.87176" lon="-1.68951">
        <ele>29.94</ele>
        <time>2014-04-13T06:19:01Z</time>
      </trkpt>
      <trkpt lat="47.87178" lon="-1.68955">
        <ele>29.94</ele>
        <time>2014-04-13T06:19:02Z</time>
      </trkpt>
      <trkpt lat="47.87179" lon="-1.6896">
        <ele>29.94</ele>
        <time>2014-04-13T06:19:03Z</time>
      </trkpt>
      <trkpt lat="47.87181" lon="-1.68965">
        <ele>29.94</ele>
        <time>2014-04-13T06:19:04Z</time>
      </trkpt>
      <trkpt lat="47.87199" lon="-1.69023">
        <ele>32.34</ele>
        <time>2014-04-13T06:19:16Z</time>
      </trkpt>
      <trkpt lat="47.872" lon="-1.69026">
        <ele>31.86</ele>
        <time>2014-04-13T06:19:17Z</time>
      </trkpt>
      <trkpt lat="47.87203" lon="-1.69035">
        <ele>32.82</ele>
        <time>2014-04-13T06:19:20Z</time>
      </trkpt>
      <trkpt lat="47.87203" lon="-1.69038">
        <ele>32.82</ele>
        <time>2014-04-13T06:19:21Z</time>
      </trkpt>
      <trkpt lat="47.87202" lon="-1.69041">
        <ele>33.3</ele>
        <time>2014-04-13T06:19:22Z</time>
      </trkpt>
      <trkpt lat="47.872" lon="-1.69043">
        <ele>33.3</ele>
        <time>2014-04-13T06:19:23Z</time>
      </trkpt>
      <trkpt lat="47.87198" lon="-1.69046">
        <ele>33.3</ele>
        <time>2014-04-13T06:19:24Z</time>
      </trkpt>
      <trkpt lat="47.87173" lon="-1.69077">
        <ele>35.71</ele>
        <time>2014-04-13T06:19:36Z</time>
      </trkpt>
      <trkpt lat="47.8715" lon="-1.69114">
        <ele>37.15</ele>
        <time>2014-04-13T06:19:50Z</time>
      </trkpt>
      <trkpt lat="47.87132" lon="-1.69139">
        <ele>39.07</ele>
        <time>2014-04-13T06:20:01Z</time>
      </trkpt>
      <trkpt lat="47.8713" lon="-1.6914">
        <ele>39.55</ele>
        <time>2014-04-13T06:20:02Z</time>
      </trkpt>
      <trkpt lat="47.87128" lon="-1.6914">
        <ele>39.55</ele>
        <time>2014-04-13T06:20:03Z</time>
      </trkpt>
      <trkpt lat="47.87125" lon="-1.69139">
        <ele>39.55</ele>
        <time>2014-04-13T06:20:04Z</time>
      </trkpt>
      <trkpt lat="47.87123" lon="-1.69137">
        <ele>39.55</ele>
        <time>2014-04-13T06:20:05Z</time>
      </trkpt>
      <trkpt lat="47.8709" lon="-1.69128">
        <ele>40.03</ele>
        <time>2014-04-13T06:20:17Z</time>
      </trkpt>
      <trkpt lat="47.8706" lon="-1.69135">
        <ele>41.95</ele>
        <time>2014-04-13T06:20:28Z</time>
      </trkpt>
      <trkpt lat="47.87056" lon="-1.69136">
        <ele>41.95</ele>
        <time>2014-04-13T06:20:29Z</time>
      </trkpt>
      <trkpt lat="47.87041" lon="-1.69135">
        <ele>40.03</ele>
        <time>2014-04-13T06:20:32Z</time>
      </trkpt>
      <trkpt lat="47.87029" lon="-1.69138">
        <ele>39.07</ele>
        <time>2014-04-13T06:20:34Z</time>
      </trkpt>
      <trkpt lat="47.87018" lon="-1.69143">
        <ele>38.59</ele>
        <time>2014-04-13T06:20:36Z</time>
      </trkpt>
      <trkpt lat="47.87007" lon="-1.6915">
        <ele>38.11</ele>
        <time>2014-04-13T06:20:38Z</time>
      </trkpt>
      <trkpt lat="47.86992" lon="-1.69163">
        <ele>36.19</ele>
        <time>2014-04-13T06:20:41Z</time>
      </trkpt>
      <trkpt lat="47.86974" lon="-1.69172">
        <ele>34.74</ele>
        <time>2014-04-13T06:20:44Z</time>
      </trkpt>
      <trkpt lat="47.86959" lon="-1.69188">
        <ele>33.78</ele>
        <time>2014-04-13T06:20:48Z</time>
      </trkpt>
      <trkpt lat="47.86936" lon="-1.69211">
        <ele>33.78</ele>
        <time>2014-04-13T06:20:55Z</time>
      </trkpt>
      <trkpt lat="47.86925" lon="-1.69223">
        <ele>33.78</ele>
        <time>2014-04-13T06:20:59Z</time>
      </trkpt>
      <trkpt lat="47.8689" lon="-1.69258">
        <ele>31.38</ele>
        <time>2014-04-13T06:21:07Z</time>
      </trkpt>
      <trkpt lat="47.86874" lon="-1.69273">
        <ele>30.9</ele>
        <time>2014-04-13T06:21:11Z</time>
      </trkpt>
      <trkpt lat="47.86841" lon="-1.69303">
        <ele>32.34</ele>
        <time>2014-04-13T06:21:21Z</time>
      </trkpt>
      <trkpt lat="47.86798" lon="-1.69336">
        <ele>32.82</ele>
        <time>2014-04-13T06:21:32Z</time>
      </trkpt>
      <trkpt lat="47.86782" lon="-1.69367">
        <ele>32.82</ele>
        <time>2014-04-13T06:21:39Z</time>
      </trkpt>
      <trkpt lat="47.86775" lon="-1.69389">
        <ele>33.3</ele>
        <time>2014-04-13T06:21:43Z</time>
      </trkpt>
      <trkpt lat="47.86767" lon="-1.69422">
        <ele>34.26</ele>
        <time>2014-04-13T06:21:51Z</time>
      </trkpt>
      <trkpt lat="47.86764" lon="-1.69433">
        <ele>34.26</ele>
        <time>2014-04-13T06:21:53Z</time>
      </trkpt>
      <trkpt lat="47.86762" lon="-1.69445">
        <ele>34.74</ele>
        <time>2014-04-13T06:21:55Z</time>
      </trkpt>
      <trkpt lat="47.8676" lon="-1.69453">
        <ele>35.23</ele>
        <time>2014-04-13T06:21:57Z</time>
      </trkpt>
      <trkpt lat="47.86758" lon="-1.69471">
        <ele>37.15</ele>
        <time>2014-04-13T06:22:02Z</time>
      </trkpt>
      <trkpt lat="47.86754" lon="-1.69497">
        <ele>38.59</ele>
        <time>2014-04-13T06:22:08Z</time>
      </trkpt>
      <trkpt lat="47.86752" lon="-1.6953">
        <ele>41.47</ele>
        <time>2014-04-13T06:22:19Z</time>
      </trkpt>
      <trkpt lat="47.86759" lon="-1.69532">
        <ele>44.36</ele>
        <time>2014-04-13T06:22:29Z</time>
      </trkpt>
      <trkpt lat="47.86763" lon="-1.69531">
        <ele>45.8</ele>
        <time>2014-04-13T06:22:35Z</time>
      </trkpt>
      <trkpt lat="47.86775" lon="-1.69525">
        <ele>49.16</ele>
        <time>2014-04-13T06:22:47Z</time>
      </trkpt>
      <trkpt lat="47.86784" lon="-1.69524">
        <ele>51.09</ele>
        <time>2014-04-13T06:22:53Z</time>
      </trkpt>
      <trkpt lat="47.86794" lon="-1.69523">
        <ele>53.49</ele>
        <time>2014-04-13T06:22:59Z</time>
      </trkpt>
      <trkpt lat="47.86799" lon="-1.69511">
        <ele>54.45</ele>
        <time>2014-04-13T06:23:05Z</time>
      </trkpt>
      <trkpt lat="47.868" lon="-1.69505">
        <ele>53.97</ele>
        <time>2014-04-13T06:23:07Z</time>
      </trkpt>
      <trkpt lat="47.86799" lon="-1.69478">
        <ele>52.53</ele>
        <time>2014-04-13T06:23:14Z</time>
      </trkpt>
      <trkpt lat="47.86818" lon="-1.69432">
        <ele>53.49</ele>
        <time>2014-04-13T06:23:26Z</time>
      </trkpt>
      <trkpt lat="47.8682" lon="-1.69417">
        <ele>54.45</ele>
        <time>2014-04-13T06:23:29Z</time>
      </trkpt>
      <trkpt lat="47.86845" lon="-1.69384">
        <ele>57.34</ele>
        <time>2014-04-13T06:23:44Z</time>
      </trkpt>
      <trkpt lat="47.86874" lon="-1.69368">
        <ele>58.78</ele>
        <time>2014-04-13T06:23:58Z</time>
      </trkpt>
      <trkpt lat="47.869" lon="-1.69356">
        <ele>60.7</ele>
        <time>2014-04-13T06:24:11Z</time>
      </trkpt>
      <trkpt lat="47.86914" lon="-1.69349">
        <ele>61.66</ele>
        <time>2014-04-13T06:24:18Z</time>
      </trkpt>
      <trkpt lat="47.86935" lon="-1.69339">
        <ele>62.62</ele>
        <time>2014-04-13T06:24:29Z</time>
      </trkpt>
      <trkpt lat="47.86945" lon="-1.69337">
        <ele>64.07</ele>
        <time>2014-04-13T06:24:35Z</time>
      </trkpt>
      <trkpt lat="47.86926" lon="-1.69358">
        <ele>65.51</ele>
        <time>2014-04-13T06:24:47Z</time>
      </trkpt>
      <trkpt lat="47.86903" lon="-1.69388">
        <ele>66.95</ele>
        <time>2014-04-13T06:24:59Z</time>
      </trkpt>
      <trkpt lat="47.86883" lon="-1.69432">
        <ele>70.31</ele>
        <time>2014-04-13T06:25:12Z</time>
      </trkpt>
      <trkpt lat="47.86874" lon="-1.69474">
        <ele>73.68</ele>
        <time>2014-04-13T06:25:24Z</time>
      </trkpt>
      <trkpt lat="47.86866" lon="-1.69528">
        <ele>75.6</ele>
        <time>2014-04-13T06:25:37Z</time>
      </trkpt>
      <trkpt lat="47.86856" lon="-1.69593">
        <ele>76.56</ele>
        <time>2014-04-13T06:25:51Z</time>
      </trkpt>
      <trkpt lat="47.86845" lon="-1.69658">
        <ele>78.97</ele>
        <time>2014-04-13T06:26:05Z</time>
      </trkpt>
      <trkpt lat="47.8684" lon="-1.69691">
        <ele>80.89</ele>
        <time>2014-04-13T06:26:13Z</time>
      </trkpt>
      <trkpt lat="47.86837" lon="-1.69704">
        <ele>81.37</ele>
        <time>2014-04-13T06:26:17Z</time>
      </trkpt>
      <trkpt lat="47.86839" lon="-1.69717">
        <ele>82.81</ele>
        <time>2014-04-13T06:26:27Z</time>
      </trkpt>
      <trkpt lat="47.86843" lon="-1.69703">
        <ele>83.29</ele>
        <time>2014-04-13T06:26:31Z</time>
      </trkpt>
      <trkpt lat="47.86856" lon="-1.6969">
        <ele>85.21</ele>
        <time>2014-04-13T06:26:38Z</time>
      </trkpt>
      <trkpt lat="47.86864" lon="-1.69691">
        <ele>86.18</ele>
        <time>2014-04-13T06:26:42Z</time>
      </trkpt>
      <trkpt lat="47.86883" lon="-1.69704">
        <ele>89.54</ele>
        <time>2014-04-13T06:26:53Z</time>
      </trkpt>
      <trkpt lat="47.86905" lon="-1.69703">
        <ele>91.94</ele>
        <time>2014-04-13T06:27:04Z</time>
      </trkpt>
      <trkpt lat="47.86907" lon="-1.69716">
        <ele>92.9</ele>
        <time>2014-04-13T06:27:09Z</time>
      </trkpt>
      <trkpt lat="47.86905" lon="-1.69745">
        <ele>93.39</ele>
        <time>2014-04-13T06:27:17Z</time>
      </trkpt>
      <trkpt lat="47.86919" lon="-1.69757">
        <ele>95.31</ele>
        <time>2014-04-13T06:27:27Z</time>
      </trkpt>
      <trkpt lat="47.86922" lon="-1.69759">
        <ele>95.31</ele>
        <time>2014-04-13T06:27:29Z</time>
      </trkpt>
      <trkpt lat="47.86929" lon="-1.69761">
        <ele>95.79</ele>
        <time>2014-04-13T06:27:32Z</time>
      </trkpt>
      <trkpt lat="47.86935" lon="-1.69802">
        <ele>96.75</ele>
        <time>2014-04-13T06:27:44Z</time>
      </trkpt>
      <trkpt lat="47.8693" lon="-1.6985">
        <ele>96.75</ele>
        <time>2014-04-13T06:27:56Z</time>
      </trkpt>
      <trkpt lat="47.86922" lon="-1.69894">
        <ele>96.75</ele>
        <time>2014-04-13T06:28:07Z</time>
      </trkpt>
      <trkpt lat="47.86913" lon="-1.69929">
        <ele>97.23</ele>
        <time>2014-04-13T06:28:15Z</time>
      </trkpt>
      <trkpt lat="47.86896" lon="-1.69981">
        <ele>96.27</ele>
        <time>2014-04-13T06:28:26Z</time>
      </trkpt>
      <trkpt lat="47.86895" lon="-1.69984">
        <ele>95.79</ele>
        <time>2014-04-13T06:28:27Z</time>
      </trkpt>
      <trkpt lat="47.86913" lon="-1.69984">
        <ele>96.75</ele>
        <time>2014-04-13T06:28:36Z</time>
      </trkpt>
      <trkpt lat="47.86938" lon="-1.69958">
        <ele>97.23</ele>
        <time>2014-04-13T06:28:46Z</time>
      </trkpt>
      <trkpt lat="47.86973" lon="-1.69915">
        <ele>97.71</ele>
        <time>2014-04-13T06:28:58Z</time>
      </trkpt>
      <trkpt lat="47.86986" lon="-1.69901">
        <ele>97.71</ele>
        <time>2014-04-13T06:29:02Z</time>
      </trkpt>
      <trkpt lat="47.86991" lon="-1.69898">
        <ele>97.71</ele>
        <time>2014-04-13T06:29:03Z</time>
      </trkpt>
      <trkpt lat="47.86996" lon="-1.69895">
        <ele>97.23</ele>
        <time>2014-04-13T06:29:04Z</time>
      </trkpt>
      <trkpt lat="47.87028" lon="-1.69882">
        <ele>96.75</ele>
        <time>2014-04-13T06:29:10Z</time>
      </trkpt>
      <trkpt lat="47.87045" lon="-1.69877">
        <ele>96.27</ele>
        <time>2014-04-13T06:29:13Z</time>
      </trkpt>
      <trkpt lat="47.87051" lon="-1.69874">
        <ele>95.79</ele>
        <time>2014-04-13T06:29:14Z</time>
      </trkpt>
      <trkpt lat="47.87056" lon="-1.69869">
        <ele>95.31</ele>
        <time>2014-04-13T06:29:15Z</time>
      </trkpt>
      <trkpt lat="47.87059" lon="-1.69862">
        <ele>94.83</ele>
        <time>2014-04-13T06:29:16Z</time>
      </trkpt>
      <trkpt lat="47.87062" lon="-1.69854">
        <ele>95.79</ele>
        <time>2014-04-13T06:29:17Z</time>
      </trkpt>
      <trkpt lat="47.87063" lon="-1.69846">
        <ele>94.35</ele>
        <time>2014-04-13T06:29:18Z</time>
      </trkpt>
      <trkpt lat="47.87066" lon="-1.6983">
        <ele>92.9</ele>
        <time>2014-04-13T06:29:20Z</time>
      </trkpt>
      <trkpt lat="47.8707" lon="-1.69803">
        <ele>90.5</ele>
        <time>2014-04-13T06:29:23Z</time>
      </trkpt>
      <trkpt lat="47.87081" lon="-1.69762">
        <ele>88.1</ele>
        <time>2014-04-13T06:29:27Z</time>
      </trkpt>
      <trkpt lat="47.87086" lon="-1.69753">
        <ele>87.14</ele>
        <time>2014-04-13T06:29:28Z</time>
      </trkpt>
      <trkpt lat="47.87091" lon="-1.69744">
        <ele>86.18</ele>
        <time>2014-04-13T06:29:29Z</time>
      </trkpt>
      <trkpt lat="47.87097" lon="-1.69735">
        <ele>85.69</ele>
        <time>2014-04-13T06:29:30Z</time>
      </trkpt>
      <trkpt lat="47.87103" lon="-1.69726">
        <ele>84.73</ele>
        <time>2014-04-13T06:29:31Z</time>
      </trkpt>
      <trkpt lat="47.87117" lon="-1.69703">
        <ele>82.33</ele>
        <time>2014-04-13T06:29:34Z</time>
      </trkpt>
      <trkpt lat="47.8713" lon="-1.69686">
        <ele>79.93</ele>
        <time>2014-04-13T06:29:37Z</time>
      </trkpt>
      <trkpt lat="47.87135" lon="-1.69683">
        <ele>79.45</ele>
        <time>2014-04-13T06:29:38Z</time>
      </trkpt>
      <trkpt lat="47.87141" lon="-1.6968">
        <ele>78.48</ele>
        <time>2014-04-13T06:29:39Z</time>
      </trkpt>
      <trkpt lat="47.87149" lon="-1.69675">
        <ele>78</ele>
        <time>2014-04-13T06:29:40Z</time>
      </trkpt>
      <trkpt lat="47.87155" lon="-1.6967">
        <ele>77.04</ele>
        <time>2014-04-13T06:29:41Z</time>
      </trkpt>
      <trkpt lat="47.87167" lon="-1.6966">
        <ele>75.12</ele>
        <time>2014-04-13T06:29:43Z</time>
      </trkpt>
      <trkpt lat="47.87171" lon="-1.69656">
        <ele>74.16</ele>
        <time>2014-04-13T06:29:44Z</time>
      </trkpt>
      <trkpt lat="47.87177" lon="-1.69654">
        <ele>72.72</ele>
        <time>2014-04-13T06:29:45Z</time>
      </trkpt>
      <trkpt lat="47.87183" lon="-1.69654">
        <ele>72.24</ele>
        <time>2014-04-13T06:29:46Z</time>
      </trkpt>
      <trkpt lat="47.87189" lon="-1.69654">
        <ele>71.76</ele>
        <time>2014-04-13T06:29:47Z</time>
      </trkpt>
      <trkpt lat="47.87195" lon="-1.69658">
        <ele>70.79</ele>
        <time>2014-04-13T06:29:48Z</time>
      </trkpt>
      <trkpt lat="47.87202" lon="-1.69662">
        <ele>70.31</ele>
        <time>2014-04-13T06:29:49Z</time>
      </trkpt>
      <trkpt lat="47.87208" lon="-1.69667">
        <ele>69.83</ele>
        <time>2014-04-13T06:29:50Z</time>
      </trkpt>
      <trkpt lat="47.87215" lon="-1.69672">
        <ele>69.35</ele>
        <time>2014-04-13T06:29:51Z</time>
      </trkpt>
      <trkpt lat="47.87221" lon="-1.69678">
        <ele>68.87</ele>
        <time>2014-04-13T06:29:52Z</time>
      </trkpt>
      <trkpt lat="47.87226" lon="-1.69685">
        <ele>68.39</ele>
        <time>2014-04-13T06:29:53Z</time>
      </trkpt>
      <trkpt lat="47.87232" lon="-1.69692">
        <ele>67.91</ele>
        <time>2014-04-13T06:29:54Z</time>
      </trkpt>
      <trkpt lat="47.87237" lon="-1.69701">
        <ele>67.43</ele>
        <time>2014-04-13T06:29:55Z</time>
      </trkpt>
      <trkpt lat="47.87241" lon="-1.6971">
        <ele>66.47</ele>
        <time>2014-04-13T06:29:56Z</time>
      </trkpt>
      <trkpt lat="47.87245" lon="-1.6972">
        <ele>66.47</ele>
        <time>2014-04-13T06:29:57Z</time>
      </trkpt>
      <trkpt lat="47.87247" lon="-1.69731">
        <ele>66.47</ele>
        <time>2014-04-13T06:29:58Z</time>
      </trkpt>
      <trkpt lat="47.87248" lon="-1.69741">
        <ele>65.99</ele>
        <time>2014-04-13T06:29:59Z</time>
      </trkpt>
      <trkpt lat="47.87248" lon="-1.6975">
        <ele>65.99</ele>
        <time>2014-04-13T06:30:00Z</time>
      </trkpt>
      <trkpt lat="47.87249" lon="-1.6976">
        <ele>66.47</ele>
        <time>2014-04-13T06:30:01Z</time>
      </trkpt>
      <trkpt lat="47.87251" lon="-1.69777">
        <ele>65.99</ele>
        <time>2014-04-13T06:30:03Z</time>
      </trkpt>
      <trkpt lat="47.87253" lon="-1.69785">
        <ele>65.99</ele>
        <time>2014-04-13T06:30:04Z</time>
      </trkpt>
      <trkpt lat="47.87253" lon="-1.69794">
        <ele>65.51</ele>
        <time>2014-04-13T06:30:05Z</time>
      </trkpt>
      <trkpt lat="47.87252" lon="-1.69808">
        <ele>65.99</ele>
        <time>2014-04-13T06:30:07Z</time>
      </trkpt>
      <trkpt lat="47.87252" lon="-1.69815">
        <ele>66.47</ele>
        <time>2014-04-13T06:30:08Z</time>
      </trkpt>
      <trkpt lat="47.87247" lon="-1.69876">
        <ele>69.35</ele>
        <time>2014-04-13T06:30:19Z</time>
      </trkpt>
      <trkpt lat="47.87249" lon="-1.6995">
        <ele>72.72</ele>
        <time>2014-04-13T06:30:33Z</time>
      </trkpt>
      <trkpt lat="47.87249" lon="-1.70002">
        <ele>76.08</ele>
        <time>2014-04-13T06:30:44Z</time>
      </trkpt>
      <trkpt lat="47.8725" lon="-1.70042">
        <ele>78.48</ele>
        <time>2014-04-13T06:30:53Z</time>
      </trkpt>
      <trkpt lat="47.8725" lon="-1.70047">
        <ele>78.97</ele>
        <time>2014-04-13T06:30:54Z</time>
      </trkpt>
      <trkpt lat="47.87249" lon="-1.70051">
        <ele>78.97</ele>
        <time>2014-04-13T06:30:55Z</time>
      </trkpt>
      <trkpt lat="47.87249" lon="-1.70055">
        <ele>79.45</ele>
        <time>2014-04-13T06:30:56Z</time>
      </trkpt>
      <trkpt lat="47.87248" lon="-1.7006">
        <ele>79.93</ele>
        <time>2014-04-13T06:30:57Z</time>
      </trkpt>
      <trkpt lat="47.87247" lon="-1.70064">
        <ele>79.93</ele>
        <time>2014-04-13T06:30:58Z</time>
      </trkpt>
      <trkpt lat="47.87246" lon="-1.70068">
        <ele>80.41</ele>
        <time>2014-04-13T06:30:59Z</time>
      </trkpt>
      <trkpt lat="47.87246" lon="-1.70072">
        <ele>80.89</ele>
        <time>2014-04-13T06:31:00Z</time>
      </trkpt>
      <trkpt lat="47.87246" lon="-1.70076">
        <ele>80.89</ele>
        <time>2014-04-13T06:31:01Z</time>
      </trkpt>
      <trkpt lat="47.87246" lon="-1.70081">
        <ele>81.37</ele>
        <time>2014-04-13T06:31:02Z</time>
      </trkpt>
      <trkpt lat="47.87246" lon="-1.70085">
        <ele>81.37</ele>
        <time>2014-04-13T06:31:03Z</time>
      </trkpt>
      <trkpt lat="47.87247" lon="-1.70089">
        <ele>81.85</ele>
        <time>2014-04-13T06:31:04Z</time>
      </trkpt>
      <trkpt lat="47.87258" lon="-1.70129">
        <ele>82.81</ele>
        <time>2014-04-13T06:31:12Z</time>
      </trkpt>
      <trkpt lat="47.87259" lon="-1.70135">
        <ele>82.81</ele>
        <time>2014-04-13T06:31:13Z</time>
      </trkpt>
      <trkpt lat="47.8726" lon="-1.70141">
        <ele>82.81</ele>
        <time>2014-04-13T06:31:14Z</time>
      </trkpt>
      <trkpt lat="47.87275" lon="-1.702">
        <ele>83.77</ele>
        <time>2014-04-13T06:31:25Z</time>
      </trkpt>
      <trkpt lat="47.87291" lon="-1.70266">
        <ele>84.25</ele>
        <time>2014-04-13T06:31:36Z</time>
      </trkpt>
      <trkpt lat="47.87296" lon="-1.70285">
        <ele>84.25</ele>
        <time>2014-04-13T06:31:39Z</time>
      </trkpt>
      <trkpt lat="47.873" lon="-1.70304">
        <ele>83.77</ele>
        <time>2014-04-13T06:31:42Z</time>
      </trkpt>
      <trkpt lat="47.87308" lon="-1.70377">
        <ele>84.73</ele>
        <time>2014-04-13T06:31:55Z</time>
      </trkpt>
      <trkpt lat="47.87307" lon="-1.70387">
        <ele>84.25</ele>
        <time>2014-04-13T06:31:57Z</time>
      </trkpt>
      <trkpt lat="47.873" lon="-1.70394">
        <ele>84.73</ele>
        <time>2014-04-13T06:32:01Z</time>
      </trkpt>
      <trkpt lat="47.87294" lon="-1.70394">
        <ele>86.18</ele>
        <time>2014-04-13T06:32:05Z</time>
      </trkpt>
      <trkpt lat="47.87272" lon="-1.70375">
        <ele>88.58</ele>
        <time>2014-04-13T06:32:17Z</time>
      </trkpt>
      <trkpt lat="47.87254" lon="-1.70367">
        <ele>90.02</ele>
        <time>2014-04-13T06:32:24Z</time>
      </trkpt>
      <trkpt lat="47.87219" lon="-1.70351">
        <ele>91.46</ele>
        <time>2014-04-13T06:32:35Z</time>
      </trkpt>
      <trkpt lat="47.87179" lon="-1.70339">
        <ele>91.94</ele>
        <time>2014-04-13T06:32:46Z</time>
      </trkpt>
      <trkpt lat="47.87126" lon="-1.70333">
        <ele>93.39</ele>
        <time>2014-04-13T06:33:00Z</time>
      </trkpt>
      <trkpt lat="47.87085" lon="-1.70319">
        <ele>94.35</ele>
        <time>2014-04-13T06:33:12Z</time>
      </trkpt>
      <trkpt lat="47.87026" lon="-1.70293">
        <ele>94.35</ele>
        <time>2014-04-13T06:33:27Z</time>
      </trkpt>
      <trkpt lat="47.87011" lon="-1.70285">
        <ele>94.35</ele>
        <time>2014-04-13T06:33:31Z</time>
      </trkpt>
      <trkpt lat="47.8697" lon="-1.70266">
        <ele>94.35</ele>
        <time>2014-04-13T06:33:41Z</time>
      </trkpt>
      <trkpt lat="47.86944" lon="-1.70238">
        <ele>94.35</ele>
        <time>2014-04-13T06:33:49Z</time>
      </trkpt>
      <trkpt lat="47.86918" lon="-1.70194">
        <ele>93.87</ele>
        <time>2014-04-13T06:33:59Z</time>
      </trkpt>
      <trkpt lat="47.86906" lon="-1.7018">
        <ele>94.35</ele>
        <time>2014-04-13T06:34:02Z</time>
      </trkpt>
      <trkpt lat="47.86871" lon="-1.7014">
        <ele>93.39</ele>
        <time>2014-04-13T06:34:12Z</time>
      </trkpt>
      <trkpt lat="47.86849" lon="-1.70104">
        <ele>92.42</ele>
        <time>2014-04-13T06:34:18Z</time>
      </trkpt>
      <trkpt lat="47.86832" lon="-1.7008">
        <ele>90.98</ele>
        <time>2014-04-13T06:34:22Z</time>
      </trkpt>
      <trkpt lat="47.86827" lon="-1.70077">
        <ele>90.98</ele>
        <time>2014-04-13T06:34:23Z</time>
      </trkpt>
      <trkpt lat="47.86823" lon="-1.70078">
        <ele>90.5</ele>
        <time>2014-04-13T06:34:24Z</time>
      </trkpt>
      <trkpt lat="47.86819" lon="-1.7008">
        <ele>90.5</ele>
        <time>2014-04-13T06:34:25Z</time>
      </trkpt>
      <trkpt lat="47.86816" lon="-1.70084">
        <ele>90.5</ele>
        <time>2014-04-13T06:34:26Z</time>
      </trkpt>
      <trkpt lat="47.86812" lon="-1.70088">
        <ele>90.5</ele>
        <time>2014-04-13T06:34:27Z</time>
      </trkpt>
      <trkpt lat="47.86774" lon="-1.7014">
        <ele>89.06</ele>
        <time>2014-04-13T06:34:36Z</time>
      </trkpt>
      <trkpt lat="47.86769" lon="-1.70146">
        <ele>88.58</ele>
        <time>2014-04-13T06:34:37Z</time>
      </trkpt>
      <trkpt lat="47.86741" lon="-1.70187">
        <ele>87.62</ele>
        <time>2014-04-13T06:34:44Z</time>
      </trkpt>
      <trkpt lat="47.86738" lon="-1.70193">
        <ele>87.14</ele>
        <time>2014-04-13T06:34:45Z</time>
      </trkpt>
      <trkpt lat="47.86735" lon="-1.70199">
        <ele>87.14</ele>
        <time>2014-04-13T06:34:46Z</time>
      </trkpt>
      <trkpt lat="47.86733" lon="-1.70207">
        <ele>87.14</ele>
        <time>2014-04-13T06:34:47Z</time>
      </trkpt>
      <trkpt lat="47.86732" lon="-1.70215">
        <ele>87.14</ele>
        <time>2014-04-13T06:34:48Z</time>
      </trkpt>
      <trkpt lat="47.86732" lon="-1.70222">
        <ele>87.62</ele>
        <time>2014-04-13T06:34:49Z</time>
      </trkpt>
      <trkpt lat="47.86732" lon="-1.70272">
        <ele>89.54</ele>
        <time>2014-04-13T06:34:57Z</time>
      </trkpt>
      <trkpt lat="47.86723" lon="-1.70318">
        <ele>91.46</ele>
        <time>2014-04-13T06:35:05Z</time>
      </trkpt>
      <trkpt lat="47.86718" lon="-1.70337">
        <ele>91.46</ele>
        <time>2014-04-13T06:35:08Z</time>
      </trkpt>
      <trkpt lat="47.86697" lon="-1.70406">
        <ele>92.9</ele>
        <time>2014-04-13T06:35:18Z</time>
      </trkpt>
      <trkpt lat="47.86695" lon="-1.70412">
        <ele>92.9</ele>
        <time>2014-04-13T06:35:19Z</time>
      </trkpt>
      <trkpt lat="47.86693" lon="-1.7042">
        <ele>92.9</ele>
        <time>2014-04-13T06:35:20Z</time>
      </trkpt>
      <trkpt lat="47.86691" lon="-1.70427">
        <ele>92.9</ele>
        <time>2014-04-13T06:35:21Z</time>
      </trkpt>
      <trkpt lat="47.86689" lon="-1.70435">
        <ele>92.9</ele>
        <time>2014-04-13T06:35:22Z</time>
      </trkpt>
      <trkpt lat="47.86662" lon="-1.70531">
        <ele>90.98</ele>
        <time>2014-04-13T06:35:33Z</time>
      </trkpt>
      <trkpt lat="47.8666" lon="-1.70541">
        <ele>90.5</ele>
        <time>2014-04-13T06:35:34Z</time>
      </trkpt>
      <trkpt lat="47.8666" lon="-1.70551">
        <ele>90.02</ele>
        <time>2014-04-13T06:35:35Z</time>
      </trkpt>
      <trkpt lat="47.86662" lon="-1.7056">
        <ele>90.02</ele>
        <time>2014-04-13T06:35:36Z</time>
      </trkpt>
      <trkpt lat="47.86665" lon="-1.70568">
        <ele>90.02</ele>
        <time>2014-04-13T06:35:37Z</time>
      </trkpt>
      <trkpt lat="47.86667" lon="-1.70576">
        <ele>90.98</ele>
        <time>2014-04-13T06:35:38Z</time>
      </trkpt>
      <trkpt lat="47.86683" lon="-1.7062">
        <ele>92.42</ele>
        <time>2014-04-13T06:35:45Z</time>
      </trkpt>
      <trkpt lat="47.86685" lon="-1.70626">
        <ele>92.42</ele>
        <time>2014-04-13T06:35:46Z</time>
      </trkpt>
      <trkpt lat="47.86688" lon="-1.70632">
        <ele>92.9</ele>
        <time>2014-04-13T06:35:47Z</time>
      </trkpt>
      <trkpt lat="47.8669" lon="-1.70639">
        <ele>92.9</ele>
        <time>2014-04-13T06:35:48Z</time>
      </trkpt>
      <trkpt lat="47.86692" lon="-1.70645">
        <ele>92.9</ele>
        <time>2014-04-13T06:35:49Z</time>
      </trkpt>
      <trkpt lat="47.86703" lon="-1.70681">
        <ele>92.9</ele>
        <time>2014-04-13T06:35:54Z</time>
      </trkpt>
      <trkpt lat="47.86705" lon="-1.70706">
        <ele>92.42</ele>
        <time>2014-04-13T06:35:57Z</time>
      </trkpt>
      <trkpt lat="47.86705" lon="-1.70726">
        <ele>91.46</ele>
        <time>2014-04-13T06:35:59Z</time>
      </trkpt>
      <trkpt lat="47.86707" lon="-1.70745">
        <ele>90.5</ele>
        <time>2014-04-13T06:36:01Z</time>
      </trkpt>
      <trkpt lat="47.86711" lon="-1.70752">
        <ele>90.02</ele>
        <time>2014-04-13T06:36:02Z</time>
      </trkpt>
      <trkpt lat="47.86716" lon="-1.70757">
        <ele>90.02</ele>
        <time>2014-04-13T06:36:03Z</time>
      </trkpt>
      <trkpt lat="47.86722" lon="-1.70759">
        <ele>89.54</ele>
        <time>2014-04-13T06:36:04Z</time>
      </trkpt>
      <trkpt lat="47.86728" lon="-1.70761">
        <ele>89.06</ele>
        <time>2014-04-13T06:36:05Z</time>
      </trkpt>
      <trkpt lat="47.86734" lon="-1.70763">
        <ele>88.58</ele>
        <time>2014-04-13T06:36:06Z</time>
      </trkpt>
      <trkpt lat="47.8674" lon="-1.70765">
        <ele>88.58</ele>
        <time>2014-04-13T06:36:07Z</time>
      </trkpt>
      <trkpt lat="47.86745" lon="-1.70769">
        <ele>88.1</ele>
        <time>2014-04-13T06:36:08Z</time>
      </trkpt>
      <trkpt lat="47.86749" lon="-1.70774">
        <ele>87.62</ele>
        <time>2014-04-13T06:36:09Z</time>
      </trkpt>
      <trkpt lat="47.86752" lon="-1.70778">
        <ele>87.14</ele>
        <time>2014-04-13T06:36:10Z</time>
      </trkpt>
      <trkpt lat="47.86753" lon="-1.70784">
        <ele>87.14</ele>
        <time>2014-04-13T06:36:11Z</time>
      </trkpt>
      <trkpt lat="47.86752" lon="-1.70792">
        <ele>86.66</ele>
        <time>2014-04-13T06:36:12Z</time>
      </trkpt>
      <trkpt lat="47.8675" lon="-1.70799">
        <ele>86.18</ele>
        <time>2014-04-13T06:36:13Z</time>
      </trkpt>
      <trkpt lat="47.86748" lon="-1.70807">
        <ele>86.18</ele>
        <time>2014-04-13T06:36:14Z</time>
      </trkpt>
      <trkpt lat="47.86747" lon="-1.70816">
        <ele>85.69</ele>
        <time>2014-04-13T06:36:15Z</time>
      </trkpt>
      <trkpt lat="47.86745" lon="-1.70825">
        <ele>85.21</ele>
        <time>2014-04-13T06:36:16Z</time>
      </trkpt>
      <trkpt lat="47.86743" lon="-1.70834">
        <ele>84.73</ele>
        <time>2014-04-13T06:36:17Z</time>
      </trkpt>
      <trkpt lat="47.86741" lon="-1.70844">
        <ele>84.25</ele>
        <time>2014-04-13T06:36:18Z</time>
      </trkpt>
      <trkpt lat="47.86738" lon="-1.70854">
        <ele>83.77</ele>
        <time>2014-04-13T06:36:19Z</time>
      </trkpt>
      <trkpt lat="47.86726" lon="-1.70913">
        <ele>80.41</ele>
        <time>2014-04-13T06:36:25Z</time>
      </trkpt>
      <trkpt lat="47.86722" lon="-1.70932">
        <ele>79.93</ele>
        <time>2014-04-13T06:36:27Z</time>
      </trkpt>
      <trkpt lat="47.86712" lon="-1.70996">
        <ele>76.56</ele>
        <time>2014-04-13T06:36:35Z</time>
      </trkpt>
      <trkpt lat="47.867" lon="-1.71008">
        <ele>75.6</ele>
        <time>2014-04-13T06:36:39Z</time>
      </trkpt>
      <trkpt lat="47.86675" lon="-1.71008">
        <ele>74.16</ele>
        <time>2014-04-13T06:36:45Z</time>
      </trkpt>
      <trkpt lat="47.86654" lon="-1.71018">
        <ele>71.27</ele>
        <time>2014-04-13T06:36:50Z</time>
      </trkpt>
      <trkpt lat="47.86649" lon="-1.71027">
        <ele>69.35</ele>
        <time>2014-04-13T06:36:53Z</time>
      </trkpt>
      <trkpt lat="47.86649" lon="-1.71042">
        <ele>69.35</ele>
        <time>2014-04-13T06:36:56Z</time>
      </trkpt>
      <trkpt lat="47.86648" lon="-1.71062">
        <ele>69.35</ele>
        <time>2014-04-13T06:37:00Z</time>
      </trkpt>
      <trkpt lat="47.86627" lon="-1.71084">
        <ele>71.76</ele>
        <time>2014-04-13T06:37:09Z</time>
      </trkpt>
      <trkpt lat="47.8661" lon="-1.71087">
        <ele>75.6</ele>
        <time>2014-04-13T06:37:17Z</time>
      </trkpt>
      <trkpt lat="47.86596" lon="-1.71082">
        <ele>77.52</ele>
        <time>2014-04-13T06:37:26Z</time>
      </trkpt>
      <trkpt lat="47.86591" lon="-1.71082">
        <ele>78.48</ele>
        <time>2014-04-13T06:37:28Z</time>
      </trkpt>
      <trkpt lat="47.86584" lon="-1.71092">
        <ele>80.89</ele>
        <time>2014-04-13T06:37:34Z</time>
      </trkpt>
      <trkpt lat="47.86583" lon="-1.71097">
        <ele>81.37</ele>
        <time>2014-04-13T06:37:37Z</time>
      </trkpt>
      <trkpt lat="47.86583" lon="-1.71111">
        <ele>83.77</ele>
        <time>2014-04-13T06:37:43Z</time>
      </trkpt>
      <trkpt lat="47.86583" lon="-1.71116">
        <ele>84.25</ele>
        <time>2014-04-13T06:37:45Z</time>
      </trkpt>
      <trkpt lat="47.8658" lon="-1.71129">
        <ele>85.69</ele>
        <time>2014-04-13T06:37:50Z</time>
      </trkpt>
      <trkpt lat="47.86578" lon="-1.71146">
        <ele>87.14</ele>
        <time>2014-04-13T06:37:55Z</time>
      </trkpt>
      <trkpt lat="47.86578" lon="-1.71159">
        <ele>87.62</ele>
        <time>2014-04-13T06:38:00Z</time>
      </trkpt>
      <trkpt lat="47.86581" lon="-1.71172">
        <ele>87.62</ele>
        <time>2014-04-13T06:38:03Z</time>
      </trkpt>
      <trkpt lat="47.86581" lon="-1.71182">
        <ele>88.1</ele>
        <time>2014-04-13T06:38:05Z</time>
      </trkpt>
      <trkpt lat="47.86576" lon="-1.71205">
        <ele>89.06</ele>
        <time>2014-04-13T06:38:11Z</time>
      </trkpt>
      <trkpt lat="47.86575" lon="-1.7123">
        <ele>90.02</ele>
        <time>2014-04-13T06:38:17Z</time>
      </trkpt>
      <trkpt lat="47.86568" lon="-1.71236">
        <ele>91.46</ele>
        <time>2014-04-13T06:38:22Z</time>
      </trkpt>
      <trkpt lat="47.86544" lon="-1.71228">
        <ele>94.35</ele>
        <time>2014-04-13T06:38:33Z</time>
      </trkpt>
      <trkpt lat="47.86518" lon="-1.71238">
        <ele>96.27</ele>
        <time>2014-04-13T06:38:44Z</time>
      </trkpt>
      <trkpt lat="47.8648" lon="-1.71251">
        <ele>94.83</ele>
        <time>2014-04-13T06:38:55Z</time>
      </trkpt>
      <trkpt lat="47.86475" lon="-1.71251">
        <ele>94.83</ele>
        <time>2014-04-13T06:38:56Z</time>
      </trkpt>
      <trkpt lat="47.8647" lon="-1.71252">
        <ele>94.83</ele>
        <time>2014-04-13T06:38:57Z</time>
      </trkpt>
      <trkpt lat="47.86431" lon="-1.71245">
        <ele>91.46</ele>
        <time>2014-04-13T06:39:05Z</time>
      </trkpt>
      <trkpt lat="47.86424" lon="-1.71243">
        <ele>91.46</ele>
        <time>2014-04-13T06:39:06Z</time>
      </trkpt>
      <trkpt lat="47.86404" lon="-1.71238">
        <ele>90.02</ele>
        <time>2014-04-13T06:39:09Z</time>
      </trkpt>
      <trkpt lat="47.86387" lon="-1.71237">
        <ele>89.54</ele>
        <time>2014-04-13T06:39:12Z</time>
      </trkpt>
      <trkpt lat="47.86375" lon="-1.7124">
        <ele>88.58</ele>
        <time>2014-04-13T06:39:14Z</time>
      </trkpt>
      <trkpt lat="47.86331" lon="-1.71252">
        <ele>86.18</ele>
        <time>2014-04-13T06:39:21Z</time>
      </trkpt>
      <trkpt lat="47.86316" lon="-1.71259">
        <ele>84.73</ele>
        <time>2014-04-13T06:39:24Z</time>
      </trkpt>
      <trkpt lat="47.86311" lon="-1.71262">
        <ele>84.73</ele>
        <time>2014-04-13T06:39:25Z</time>
      </trkpt>
      <trkpt lat="47.86306" lon="-1.71264">
        <ele>84.25</ele>
        <time>2014-04-13T06:39:26Z</time>
      </trkpt>
      <trkpt lat="47.86296" lon="-1.71271">
        <ele>84.25</ele>
        <time>2014-04-13T06:39:28Z</time>
      </trkpt>
      <trkpt lat="47.86291" lon="-1.71274">
        <ele>84.25</ele>
        <time>2014-04-13T06:39:29Z</time>
      </trkpt>
      <trkpt lat="47.86286" lon="-1.71277">
        <ele>83.77</ele>
        <time>2014-04-13T06:39:30Z</time>
      </trkpt>
      <trkpt lat="47.86239" lon="-1.71304">
        <ele>81.37</ele>
        <time>2014-04-13T06:39:39Z</time>
      </trkpt>
      <trkpt lat="47.86234" lon="-1.71307">
        <ele>80.89</ele>
        <time>2014-04-13T06:39:40Z</time>
      </trkpt>
      <trkpt lat="47.86229" lon="-1.71308">
        <ele>80.41</ele>
        <time>2014-04-13T06:39:41Z</time>
      </trkpt>
      <trkpt lat="47.86224" lon="-1.71307">
        <ele>79.93</ele>
        <time>2014-04-13T06:39:42Z</time>
      </trkpt>
      <trkpt lat="47.86221" lon="-1.71306">
        <ele>79.45</ele>
        <time>2014-04-13T06:39:43Z</time>
      </trkpt>
      <trkpt lat="47.86217" lon="-1.71306">
        <ele>79.45</ele>
        <time>2014-04-13T06:39:44Z</time>
      </trkpt>
      <trkpt lat="47.86214" lon="-1.71308">
        <ele>78.97</ele>
        <time>2014-04-13T06:39:45Z</time>
      </trkpt>
      <trkpt lat="47.86213" lon="-1.71312">
        <ele>78.48</ele>
        <time>2014-04-13T06:39:46Z</time>
      </trkpt>
      <trkpt lat="47.86212" lon="-1.71318">
        <ele>78.97</ele>
        <time>2014-04-13T06:39:47Z</time>
      </trkpt>
      <trkpt lat="47.86211" lon="-1.71323">
        <ele>78.97</ele>
        <time>2014-04-13T06:39:48Z</time>
      </trkpt>
      <trkpt lat="47.86211" lon="-1.71329">
        <ele>78.97</ele>
        <time>2014-04-13T06:39:49Z</time>
      </trkpt>
      <trkpt lat="47.86211" lon="-1.71334">
        <ele>78.97</ele>
        <time>2014-04-13T06:39:50Z</time>
      </trkpt>
      <trkpt lat="47.86209" lon="-1.71358">
        <ele>79.45</ele>
        <time>2014-04-13T06:39:54Z</time>
      </trkpt>
      <trkpt lat="47.86201" lon="-1.71412">
        <ele>80.41</ele>
        <time>2014-04-13T06:40:04Z</time>
      </trkpt>
      <trkpt lat="47.86197" lon="-1.71461">
        <ele>82.33</ele>
        <time>2014-04-13T06:40:14Z</time>
      </trkpt>
      <trkpt lat="47.86203" lon="-1.71499">
        <ele>84.25</ele>
        <time>2014-04-13T06:40:22Z</time>
      </trkpt>
      <trkpt lat="47.86204" lon="-1.71502">
        <ele>84.73</ele>
        <time>2014-04-13T06:40:23Z</time>
      </trkpt>
      <trkpt lat="47.86205" lon="-1.71506">
        <ele>84.73</ele>
        <time>2014-04-13T06:40:24Z</time>
      </trkpt>
      <trkpt lat="47.86207" lon="-1.7151">
        <ele>84.73</ele>
        <time>2014-04-13T06:40:25Z</time>
      </trkpt>
      <trkpt lat="47.86208" lon="-1.71514">
        <ele>85.21</ele>
        <time>2014-04-13T06:40:26Z</time>
      </trkpt>
      <trkpt lat="47.86209" lon="-1.71518">
        <ele>85.21</ele>
        <time>2014-04-13T06:40:27Z</time>
      </trkpt>
      <trkpt lat="47.86209" lon="-1.71522">
        <ele>85.69</ele>
        <time>2014-04-13T06:40:28Z</time>
      </trkpt>
      <trkpt lat="47.8621" lon="-1.71527">
        <ele>86.18</ele>
        <time>2014-04-13T06:40:29Z</time>
      </trkpt>
      <trkpt lat="47.8621" lon="-1.71531">
        <ele>86.18</ele>
        <time>2014-04-13T06:40:30Z</time>
      </trkpt>
      <trkpt lat="47.86214" lon="-1.71574">
        <ele>89.06</ele>
        <time>2014-04-13T06:40:41Z</time>
      </trkpt>
      <trkpt lat="47.86217" lon="-1.71596">
        <ele>90.98</ele>
        <time>2014-04-13T06:40:47Z</time>
      </trkpt>
      <trkpt lat="47.86217" lon="-1.716">
        <ele>90.98</ele>
        <time>2014-04-13T06:40:48Z</time>
      </trkpt>
      <trkpt lat="47.86217" lon="-1.71603">
        <ele>91.46</ele>
        <time>2014-04-13T06:40:49Z</time>
      </trkpt>
      <trkpt lat="47.8622" lon="-1.71618">
        <ele>92.42</ele>
        <time>2014-04-13T06:40:53Z</time>
      </trkpt>
      <trkpt lat="47.86221" lon="-1.71621">
        <ele>92.42</ele>
        <time>2014-04-13T06:40:54Z</time>
      </trkpt>
      <trkpt lat="47.86222" lon="-1.71626">
        <ele>92.9</ele>
        <time>2014-04-13T06:40:55Z</time>
      </trkpt>
      <trkpt lat="47.86222" lon="-1.7163">
        <ele>92.9</ele>
        <time>2014-04-13T06:40:56Z</time>
      </trkpt>
      <trkpt lat="47.86223" lon="-1.71634">
        <ele>93.39</ele>
        <time>2014-04-13T06:40:57Z</time>
      </trkpt>
      <trkpt lat="47.86223" lon="-1.71638">
        <ele>93.39</ele>
        <time>2014-04-13T06:40:58Z</time>
      </trkpt>
      <trkpt lat="47.86224" lon="-1.71642">
        <ele>93.39</ele>
        <time>2014-04-13T06:40:59Z</time>
      </trkpt>
      <trkpt lat="47.86235" lon="-1.71686">
        <ele>96.75</ele>
        <time>2014-04-13T06:41:11Z</time>
      </trkpt>
      <trkpt lat="47.86244" lon="-1.7173">
        <ele>98.67</ele>
        <time>2014-04-13T06:41:22Z</time>
      </trkpt>
      <trkpt lat="47.86252" lon="-1.71776">
        <ele>100.6</ele>
        <time>2014-04-13T06:41:33Z</time>
      </trkpt>
      <trkpt lat="47.86263" lon="-1.71834">
        <ele>101.56</ele>
        <time>2014-04-13T06:41:45Z</time>
      </trkpt>
      <trkpt lat="47.86274" lon="-1.7189">
        <ele>102.04</ele>
        <time>2014-04-13T06:41:56Z</time>
      </trkpt>
      <trkpt lat="47.86286" lon="-1.71951">
        <ele>102.04</ele>
        <time>2014-04-13T06:42:06Z</time>
      </trkpt>
      <trkpt lat="47.86287" lon="-1.71957">
        <ele>102.04</ele>
        <time>2014-04-13T06:42:07Z</time>
      </trkpt>
      <trkpt lat="47.86295" lon="-1.71998">
        <ele>101.56</ele>
        <time>2014-04-13T06:42:13Z</time>
      </trkpt>
      <trkpt lat="47.86296" lon="-1.72005">
        <ele>101.56</ele>
        <time>2014-04-13T06:42:14Z</time>
      </trkpt>
      <trkpt lat="47.86297" lon="-1.72012">
        <ele>101.56</ele>
        <time>2014-04-13T06:42:15Z</time>
      </trkpt>
      <trkpt lat="47.86301" lon="-1.72033">
        <ele>101.08</ele>
        <time>2014-04-13T06:42:18Z</time>
      </trkpt>
      <trkpt lat="47.86303" lon="-1.7204">
        <ele>101.08</ele>
        <time>2014-04-13T06:42:19Z</time>
      </trkpt>
      <trkpt lat="47.86308" lon="-1.72065">
        <ele>100.6</ele>
        <time>2014-04-13T06:42:23Z</time>
      </trkpt>
      <trkpt lat="47.86307" lon="-1.7208">
        <ele>100.6</ele>
        <time>2014-04-13T06:42:26Z</time>
      </trkpt>
      <trkpt lat="47.86306" lon="-1.72083">
        <ele>100.6</ele>
        <time>2014-04-13T06:42:27Z</time>
      </trkpt>
      <trkpt lat="47.86294" lon="-1.72101">
        <ele>99.15</ele>
        <time>2014-04-13T06:42:31Z</time>
      </trkpt>
      <trkpt lat="47.86273" lon="-1.72129">
        <ele>98.19</ele>
        <time>2014-04-13T06:42:36Z</time>
      </trkpt>
      <trkpt lat="47.86263" lon="-1.7214">
        <ele>97.23</ele>
        <time>2014-04-13T06:42:38Z</time>
      </trkpt>
      <trkpt lat="47.86236" lon="-1.72172">
        <ele>94.83</ele>
        <time>2014-04-13T06:42:43Z</time>
      </trkpt>
      <trkpt lat="47.862" lon="-1.72221">
        <ele>91.94</ele>
        <time>2014-04-13T06:42:50Z</time>
      </trkpt>
      <trkpt lat="47.8616" lon="-1.72272">
        <ele>88.58</ele>
        <time>2014-04-13T06:42:57Z</time>
      </trkpt>
      <trkpt lat="47.86094" lon="-1.72359">
        <ele>86.18</ele>
        <time>2014-04-13T06:43:10Z</time>
      </trkpt>
      <trkpt lat="47.86025" lon="-1.72455">
        <ele>82.81</ele>
        <time>2014-04-13T06:43:25Z</time>
      </trkpt>
      <trkpt lat="47.8595" lon="-1.72553">
        <ele>80.89</ele>
        <time>2014-04-13T06:43:41Z</time>
      </trkpt>
      <trkpt lat="47.85885" lon="-1.72639">
        <ele>81.85</ele>
        <time>2014-04-13T06:43:58Z</time>
      </trkpt>
      <trkpt lat="47.85866" lon="-1.7266">
        <ele>80.89</ele>
        <time>2014-04-13T06:44:02Z</time>
      </trkpt>
      <trkpt lat="47.85861" lon="-1.72664">
        <ele>80.41</ele>
        <time>2014-04-13T06:44:03Z</time>
      </trkpt>
      <trkpt lat="47.85856" lon="-1.72667">
        <ele>80.41</ele>
        <time>2014-04-13T06:44:04Z</time>
      </trkpt>
      <trkpt lat="47.8585" lon="-1.72668">
        <ele>80.41</ele>
        <time>2014-04-13T06:44:05Z</time>
      </trkpt>
      <trkpt lat="47.85845" lon="-1.72666">
        <ele>80.41</ele>
        <time>2014-04-13T06:44:06Z</time>
      </trkpt>
      <trkpt lat="47.8584" lon="-1.72663">
        <ele>80.41</ele>
        <time>2014-04-13T06:44:07Z</time>
      </trkpt>
      <trkpt lat="47.85793" lon="-1.72638">
        <ele>83.29</ele>
        <time>2014-04-13T06:44:19Z</time>
      </trkpt>
      <trkpt lat="47.85748" lon="-1.72629">
        <ele>86.18</ele>
        <time>2014-04-13T06:44:32Z</time>
      </trkpt>
      <trkpt lat="47.8573" lon="-1.72698">
        <ele>87.14</ele>
        <time>2014-04-13T06:44:45Z</time>
      </trkpt>
      <trkpt lat="47.85709" lon="-1.7278">
        <ele>89.06</ele>
        <time>2014-04-13T06:45:01Z</time>
      </trkpt>
      <trkpt lat="47.85685" lon="-1.72855">
        <ele>90.98</ele>
        <time>2014-04-13T06:45:17Z</time>
      </trkpt>
      <trkpt lat="47.85667" lon="-1.72907">
        <ele>92.42</ele>
        <time>2014-04-13T06:45:29Z</time>
      </trkpt>
      <trkpt lat="47.85639" lon="-1.72949">
        <ele>93.39</ele>
        <time>2014-04-13T06:45:40Z</time>
      </trkpt>
      <trkpt lat="47.85606" lon="-1.72992">
        <ele>94.83</ele>
        <time>2014-04-13T06:45:52Z</time>
      </trkpt>
      <trkpt lat="47.85563" lon="-1.73046">
        <ele>97.71</ele>
        <time>2014-04-13T06:46:08Z</time>
      </trkpt>
      <trkpt lat="47.85521" lon="-1.731">
        <ele>99.63</ele>
        <time>2014-04-13T06:46:24Z</time>
      </trkpt>
      <trkpt lat="47.85492" lon="-1.73136">
        <ele>102.04</ele>
        <time>2014-04-13T06:46:36Z</time>
      </trkpt>
      <trkpt lat="47.85478" lon="-1.73124">
        <ele>102.52</ele>
        <time>2014-04-13T06:46:41Z</time>
      </trkpt>
      <trkpt lat="47.85472" lon="-1.73115">
        <ele>102.52</ele>
        <time>2014-04-13T06:46:43Z</time>
      </trkpt>
      <trkpt lat="47.85425" lon="-1.73024">
        <ele>104.44</ele>
        <time>2014-04-13T06:47:00Z</time>
      </trkpt>
      <trkpt lat="47.85423" lon="-1.73018">
        <ele>104.92</ele>
        <time>2014-04-13T06:47:01Z</time>
      </trkpt>
      <trkpt lat="47.85408" lon="-1.72989">
        <ele>104.92</ele>
        <time>2014-04-13T06:47:06Z</time>
      </trkpt>
      <trkpt lat="47.85389" lon="-1.72952">
        <ele>105.4</ele>
        <time>2014-04-13T06:47:12Z</time>
      </trkpt>
      <trkpt lat="47.85383" lon="-1.7294">
        <ele>105.4</ele>
        <time>2014-04-13T06:47:14Z</time>
      </trkpt>
      <trkpt lat="47.8538" lon="-1.72938">
        <ele>105.4</ele>
        <time>2014-04-13T06:47:15Z</time>
      </trkpt>
      <trkpt lat="47.85376" lon="-1.7294">
        <ele>105.4</ele>
        <time>2014-04-13T06:47:16Z</time>
      </trkpt>
      <trkpt lat="47.85371" lon="-1.72943">
        <ele>105.4</ele>
        <time>2014-04-13T06:47:17Z</time>
      </trkpt>
      <trkpt lat="47.85368" lon="-1.72947">
        <ele>105.4</ele>
        <time>2014-04-13T06:47:18Z</time>
      </trkpt>
      <trkpt lat="47.85348" lon="-1.72967">
        <ele>104.92</ele>
        <time>2014-04-13T06:47:23Z</time>
      </trkpt>
      <trkpt lat="47.85318" lon="-1.73002">
        <ele>103.96</ele>
        <time>2014-04-13T06:47:30Z</time>
      </trkpt>
      <trkpt lat="47.85259" lon="-1.7307">
        <ele>101.56</ele>
        <time>2014-04-13T06:47:43Z</time>
      </trkpt>
      <trkpt lat="47.85255" lon="-1.73074">
        <ele>101.56</ele>
        <time>2014-04-13T06:47:44Z</time>
      </trkpt>
      <trkpt lat="47.85247" lon="-1.73082">
        <ele>101.56</ele>
        <time>2014-04-13T06:47:46Z</time>
      </trkpt>
      <trkpt lat="47.85243" lon="-1.73086">
        <ele>102.04</ele>
        <time>2014-04-13T06:47:47Z</time>
      </trkpt>
      <trkpt lat="47.85229" lon="-1.73101">
        <ele>102.04</ele>
        <time>2014-04-13T06:47:51Z</time>
      </trkpt>
      <trkpt lat="47.85221" lon="-1.73109">
        <ele>102.52</ele>
        <time>2014-04-13T06:47:53Z</time>
      </trkpt>
      <trkpt lat="47.85217" lon="-1.73113">
        <ele>102.52</ele>
        <time>2014-04-13T06:47:54Z</time>
      </trkpt>
      <trkpt lat="47.85213" lon="-1.73117">
        <ele>103</ele>
        <time>2014-04-13T06:47:55Z</time>
      </trkpt>
      <trkpt lat="47.85209" lon="-1.73122">
        <ele>103</ele>
        <time>2014-04-13T06:47:56Z</time>
      </trkpt>
      <trkpt lat="47.85206" lon="-1.73127">
        <ele>103</ele>
        <time>2014-04-13T06:47:57Z</time>
      </trkpt>
      <trkpt lat="47.85203" lon="-1.73131">
        <ele>103</ele>
        <time>2014-04-13T06:47:58Z</time>
      </trkpt>
      <trkpt lat="47.852" lon="-1.73135">
        <ele>103</ele>
        <time>2014-04-13T06:47:59Z</time>
      </trkpt>
      <trkpt lat="47.85196" lon="-1.73139">
        <ele>103.48</ele>
        <time>2014-04-13T06:48:00Z</time>
      </trkpt>
      <trkpt lat="47.85192" lon="-1.73143">
        <ele>103.96</ele>
        <time>2014-04-13T06:48:01Z</time>
      </trkpt>
      <trkpt lat="47.8516" lon="-1.73175">
        <ele>104.92</ele>
        <time>2014-04-13T06:48:10Z</time>
      </trkpt>
      <trkpt lat="47.85152" lon="-1.73184">
        <ele>104.92</ele>
        <time>2014-04-13T06:48:12Z</time>
      </trkpt>
      <trkpt lat="47.8513" lon="-1.73208">
        <ele>105.4</ele>
        <time>2014-04-13T06:48:18Z</time>
      </trkpt>
      <trkpt lat="47.85126" lon="-1.73213">
        <ele>105.4</ele>
        <time>2014-04-13T06:48:19Z</time>
      </trkpt>
      <trkpt lat="47.85123" lon="-1.73217">
        <ele>105.4</ele>
        <time>2014-04-13T06:48:20Z</time>
      </trkpt>
      <trkpt lat="47.85119" lon="-1.7322">
        <ele>105.4</ele>
        <time>2014-04-13T06:48:21Z</time>
      </trkpt>
      <trkpt lat="47.85116" lon="-1.73223">
        <ele>105.88</ele>
        <time>2014-04-13T06:48:22Z</time>
      </trkpt>
      <trkpt lat="47.85112" lon="-1.73228">
        <ele>105.88</ele>
        <time>2014-04-13T06:48:23Z</time>
      </trkpt>
      <trkpt lat="47.8508" lon="-1.73261">
        <ele>106.36</ele>
        <time>2014-04-13T06:48:31Z</time>
      </trkpt>
      <trkpt lat="47.8507" lon="-1.73272">
        <ele>106.36</ele>
        <time>2014-04-13T06:48:34Z</time>
      </trkpt>
      <trkpt lat="47.85031" lon="-1.73316">
        <ele>106.84</ele>
        <time>2014-04-13T06:48:46Z</time>
      </trkpt>
      <trkpt lat="47.8503" lon="-1.73321">
        <ele>106.84</ele>
        <time>2014-04-13T06:48:47Z</time>
      </trkpt>
      <trkpt lat="47.85032" lon="-1.73344">
        <ele>106.84</ele>
        <time>2014-04-13T06:48:52Z</time>
      </trkpt>
      <trkpt lat="47.85034" lon="-1.73348">
        <ele>106.84</ele>
        <time>2014-04-13T06:48:53Z</time>
      </trkpt>
      <trkpt lat="47.85035" lon="-1.73353">
        <ele>106.84</ele>
        <time>2014-04-13T06:48:54Z</time>
      </trkpt>
      <trkpt lat="47.85036" lon="-1.73358">
        <ele>106.84</ele>
        <time>2014-04-13T06:48:55Z</time>
      </trkpt>
      <trkpt lat="47.85036" lon="-1.73365">
        <ele>106.84</ele>
        <time>2014-04-13T06:48:56Z</time>
      </trkpt>
      <trkpt lat="47.85037" lon="-1.73371">
        <ele>106.84</ele>
        <time>2014-04-13T06:48:57Z</time>
      </trkpt>
      <trkpt lat="47.85038" lon="-1.73377">
        <ele>106.36</ele>
        <time>2014-04-13T06:48:58Z</time>
      </trkpt>
      <trkpt lat="47.85039" lon="-1.73383">
        <ele>106.36</ele>
        <time>2014-04-13T06:48:59Z</time>
      </trkpt>
      <trkpt lat="47.8504" lon="-1.7339">
        <ele>106.36</ele>
        <time>2014-04-13T06:49:00Z</time>
      </trkpt>
      <trkpt lat="47.8504" lon="-1.73397">
        <ele>106.36</ele>
        <time>2014-04-13T06:49:01Z</time>
      </trkpt>
      <trkpt lat="47.8504" lon="-1.73404">
        <ele>106.36</ele>
        <time>2014-04-13T06:49:02Z</time>
      </trkpt>
      <trkpt lat="47.8504" lon="-1.73412">
        <ele>105.88</ele>
        <time>2014-04-13T06:49:03Z</time>
      </trkpt>
      <trkpt lat="47.85041" lon="-1.73419">
        <ele>105.88</ele>
        <time>2014-04-13T06:49:04Z</time>
      </trkpt>
      <trkpt lat="47.85042" lon="-1.73427">
        <ele>105.88</ele>
        <time>2014-04-13T06:49:05Z</time>
      </trkpt>
      <trkpt lat="47.85042" lon="-1.73434">
        <ele>105.88</ele>
        <time>2014-04-13T06:49:06Z</time>
      </trkpt>
      <trkpt lat="47.85043" lon="-1.73442">
        <ele>105.4</ele>
        <time>2014-04-13T06:49:07Z</time>
      </trkpt>
      <trkpt lat="47.85042" lon="-1.7345">
        <ele>104.92</ele>
        <time>2014-04-13T06:49:08Z</time>
      </trkpt>
      <trkpt lat="47.85042" lon="-1.73458">
        <ele>104.92</ele>
        <time>2014-04-13T06:49:09Z</time>
      </trkpt>
      <trkpt lat="47.85043" lon="-1.73466">
        <ele>104.92</ele>
        <time>2014-04-13T06:49:10Z</time>
      </trkpt>
      <trkpt lat="47.85043" lon="-1.73475">
        <ele>104.44</ele>
        <time>2014-04-13T06:49:11Z</time>
      </trkpt>
      <trkpt lat="47.85043" lon="-1.73483">
        <ele>104.44</ele>
        <time>2014-04-13T06:49:12Z</time>
      </trkpt>
      <trkpt lat="47.85048" lon="-1.73545">
        <ele>101.08</ele>
        <time>2014-04-13T06:49:20Z</time>
      </trkpt>
      <trkpt lat="47.85049" lon="-1.73551">
        <ele>100.6</ele>
        <time>2014-04-13T06:49:21Z</time>
      </trkpt>
      <trkpt lat="47.85051" lon="-1.73556">
        <ele>100.11</ele>
        <time>2014-04-13T06:49:22Z</time>
      </trkpt>
      <trkpt lat="47.85053" lon="-1.73561">
        <ele>99.15</ele>
        <time>2014-04-13T06:49:23Z</time>
      </trkpt>
      <trkpt lat="47.85053" lon="-1.73566">
        <ele>98.67</ele>
        <time>2014-04-13T06:49:24Z</time>
      </trkpt>
      <trkpt lat="47.85052" lon="-1.73571">
        <ele>98.19</ele>
        <time>2014-04-13T06:49:25Z</time>
      </trkpt>
      <trkpt lat="47.85051" lon="-1.73576">
        <ele>97.71</ele>
        <time>2014-04-13T06:49:26Z</time>
      </trkpt>
      <trkpt lat="47.85048" lon="-1.73581">
        <ele>96.75</ele>
        <time>2014-04-13T06:49:27Z</time>
      </trkpt>
      <trkpt lat="47.85045" lon="-1.73586">
        <ele>96.75</ele>
        <time>2014-04-13T06:49:28Z</time>
      </trkpt>
      <trkpt lat="47.85033" lon="-1.73598">
        <ele>96.75</ele>
        <time>2014-04-13T06:49:32Z</time>
      </trkpt>
      <trkpt lat="47.85024" lon="-1.73614">
        <ele>95.31</ele>
        <time>2014-04-13T06:49:36Z</time>
      </trkpt>
      <trkpt lat="47.85005" lon="-1.73632">
        <ele>93.87</ele>
        <time>2014-04-13T06:49:43Z</time>
      </trkpt>
      <trkpt lat="47.84999" lon="-1.73653">
        <ele>91.46</ele>
        <time>2014-04-13T06:49:49Z</time>
      </trkpt>
      <trkpt lat="47.84993" lon="-1.73662">
        <ele>90.5</ele>
        <time>2014-04-13T06:49:51Z</time>
      </trkpt>
      <trkpt lat="47.84986" lon="-1.7367">
        <ele>89.54</ele>
        <time>2014-04-13T06:49:53Z</time>
      </trkpt>
      <trkpt lat="47.84967" lon="-1.73694">
        <ele>90.98</ele>
        <time>2014-04-13T06:50:00Z</time>
      </trkpt>
      <trkpt lat="47.84956" lon="-1.73717">
        <ele>90.98</ele>
        <time>2014-04-13T06:50:06Z</time>
      </trkpt>
      <trkpt lat="47.84942" lon="-1.73744">
        <ele>91.94</ele>
        <time>2014-04-13T06:50:13Z</time>
      </trkpt>
      <trkpt lat="47.84918" lon="-1.73763">
        <ele>93.87</ele>
        <time>2014-04-13T06:50:21Z</time>
      </trkpt>
      <trkpt lat="47.84889" lon="-1.73762">
        <ele>95.31</ele>
        <time>2014-04-13T06:50:30Z</time>
      </trkpt>
      <trkpt lat="47.84885" lon="-1.73762">
        <ele>95.31</ele>
        <time>2014-04-13T06:50:31Z</time>
      </trkpt>
      <trkpt lat="47.84881" lon="-1.73763">
        <ele>95.31</ele>
        <time>2014-04-13T06:50:32Z</time>
      </trkpt>
      <trkpt lat="47.84876" lon="-1.73764">
        <ele>95.31</ele>
        <time>2014-04-13T06:50:33Z</time>
      </trkpt>
      <trkpt lat="47.84872" lon="-1.73765">
        <ele>94.83</ele>
        <time>2014-04-13T06:50:34Z</time>
      </trkpt>
      <trkpt lat="47.84857" lon="-1.73768">
        <ele>93.87</ele>
        <time>2014-04-13T06:50:38Z</time>
      </trkpt>
      <trkpt lat="47.84855" lon="-1.73771">
        <ele>93.87</ele>
        <time>2014-04-13T06:50:39Z</time>
      </trkpt>
      <trkpt lat="47.84853" lon="-1.73776">
        <ele>93.39</ele>
        <time>2014-04-13T06:50:40Z</time>
      </trkpt>
      <trkpt lat="47.84851" lon="-1.73782">
        <ele>92.42</ele>
        <time>2014-04-13T06:50:41Z</time>
      </trkpt>
      <trkpt lat="47.8485" lon="-1.7379">
        <ele>91.94</ele>
        <time>2014-04-13T06:50:42Z</time>
      </trkpt>
      <trkpt lat="47.84844" lon="-1.73812">
        <ele>89.54</ele>
        <time>2014-04-13T06:50:45Z</time>
      </trkpt>
      <trkpt lat="47.84841" lon="-1.73819">
        <ele>89.54</ele>
        <time>2014-04-13T06:50:46Z</time>
      </trkpt>
      <trkpt lat="47.84836" lon="-1.73823">
        <ele>88.58</ele>
        <time>2014-04-13T06:50:47Z</time>
      </trkpt>
      <trkpt lat="47.8483" lon="-1.73826">
        <ele>88.1</ele>
        <time>2014-04-13T06:50:48Z</time>
      </trkpt>
      <trkpt lat="47.84824" lon="-1.73829">
        <ele>87.62</ele>
        <time>2014-04-13T06:50:49Z</time>
      </trkpt>
      <trkpt lat="47.84786" lon="-1.73845">
        <ele>84.25</ele>
        <time>2014-04-13T06:50:55Z</time>
      </trkpt>
      <trkpt lat="47.84779" lon="-1.73848">
        <ele>83.77</ele>
        <time>2014-04-13T06:50:56Z</time>
      </trkpt>
      <trkpt lat="47.84773" lon="-1.73848">
        <ele>83.29</ele>
        <time>2014-04-13T06:50:57Z</time>
      </trkpt>
      <trkpt lat="47.84767" lon="-1.73847">
        <ele>82.81</ele>
        <time>2014-04-13T06:50:58Z</time>
      </trkpt>
      <trkpt lat="47.84762" lon="-1.73849">
        <ele>82.33</ele>
        <time>2014-04-13T06:50:59Z</time>
      </trkpt>
      <trkpt lat="47.84758" lon="-1.73853">
        <ele>81.85</ele>
        <time>2014-04-13T06:51:00Z</time>
      </trkpt>
      <trkpt lat="47.84756" lon="-1.7386">
        <ele>81.37</ele>
        <time>2014-04-13T06:51:01Z</time>
      </trkpt>
      <trkpt lat="47.84754" lon="-1.73867">
        <ele>80.41</ele>
        <time>2014-04-13T06:51:02Z</time>
      </trkpt>
      <trkpt lat="47.84752" lon="-1.73874">
        <ele>79.93</ele>
        <time>2014-04-13T06:51:03Z</time>
      </trkpt>
      <trkpt lat="47.8475" lon="-1.73881">
        <ele>78.97</ele>
        <time>2014-04-13T06:51:04Z</time>
      </trkpt>
      <trkpt lat="47.84746" lon="-1.73889">
        <ele>78</ele>
        <time>2014-04-13T06:51:05Z</time>
      </trkpt>
      <trkpt lat="47.84738" lon="-1.73905">
        <ele>77.04</ele>
        <time>2014-04-13T06:51:07Z</time>
      </trkpt>
      <trkpt lat="47.84733" lon="-1.73913">
        <ele>76.56</ele>
        <time>2014-04-13T06:51:08Z</time>
      </trkpt>
      <trkpt lat="47.84728" lon="-1.7392">
        <ele>75.6</ele>
        <time>2014-04-13T06:51:09Z</time>
      </trkpt>
      <trkpt lat="47.84724" lon="-1.73928">
        <ele>75.12</ele>
        <time>2014-04-13T06:51:10Z</time>
      </trkpt>
      <trkpt lat="47.8472" lon="-1.73937">
        <ele>74.16</ele>
        <time>2014-04-13T06:51:11Z</time>
      </trkpt>
      <trkpt lat="47.84717" lon="-1.73948">
        <ele>73.2</ele>
        <time>2014-04-13T06:51:12Z</time>
      </trkpt>
      <trkpt lat="47.84712" lon="-1.73967">
        <ele>71.27</ele>
        <time>2014-04-13T06:51:14Z</time>
      </trkpt>
      <trkpt lat="47.8471" lon="-1.73977">
        <ele>70.31</ele>
        <time>2014-04-13T06:51:15Z</time>
      </trkpt>
      <trkpt lat="47.84708" lon="-1.73987">
        <ele>69.35</ele>
        <time>2014-04-13T06:51:16Z</time>
      </trkpt>
      <trkpt lat="47.84704" lon="-1.74019">
        <ele>67.43</ele>
        <time>2014-04-13T06:51:19Z</time>
      </trkpt>
      <trkpt lat="47.84703" lon="-1.74028">
        <ele>65.99</ele>
        <time>2014-04-13T06:51:20Z</time>
      </trkpt>
      <trkpt lat="47.84703" lon="-1.74036">
        <ele>65.99</ele>
        <time>2014-04-13T06:51:21Z</time>
      </trkpt>
      <trkpt lat="47.84707" lon="-1.74058">
        <ele>65.51</ele>
        <time>2014-04-13T06:51:24Z</time>
      </trkpt>
      <trkpt lat="47.8471" lon="-1.74095">
        <ele>65.99</ele>
        <time>2014-04-13T06:51:30Z</time>
      </trkpt>
      <trkpt lat="47.84708" lon="-1.741">
        <ele>65.99</ele>
        <time>2014-04-13T06:51:31Z</time>
      </trkpt>
      <trkpt lat="47.84705" lon="-1.74103">
        <ele>65.99</ele>
        <time>2014-04-13T06:51:32Z</time>
      </trkpt>
      <trkpt lat="47.84702" lon="-1.74106">
        <ele>66.47</ele>
        <time>2014-04-13T06:51:33Z</time>
      </trkpt>
      <trkpt lat="47.84699" lon="-1.74109">
        <ele>66.47</ele>
        <time>2014-04-13T06:51:34Z</time>
      </trkpt>
      <trkpt lat="47.84676" lon="-1.74143">
        <ele>67.91</ele>
        <time>2014-04-13T06:51:42Z</time>
      </trkpt>
      <trkpt lat="47.84675" lon="-1.74149">
        <ele>67.91</ele>
        <time>2014-04-13T06:51:43Z</time>
      </trkpt>
      <trkpt lat="47.84675" lon="-1.74155">
        <ele>67.91</ele>
        <time>2014-04-13T06:51:44Z</time>
      </trkpt>
      <trkpt lat="47.84676" lon="-1.74161">
        <ele>68.39</ele>
        <time>2014-04-13T06:51:45Z</time>
      </trkpt>
      <trkpt lat="47.84676" lon="-1.74167">
        <ele>68.39</ele>
        <time>2014-04-13T06:51:46Z</time>
      </trkpt>
      <trkpt lat="47.84675" lon="-1.74172">
        <ele>68.39</ele>
        <time>2014-04-13T06:51:47Z</time>
      </trkpt>
      <trkpt lat="47.84672" lon="-1.74204">
        <ele>68.87</ele>
        <time>2014-04-13T06:51:53Z</time>
      </trkpt>
      <trkpt lat="47.84664" lon="-1.74243">
        <ele>68.39</ele>
        <time>2014-04-13T06:51:59Z</time>
      </trkpt>
      <trkpt lat="47.84662" lon="-1.7425">
        <ele>68.39</ele>
        <time>2014-04-13T06:52:00Z</time>
      </trkpt>
      <trkpt lat="47.84655" lon="-1.7428">
        <ele>66.95</ele>
        <time>2014-04-13T06:52:04Z</time>
      </trkpt>
      <trkpt lat="47.84653" lon="-1.74288">
        <ele>66.47</ele>
        <time>2014-04-13T06:52:05Z</time>
      </trkpt>
      <trkpt lat="47.84652" lon="-1.74296">
        <ele>66.47</ele>
        <time>2014-04-13T06:52:06Z</time>
      </trkpt>
      <trkpt lat="47.84649" lon="-1.74345">
        <ele>65.03</ele>
        <time>2014-04-13T06:52:12Z</time>
      </trkpt>
      <trkpt lat="47.84646" lon="-1.74379">
        <ele>64.07</ele>
        <time>2014-04-13T06:52:16Z</time>
      </trkpt>
      <trkpt lat="47.84638" lon="-1.74435">
        <ele>63.58</ele>
        <time>2014-04-13T06:52:23Z</time>
      </trkpt>
      <trkpt lat="47.84629" lon="-1.74465">
        <ele>64.07</ele>
        <time>2014-04-13T06:52:27Z</time>
      </trkpt>
      <trkpt lat="47.84625" lon="-1.74471">
        <ele>64.07</ele>
        <time>2014-04-13T06:52:28Z</time>
      </trkpt>
      <trkpt lat="47.84601" lon="-1.74515">
        <ele>64.55</ele>
        <time>2014-04-13T06:52:36Z</time>
      </trkpt>
      <trkpt lat="47.84596" lon="-1.74527">
        <ele>65.03</ele>
        <time>2014-04-13T06:52:38Z</time>
      </trkpt>
      <trkpt lat="47.84566" lon="-1.74605">
        <ele>67.91</ele>
        <time>2014-04-13T06:52:52Z</time>
      </trkpt>
      <trkpt lat="47.84542" lon="-1.74668">
        <ele>70.31</ele>
        <time>2014-04-13T06:53:05Z</time>
      </trkpt>
      <trkpt lat="47.84541" lon="-1.74672">
        <ele>70.31</ele>
        <time>2014-04-13T06:53:06Z</time>
      </trkpt>
      <trkpt lat="47.84539" lon="-1.74675">
        <ele>70.31</ele>
        <time>2014-04-13T06:53:07Z</time>
      </trkpt>
      <trkpt lat="47.84538" lon="-1.74679">
        <ele>70.31</ele>
        <time>2014-04-13T06:53:08Z</time>
      </trkpt>
      <trkpt lat="47.84539" lon="-1.74683">
        <ele>70.31</ele>
        <time>2014-04-13T06:53:09Z</time>
      </trkpt>
      <trkpt lat="47.8454" lon="-1.74687">
        <ele>70.31</ele>
        <time>2014-04-13T06:53:10Z</time>
      </trkpt>
      <trkpt lat="47.8454" lon="-1.7469">
        <ele>70.31</ele>
        <time>2014-04-13T06:53:11Z</time>
      </trkpt>
      <trkpt lat="47.84538" lon="-1.74692">
        <ele>70.31</ele>
        <time>2014-04-13T06:53:12Z</time>
      </trkpt>
      <trkpt lat="47.84536" lon="-1.74694">
        <ele>70.31</ele>
        <time>2014-04-13T06:53:13Z</time>
      </trkpt>
      <trkpt lat="47.84534" lon="-1.74697">
        <ele>70.31</ele>
        <time>2014-04-13T06:53:14Z</time>
      </trkpt>
      <trkpt lat="47.84534" lon="-1.74701">
        <ele>69.83</ele>
        <time>2014-04-13T06:53:15Z</time>
      </trkpt>
      <trkpt lat="47.84534" lon="-1.74706">
        <ele>70.31</ele>
        <time>2014-04-13T06:53:16Z</time>
      </trkpt>
      <trkpt lat="47.84535" lon="-1.74708">
        <ele>70.31</ele>
        <time>2014-04-13T06:53:17Z</time>
      </trkpt>
      <trkpt lat="47.84537" lon="-1.74708">
        <ele>70.31</ele>
        <time>2014-04-13T06:53:18Z</time>
      </trkpt>
      <trkpt lat="47.84539" lon="-1.74706">
        <ele>71.76</ele>
        <time>2014-04-13T06:53:19Z</time>
      </trkpt>
      <trkpt lat="47.8454" lon="-1.74704">
        <ele>70.79</ele>
        <time>2014-04-13T06:53:20Z</time>
      </trkpt>
      <trkpt lat="47.84545" lon="-1.74698">
        <ele>70.79</ele>
        <time>2014-04-13T06:53:23Z</time>
      </trkpt>
      <trkpt lat="47.84548" lon="-1.74699">
        <ele>71.27</ele>
        <time>2014-04-13T06:53:24Z</time>
      </trkpt>
      <trkpt lat="47.84551" lon="-1.74701">
        <ele>71.27</ele>
        <time>2014-04-13T06:53:25Z</time>
      </trkpt>
      <trkpt lat="47.84557" lon="-1.74709">
        <ele>71.76</ele>
        <time>2014-04-13T06:53:28Z</time>
      </trkpt>
      <trkpt lat="47.8456" lon="-1.7471">
        <ele>72.24</ele>
        <time>2014-04-13T06:53:29Z</time>
      </trkpt>
      <trkpt lat="47.84561" lon="-1.74709">
        <ele>72.24</ele>
        <time>2014-04-13T06:53:30Z</time>
      </trkpt>
      <trkpt lat="47.84562" lon="-1.74706">
        <ele>72.24</ele>
        <time>2014-04-13T06:53:31Z</time>
      </trkpt>
      <trkpt lat="47.84564" lon="-1.74704">
        <ele>72.24</ele>
        <time>2014-04-13T06:53:32Z</time>
      </trkpt>
      <trkpt lat="47.84566" lon="-1.74701">
        <ele>72.24</ele>
        <time>2014-04-13T06:53:33Z</time>
      </trkpt>
      <trkpt lat="47.84568" lon="-1.747">
        <ele>72.24</ele>
        <time>2014-04-13T06:53:34Z</time>
      </trkpt>
      <trkpt lat="47.8457" lon="-1.74699">
        <ele>72.24</ele>
        <time>2014-04-13T06:53:35Z</time>
      </trkpt>
      <trkpt lat="47.84571" lon="-1.747">
        <ele>72.24</ele>
        <time>2014-04-13T06:53:36Z</time>
      </trkpt>
      <trkpt lat="47.84572" lon="-1.74703">
        <ele>72.72</ele>
        <time>2014-04-13T06:53:37Z</time>
      </trkpt>
      <trkpt lat="47.84573" lon="-1.74705">
        <ele>72.72</ele>
        <time>2014-04-13T06:53:38Z</time>
      </trkpt>
      <trkpt lat="47.84573" lon="-1.74707">
        <ele>72.72</ele>
        <time>2014-04-13T06:53:39Z</time>
      </trkpt>
      <trkpt lat="47.84573" lon="-1.74711">
        <ele>72.72</ele>
        <time>2014-04-13T06:53:40Z</time>
      </trkpt>
      <trkpt lat="47.84572" lon="-1.74714">
        <ele>72.72</ele>
        <time>2014-04-13T06:53:41Z</time>
      </trkpt>
      <trkpt lat="47.84572" lon="-1.74718">
        <ele>72.72</ele>
        <time>2014-04-13T06:53:42Z</time>
      </trkpt>
      <trkpt lat="47.84572" lon="-1.74722">
        <ele>72.72</ele>
        <time>2014-04-13T06:53:43Z</time>
      </trkpt>
      <trkpt lat="47.84574" lon="-1.74724">
        <ele>73.2</ele>
        <time>2014-04-13T06:53:44Z</time>
      </trkpt>
      <trkpt lat="47.84577" lon="-1.74725">
        <ele>73.2</ele>
        <time>2014-04-13T06:53:45Z</time>
      </trkpt>
      <trkpt lat="47.84579" lon="-1.74724">
        <ele>73.2</ele>
        <time>2014-04-13T06:53:46Z</time>
      </trkpt>
      <trkpt lat="47.84582" lon="-1.74724">
        <ele>73.2</ele>
        <time>2014-04-13T06:53:47Z</time>
      </trkpt>
      <trkpt lat="47.84584" lon="-1.74724">
        <ele>73.68</ele>
        <time>2014-04-13T06:53:48Z</time>
      </trkpt>
      <trkpt lat="47.84586" lon="-1.74725">
        <ele>73.68</ele>
        <time>2014-04-13T06:53:49Z</time>
      </trkpt>
      <trkpt lat="47.84589" lon="-1.74726">
        <ele>73.68</ele>
        <time>2014-04-13T06:53:50Z</time>
      </trkpt>
      <trkpt lat="47.84591" lon="-1.74727">
        <ele>74.16</ele>
        <time>2014-04-13T06:53:51Z</time>
      </trkpt>
      <trkpt lat="47.84593" lon="-1.74728">
        <ele>74.16</ele>
        <time>2014-04-13T06:53:52Z</time>
      </trkpt>
      <trkpt lat="47.84605" lon="-1.74745">
        <ele>75.12</ele>
        <time>2014-04-13T06:53:59Z</time>
      </trkpt>
      <trkpt lat="47.84607" lon="-1.74744">
        <ele>75.12</ele>
        <time>2014-04-13T06:54:00Z</time>
      </trkpt>
      <trkpt lat="47.84609" lon="-1.74743">
        <ele>75.6</ele>
        <time>2014-04-13T06:54:01Z</time>
      </trkpt>
      <trkpt lat="47.84612" lon="-1.74741">
        <ele>75.6</ele>
        <time>2014-04-13T06:54:03Z</time>
      </trkpt>
      <trkpt lat="47.84614" lon="-1.74741">
        <ele>75.6</ele>
        <time>2014-04-13T06:54:04Z</time>
      </trkpt>
      <trkpt lat="47.84615" lon="-1.74741">
        <ele>75.6</ele>
        <time>2014-04-13T06:54:05Z</time>
      </trkpt>
      <trkpt lat="47.84617" lon="-1.74739">
        <ele>76.08</ele>
        <time>2014-04-13T06:54:06Z</time>
      </trkpt>
      <trkpt lat="47.84619" lon="-1.74737">
        <ele>76.08</ele>
        <time>2014-04-13T06:54:07Z</time>
      </trkpt>
      <trkpt lat="47.84621" lon="-1.74732">
        <ele>76.08</ele>
        <time>2014-04-13T06:54:09Z</time>
      </trkpt>
      <trkpt lat="47.84637" lon="-1.74744">
        <ele>77.04</ele>
        <time>2014-04-13T06:54:17Z</time>
      </trkpt>
      <trkpt lat="47.84641" lon="-1.74743">
        <ele>78</ele>
        <time>2014-04-13T06:54:22Z</time>
      </trkpt>
      <trkpt lat="47.84651" lon="-1.74752">
        <ele>78.48</ele>
        <time>2014-04-13T06:54:27Z</time>
      </trkpt>
      <trkpt lat="47.84657" lon="-1.74762">
        <ele>78.97</ele>
        <time>2014-04-13T06:54:30Z</time>
      </trkpt>
      <trkpt lat="47.84657" lon="-1.74776">
        <ele>78.97</ele>
        <time>2014-04-13T06:54:36Z</time>
      </trkpt>
      <trkpt lat="47.84663" lon="-1.74779">
        <ele>79.45</ele>
        <time>2014-04-13T06:54:39Z</time>
      </trkpt>
      <trkpt lat="47.8467" lon="-1.74772">
        <ele>79.45</ele>
        <time>2014-04-13T06:54:44Z</time>
      </trkpt>
      <trkpt lat="47.84687" lon="-1.74779">
        <ele>80.89</ele>
        <time>2014-04-13T06:54:51Z</time>
      </trkpt>
      <trkpt lat="47.84706" lon="-1.74796">
        <ele>82.81</ele>
        <time>2014-04-13T06:55:02Z</time>
      </trkpt>
      <trkpt lat="47.8471" lon="-1.74798">
        <ele>82.81</ele>
        <time>2014-04-13T06:55:04Z</time>
      </trkpt>
      <trkpt lat="47.84737" lon="-1.74801">
        <ele>85.69</ele>
        <time>2014-04-13T06:55:17Z</time>
      </trkpt>
      <trkpt lat="47.84738" lon="-1.74802">
        <ele>85.69</ele>
        <time>2014-04-13T06:55:18Z</time>
      </trkpt>
      <trkpt lat="47.84745" lon="-1.74802">
        <ele>87.62</ele>
        <time>2014-04-13T06:55:23Z</time>
      </trkpt>
      <trkpt lat="47.84758" lon="-1.74817">
        <ele>90.02</ele>
        <time>2014-04-13T06:55:32Z</time>
      </trkpt>
      <trkpt lat="47.8478" lon="-1.74834">
        <ele>92.42</ele>
        <time>2014-04-13T06:55:42Z</time>
      </trkpt>
      <trkpt lat="47.84809" lon="-1.74856">
        <ele>95.79</ele>
        <time>2014-04-13T06:55:56Z</time>
      </trkpt>
      <trkpt lat="47.84813" lon="-1.7486">
        <ele>96.27</ele>
        <time>2014-04-13T06:55:58Z</time>
      </trkpt>
      <trkpt lat="47.84812" lon="-1.74882">
        <ele>97.23</ele>
        <time>2014-04-13T06:56:05Z</time>
      </trkpt>
      <trkpt lat="47.84808" lon="-1.74886">
        <ele>97.23</ele>
        <time>2014-04-13T06:56:07Z</time>
      </trkpt>
      <trkpt lat="47.84798" lon="-1.74886">
        <ele>96.27</ele>
        <time>2014-04-13T06:56:11Z</time>
      </trkpt>
      <trkpt lat="47.84798" lon="-1.74872">
        <ele>95.79</ele>
        <time>2014-04-13T06:56:15Z</time>
      </trkpt>
      <trkpt lat="47.84798" lon="-1.74862">
        <ele>95.31</ele>
        <time>2014-04-13T06:56:17Z</time>
      </trkpt>
      <trkpt lat="47.84778" lon="-1.74838">
        <ele>92.42</ele>
        <time>2014-04-13T06:56:24Z</time>
      </trkpt>
      <trkpt lat="47.84772" lon="-1.74845">
        <ele>92.42</ele>
        <time>2014-04-13T06:56:29Z</time>
      </trkpt>
      <trkpt lat="47.84779" lon="-1.74854">
        <ele>92.9</ele>
        <time>2014-04-13T06:56:36Z</time>
      </trkpt>
      <trkpt lat="47.84773" lon="-1.74862">
        <ele>91.94</ele>
        <time>2014-04-13T06:56:44Z</time>
      </trkpt>
      <trkpt lat="47.84773" lon="-1.74866">
        <ele>93.39</ele>
        <time>2014-04-13T06:56:46Z</time>
      </trkpt>
      <trkpt lat="47.84782" lon="-1.74868">
        <ele>94.35</ele>
        <time>2014-04-13T06:56:51Z</time>
      </trkpt>
      <trkpt lat="47.84785" lon="-1.7488">
        <ele>95.79</ele>
        <time>2014-04-13T06:56:56Z</time>
      </trkpt>
      <trkpt lat="47.84781" lon="-1.74884">
        <ele>94.83</ele>
        <time>2014-04-13T06:57:01Z</time>
      </trkpt>
      <trkpt lat="47.84773" lon="-1.74883">
        <ele>93.87</ele>
        <time>2014-04-13T06:57:05Z</time>
      </trkpt>
      <trkpt lat="47.84769" lon="-1.74851">
        <ele>91.46</ele>
        <time>2014-04-13T06:57:14Z</time>
      </trkpt>
      <trkpt lat="47.84768" lon="-1.74845">
        <ele>90.98</ele>
        <time>2014-04-13T06:57:16Z</time>
      </trkpt>
      <trkpt lat="47.84759" lon="-1.74828">
        <ele>89.06</ele>
        <time>2014-04-13T06:57:21Z</time>
      </trkpt>
      <trkpt lat="47.84754" lon="-1.74841">
        <ele>88.1</ele>
        <time>2014-04-13T06:57:31Z</time>
      </trkpt>
      <trkpt lat="47.84749" lon="-1.74854">
        <ele>88.1</ele>
        <time>2014-04-13T06:57:35Z</time>
      </trkpt>
      <trkpt lat="47.84753" lon="-1.74862">
        <ele>89.54</ele>
        <time>2014-04-13T06:57:39Z</time>
      </trkpt>
      <trkpt lat="47.84758" lon="-1.74866">
        <ele>90.5</ele>
        <time>2014-04-13T06:57:43Z</time>
      </trkpt>
      <trkpt lat="47.84759" lon="-1.74877">
        <ele>91.94</ele>
        <time>2014-04-13T06:57:47Z</time>
      </trkpt>
      <trkpt lat="47.84763" lon="-1.74881">
        <ele>92.9</ele>
        <time>2014-04-13T06:57:50Z</time>
      </trkpt>
      <trkpt lat="47.84764" lon="-1.74891">
        <ele>93.87</ele>
        <time>2014-04-13T06:57:54Z</time>
      </trkpt>
      <trkpt lat="47.84767" lon="-1.74907">
        <ele>94.83</ele>
        <time>2014-04-13T06:57:59Z</time>
      </trkpt>
      <trkpt lat="47.8477" lon="-1.74914">
        <ele>95.79</ele>
        <time>2014-04-13T06:58:02Z</time>
      </trkpt>
      <trkpt lat="47.84773" lon="-1.7492">
        <ele>96.75</ele>
        <time>2014-04-13T06:58:05Z</time>
      </trkpt>
      <trkpt lat="47.84784" lon="-1.74936">
        <ele>98.19</ele>
        <time>2014-04-13T06:58:14Z</time>
      </trkpt>
      <trkpt lat="47.84781" lon="-1.7494">
        <ele>98.19</ele>
        <time>2014-04-13T06:58:16Z</time>
      </trkpt>
      <trkpt lat="47.84778" lon="-1.7494">
        <ele>98.19</ele>
        <time>2014-04-13T06:58:18Z</time>
      </trkpt>
      <trkpt lat="47.84773" lon="-1.74936">
        <ele>97.23</ele>
        <time>2014-04-13T06:58:22Z</time>
      </trkpt>
      <trkpt lat="47.8476" lon="-1.74947">
        <ele>95.31</ele>
        <time>2014-04-13T06:58:32Z</time>
      </trkpt>
      <trkpt lat="47.84759" lon="-1.74946">
        <ele>95.31</ele>
        <time>2014-04-13T06:58:35Z</time>
      </trkpt>
      <trkpt lat="47.84759" lon="-1.74944">
        <ele>95.31</ele>
        <time>2014-04-13T06:58:38Z</time>
      </trkpt>
      <trkpt lat="47.84758" lon="-1.7494">
        <ele>94.35</ele>
        <time>2014-04-13T06:58:40Z</time>
      </trkpt>
      <trkpt lat="47.84758" lon="-1.74935">
        <ele>94.83</ele>
        <time>2014-04-13T06:58:42Z</time>
      </trkpt>
      <trkpt lat="47.84752" lon="-1.74939">
        <ele>92.9</ele>
        <time>2014-04-13T06:58:49Z</time>
      </trkpt>
      <trkpt lat="47.84756" lon="-1.74926">
        <ele>93.39</ele>
        <time>2014-04-13T06:58:56Z</time>
      </trkpt>
      <trkpt lat="47.84753" lon="-1.74906">
        <ele>90.02</ele>
        <time>2014-04-13T06:59:03Z</time>
      </trkpt>
      <trkpt lat="47.8475" lon="-1.74901">
        <ele>88.58</ele>
        <time>2014-04-13T06:59:04Z</time>
      </trkpt>
      <trkpt lat="47.84741" lon="-1.74886">
        <ele>86.18</ele>
        <time>2014-04-13T06:59:07Z</time>
      </trkpt>
      <trkpt lat="47.8474" lon="-1.74853">
        <ele>84.25</ele>
        <time>2014-04-13T06:59:15Z</time>
      </trkpt>
      <trkpt lat="47.84738" lon="-1.74844">
        <ele>84.73</ele>
        <time>2014-04-13T06:59:17Z</time>
      </trkpt>
      <trkpt lat="47.84729" lon="-1.74836">
        <ele>83.77</ele>
        <time>2014-04-13T06:59:23Z</time>
      </trkpt>
      <trkpt lat="47.84718" lon="-1.74838">
        <ele>82.81</ele>
        <time>2014-04-13T06:59:29Z</time>
      </trkpt>
      <trkpt lat="47.84719" lon="-1.7485">
        <ele>83.29</ele>
        <time>2014-04-13T06:59:33Z</time>
      </trkpt>
      <trkpt lat="47.84717" lon="-1.74862">
        <ele>83.29</ele>
        <time>2014-04-13T06:59:40Z</time>
      </trkpt>
      <trkpt lat="47.84715" lon="-1.74882">
        <ele>83.77</ele>
        <time>2014-04-13T06:59:49Z</time>
      </trkpt>
      <trkpt lat="47.84707" lon="-1.74901">
        <ele>82.33</ele>
        <time>2014-04-13T06:59:56Z</time>
      </trkpt>
      <trkpt lat="47.84702" lon="-1.74908">
        <ele>81.85</ele>
        <time>2014-04-13T07:00:00Z</time>
      </trkpt>
      <trkpt lat="47.84704" lon="-1.74908">
        <ele>82.33</ele>
        <time>2014-04-13T07:00:01Z</time>
      </trkpt>
      <trkpt lat="47.84707" lon="-1.74911">
        <ele>83.29</ele>
        <time>2014-04-13T07:00:05Z</time>
      </trkpt>
      <trkpt lat="47.84712" lon="-1.74914">
        <ele>84.25</ele>
        <time>2014-04-13T07:00:08Z</time>
      </trkpt>
      <trkpt lat="47.84714" lon="-1.74916">
        <ele>85.21</ele>
        <time>2014-04-13T07:00:10Z</time>
      </trkpt>
      <trkpt lat="47.84716" lon="-1.74917">
        <ele>86.18</ele>
        <time>2014-04-13T07:00:12Z</time>
      </trkpt>
      <trkpt lat="47.84721" lon="-1.74926">
        <ele>88.58</ele>
        <time>2014-04-13T07:00:18Z</time>
      </trkpt>
      <trkpt lat="47.84721" lon="-1.74933">
        <ele>90.02</ele>
        <time>2014-04-13T07:00:22Z</time>
      </trkpt>
      <trkpt lat="47.84722" lon="-1.74939">
        <ele>90.5</ele>
        <time>2014-04-13T07:00:25Z</time>
      </trkpt>
      <trkpt lat="47.84718" lon="-1.74944">
        <ele>90.02</ele>
        <time>2014-04-13T07:00:28Z</time>
      </trkpt>
      <trkpt lat="47.84716" lon="-1.74955">
        <ele>89.54</ele>
        <time>2014-04-13T07:00:31Z</time>
      </trkpt>
      <trkpt lat="47.84718" lon="-1.74971">
        <ele>90.98</ele>
        <time>2014-04-13T07:00:39Z</time>
      </trkpt>
      <trkpt lat="47.84722" lon="-1.74969">
        <ele>91.94</ele>
        <time>2014-04-13T07:00:42Z</time>
      </trkpt>
      <trkpt lat="47.84724" lon="-1.74975">
        <ele>92.9</ele>
        <time>2014-04-13T07:00:45Z</time>
      </trkpt>
      <trkpt lat="47.84735" lon="-1.7498">
        <ele>94.35</ele>
        <time>2014-04-13T07:00:52Z</time>
      </trkpt>
      <trkpt lat="47.84736" lon="-1.74975">
        <ele>94.83</ele>
        <time>2014-04-13T07:00:57Z</time>
      </trkpt>
      <trkpt lat="47.84741" lon="-1.74976">
        <ele>95.31</ele>
        <time>2014-04-13T07:01:00Z</time>
      </trkpt>
      <trkpt lat="47.84752" lon="-1.74981">
        <ele>97.23</ele>
        <time>2014-04-13T07:01:08Z</time>
      </trkpt>
      <trkpt lat="47.84754" lon="-1.74986">
        <ele>97.23</ele>
        <time>2014-04-13T07:01:10Z</time>
      </trkpt>
      <trkpt lat="47.84759" lon="-1.75002">
        <ele>98.19</ele>
        <time>2014-04-13T07:01:18Z</time>
      </trkpt>
      <trkpt lat="47.84759" lon="-1.75021">
        <ele>97.71</ele>
        <time>2014-04-13T07:01:26Z</time>
      </trkpt>
      <trkpt lat="47.84756" lon="-1.75033">
        <ele>97.23</ele>
        <time>2014-04-13T07:01:30Z</time>
      </trkpt>
      <trkpt lat="47.84741" lon="-1.75036">
        <ele>93.87</ele>
        <time>2014-04-13T07:01:39Z</time>
      </trkpt>
      <trkpt lat="47.84728" lon="-1.75023">
        <ele>92.42</ele>
        <time>2014-04-13T07:01:47Z</time>
      </trkpt>
      <trkpt lat="47.84714" lon="-1.75009">
        <ele>89.54</ele>
        <time>2014-04-13T07:01:55Z</time>
      </trkpt>
      <trkpt lat="47.84713" lon="-1.75008">
        <ele>88.58</ele>
        <time>2014-04-13T07:01:57Z</time>
      </trkpt>
      <trkpt lat="47.84713" lon="-1.75002">
        <ele>87.62</ele>
        <time>2014-04-13T07:01:59Z</time>
      </trkpt>
      <trkpt lat="47.8471" lon="-1.74989">
        <ele>85.69</ele>
        <time>2014-04-13T07:02:02Z</time>
      </trkpt>
      <trkpt lat="47.84706" lon="-1.74988">
        <ele>83.77</ele>
        <time>2014-04-13T07:02:05Z</time>
      </trkpt>
      <trkpt lat="47.84704" lon="-1.7497">
        <ele>81.85</ele>
        <time>2014-04-13T07:02:13Z</time>
      </trkpt>
      <trkpt lat="47.84704" lon="-1.74966">
        <ele>81.37</ele>
        <time>2014-04-13T07:02:14Z</time>
      </trkpt>
      <trkpt lat="47.84695" lon="-1.74965">
        <ele>79.93</ele>
        <time>2014-04-13T07:02:19Z</time>
      </trkpt>
      <trkpt lat="47.84697" lon="-1.74974">
        <ele>80.41</ele>
        <time>2014-04-13T07:02:22Z</time>
      </trkpt>
      <trkpt lat="47.84694" lon="-1.74991">
        <ele>81.37</ele>
        <time>2014-04-13T07:02:28Z</time>
      </trkpt>
      <trkpt lat="47.84688" lon="-1.75008">
        <ele>81.37</ele>
        <time>2014-04-13T07:02:33Z</time>
      </trkpt>
      <trkpt lat="47.84665" lon="-1.75022">
        <ele>78</ele>
        <time>2014-04-13T07:02:41Z</time>
      </trkpt>
      <trkpt lat="47.8466" lon="-1.75025">
        <ele>78</ele>
        <time>2014-04-13T07:02:42Z</time>
      </trkpt>
      <trkpt lat="47.84649" lon="-1.75025">
        <ele>76.56</ele>
        <time>2014-04-13T07:02:45Z</time>
      </trkpt>
      <trkpt lat="47.84642" lon="-1.75021">
        <ele>76.08</ele>
        <time>2014-04-13T07:02:49Z</time>
      </trkpt>
      <trkpt lat="47.84639" lon="-1.7502">
        <ele>76.08</ele>
        <time>2014-04-13T07:02:51Z</time>
      </trkpt>
      <trkpt lat="47.84631" lon="-1.75014">
        <ele>75.6</ele>
        <time>2014-04-13T07:02:56Z</time>
      </trkpt>
      <trkpt lat="47.84625" lon="-1.75">
        <ele>75.12</ele>
        <time>2014-04-13T07:03:03Z</time>
      </trkpt>
      <trkpt lat="47.84625" lon="-1.74992">
        <ele>75.6</ele>
        <time>2014-04-13T07:03:07Z</time>
      </trkpt>
      <trkpt lat="47.84629" lon="-1.74994">
        <ele>75.6</ele>
        <time>2014-04-13T07:03:11Z</time>
      </trkpt>
      <trkpt lat="47.84634" lon="-1.74986">
        <ele>76.56</ele>
        <time>2014-04-13T07:03:17Z</time>
      </trkpt>
      <trkpt lat="47.84635" lon="-1.74983">
        <ele>76.56</ele>
        <time>2014-04-13T07:03:19Z</time>
      </trkpt>
      <trkpt lat="47.84638" lon="-1.74965">
        <ele>76.56</ele>
        <time>2014-04-13T07:03:27Z</time>
      </trkpt>
      <trkpt lat="47.84635" lon="-1.74959">
        <ele>77.04</ele>
        <time>2014-04-13T07:03:31Z</time>
      </trkpt>
      <trkpt lat="47.84625" lon="-1.7496">
        <ele>75.6</ele>
        <time>2014-04-13T07:03:39Z</time>
      </trkpt>
      <trkpt lat="47.84621" lon="-1.74974">
        <ele>75.12</ele>
        <time>2014-04-13T07:03:44Z</time>
      </trkpt>
      <trkpt lat="47.84619" lon="-1.7498">
        <ele>74.64</ele>
        <time>2014-04-13T07:03:47Z</time>
      </trkpt>
      <trkpt lat="47.8461" lon="-1.7499">
        <ele>74.16</ele>
        <time>2014-04-13T07:03:52Z</time>
      </trkpt>
      <trkpt lat="47.84606" lon="-1.7497">
        <ele>74.16</ele>
        <time>2014-04-13T07:04:02Z</time>
      </trkpt>
      <trkpt lat="47.84593" lon="-1.74962">
        <ele>72.72</ele>
        <time>2014-04-13T07:04:09Z</time>
      </trkpt>
      <trkpt lat="47.84582" lon="-1.74964">
        <ele>72.24</ele>
        <time>2014-04-13T07:04:13Z</time>
      </trkpt>
      <trkpt lat="47.84578" lon="-1.74967">
        <ele>71.76</ele>
        <time>2014-04-13T07:04:16Z</time>
      </trkpt>
      <trkpt lat="47.84567" lon="-1.74963">
        <ele>70.79</ele>
        <time>2014-04-13T07:04:21Z</time>
      </trkpt>
      <trkpt lat="47.8456" lon="-1.74972">
        <ele>70.31</ele>
        <time>2014-04-13T07:04:26Z</time>
      </trkpt>
      <trkpt lat="47.84551" lon="-1.74969">
        <ele>69.35</ele>
        <time>2014-04-13T07:04:30Z</time>
      </trkpt>
      <trkpt lat="47.8454" lon="-1.74985">
        <ele>68.87</ele>
        <time>2014-04-13T07:04:40Z</time>
      </trkpt>
      <trkpt lat="47.84539" lon="-1.7499">
        <ele>68.87</ele>
        <time>2014-04-13T07:04:41Z</time>
      </trkpt>
      <trkpt lat="47.84539" lon="-1.74997">
        <ele>68.39</ele>
        <time>2014-04-13T07:04:43Z</time>
      </trkpt>
      <trkpt lat="47.84541" lon="-1.75011">
        <ele>68.87</ele>
        <time>2014-04-13T07:04:47Z</time>
      </trkpt>
      <trkpt lat="47.84552" lon="-1.7502">
        <ele>70.79</ele>
        <time>2014-04-13T07:04:56Z</time>
      </trkpt>
      <trkpt lat="47.84556" lon="-1.75016">
        <ele>70.79</ele>
        <time>2014-04-13T07:04:59Z</time>
      </trkpt>
      <trkpt lat="47.84558" lon="-1.75017">
        <ele>71.27</ele>
        <time>2014-04-13T07:05:01Z</time>
      </trkpt>
      <trkpt lat="47.84564" lon="-1.75026">
        <ele>71.76</ele>
        <time>2014-04-13T07:05:06Z</time>
      </trkpt>
      <trkpt lat="47.84567" lon="-1.75032">
        <ele>72.72</ele>
        <time>2014-04-13T07:05:11Z</time>
      </trkpt>
      <trkpt lat="47.84579" lon="-1.75043">
        <ele>73.2</ele>
        <time>2014-04-13T07:05:18Z</time>
      </trkpt>
      <trkpt lat="47.84583" lon="-1.75037">
        <ele>74.16</ele>
        <time>2014-04-13T07:05:22Z</time>
      </trkpt>
      <trkpt lat="47.84587" lon="-1.75025">
        <ele>74.16</ele>
        <time>2014-04-13T07:05:29Z</time>
      </trkpt>
      <trkpt lat="47.8459" lon="-1.75027">
        <ele>74.64</ele>
        <time>2014-04-13T07:05:33Z</time>
      </trkpt>
      <trkpt lat="47.84591" lon="-1.75038">
        <ele>75.12</ele>
        <time>2014-04-13T07:05:40Z</time>
      </trkpt>
      <trkpt lat="47.84601" lon="-1.75031">
        <ele>75.6</ele>
        <time>2014-04-13T07:05:49Z</time>
      </trkpt>
      <trkpt lat="47.84603" lon="-1.75033">
        <ele>75.6</ele>
        <time>2014-04-13T07:05:50Z</time>
      </trkpt>
      <trkpt lat="47.84603" lon="-1.75037">
        <ele>75.6</ele>
        <time>2014-04-13T07:05:52Z</time>
      </trkpt>
      <trkpt lat="47.84606" lon="-1.7505">
        <ele>75.6</ele>
        <time>2014-04-13T07:05:58Z</time>
      </trkpt>
      <trkpt lat="47.84613" lon="-1.75058">
        <ele>76.08</ele>
        <time>2014-04-13T07:06:03Z</time>
      </trkpt>
      <trkpt lat="47.84619" lon="-1.7505">
        <ele>76.08</ele>
        <time>2014-04-13T07:06:09Z</time>
      </trkpt>
      <trkpt lat="47.84621" lon="-1.75045">
        <ele>76.56</ele>
        <time>2014-04-13T07:06:14Z</time>
      </trkpt>
      <trkpt lat="47.84626" lon="-1.75053">
        <ele>77.04</ele>
        <time>2014-04-13T07:06:19Z</time>
      </trkpt>
      <trkpt lat="47.84622" lon="-1.75065">
        <ele>76.56</ele>
        <time>2014-04-13T07:06:22Z</time>
      </trkpt>
      <trkpt lat="47.84626" lon="-1.75069">
        <ele>77.52</ele>
        <time>2014-04-13T07:06:27Z</time>
      </trkpt>
      <trkpt lat="47.84629" lon="-1.75061">
        <ele>77.04</ele>
        <time>2014-04-13T07:06:30Z</time>
      </trkpt>
      <trkpt lat="47.8464" lon="-1.75067">
        <ele>77.52</ele>
        <time>2014-04-13T07:06:39Z</time>
      </trkpt>
      <trkpt lat="47.84643" lon="-1.75072">
        <ele>78</ele>
        <time>2014-04-13T07:06:42Z</time>
      </trkpt>
      <trkpt lat="47.84647" lon="-1.7507">
        <ele>78.48</ele>
        <time>2014-04-13T07:06:45Z</time>
      </trkpt>
      <trkpt lat="47.84651" lon="-1.75076">
        <ele>78.48</ele>
        <time>2014-04-13T07:06:49Z</time>
      </trkpt>
      <trkpt lat="47.84652" lon="-1.75077">
        <ele>78.97</ele>
        <time>2014-04-13T07:06:50Z</time>
      </trkpt>
      <trkpt lat="47.84666" lon="-1.75079">
        <ele>79.93</ele>
        <time>2014-04-13T07:06:58Z</time>
      </trkpt>
      <trkpt lat="47.84672" lon="-1.75083">
        <ele>80.41</ele>
        <time>2014-04-13T07:07:02Z</time>
      </trkpt>
      <trkpt lat="47.84681" lon="-1.75084">
        <ele>81.37</ele>
        <time>2014-04-13T07:07:07Z</time>
      </trkpt>
      <trkpt lat="47.84686" lon="-1.75073">
        <ele>82.81</ele>
        <time>2014-04-13T07:07:13Z</time>
      </trkpt>
      <trkpt lat="47.84686" lon="-1.7507">
        <ele>82.81</ele>
        <time>2014-04-13T07:07:15Z</time>
      </trkpt>
      <trkpt lat="47.84685" lon="-1.75068">
        <ele>82.33</ele>
        <time>2014-04-13T07:07:16Z</time>
      </trkpt>
      <trkpt lat="47.84668" lon="-1.7507">
        <ele>78.97</ele>
        <time>2014-04-13T07:07:24Z</time>
      </trkpt>
      <trkpt lat="47.84665" lon="-1.7506">
        <ele>78</ele>
        <time>2014-04-13T07:07:29Z</time>
      </trkpt>
      <trkpt lat="47.8467" lon="-1.75049">
        <ele>78.97</ele>
        <time>2014-04-13T07:07:40Z</time>
      </trkpt>
      <trkpt lat="47.84669" lon="-1.75046">
        <ele>78.48</ele>
        <time>2014-04-13T07:07:41Z</time>
      </trkpt>
      <trkpt lat="47.84671" lon="-1.75034">
        <ele>79.45</ele>
        <time>2014-04-13T07:07:47Z</time>
      </trkpt>
      <trkpt lat="47.84674" lon="-1.75032">
        <ele>80.41</ele>
        <time>2014-04-13T07:07:51Z</time>
      </trkpt>
      <trkpt lat="47.84677" lon="-1.7503">
        <ele>81.85</ele>
        <time>2014-04-13T07:07:54Z</time>
      </trkpt>
      <trkpt lat="47.84682" lon="-1.75027">
        <ele>83.29</ele>
        <time>2014-04-13T07:07:58Z</time>
      </trkpt>
      <trkpt lat="47.84684" lon="-1.75023">
        <ele>83.77</ele>
        <time>2014-04-13T07:08:00Z</time>
      </trkpt>
      <trkpt lat="47.84686" lon="-1.75022">
        <ele>84.73</ele>
        <time>2014-04-13T07:08:02Z</time>
      </trkpt>
      <trkpt lat="47.84689" lon="-1.75029">
        <ele>86.18</ele>
        <time>2014-04-13T07:08:06Z</time>
      </trkpt>
      <trkpt lat="47.84696" lon="-1.75044">
        <ele>88.1</ele>
        <time>2014-04-13T07:08:15Z</time>
      </trkpt>
      <trkpt lat="47.84694" lon="-1.75053">
        <ele>86.66</ele>
        <time>2014-04-13T07:08:21Z</time>
      </trkpt>
      <trkpt lat="47.84698" lon="-1.75066">
        <ele>85.21</ele>
        <time>2014-04-13T07:08:26Z</time>
      </trkpt>
      <trkpt lat="47.84704" lon="-1.75078">
        <ele>85.69</ele>
        <time>2014-04-13T07:08:30Z</time>
      </trkpt>
      <trkpt lat="47.84704" lon="-1.75083">
        <ele>83.77</ele>
        <time>2014-04-13T07:08:35Z</time>
      </trkpt>
      <trkpt lat="47.84704" lon="-1.75101">
        <ele>83.77</ele>
        <time>2014-04-13T07:08:43Z</time>
      </trkpt>
      <trkpt lat="47.84708" lon="-1.75095">
        <ele>84.73</ele>
        <time>2014-04-13T07:08:49Z</time>
      </trkpt>
      <trkpt lat="47.84708" lon="-1.75093">
        <ele>84.73</ele>
        <time>2014-04-13T07:08:50Z</time>
      </trkpt>
      <trkpt lat="47.84714" lon="-1.75112">
        <ele>86.18</ele>
        <time>2014-04-13T07:08:59Z</time>
      </trkpt>
      <trkpt lat="47.84715" lon="-1.75114">
        <ele>86.18</ele>
        <time>2014-04-13T07:09:01Z</time>
      </trkpt>
      <trkpt lat="47.84715" lon="-1.75103">
        <ele>88.1</ele>
        <time>2014-04-13T07:09:06Z</time>
      </trkpt>
      <trkpt lat="47.84716" lon="-1.75099">
        <ele>88.58</ele>
        <time>2014-04-13T07:09:08Z</time>
      </trkpt>
      <trkpt lat="47.84724" lon="-1.75074">
        <ele>91.46</ele>
        <time>2014-04-13T07:09:19Z</time>
      </trkpt>
      <trkpt lat="47.84725" lon="-1.75071">
        <ele>92.42</ele>
        <time>2014-04-13T07:09:23Z</time>
      </trkpt>
      <trkpt lat="47.84727" lon="-1.75072">
        <ele>92.42</ele>
        <time>2014-04-13T07:09:26Z</time>
      </trkpt>
      <trkpt lat="47.84727" lon="-1.75065">
        <ele>93.39</ele>
        <time>2014-04-13T07:09:32Z</time>
      </trkpt>
      <trkpt lat="47.84741" lon="-1.75074">
        <ele>94.35</ele>
        <time>2014-04-13T07:09:43Z</time>
      </trkpt>
      <trkpt lat="47.84743" lon="-1.75076">
        <ele>94.83</ele>
        <time>2014-04-13T07:09:45Z</time>
      </trkpt>
      <trkpt lat="47.84744" lon="-1.75079">
        <ele>94.35</ele>
        <time>2014-04-13T07:09:47Z</time>
      </trkpt>
      <trkpt lat="47.84737" lon="-1.75084">
        <ele>91.46</ele>
        <time>2014-04-13T07:09:57Z</time>
      </trkpt>
      <trkpt lat="47.84735" lon="-1.75084">
        <ele>90.98</ele>
        <time>2014-04-13T07:09:59Z</time>
      </trkpt>
      <trkpt lat="47.84734" lon="-1.7509">
        <ele>89.54</ele>
        <time>2014-04-13T07:10:03Z</time>
      </trkpt>
      <trkpt lat="47.84733" lon="-1.75094">
        <ele>89.54</ele>
        <time>2014-04-13T07:10:05Z</time>
      </trkpt>
      <trkpt lat="47.84733" lon="-1.75102">
        <ele>89.06</ele>
        <time>2014-04-13T07:10:09Z</time>
      </trkpt>
      <trkpt lat="47.84735" lon="-1.75108">
        <ele>90.02</ele>
        <time>2014-04-13T07:10:13Z</time>
      </trkpt>
      <trkpt lat="47.84743" lon="-1.75113">
        <ele>91.94</ele>
        <time>2014-04-13T07:10:19Z</time>
      </trkpt>
      <trkpt lat="47.84743" lon="-1.75111">
        <ele>92.42</ele>
        <time>2014-04-13T07:10:21Z</time>
      </trkpt>
      <trkpt lat="47.84743" lon="-1.75107">
        <ele>92.42</ele>
        <time>2014-04-13T07:10:23Z</time>
      </trkpt>
      <trkpt lat="47.8475" lon="-1.75091">
        <ele>94.83</ele>
        <time>2014-04-13T07:10:32Z</time>
      </trkpt>
      <trkpt lat="47.84756" lon="-1.75079">
        <ele>95.79</ele>
        <time>2014-04-13T07:10:37Z</time>
      </trkpt>
      <trkpt lat="47.84774" lon="-1.75062">
        <ele>98.19</ele>
        <time>2014-04-13T07:10:48Z</time>
      </trkpt>
      <trkpt lat="47.84776" lon="-1.75055">
        <ele>98.19</ele>
        <time>2014-04-13T07:10:50Z</time>
      </trkpt>
      <trkpt lat="47.84778" lon="-1.75044">
        <ele>98.19</ele>
        <time>2014-04-13T07:10:54Z</time>
      </trkpt>
      <trkpt lat="47.84792" lon="-1.74991">
        <ele>98.67</ele>
        <time>2014-04-13T07:11:05Z</time>
      </trkpt>
      <trkpt lat="47.84805" lon="-1.74953">
        <ele>98.19</ele>
        <time>2014-04-13T07:11:14Z</time>
      </trkpt>
      <trkpt lat="47.84824" lon="-1.7487">
        <ele>96.75</ele>
        <time>2014-04-13T07:11:27Z</time>
      </trkpt>
      <trkpt lat="47.84828" lon="-1.74847">
        <ele>96.27</ele>
        <time>2014-04-13T07:11:30Z</time>
      </trkpt>
      <trkpt lat="47.8483" lon="-1.7483">
        <ele>95.79</ele>
        <time>2014-04-13T07:11:32Z</time>
      </trkpt>
      <trkpt lat="47.8484" lon="-1.74775">
        <ele>94.35</ele>
        <time>2014-04-13T07:11:38Z</time>
      </trkpt>
      <trkpt lat="47.84875" lon="-1.74681">
        <ele>92.9</ele>
        <time>2014-04-13T07:11:49Z</time>
      </trkpt>
      <trkpt lat="47.84879" lon="-1.74674">
        <ele>93.39</ele>
        <time>2014-04-13T07:11:50Z</time>
      </trkpt>
      <trkpt lat="47.84883" lon="-1.74668">
        <ele>93.87</ele>
        <time>2014-04-13T07:11:51Z</time>
      </trkpt>
      <trkpt lat="47.84887" lon="-1.74663">
        <ele>93.87</ele>
        <time>2014-04-13T07:11:52Z</time>
      </trkpt>
      <trkpt lat="47.84891" lon="-1.74659">
        <ele>94.35</ele>
        <time>2014-04-13T07:11:53Z</time>
      </trkpt>
      <trkpt lat="47.84906" lon="-1.74645">
        <ele>95.31</ele>
        <time>2014-04-13T07:11:57Z</time>
      </trkpt>
      <trkpt lat="47.8493" lon="-1.74618">
        <ele>98.67</ele>
        <time>2014-04-13T07:12:05Z</time>
      </trkpt>
      <trkpt lat="47.84965" lon="-1.74608">
        <ele>100.6</ele>
        <time>2014-04-13T07:12:14Z</time>
      </trkpt>
      <trkpt lat="47.84993" lon="-1.74615">
        <ele>101.08</ele>
        <time>2014-04-13T07:12:20Z</time>
      </trkpt>
      <trkpt lat="47.85015" lon="-1.74629">
        <ele>101.56</ele>
        <time>2014-04-13T07:12:25Z</time>
      </trkpt>
      <trkpt lat="47.85035" lon="-1.7465">
        <ele>102.04</ele>
        <time>2014-04-13T07:12:30Z</time>
      </trkpt>
      <trkpt lat="47.85099" lon="-1.74721">
        <ele>103</ele>
        <time>2014-04-13T07:12:46Z</time>
      </trkpt>
      <trkpt lat="47.85172" lon="-1.74806">
        <ele>102.52</ele>
        <time>2014-04-13T07:13:02Z</time>
      </trkpt>
      <trkpt lat="47.85231" lon="-1.74878">
        <ele>102.52</ele>
        <time>2014-04-13T07:13:15Z</time>
      </trkpt>
      <trkpt lat="47.85241" lon="-1.74896">
        <ele>103</ele>
        <time>2014-04-13T07:13:18Z</time>
      </trkpt>
      <trkpt lat="47.85255" lon="-1.74939">
        <ele>103</ele>
        <time>2014-04-13T07:13:24Z</time>
      </trkpt>
      <trkpt lat="47.85258" lon="-1.74945">
        <ele>103.48</ele>
        <time>2014-04-13T07:13:25Z</time>
      </trkpt>
      <trkpt lat="47.85262" lon="-1.74951">
        <ele>103.48</ele>
        <time>2014-04-13T07:13:26Z</time>
      </trkpt>
      <trkpt lat="47.85266" lon="-1.74956">
        <ele>103.48</ele>
        <time>2014-04-13T07:13:27Z</time>
      </trkpt>
      <trkpt lat="47.8527" lon="-1.7496">
        <ele>103.96</ele>
        <time>2014-04-13T07:13:28Z</time>
      </trkpt>
      <trkpt lat="47.85275" lon="-1.74962">
        <ele>103.96</ele>
        <time>2014-04-13T07:13:29Z</time>
      </trkpt>
      <trkpt lat="47.85279" lon="-1.74963">
        <ele>103.96</ele>
        <time>2014-04-13T07:13:30Z</time>
      </trkpt>
      <trkpt lat="47.85284" lon="-1.74962">
        <ele>103.96</ele>
        <time>2014-04-13T07:13:31Z</time>
      </trkpt>
      <trkpt lat="47.85298" lon="-1.7496">
        <ele>104.44</ele>
        <time>2014-04-13T07:13:34Z</time>
      </trkpt>
      <trkpt lat="47.85308" lon="-1.74957">
        <ele>104.92</ele>
        <time>2014-04-13T07:13:36Z</time>
      </trkpt>
      <trkpt lat="47.85313" lon="-1.74956">
        <ele>104.92</ele>
        <time>2014-04-13T07:13:37Z</time>
      </trkpt>
      <trkpt lat="47.85318" lon="-1.74954">
        <ele>104.92</ele>
        <time>2014-04-13T07:13:38Z</time>
      </trkpt>
      <trkpt lat="47.85374" lon="-1.74942">
        <ele>105.88</ele>
        <time>2014-04-13T07:13:49Z</time>
      </trkpt>
      <trkpt lat="47.8538" lon="-1.7494">
        <ele>105.88</ele>
        <time>2014-04-13T07:13:50Z</time>
      </trkpt>
      <trkpt lat="47.85415" lon="-1.74932">
        <ele>106.36</ele>
        <time>2014-04-13T07:13:57Z</time>
      </trkpt>
      <trkpt lat="47.85419" lon="-1.74931">
        <ele>106.36</ele>
        <time>2014-04-13T07:13:58Z</time>
      </trkpt>
      <trkpt lat="47.85489" lon="-1.74918">
        <ele>107.32</ele>
        <time>2014-04-13T07:14:12Z</time>
      </trkpt>
      <trkpt lat="47.85528" lon="-1.7491">
        <ele>106.84</ele>
        <time>2014-04-13T07:14:19Z</time>
      </trkpt>
      <trkpt lat="47.85555" lon="-1.74906">
        <ele>106.36</ele>
        <time>2014-04-13T07:14:24Z</time>
      </trkpt>
      <trkpt lat="47.85615" lon="-1.74893">
        <ele>105.4</ele>
        <time>2014-04-13T07:14:35Z</time>
      </trkpt>
      <trkpt lat="47.85621" lon="-1.74891">
        <ele>105.4</ele>
        <time>2014-04-13T07:14:36Z</time>
      </trkpt>
      <trkpt lat="47.85627" lon="-1.7489">
        <ele>105.4</ele>
        <time>2014-04-13T07:14:37Z</time>
      </trkpt>
      <trkpt lat="47.85655" lon="-1.74883">
        <ele>104.92</ele>
        <time>2014-04-13T07:14:42Z</time>
      </trkpt>
      <trkpt lat="47.85659" lon="-1.74884">
        <ele>104.92</ele>
        <time>2014-04-13T07:14:43Z</time>
      </trkpt>
      <trkpt lat="47.85663" lon="-1.74886">
        <ele>104.92</ele>
        <time>2014-04-13T07:14:44Z</time>
      </trkpt>
      <trkpt lat="47.85665" lon="-1.74889">
        <ele>104.92</ele>
        <time>2014-04-13T07:14:45Z</time>
      </trkpt>
      <trkpt lat="47.85665" lon="-1.74891">
        <ele>104.92</ele>
        <time>2014-04-13T07:14:46Z</time>
      </trkpt>
      <trkpt lat="47.85664" lon="-1.74896">
        <ele>105.4</ele>
        <time>2014-04-13T07:14:55Z</time>
      </trkpt>
      <trkpt lat="47.85665" lon="-1.74894">
        <ele>105.4</ele>
        <time>2014-04-13T07:15:28Z</time>
      </trkpt>
      <trkpt lat="47.85666" lon="-1.74896">
        <ele>105.4</ele>
        <time>2014-04-13T07:16:05Z</time>
      </trkpt>
      <trkpt lat="47.85665" lon="-1.74897">
        <ele>105.4</ele>
        <time>2014-04-13T07:16:40Z</time>
      </trkpt>
      <trkpt lat="47.85665" lon="-1.74896">
        <ele>105.4</ele>
        <time>2014-04-13T07:17:14Z</time>
      </trkpt>
      <trkpt lat="47.85667" lon="-1.74896">
        <ele>105.4</ele>
        <time>2014-04-13T07:17:46Z</time>
      </trkpt>
      <trkpt lat="47.85666" lon="-1.74894">
        <ele>105.4</ele>
        <time>2014-04-13T07:18:21Z</time>
      </trkpt>
      <trkpt lat="47.85667" lon="-1.74897">
        <ele>105.4</ele>
        <time>2014-04-13T07:18:55Z</time>
      </trkpt>
      <trkpt lat="47.85665" lon="-1.74898">
        <ele>105.4</ele>
        <time>2014-04-13T07:19:25Z</time>
      </trkpt>
      <trkpt lat="47.85667" lon="-1.74898">
        <ele>105.88</ele>
        <time>2014-04-13T07:19:50Z</time>
      </trkpt>
      <trkpt lat="47.85669" lon="-1.74898">
        <ele>105.88</ele>
        <time>2014-04-13T07:19:51Z</time>
      </trkpt>
      <trkpt lat="47.85672" lon="-1.749">
        <ele>105.4</ele>
        <time>2014-04-13T07:19:53Z</time>
      </trkpt>
      <trkpt lat="47.85673" lon="-1.74902">
        <ele>105.88</ele>
        <time>2014-04-13T07:19:54Z</time>
      </trkpt>
      <trkpt lat="47.85674" lon="-1.74904">
        <ele>105.88</ele>
        <time>2014-04-13T07:19:55Z</time>
      </trkpt>
      <trkpt lat="47.85675" lon="-1.74907">
        <ele>106.36</ele>
        <time>2014-04-13T07:19:56Z</time>
      </trkpt>
      <trkpt lat="47.85677" lon="-1.74908">
        <ele>106.36</ele>
        <time>2014-04-13T07:19:57Z</time>
      </trkpt>
      <trkpt lat="47.85679" lon="-1.7491">
        <ele>106.36</ele>
        <time>2014-04-13T07:19:58Z</time>
      </trkpt>
      <trkpt lat="47.85684" lon="-1.74911">
        <ele>105.88</ele>
        <time>2014-04-13T07:20:00Z</time>
      </trkpt>
      <trkpt lat="47.85685" lon="-1.7491">
        <ele>106.36</ele>
        <time>2014-04-13T07:20:01Z</time>
      </trkpt>
      <trkpt lat="47.85686" lon="-1.74907">
        <ele>105.88</ele>
        <time>2014-04-13T07:20:02Z</time>
      </trkpt>
      <trkpt lat="47.85687" lon="-1.74902">
        <ele>105.88</ele>
        <time>2014-04-13T07:20:04Z</time>
      </trkpt>
      <trkpt lat="47.85689" lon="-1.74902">
        <ele>105.4</ele>
        <time>2014-04-13T07:20:05Z</time>
      </trkpt>
      <trkpt lat="47.8569" lon="-1.74903">
        <ele>105.4</ele>
        <time>2014-04-13T07:20:06Z</time>
      </trkpt>
      <trkpt lat="47.85691" lon="-1.74904">
        <ele>105.4</ele>
        <time>2014-04-13T07:20:07Z</time>
      </trkpt>
      <trkpt lat="47.85693" lon="-1.74905">
        <ele>105.88</ele>
        <time>2014-04-13T07:20:08Z</time>
      </trkpt>
      <trkpt lat="47.85694" lon="-1.74905">
        <ele>105.88</ele>
        <time>2014-04-13T07:20:09Z</time>
      </trkpt>
      <trkpt lat="47.85696" lon="-1.74906">
        <ele>105.88</ele>
        <time>2014-04-13T07:20:10Z</time>
      </trkpt>
      <trkpt lat="47.85699" lon="-1.74908">
        <ele>105.88</ele>
        <time>2014-04-13T07:20:11Z</time>
      </trkpt>
      <trkpt lat="47.85701" lon="-1.74908">
        <ele>105.88</ele>
        <time>2014-04-13T07:20:12Z</time>
      </trkpt>
      <trkpt lat="47.85708" lon="-1.74908">
        <ele>105.88</ele>
        <time>2014-04-13T07:20:21Z</time>
      </trkpt>
      <trkpt lat="47.85709" lon="-1.74907">
        <ele>105.88</ele>
        <time>2014-04-13T07:20:22Z</time>
      </trkpt>
      <trkpt lat="47.85717" lon="-1.74904">
        <ele>105.4</ele>
        <time>2014-04-13T07:20:25Z</time>
      </trkpt>
      <trkpt lat="47.8572" lon="-1.74903">
        <ele>105.4</ele>
        <time>2014-04-13T07:20:26Z</time>
      </trkpt>
      <trkpt lat="47.85722" lon="-1.74901">
        <ele>105.4</ele>
        <time>2014-04-13T07:20:27Z</time>
      </trkpt>
      <trkpt lat="47.85724" lon="-1.74898">
        <ele>105.4</ele>
        <time>2014-04-13T07:20:28Z</time>
      </trkpt>
      <trkpt lat="47.85726" lon="-1.74896">
        <ele>105.4</ele>
        <time>2014-04-13T07:20:29Z</time>
      </trkpt>
      <trkpt lat="47.85728" lon="-1.74893">
        <ele>105.88</ele>
        <time>2014-04-13T07:20:30Z</time>
      </trkpt>
      <trkpt lat="47.85734" lon="-1.74889">
        <ele>104.92</ele>
        <time>2014-04-13T07:20:36Z</time>
      </trkpt>
      <trkpt lat="47.85738" lon="-1.74886">
        <ele>104.92</ele>
        <time>2014-04-13T07:20:39Z</time>
      </trkpt>
      <trkpt lat="47.85741" lon="-1.74887">
        <ele>104.44</ele>
        <time>2014-04-13T07:20:40Z</time>
      </trkpt>
      <trkpt lat="47.85744" lon="-1.74887">
        <ele>104.44</ele>
        <time>2014-04-13T07:20:41Z</time>
      </trkpt>
      <trkpt lat="47.85747" lon="-1.74889">
        <ele>104.44</ele>
        <time>2014-04-13T07:20:42Z</time>
      </trkpt>
      <trkpt lat="47.85749" lon="-1.7489">
        <ele>104.92</ele>
        <time>2014-04-13T07:20:43Z</time>
      </trkpt>
      <trkpt lat="47.85752" lon="-1.74889">
        <ele>104.92</ele>
        <time>2014-04-13T07:20:44Z</time>
      </trkpt>
      <trkpt lat="47.85755" lon="-1.74887">
        <ele>104.92</ele>
        <time>2014-04-13T07:20:45Z</time>
      </trkpt>
      <trkpt lat="47.85758" lon="-1.74884">
        <ele>104.92</ele>
        <time>2014-04-13T07:20:46Z</time>
      </trkpt>
      <trkpt lat="47.8576" lon="-1.74881">
        <ele>104.92</ele>
        <time>2014-04-13T07:20:47Z</time>
      </trkpt>
      <trkpt lat="47.85761" lon="-1.74878">
        <ele>104.92</ele>
        <time>2014-04-13T07:20:48Z</time>
      </trkpt>
      <trkpt lat="47.85763" lon="-1.74876">
        <ele>104.92</ele>
        <time>2014-04-13T07:20:49Z</time>
      </trkpt>
      <trkpt lat="47.8577" lon="-1.74871">
        <ele>104.92</ele>
        <time>2014-04-13T07:20:53Z</time>
      </trkpt>
      <trkpt lat="47.85778" lon="-1.74879">
        <ele>104.92</ele>
        <time>2014-04-13T07:20:57Z</time>
      </trkpt>
      <trkpt lat="47.8578" lon="-1.74878">
        <ele>104.92</ele>
        <time>2014-04-13T07:20:58Z</time>
      </trkpt>
      <trkpt lat="47.85782" lon="-1.74876">
        <ele>104.92</ele>
        <time>2014-04-13T07:20:59Z</time>
      </trkpt>
      <trkpt lat="47.85784" lon="-1.74875">
        <ele>104.92</ele>
        <time>2014-04-13T07:21:00Z</time>
      </trkpt>
      <trkpt lat="47.85787" lon="-1.74873">
        <ele>104.92</ele>
        <time>2014-04-13T07:21:01Z</time>
      </trkpt>
      <trkpt lat="47.8579" lon="-1.74871">
        <ele>104.92</ele>
        <time>2014-04-13T07:21:02Z</time>
      </trkpt>
      <trkpt lat="47.85793" lon="-1.7487">
        <ele>104.92</ele>
        <time>2014-04-13T07:21:03Z</time>
      </trkpt>
      <trkpt lat="47.8582" lon="-1.74861">
        <ele>105.4</ele>
        <time>2014-04-13T07:21:11Z</time>
      </trkpt>
      <trkpt lat="47.85822" lon="-1.7486">
        <ele>105.88</ele>
        <time>2014-04-13T07:21:12Z</time>
      </trkpt>
      <trkpt lat="47.85825" lon="-1.74859">
        <ele>105.88</ele>
        <time>2014-04-13T07:21:14Z</time>
      </trkpt>
      <trkpt lat="47.85828" lon="-1.74859">
        <ele>105.88</ele>
        <time>2014-04-13T07:21:15Z</time>
      </trkpt>
      <trkpt lat="47.85832" lon="-1.74857">
        <ele>105.88</ele>
        <time>2014-04-13T07:21:16Z</time>
      </trkpt>
      <trkpt lat="47.85845" lon="-1.74853">
        <ele>106.36</ele>
        <time>2014-04-13T07:21:20Z</time>
      </trkpt>
      <trkpt lat="47.85847" lon="-1.74854">
        <ele>106.36</ele>
        <time>2014-04-13T07:21:21Z</time>
      </trkpt>
      <trkpt lat="47.85849" lon="-1.74855">
        <ele>107.81</ele>
        <time>2014-04-13T07:21:22Z</time>
      </trkpt>
      <trkpt lat="47.8585" lon="-1.74855">
        <ele>106.84</ele>
        <time>2014-04-13T07:21:23Z</time>
      </trkpt>
      <trkpt lat="47.85852" lon="-1.74854">
        <ele>106.84</ele>
        <time>2014-04-13T07:21:24Z</time>
      </trkpt>
      <trkpt lat="47.85879" lon="-1.74851">
        <ele>107.32</ele>
        <time>2014-04-13T07:21:33Z</time>
      </trkpt>
      <trkpt lat="47.85882" lon="-1.7485">
        <ele>107.32</ele>
        <time>2014-04-13T07:21:34Z</time>
      </trkpt>
      <trkpt lat="47.85887" lon="-1.74847">
        <ele>106.84</ele>
        <time>2014-04-13T07:21:37Z</time>
      </trkpt>
      <trkpt lat="47.85911" lon="-1.74843">
        <ele>107.32</ele>
        <time>2014-04-13T07:21:47Z</time>
      </trkpt>
      <trkpt lat="47.85917" lon="-1.74841">
        <ele>106.84</ele>
        <time>2014-04-13T07:21:49Z</time>
      </trkpt>
      <trkpt lat="47.85922" lon="-1.74838">
        <ele>107.81</ele>
        <time>2014-04-13T07:21:51Z</time>
      </trkpt>
      <trkpt lat="47.85939" lon="-1.74838">
        <ele>107.32</ele>
        <time>2014-04-13T07:21:57Z</time>
      </trkpt>
      <trkpt lat="47.85941" lon="-1.74836">
        <ele>107.32</ele>
        <time>2014-04-13T07:21:58Z</time>
      </trkpt>
      <trkpt lat="47.85943" lon="-1.74835">
        <ele>107.32</ele>
        <time>2014-04-13T07:21:59Z</time>
      </trkpt>
      <trkpt lat="47.85945" lon="-1.74835">
        <ele>107.32</ele>
        <time>2014-04-13T07:22:00Z</time>
      </trkpt>
      <trkpt lat="47.85948" lon="-1.74836">
        <ele>107.32</ele>
        <time>2014-04-13T07:22:01Z</time>
      </trkpt>
      <trkpt lat="47.85951" lon="-1.74837">
        <ele>107.32</ele>
        <time>2014-04-13T07:22:02Z</time>
      </trkpt>
      <trkpt lat="47.85956" lon="-1.74838">
        <ele>107.32</ele>
        <time>2014-04-13T07:22:04Z</time>
      </trkpt>
      <trkpt lat="47.85957" lon="-1.74837">
        <ele>107.32</ele>
        <time>2014-04-13T07:22:05Z</time>
      </trkpt>
      <trkpt lat="47.85959" lon="-1.74836">
        <ele>107.81</ele>
        <time>2014-04-13T07:22:06Z</time>
      </trkpt>
      <trkpt lat="47.85962" lon="-1.74835">
        <ele>107.32</ele>
        <time>2014-04-13T07:22:07Z</time>
      </trkpt>
      <trkpt lat="47.85964" lon="-1.74835">
        <ele>107.32</ele>
        <time>2014-04-13T07:22:08Z</time>
      </trkpt>
      <trkpt lat="47.85967" lon="-1.74831">
        <ele>107.81</ele>
        <time>2014-04-13T07:22:09Z</time>
      </trkpt>
      <trkpt lat="47.85969" lon="-1.7483">
        <ele>107.81</ele>
        <time>2014-04-13T07:22:10Z</time>
      </trkpt>
      <trkpt lat="47.85992" lon="-1.74823">
        <ele>107.81</ele>
        <time>2014-04-13T07:22:17Z</time>
      </trkpt>
      <trkpt lat="47.85995" lon="-1.74823">
        <ele>107.81</ele>
        <time>2014-04-13T07:22:18Z</time>
      </trkpt>
      <trkpt lat="47.86015" lon="-1.74816">
        <ele>107.81</ele>
        <time>2014-04-13T07:22:25Z</time>
      </trkpt>
      <trkpt lat="47.86022" lon="-1.74818">
        <ele>107.32</ele>
        <time>2014-04-13T07:22:27Z</time>
      </trkpt>
      <trkpt lat="47.86024" lon="-1.74817">
        <ele>107.32</ele>
        <time>2014-04-13T07:22:28Z</time>
      </trkpt>
      <trkpt lat="47.86027" lon="-1.74815">
        <ele>107.81</ele>
        <time>2014-04-13T07:22:30Z</time>
      </trkpt>
      <trkpt lat="47.86048" lon="-1.7481">
        <ele>107.81</ele>
        <time>2014-04-13T07:22:38Z</time>
      </trkpt>
      <trkpt lat="47.86055" lon="-1.74812">
        <ele>107.81</ele>
        <time>2014-04-13T07:22:42Z</time>
      </trkpt>
      <trkpt lat="47.86083" lon="-1.74805">
        <ele>108.77</ele>
        <time>2014-04-13T07:22:51Z</time>
      </trkpt>
      <trkpt lat="47.86096" lon="-1.74805">
        <ele>107.81</ele>
        <time>2014-04-13T07:22:57Z</time>
      </trkpt>
      <trkpt lat="47.86108" lon="-1.74803">
        <ele>107.81</ele>
        <time>2014-04-13T07:23:00Z</time>
      </trkpt>
      <trkpt lat="47.86117" lon="-1.74797">
        <ele>108.29</ele>
        <time>2014-04-13T07:23:03Z</time>
      </trkpt>
      <trkpt lat="47.8612" lon="-1.74798">
        <ele>108.29</ele>
        <time>2014-04-13T07:23:04Z</time>
      </trkpt>
      <trkpt lat="47.86124" lon="-1.74799">
        <ele>107.81</ele>
        <time>2014-04-13T07:23:05Z</time>
      </trkpt>
      <trkpt lat="47.86136" lon="-1.74795">
        <ele>107.81</ele>
        <time>2014-04-13T07:23:09Z</time>
      </trkpt>
      <trkpt lat="47.86138" lon="-1.74793">
        <ele>108.29</ele>
        <time>2014-04-13T07:23:10Z</time>
      </trkpt>
      <trkpt lat="47.86148" lon="-1.74791">
        <ele>108.29</ele>
        <time>2014-04-13T07:23:14Z</time>
      </trkpt>
      <trkpt lat="47.86151" lon="-1.74791">
        <ele>108.29</ele>
        <time>2014-04-13T07:23:15Z</time>
      </trkpt>
      <trkpt lat="47.86153" lon="-1.74789">
        <ele>108.77</ele>
        <time>2014-04-13T07:23:16Z</time>
      </trkpt>
      <trkpt lat="47.86159" lon="-1.74786">
        <ele>108.77</ele>
        <time>2014-04-13T07:23:19Z</time>
      </trkpt>
      <trkpt lat="47.86161" lon="-1.74784">
        <ele>109.25</ele>
        <time>2014-04-13T07:23:20Z</time>
      </trkpt>
      <trkpt lat="47.86164" lon="-1.74784">
        <ele>109.25</ele>
        <time>2014-04-13T07:23:21Z</time>
      </trkpt>
      <trkpt lat="47.86186" lon="-1.74776">
        <ele>107.81</ele>
        <time>2014-04-13T07:23:27Z</time>
      </trkpt>
      <trkpt lat="47.86191" lon="-1.74773">
        <ele>107.81</ele>
        <time>2014-04-13T07:23:28Z</time>
      </trkpt>
      <trkpt lat="47.86201" lon="-1.74769">
        <ele>107.32</ele>
        <time>2014-04-13T07:23:30Z</time>
      </trkpt>
      <trkpt lat="47.86216" lon="-1.74766">
        <ele>107.32</ele>
        <time>2014-04-13T07:23:33Z</time>
      </trkpt>
      <trkpt lat="47.8625" lon="-1.74758">
        <ele>107.81</ele>
        <time>2014-04-13T07:23:41Z</time>
      </trkpt>
      <trkpt lat="47.86296" lon="-1.74745">
        <ele>107.81</ele>
        <time>2014-04-13T07:23:53Z</time>
      </trkpt>
      <trkpt lat="47.86297" lon="-1.74745">
        <ele>107.81</ele>
        <time>2014-04-13T07:23:54Z</time>
      </trkpt>
      <trkpt lat="47.86299" lon="-1.74744">
        <ele>107.81</ele>
        <time>2014-04-13T07:23:55Z</time>
      </trkpt>
      <trkpt lat="47.86302" lon="-1.74743">
        <ele>108.29</ele>
        <time>2014-04-13T07:23:56Z</time>
      </trkpt>
      <trkpt lat="47.86311" lon="-1.74743">
        <ele>107.81</ele>
        <time>2014-04-13T07:23:58Z</time>
      </trkpt>
      <trkpt lat="47.86315" lon="-1.74745">
        <ele>107.81</ele>
        <time>2014-04-13T07:23:59Z</time>
      </trkpt>
      <trkpt lat="47.86318" lon="-1.7475">
        <ele>107.81</ele>
        <time>2014-04-13T07:24:00Z</time>
      </trkpt>
      <trkpt lat="47.86321" lon="-1.74756">
        <ele>107.32</ele>
        <time>2014-04-13T07:24:01Z</time>
      </trkpt>
      <trkpt lat="47.86325" lon="-1.74762">
        <ele>107.32</ele>
        <time>2014-04-13T07:24:02Z</time>
      </trkpt>
      <trkpt lat="47.86328" lon="-1.74767">
        <ele>106.84</ele>
        <time>2014-04-13T07:24:03Z</time>
      </trkpt>
      <trkpt lat="47.86333" lon="-1.74773">
        <ele>106.84</ele>
        <time>2014-04-13T07:24:04Z</time>
      </trkpt>
      <trkpt lat="47.86337" lon="-1.74778">
        <ele>106.36</ele>
        <time>2014-04-13T07:24:05Z</time>
      </trkpt>
      <trkpt lat="47.86343" lon="-1.74783">
        <ele>106.36</ele>
        <time>2014-04-13T07:24:06Z</time>
      </trkpt>
      <trkpt lat="47.86383" lon="-1.74822">
        <ele>103</ele>
        <time>2014-04-13T07:24:13Z</time>
      </trkpt>
      <trkpt lat="47.86389" lon="-1.74829">
        <ele>102.52</ele>
        <time>2014-04-13T07:24:14Z</time>
      </trkpt>
      <trkpt lat="47.86396" lon="-1.74835">
        <ele>102.04</ele>
        <time>2014-04-13T07:24:15Z</time>
      </trkpt>
      <trkpt lat="47.86402" lon="-1.74841">
        <ele>101.56</ele>
        <time>2014-04-13T07:24:16Z</time>
      </trkpt>
      <trkpt lat="47.86421" lon="-1.74864">
        <ele>99.63</ele>
        <time>2014-04-13T07:24:19Z</time>
      </trkpt>
      <trkpt lat="47.86447" lon="-1.74903">
        <ele>97.23</ele>
        <time>2014-04-13T07:24:23Z</time>
      </trkpt>
      <trkpt lat="47.86452" lon="-1.74915">
        <ele>96.27</ele>
        <time>2014-04-13T07:24:24Z</time>
      </trkpt>
      <trkpt lat="47.86475" lon="-1.74976">
        <ele>92.9</ele>
        <time>2014-04-13T07:24:29Z</time>
      </trkpt>
      <trkpt lat="47.86499" lon="-1.75041">
        <ele>89.54</ele>
        <time>2014-04-13T07:24:34Z</time>
      </trkpt>
      <trkpt lat="47.86505" lon="-1.75068">
        <ele>87.62</ele>
        <time>2014-04-13T07:24:36Z</time>
      </trkpt>
      <trkpt lat="47.86508" lon="-1.75096">
        <ele>85.21</ele>
        <time>2014-04-13T07:24:38Z</time>
      </trkpt>
      <trkpt lat="47.86506" lon="-1.7511">
        <ele>84.73</ele>
        <time>2014-04-13T07:24:39Z</time>
      </trkpt>
      <trkpt lat="47.86504" lon="-1.75124">
        <ele>84.25</ele>
        <time>2014-04-13T07:24:40Z</time>
      </trkpt>
      <trkpt lat="47.86494" lon="-1.75167">
        <ele>81.85</ele>
        <time>2014-04-13T07:24:43Z</time>
      </trkpt>
      <trkpt lat="47.86492" lon="-1.75181">
        <ele>80.89</ele>
        <time>2014-04-13T07:24:44Z</time>
      </trkpt>
      <trkpt lat="47.86491" lon="-1.75196">
        <ele>80.41</ele>
        <time>2014-04-13T07:24:45Z</time>
      </trkpt>
      <trkpt lat="47.86491" lon="-1.7521">
        <ele>79.45</ele>
        <time>2014-04-13T07:24:46Z</time>
      </trkpt>
      <trkpt lat="47.86493" lon="-1.75225">
        <ele>78.97</ele>
        <time>2014-04-13T07:24:47Z</time>
      </trkpt>
      <trkpt lat="47.86496" lon="-1.7524">
        <ele>78</ele>
        <time>2014-04-13T07:24:48Z</time>
      </trkpt>
      <trkpt lat="47.865" lon="-1.75254">
        <ele>77.04</ele>
        <time>2014-04-13T07:24:49Z</time>
      </trkpt>
      <trkpt lat="47.86514" lon="-1.75313">
        <ele>74.16</ele>
        <time>2014-04-13T07:24:53Z</time>
      </trkpt>
      <trkpt lat="47.8652" lon="-1.75349">
        <ele>72.72</ele>
        <time>2014-04-13T07:24:56Z</time>
      </trkpt>
      <trkpt lat="47.86523" lon="-1.75365">
        <ele>72.24</ele>
        <time>2014-04-13T07:24:58Z</time>
      </trkpt>
      <trkpt lat="47.86521" lon="-1.75372">
        <ele>71.76</ele>
        <time>2014-04-13T07:24:59Z</time>
      </trkpt>
      <trkpt lat="47.86517" lon="-1.75377">
        <ele>71.76</ele>
        <time>2014-04-13T07:25:00Z</time>
      </trkpt>
      <trkpt lat="47.8649" lon="-1.75404">
        <ele>73.2</ele>
        <time>2014-04-13T07:25:06Z</time>
      </trkpt>
      <trkpt lat="47.86485" lon="-1.75409">
        <ele>73.2</ele>
        <time>2014-04-13T07:25:07Z</time>
      </trkpt>
      <trkpt lat="47.86453" lon="-1.75458">
        <ele>73.68</ele>
        <time>2014-04-13T07:25:16Z</time>
      </trkpt>
      <trkpt lat="47.86426" lon="-1.75532">
        <ele>72.24</ele>
        <time>2014-04-13T07:25:25Z</time>
      </trkpt>
      <trkpt lat="47.86423" lon="-1.7554">
        <ele>72.24</ele>
        <time>2014-04-13T07:25:26Z</time>
      </trkpt>
      <trkpt lat="47.86421" lon="-1.75549">
        <ele>72.24</ele>
        <time>2014-04-13T07:25:27Z</time>
      </trkpt>
      <trkpt lat="47.86418" lon="-1.75557">
        <ele>72.24</ele>
        <time>2014-04-13T07:25:28Z</time>
      </trkpt>
      <trkpt lat="47.86415" lon="-1.75566">
        <ele>71.76</ele>
        <time>2014-04-13T07:25:29Z</time>
      </trkpt>
      <trkpt lat="47.86412" lon="-1.75573">
        <ele>71.76</ele>
        <time>2014-04-13T07:25:30Z</time>
      </trkpt>
      <trkpt lat="47.86409" lon="-1.75581">
        <ele>71.76</ele>
        <time>2014-04-13T07:25:31Z</time>
      </trkpt>
      <trkpt lat="47.86406" lon="-1.75589">
        <ele>71.76</ele>
        <time>2014-04-13T07:25:32Z</time>
      </trkpt>
      <trkpt lat="47.86404" lon="-1.75597">
        <ele>71.27</ele>
        <time>2014-04-13T07:25:33Z</time>
      </trkpt>
      <trkpt lat="47.86404" lon="-1.75602">
        <ele>71.27</ele>
        <time>2014-04-13T07:25:34Z</time>
      </trkpt>
      <trkpt lat="47.86405" lon="-1.75606">
        <ele>71.27</ele>
        <time>2014-04-13T07:25:35Z</time>
      </trkpt>
      <trkpt lat="47.86416" lon="-1.7562">
        <ele>69.83</ele>
        <time>2014-04-13T07:25:38Z</time>
      </trkpt>
      <trkpt lat="47.8642" lon="-1.75626">
        <ele>69.83</ele>
        <time>2014-04-13T07:25:39Z</time>
      </trkpt>
      <trkpt lat="47.86424" lon="-1.75633">
        <ele>69.35</ele>
        <time>2014-04-13T07:25:40Z</time>
      </trkpt>
      <trkpt lat="47.86427" lon="-1.7564">
        <ele>68.87</ele>
        <time>2014-04-13T07:25:41Z</time>
      </trkpt>
      <trkpt lat="47.8643" lon="-1.75646">
        <ele>68.39</ele>
        <time>2014-04-13T07:25:42Z</time>
      </trkpt>
      <trkpt lat="47.86432" lon="-1.75654">
        <ele>68.39</ele>
        <time>2014-04-13T07:25:43Z</time>
      </trkpt>
      <trkpt lat="47.86435" lon="-1.75669">
        <ele>66.95</ele>
        <time>2014-04-13T07:25:45Z</time>
      </trkpt>
      <trkpt lat="47.86445" lon="-1.75696">
        <ele>64.07</ele>
        <time>2014-04-13T07:25:50Z</time>
      </trkpt>
      <trkpt lat="47.8645" lon="-1.75699">
        <ele>63.1</ele>
        <time>2014-04-13T07:25:51Z</time>
      </trkpt>
      <trkpt lat="47.86456" lon="-1.75703">
        <ele>62.62</ele>
        <time>2014-04-13T07:25:52Z</time>
      </trkpt>
      <trkpt lat="47.86462" lon="-1.75708">
        <ele>62.14</ele>
        <time>2014-04-13T07:25:53Z</time>
      </trkpt>
      <trkpt lat="47.86467" lon="-1.75715">
        <ele>60.7</ele>
        <time>2014-04-13T07:25:54Z</time>
      </trkpt>
      <trkpt lat="47.86472" lon="-1.75724">
        <ele>59.74</ele>
        <time>2014-04-13T07:25:55Z</time>
      </trkpt>
      <trkpt lat="47.86477" lon="-1.75734">
        <ele>58.78</ele>
        <time>2014-04-13T07:25:56Z</time>
      </trkpt>
      <trkpt lat="47.86481" lon="-1.75745">
        <ele>57.82</ele>
        <time>2014-04-13T07:25:57Z</time>
      </trkpt>
      <trkpt lat="47.86485" lon="-1.75757">
        <ele>56.86</ele>
        <time>2014-04-13T07:25:58Z</time>
      </trkpt>
      <trkpt lat="47.86489" lon="-1.75769">
        <ele>55.89</ele>
        <time>2014-04-13T07:25:59Z</time>
      </trkpt>
      <trkpt lat="47.86501" lon="-1.75808">
        <ele>52.53</ele>
        <time>2014-04-13T07:26:02Z</time>
      </trkpt>
      <trkpt lat="47.86506" lon="-1.7582">
        <ele>51.57</ele>
        <time>2014-04-13T07:26:03Z</time>
      </trkpt>
      <trkpt lat="47.86512" lon="-1.75831">
        <ele>50.13</ele>
        <time>2014-04-13T07:26:04Z</time>
      </trkpt>
      <trkpt lat="47.86519" lon="-1.75842">
        <ele>49.16</ele>
        <time>2014-04-13T07:26:05Z</time>
      </trkpt>
      <trkpt lat="47.86527" lon="-1.75851">
        <ele>48.68</ele>
        <time>2014-04-13T07:26:06Z</time>
      </trkpt>
      <trkpt lat="47.86535" lon="-1.75859">
        <ele>47.72</ele>
        <time>2014-04-13T07:26:07Z</time>
      </trkpt>
      <trkpt lat="47.86543" lon="-1.75865">
        <ele>46.76</ele>
        <time>2014-04-13T07:26:08Z</time>
      </trkpt>
      <trkpt lat="47.86552" lon="-1.7587">
        <ele>46.28</ele>
        <time>2014-04-13T07:26:09Z</time>
      </trkpt>
      <trkpt lat="47.86561" lon="-1.75874">
        <ele>45.32</ele>
        <time>2014-04-13T07:26:10Z</time>
      </trkpt>
      <trkpt lat="47.86571" lon="-1.75876">
        <ele>44.36</ele>
        <time>2014-04-13T07:26:11Z</time>
      </trkpt>
      <trkpt lat="47.8658" lon="-1.75877">
        <ele>43.88</ele>
        <time>2014-04-13T07:26:12Z</time>
      </trkpt>
      <trkpt lat="47.86628" lon="-1.75878">
        <ele>40.99</ele>
        <time>2014-04-13T07:26:17Z</time>
      </trkpt>
      <trkpt lat="47.86673" lon="-1.75881">
        <ele>39.07</ele>
        <time>2014-04-13T07:26:22Z</time>
      </trkpt>
      <trkpt lat="47.86721" lon="-1.75899">
        <ele>38.59</ele>
        <time>2014-04-13T07:26:29Z</time>
      </trkpt>
      <trkpt lat="47.86724" lon="-1.75903">
        <ele>38.59</ele>
        <time>2014-04-13T07:26:30Z</time>
      </trkpt>
      <trkpt lat="47.86725" lon="-1.75908">
        <ele>39.07</ele>
        <time>2014-04-13T07:26:31Z</time>
      </trkpt>
      <trkpt lat="47.86725" lon="-1.75915">
        <ele>38.59</ele>
        <time>2014-04-13T07:26:32Z</time>
      </trkpt>
      <trkpt lat="47.86725" lon="-1.75923">
        <ele>38.11</ele>
        <time>2014-04-13T07:26:33Z</time>
      </trkpt>
      <trkpt lat="47.86723" lon="-1.75931">
        <ele>38.11</ele>
        <time>2014-04-13T07:26:34Z</time>
      </trkpt>
      <trkpt lat="47.8672" lon="-1.7595">
        <ele>37.15</ele>
        <time>2014-04-13T07:26:36Z</time>
      </trkpt>
      <trkpt lat="47.86717" lon="-1.75974">
        <ele>37.15</ele>
        <time>2014-04-13T07:26:39Z</time>
      </trkpt>
      <trkpt lat="47.86693" lon="-1.76064">
        <ele>35.23</ele>
        <time>2014-04-13T07:26:50Z</time>
      </trkpt>
      <trkpt lat="47.8669" lon="-1.76072">
        <ele>35.23</ele>
        <time>2014-04-13T07:26:51Z</time>
      </trkpt>
      <trkpt lat="47.86684" lon="-1.76095">
        <ele>34.74</ele>
        <time>2014-04-13T07:26:54Z</time>
      </trkpt>
      <trkpt lat="47.86684" lon="-1.76136">
        <ele>34.26</ele>
        <time>2014-04-13T07:26:59Z</time>
      </trkpt>
      <trkpt lat="47.8669" lon="-1.76168">
        <ele>36.67</ele>
        <time>2014-04-13T07:27:08Z</time>
      </trkpt>
      <trkpt lat="47.86703" lon="-1.76176">
        <ele>38.59</ele>
        <time>2014-04-13T07:27:14Z</time>
      </trkpt>
      <trkpt lat="47.86721" lon="-1.76185">
        <ele>42.92</ele>
        <time>2014-04-13T07:27:23Z</time>
      </trkpt>
      <trkpt lat="47.86746" lon="-1.76199">
        <ele>45.8</ele>
        <time>2014-04-13T07:27:36Z</time>
      </trkpt>
      <trkpt lat="47.86759" lon="-1.76204">
        <ele>47.72</ele>
        <time>2014-04-13T07:27:43Z</time>
      </trkpt>
      <trkpt lat="47.86755" lon="-1.76227">
        <ele>48.2</ele>
        <time>2014-04-13T07:27:49Z</time>
      </trkpt>
      <trkpt lat="47.86742" lon="-1.76318">
        <ele>48.68</ele>
        <time>2014-04-13T07:28:04Z</time>
      </trkpt>
      <trkpt lat="47.8674" lon="-1.7634">
        <ele>48.2</ele>
        <time>2014-04-13T07:28:07Z</time>
      </trkpt>
      <trkpt lat="47.86736" lon="-1.76362">
        <ele>47.72</ele>
        <time>2014-04-13T07:28:10Z</time>
      </trkpt>
      <trkpt lat="47.86721" lon="-1.76421">
        <ele>44.84</ele>
        <time>2014-04-13T07:28:17Z</time>
      </trkpt>
      <trkpt lat="47.86711" lon="-1.76473">
        <ele>40.51</ele>
        <time>2014-04-13T07:28:22Z</time>
      </trkpt>
      <trkpt lat="47.86709" lon="-1.76495">
        <ele>38.11</ele>
        <time>2014-04-13T07:28:24Z</time>
      </trkpt>
      <trkpt lat="47.86698" lon="-1.76553">
        <ele>32.82</ele>
        <time>2014-04-13T07:28:29Z</time>
      </trkpt>
      <trkpt lat="47.86688" lon="-1.76593">
        <ele>29.94</ele>
        <time>2014-04-13T07:28:32Z</time>
      </trkpt>
      <trkpt lat="47.86672" lon="-1.76649">
        <ele>27.05</ele>
        <time>2014-04-13T07:28:36Z</time>
      </trkpt>
      <trkpt lat="47.86667" lon="-1.76661">
        <ele>26.57</ele>
        <time>2014-04-13T07:28:37Z</time>
      </trkpt>
      <trkpt lat="47.86662" lon="-1.7667">
        <ele>26.57</ele>
        <time>2014-04-13T07:28:38Z</time>
      </trkpt>
      <trkpt lat="47.8665" lon="-1.7669">
        <ele>26.57</ele>
        <time>2014-04-13T07:28:41Z</time>
      </trkpt>
      <trkpt lat="47.86647" lon="-1.76694">
        <ele>26.57</ele>
        <time>2014-04-13T07:28:42Z</time>
      </trkpt>
      <trkpt lat="47.86644" lon="-1.76698">
        <ele>26.57</ele>
        <time>2014-04-13T07:28:43Z</time>
      </trkpt>
      <trkpt lat="47.8664" lon="-1.767">
        <ele>26.09</ele>
        <time>2014-04-13T07:28:44Z</time>
      </trkpt>
      <trkpt lat="47.86635" lon="-1.76701">
        <ele>26.09</ele>
        <time>2014-04-13T07:28:45Z</time>
      </trkpt>
      <trkpt lat="47.86631" lon="-1.76701">
        <ele>26.57</ele>
        <time>2014-04-13T07:28:46Z</time>
      </trkpt>
      <trkpt lat="47.86627" lon="-1.767">
        <ele>26.57</ele>
        <time>2014-04-13T07:28:47Z</time>
      </trkpt>
      <trkpt lat="47.86622" lon="-1.76699">
        <ele>26.09</ele>
        <time>2014-04-13T07:28:48Z</time>
      </trkpt>
      <trkpt lat="47.86609" lon="-1.76691">
        <ele>26.09</ele>
        <time>2014-04-13T07:28:51Z</time>
      </trkpt>
      <trkpt lat="47.86604" lon="-1.76688">
        <ele>26.57</ele>
        <time>2014-04-13T07:28:52Z</time>
      </trkpt>
      <trkpt lat="47.86581" lon="-1.76687">
        <ele>28.02</ele>
        <time>2014-04-13T07:28:58Z</time>
      </trkpt>
      <trkpt lat="47.86579" lon="-1.76692">
        <ele>28.02</ele>
        <time>2014-04-13T07:28:59Z</time>
      </trkpt>
      <trkpt lat="47.86577" lon="-1.76698">
        <ele>28.02</ele>
        <time>2014-04-13T07:29:00Z</time>
      </trkpt>
      <trkpt lat="47.86572" lon="-1.7672">
        <ele>27.05</ele>
        <time>2014-04-13T07:29:03Z</time>
      </trkpt>
      <trkpt lat="47.86569" lon="-1.76728">
        <ele>27.05</ele>
        <time>2014-04-13T07:29:04Z</time>
      </trkpt>
      <trkpt lat="47.86568" lon="-1.76736">
        <ele>26.57</ele>
        <time>2014-04-13T07:29:05Z</time>
      </trkpt>
      <trkpt lat="47.86559" lon="-1.76779">
        <ele>25.61</ele>
        <time>2014-04-13T07:29:10Z</time>
      </trkpt>
      <trkpt lat="47.86556" lon="-1.76784">
        <ele>25.13</ele>
        <time>2014-04-13T07:29:11Z</time>
      </trkpt>
      <trkpt lat="47.8654" lon="-1.76786">
        <ele>28.02</ele>
        <time>2014-04-13T07:29:16Z</time>
      </trkpt>
      <trkpt lat="47.86537" lon="-1.76785">
        <ele>28.5</ele>
        <time>2014-04-13T07:29:17Z</time>
      </trkpt>
      <trkpt lat="47.86488" lon="-1.76771">
        <ele>30.9</ele>
        <time>2014-04-13T07:29:32Z</time>
      </trkpt>
      <trkpt lat="47.86443" lon="-1.76752">
        <ele>33.3</ele>
        <time>2014-04-13T07:29:46Z</time>
      </trkpt>
      <trkpt lat="47.86412" lon="-1.76765">
        <ele>35.71</ele>
        <time>2014-04-13T07:29:57Z</time>
      </trkpt>
      <trkpt lat="47.86406" lon="-1.76778">
        <ele>36.19</ele>
        <time>2014-04-13T07:30:01Z</time>
      </trkpt>
      <trkpt lat="47.86383" lon="-1.76782">
        <ele>37.63</ele>
        <time>2014-04-13T07:30:10Z</time>
      </trkpt>
      <trkpt lat="47.86346" lon="-1.76772">
        <ele>40.99</ele>
        <time>2014-04-13T07:30:24Z</time>
      </trkpt>
      <trkpt lat="47.86317" lon="-1.76761">
        <ele>44.36</ele>
        <time>2014-04-13T07:30:36Z</time>
      </trkpt>
      <trkpt lat="47.86292" lon="-1.76749">
        <ele>47.72</ele>
        <time>2014-04-13T07:30:48Z</time>
      </trkpt>
      <trkpt lat="47.86262" lon="-1.76735">
        <ele>50.61</ele>
        <time>2014-04-13T07:31:01Z</time>
      </trkpt>
      <trkpt lat="47.86231" lon="-1.76721">
        <ele>53.49</ele>
        <time>2014-04-13T07:31:15Z</time>
      </trkpt>
      <trkpt lat="47.86202" lon="-1.76706">
        <ele>56.37</ele>
        <time>2014-04-13T07:31:28Z</time>
      </trkpt>
      <trkpt lat="47.86185" lon="-1.76697">
        <ele>57.82</ele>
        <time>2014-04-13T07:31:36Z</time>
      </trkpt>
      <trkpt lat="47.86156" lon="-1.76695">
        <ele>59.74</ele>
        <time>2014-04-13T07:31:48Z</time>
      </trkpt>
      <trkpt lat="47.86124" lon="-1.76708">
        <ele>61.66</ele>
        <time>2014-04-13T07:32:01Z</time>
      </trkpt>
      <trkpt lat="47.86092" lon="-1.76707">
        <ele>64.55</ele>
        <time>2014-04-13T07:32:14Z</time>
      </trkpt>
      <trkpt lat="47.86068" lon="-1.76712">
        <ele>66.47</ele>
        <time>2014-04-13T07:32:25Z</time>
      </trkpt>
      <trkpt lat="47.86046" lon="-1.76714">
        <ele>67.43</ele>
        <time>2014-04-13T07:32:34Z</time>
      </trkpt>
      <trkpt lat="47.86043" lon="-1.76714">
        <ele>67.91</ele>
        <time>2014-04-13T07:32:35Z</time>
      </trkpt>
      <trkpt lat="47.86032" lon="-1.76708">
        <ele>68.87</ele>
        <time>2014-04-13T07:32:40Z</time>
      </trkpt>
      <trkpt lat="47.8603" lon="-1.7669">
        <ele>70.31</ele>
        <time>2014-04-13T07:32:47Z</time>
      </trkpt>
      <trkpt lat="47.86034" lon="-1.76656">
        <ele>74.16</ele>
        <time>2014-04-13T07:33:00Z</time>
      </trkpt>
      <trkpt lat="47.86033" lon="-1.76649">
        <ele>75.12</ele>
        <time>2014-04-13T07:33:03Z</time>
      </trkpt>
      <trkpt lat="47.86032" lon="-1.76618">
        <ele>78</ele>
        <time>2014-04-13T07:33:14Z</time>
      </trkpt>
      <trkpt lat="47.86028" lon="-1.76588">
        <ele>81.37</ele>
        <time>2014-04-13T07:33:24Z</time>
      </trkpt>
      <trkpt lat="47.86021" lon="-1.76532">
        <ele>83.77</ele>
        <time>2014-04-13T07:33:42Z</time>
      </trkpt>
      <trkpt lat="47.86017" lon="-1.76521">
        <ele>84.73</ele>
        <time>2014-04-13T07:33:46Z</time>
      </trkpt>
      <trkpt lat="47.86005" lon="-1.76482">
        <ele>86.66</ele>
        <time>2014-04-13T07:34:00Z</time>
      </trkpt>
      <trkpt lat="47.85992" lon="-1.76442">
        <ele>89.06</ele>
        <time>2014-04-13T07:34:13Z</time>
      </trkpt>
      <trkpt lat="47.85967" lon="-1.76409">
        <ele>91.94</ele>
        <time>2014-04-13T07:34:27Z</time>
      </trkpt>
      <trkpt lat="47.8594" lon="-1.76372">
        <ele>93.87</ele>
        <time>2014-04-13T07:34:43Z</time>
      </trkpt>
      <trkpt lat="47.8592" lon="-1.76335">
        <ele>95.31</ele>
        <time>2014-04-13T07:34:56Z</time>
      </trkpt>
      <trkpt lat="47.85907" lon="-1.76314">
        <ele>97.23</ele>
        <time>2014-04-13T07:35:04Z</time>
      </trkpt>
      <trkpt lat="47.85898" lon="-1.76314">
        <ele>98.67</ele>
        <time>2014-04-13T07:35:10Z</time>
      </trkpt>
      <trkpt lat="47.8589" lon="-1.76314">
        <ele>100.6</ele>
        <time>2014-04-13T07:35:19Z</time>
      </trkpt>
      <trkpt lat="47.85887" lon="-1.76305">
        <ele>101.56</ele>
        <time>2014-04-13T07:35:23Z</time>
      </trkpt>
      <trkpt lat="47.85875" lon="-1.76295">
        <ele>103</ele>
        <time>2014-04-13T07:35:32Z</time>
      </trkpt>
      <trkpt lat="47.85863" lon="-1.763">
        <ele>103</ele>
        <time>2014-04-13T07:35:40Z</time>
      </trkpt>
      <trkpt lat="47.85852" lon="-1.76288">
        <ele>104.44</ele>
        <time>2014-04-13T07:35:49Z</time>
      </trkpt>
      <trkpt lat="47.85846" lon="-1.76291">
        <ele>104.44</ele>
        <time>2014-04-13T07:35:55Z</time>
      </trkpt>
      <trkpt lat="47.85846" lon="-1.76299">
        <ele>103.96</ele>
        <time>2014-04-13T07:35:59Z</time>
      </trkpt>
      <trkpt lat="47.85838" lon="-1.76298">
        <ele>104.44</ele>
        <time>2014-04-13T07:36:03Z</time>
      </trkpt>
      <trkpt lat="47.85833" lon="-1.76295">
        <ele>104.92</ele>
        <time>2014-04-13T07:36:06Z</time>
      </trkpt>
      <trkpt lat="47.85835" lon="-1.76281">
        <ele>104.92</ele>
        <time>2014-04-13T07:36:12Z</time>
      </trkpt>
      <trkpt lat="47.85829" lon="-1.76272">
        <ele>105.4</ele>
        <time>2014-04-13T07:36:17Z</time>
      </trkpt>
      <trkpt lat="47.85822" lon="-1.76268">
        <ele>105.88</ele>
        <time>2014-04-13T07:36:23Z</time>
      </trkpt>
      <trkpt lat="47.85815" lon="-1.76262">
        <ele>106.36</ele>
        <time>2014-04-13T07:36:28Z</time>
      </trkpt>
      <trkpt lat="47.85816" lon="-1.76272">
        <ele>105.4</ele>
        <time>2014-04-13T07:36:36Z</time>
      </trkpt>
      <trkpt lat="47.8582" lon="-1.76273">
        <ele>105.4</ele>
        <time>2014-04-13T07:36:39Z</time>
      </trkpt>
      <trkpt lat="47.85815" lon="-1.76279">
        <ele>105.4</ele>
        <time>2014-04-13T07:36:44Z</time>
      </trkpt>
      <trkpt lat="47.85806" lon="-1.76279">
        <ele>105.88</ele>
        <time>2014-04-13T07:36:49Z</time>
      </trkpt>
      <trkpt lat="47.85798" lon="-1.76275">
        <ele>105.88</ele>
        <time>2014-04-13T07:36:54Z</time>
      </trkpt>
      <trkpt lat="47.85797" lon="-1.7627">
        <ele>106.36</ele>
        <time>2014-04-13T07:36:57Z</time>
      </trkpt>
      <trkpt lat="47.85794" lon="-1.7627">
        <ele>106.36</ele>
        <time>2014-04-13T07:36:59Z</time>
      </trkpt>
      <trkpt lat="47.85793" lon="-1.76257">
        <ele>106.36</ele>
        <time>2014-04-13T07:37:05Z</time>
      </trkpt>
      <trkpt lat="47.85792" lon="-1.76247">
        <ele>107.32</ele>
        <time>2014-04-13T07:37:10Z</time>
      </trkpt>
      <trkpt lat="47.85783" lon="-1.76241">
        <ele>107.81</ele>
        <time>2014-04-13T07:37:15Z</time>
      </trkpt>
      <trkpt lat="47.85774" lon="-1.76225">
        <ele>108.29</ele>
        <time>2014-04-13T07:37:22Z</time>
      </trkpt>
      <trkpt lat="47.85772" lon="-1.76207">
        <ele>108.29</ele>
        <time>2014-04-13T07:37:28Z</time>
      </trkpt>
      <trkpt lat="47.85769" lon="-1.76195">
        <ele>108.77</ele>
        <time>2014-04-13T07:37:32Z</time>
      </trkpt>
      <trkpt lat="47.85758" lon="-1.76211">
        <ele>108.77</ele>
        <time>2014-04-13T07:37:41Z</time>
      </trkpt>
      <trkpt lat="47.85753" lon="-1.76214">
        <ele>108.77</ele>
        <time>2014-04-13T07:37:43Z</time>
      </trkpt>
      <trkpt lat="47.85751" lon="-1.76233">
        <ele>107.81</ele>
        <time>2014-04-13T07:37:49Z</time>
      </trkpt>
      <trkpt lat="47.85744" lon="-1.76243">
        <ele>107.81</ele>
        <time>2014-04-13T07:37:53Z</time>
      </trkpt>
      <trkpt lat="47.85722" lon="-1.76248">
        <ele>108.29</ele>
        <time>2014-04-13T07:38:02Z</time>
      </trkpt>
      <trkpt lat="47.85732" lon="-1.7623">
        <ele>108.77</ele>
        <time>2014-04-13T07:38:08Z</time>
      </trkpt>
      <trkpt lat="47.85733" lon="-1.76219">
        <ele>108.77</ele>
        <time>2014-04-13T07:38:11Z</time>
      </trkpt>
      <trkpt lat="47.85734" lon="-1.76198">
        <ele>109.25</ele>
        <time>2014-04-13T07:38:18Z</time>
      </trkpt>
      <trkpt lat="47.85744" lon="-1.76185">
        <ele>108.77</ele>
        <time>2014-04-13T07:38:22Z</time>
      </trkpt>
      <trkpt lat="47.85741" lon="-1.76161">
        <ele>109.25</ele>
        <time>2014-04-13T07:38:30Z</time>
      </trkpt>
      <trkpt lat="47.85738" lon="-1.76166">
        <ele>109.25</ele>
        <time>2014-04-13T07:38:33Z</time>
      </trkpt>
      <trkpt lat="47.85723" lon="-1.76185">
        <ele>109.25</ele>
        <time>2014-04-13T07:38:39Z</time>
      </trkpt>
      <trkpt lat="47.85713" lon="-1.76182">
        <ele>109.73</ele>
        <time>2014-04-13T07:38:44Z</time>
      </trkpt>
      <trkpt lat="47.85707" lon="-1.76169">
        <ele>109.73</ele>
        <time>2014-04-13T07:38:48Z</time>
      </trkpt>
      <trkpt lat="47.85717" lon="-1.76156">
        <ele>109.25</ele>
        <time>2014-04-13T07:38:56Z</time>
      </trkpt>
      <trkpt lat="47.85732" lon="-1.76137">
        <ele>109.25</ele>
        <time>2014-04-13T07:39:04Z</time>
      </trkpt>
      <trkpt lat="47.8573" lon="-1.7613">
        <ele>109.25</ele>
        <time>2014-04-13T07:39:06Z</time>
      </trkpt>
      <trkpt lat="47.85728" lon="-1.76126">
        <ele>109.73</ele>
        <time>2014-04-13T07:39:10Z</time>
      </trkpt>
      <trkpt lat="47.85718" lon="-1.76105">
        <ele>109.73</ele>
        <time>2014-04-13T07:39:17Z</time>
      </trkpt>
      <trkpt lat="47.85713" lon="-1.76111">
        <ele>109.73</ele>
        <time>2014-04-13T07:39:23Z</time>
      </trkpt>
      <trkpt lat="47.85712" lon="-1.76115">
        <ele>110.69</ele>
        <time>2014-04-13T07:39:24Z</time>
      </trkpt>
      <trkpt lat="47.85707" lon="-1.76126">
        <ele>109.73</ele>
        <time>2014-04-13T07:39:27Z</time>
      </trkpt>
      <trkpt lat="47.85687" lon="-1.76133">
        <ele>109.73</ele>
        <time>2014-04-13T07:39:35Z</time>
      </trkpt>
      <trkpt lat="47.85682" lon="-1.76146">
        <ele>109.25</ele>
        <time>2014-04-13T07:39:42Z</time>
      </trkpt>
      <trkpt lat="47.85682" lon="-1.76151">
        <ele>109.25</ele>
        <time>2014-04-13T07:39:44Z</time>
      </trkpt>
      <trkpt lat="47.85684" lon="-1.76163">
        <ele>109.73</ele>
        <time>2014-04-13T07:39:47Z</time>
      </trkpt>
      <trkpt lat="47.85686" lon="-1.76175">
        <ele>109.25</ele>
        <time>2014-04-13T07:39:50Z</time>
      </trkpt>
      <trkpt lat="47.85693" lon="-1.76198">
        <ele>109.25</ele>
        <time>2014-04-13T07:39:57Z</time>
      </trkpt>
      <trkpt lat="47.85703" lon="-1.76192">
        <ele>109.25</ele>
        <time>2014-04-13T07:40:03Z</time>
      </trkpt>
      <trkpt lat="47.85706" lon="-1.76192">
        <ele>109.25</ele>
        <time>2014-04-13T07:40:04Z</time>
      </trkpt>
      <trkpt lat="47.85712" lon="-1.762">
        <ele>108.77</ele>
        <time>2014-04-13T07:40:08Z</time>
      </trkpt>
      <trkpt lat="47.85712" lon="-1.76223">
        <ele>107.81</ele>
        <time>2014-04-13T07:40:14Z</time>
      </trkpt>
      <trkpt lat="47.85707" lon="-1.7624">
        <ele>107.81</ele>
        <time>2014-04-13T07:40:20Z</time>
      </trkpt>
      <trkpt lat="47.85705" lon="-1.76241">
        <ele>107.32</ele>
        <time>2014-04-13T07:40:21Z</time>
      </trkpt>
      <trkpt lat="47.85702" lon="-1.7624">
        <ele>106.84</ele>
        <time>2014-04-13T07:40:23Z</time>
      </trkpt>
      <trkpt lat="47.85691" lon="-1.7624">
        <ele>106.84</ele>
        <time>2014-04-13T07:40:28Z</time>
      </trkpt>
      <trkpt lat="47.85677" lon="-1.76223">
        <ele>108.29</ele>
        <time>2014-04-13T07:40:37Z</time>
      </trkpt>
      <trkpt lat="47.85672" lon="-1.76228">
        <ele>108.29</ele>
        <time>2014-04-13T07:40:39Z</time>
      </trkpt>
      <trkpt lat="47.85655" lon="-1.76232">
        <ele>107.81</ele>
        <time>2014-04-13T07:40:46Z</time>
      </trkpt>
      <trkpt lat="47.85655" lon="-1.76197">
        <ele>108.77</ele>
        <time>2014-04-13T07:40:55Z</time>
      </trkpt>
      <trkpt lat="47.85658" lon="-1.76189">
        <ele>108.77</ele>
        <time>2014-04-13T07:40:57Z</time>
      </trkpt>
      <trkpt lat="47.85661" lon="-1.76179">
        <ele>109.25</ele>
        <time>2014-04-13T07:41:01Z</time>
      </trkpt>
      <trkpt lat="47.85654" lon="-1.7617">
        <ele>108.77</ele>
        <time>2014-04-13T07:41:05Z</time>
      </trkpt>
      <trkpt lat="47.85642" lon="-1.76185">
        <ele>108.29</ele>
        <time>2014-04-13T07:41:12Z</time>
      </trkpt>
      <trkpt lat="47.8564" lon="-1.76185">
        <ele>108.29</ele>
        <time>2014-04-13T07:41:13Z</time>
      </trkpt>
      <trkpt lat="47.85638" lon="-1.76174">
        <ele>108.77</ele>
        <time>2014-04-13T07:41:16Z</time>
      </trkpt>
      <trkpt lat="47.85644" lon="-1.76161">
        <ele>108.77</ele>
        <time>2014-04-13T07:41:22Z</time>
      </trkpt>
      <trkpt lat="47.85634" lon="-1.76126">
        <ele>108.77</ele>
        <time>2014-04-13T07:41:31Z</time>
      </trkpt>
      <trkpt lat="47.85635" lon="-1.7612">
        <ele>108.77</ele>
        <time>2014-04-13T07:41:32Z</time>
      </trkpt>
      <trkpt lat="47.85633" lon="-1.76083">
        <ele>109.25</ele>
        <time>2014-04-13T07:41:39Z</time>
      </trkpt>
      <trkpt lat="47.85635" lon="-1.76052">
        <ele>109.25</ele>
        <time>2014-04-13T07:41:48Z</time>
      </trkpt>
      <trkpt lat="47.85635" lon="-1.76035">
        <ele>109.73</ele>
        <time>2014-04-13T07:41:52Z</time>
      </trkpt>
      <trkpt lat="47.85638" lon="-1.76017">
        <ele>109.73</ele>
        <time>2014-04-13T07:41:57Z</time>
      </trkpt>
      <trkpt lat="47.85645" lon="-1.75991">
        <ele>110.21</ele>
        <time>2014-04-13T07:42:03Z</time>
      </trkpt>
      <trkpt lat="47.85648" lon="-1.75983">
        <ele>110.21</ele>
        <time>2014-04-13T07:42:07Z</time>
      </trkpt>
      <trkpt lat="47.85642" lon="-1.75975">
        <ele>110.21</ele>
        <time>2014-04-13T07:42:12Z</time>
      </trkpt>
      <trkpt lat="47.85646" lon="-1.75969">
        <ele>110.21</ele>
        <time>2014-04-13T07:42:17Z</time>
      </trkpt>
      <trkpt lat="47.85642" lon="-1.75948">
        <ele>110.69</ele>
        <time>2014-04-13T07:42:26Z</time>
      </trkpt>
      <trkpt lat="47.85641" lon="-1.75944">
        <ele>110.21</ele>
        <time>2014-04-13T07:42:27Z</time>
      </trkpt>
      <trkpt lat="47.85635" lon="-1.75933">
        <ele>110.21</ele>
        <time>2014-04-13T07:42:32Z</time>
      </trkpt>
      <trkpt lat="47.85629" lon="-1.75925">
        <ele>110.21</ele>
        <time>2014-04-13T07:42:36Z</time>
      </trkpt>
      <trkpt lat="47.85637" lon="-1.75892">
        <ele>110.21</ele>
        <time>2014-04-13T07:42:44Z</time>
      </trkpt>
      <trkpt lat="47.85632" lon="-1.75876">
        <ele>110.21</ele>
        <time>2014-04-13T07:42:53Z</time>
      </trkpt>
      <trkpt lat="47.85631" lon="-1.75865">
        <ele>110.21</ele>
        <time>2014-04-13T07:42:57Z</time>
      </trkpt>
      <trkpt lat="47.85632" lon="-1.75846">
        <ele>109.73</ele>
        <time>2014-04-13T07:43:02Z</time>
      </trkpt>
      <trkpt lat="47.85625" lon="-1.75833">
        <ele>110.21</ele>
        <time>2014-04-13T07:43:07Z</time>
      </trkpt>
      <trkpt lat="47.85622" lon="-1.75783">
        <ele>110.21</ele>
        <time>2014-04-13T07:43:17Z</time>
      </trkpt>
      <trkpt lat="47.85623" lon="-1.7577">
        <ele>109.73</ele>
        <time>2014-04-13T07:43:19Z</time>
      </trkpt>
      <trkpt lat="47.85619" lon="-1.75732">
        <ele>110.69</ele>
        <time>2014-04-13T07:43:25Z</time>
      </trkpt>
      <trkpt lat="47.85618" lon="-1.75725">
        <ele>109.73</ele>
        <time>2014-04-13T07:43:26Z</time>
      </trkpt>
      <trkpt lat="47.85613" lon="-1.75697">
        <ele>109.73</ele>
        <time>2014-04-13T07:43:30Z</time>
      </trkpt>
      <trkpt lat="47.85609" lon="-1.75693">
        <ele>109.73</ele>
        <time>2014-04-13T07:43:31Z</time>
      </trkpt>
      <trkpt lat="47.85606" lon="-1.75692">
        <ele>109.73</ele>
        <time>2014-04-13T07:43:32Z</time>
      </trkpt>
      <trkpt lat="47.8559" lon="-1.7569">
        <ele>109.73</ele>
        <time>2014-04-13T07:43:36Z</time>
      </trkpt>
      <trkpt lat="47.85581" lon="-1.7569">
        <ele>109.73</ele>
        <time>2014-04-13T07:43:38Z</time>
      </trkpt>
      <trkpt lat="47.85573" lon="-1.75692">
        <ele>109.73</ele>
        <time>2014-04-13T07:43:40Z</time>
      </trkpt>
      <trkpt lat="47.85568" lon="-1.75692">
        <ele>109.73</ele>
        <time>2014-04-13T07:43:41Z</time>
      </trkpt>
      <trkpt lat="47.85564" lon="-1.75692">
        <ele>109.73</ele>
        <time>2014-04-13T07:43:42Z</time>
      </trkpt>
      <trkpt lat="47.85555" lon="-1.75692">
        <ele>109.73</ele>
        <time>2014-04-13T07:43:44Z</time>
      </trkpt>
      <trkpt lat="47.85545" lon="-1.75693">
        <ele>109.73</ele>
        <time>2014-04-13T07:43:46Z</time>
      </trkpt>
      <trkpt lat="47.85536" lon="-1.75694">
        <ele>109.25</ele>
        <time>2014-04-13T07:43:48Z</time>
      </trkpt>
      <trkpt lat="47.85531" lon="-1.75694">
        <ele>109.25</ele>
        <time>2014-04-13T07:43:49Z</time>
      </trkpt>
      <trkpt lat="47.85472" lon="-1.75703">
        <ele>108.77</ele>
        <time>2014-04-13T07:44:01Z</time>
      </trkpt>
      <trkpt lat="47.85457" lon="-1.75705">
        <ele>108.77</ele>
        <time>2014-04-13T07:44:04Z</time>
      </trkpt>
      <trkpt lat="47.85426" lon="-1.75712">
        <ele>107.81</ele>
        <time>2014-04-13T07:44:10Z</time>
      </trkpt>
      <trkpt lat="47.85421" lon="-1.75712">
        <ele>107.81</ele>
        <time>2014-04-13T07:44:11Z</time>
      </trkpt>
      <trkpt lat="47.85398" lon="-1.75716">
        <ele>106.84</ele>
        <time>2014-04-13T07:44:15Z</time>
      </trkpt>
      <trkpt lat="47.85386" lon="-1.7572">
        <ele>105.88</ele>
        <time>2014-04-13T07:44:17Z</time>
      </trkpt>
      <trkpt lat="47.85381" lon="-1.75725">
        <ele>105.88</ele>
        <time>2014-04-13T07:44:18Z</time>
      </trkpt>
      <trkpt lat="47.85376" lon="-1.75731">
        <ele>104.92</ele>
        <time>2014-04-13T07:44:19Z</time>
      </trkpt>
      <trkpt lat="47.85373" lon="-1.75739">
        <ele>104.44</ele>
        <time>2014-04-13T07:44:20Z</time>
      </trkpt>
      <trkpt lat="47.85371" lon="-1.75746">
        <ele>104.44</ele>
        <time>2014-04-13T07:44:21Z</time>
      </trkpt>
      <trkpt lat="47.85369" lon="-1.75754">
        <ele>104.44</ele>
        <time>2014-04-13T07:44:22Z</time>
      </trkpt>
      <trkpt lat="47.85359" lon="-1.75842">
        <ele>104.92</ele>
        <time>2014-04-13T07:44:35Z</time>
      </trkpt>
      <trkpt lat="47.85349" lon="-1.75963">
        <ele>104.92</ele>
        <time>2014-04-13T07:44:51Z</time>
      </trkpt>
      <trkpt lat="47.85347" lon="-1.75989">
        <ele>104.44</ele>
        <time>2014-04-13T07:44:54Z</time>
      </trkpt>
      <trkpt lat="47.85346" lon="-1.75998">
        <ele>104.44</ele>
        <time>2014-04-13T07:44:55Z</time>
      </trkpt>
      <trkpt lat="47.8534" lon="-1.76074">
        <ele>101.08</ele>
        <time>2014-04-13T07:45:03Z</time>
      </trkpt>
      <trkpt lat="47.85336" lon="-1.7613">
        <ele>97.23</ele>
        <time>2014-04-13T07:45:08Z</time>
      </trkpt>
      <trkpt lat="47.85329" lon="-1.76211">
        <ele>94.35</ele>
        <time>2014-04-13T07:45:15Z</time>
      </trkpt>
      <trkpt lat="47.85321" lon="-1.76329">
        <ele>90.98</ele>
        <time>2014-04-13T07:45:26Z</time>
      </trkpt>
      <trkpt lat="47.8532" lon="-1.76349">
        <ele>90.02</ele>
        <time>2014-04-13T07:45:28Z</time>
      </trkpt>
      <trkpt lat="47.85314" lon="-1.76435">
        <ele>86.66</ele>
        <time>2014-04-13T07:45:36Z</time>
      </trkpt>
      <trkpt lat="47.85309" lon="-1.76497">
        <ele>83.29</ele>
        <time>2014-04-13T07:45:41Z</time>
      </trkpt>
      <trkpt lat="47.85307" lon="-1.76517">
        <ele>82.33</ele>
        <time>2014-04-13T07:45:43Z</time>
      </trkpt>
      <trkpt lat="47.85307" lon="-1.76524">
        <ele>81.85</ele>
        <time>2014-04-13T07:45:44Z</time>
      </trkpt>
      <trkpt lat="47.85306" lon="-1.7653">
        <ele>81.37</ele>
        <time>2014-04-13T07:45:46Z</time>
      </trkpt>
      <trkpt lat="47.85305" lon="-1.76531">
        <ele>81.37</ele>
        <time>2014-04-13T07:45:47Z</time>
      </trkpt>
      <trkpt lat="47.85291" lon="-1.76541">
        <ele>80.41</ele>
        <time>2014-04-13T07:45:55Z</time>
      </trkpt>
      <trkpt lat="47.85287" lon="-1.76556">
        <ele>79.45</ele>
        <time>2014-04-13T07:45:58Z</time>
      </trkpt>
      <trkpt lat="47.85284" lon="-1.7656">
        <ele>79.45</ele>
        <time>2014-04-13T07:45:59Z</time>
      </trkpt>
      <trkpt lat="47.85276" lon="-1.7655">
        <ele>79.45</ele>
        <time>2014-04-13T07:46:06Z</time>
      </trkpt>
      <trkpt lat="47.85265" lon="-1.76544">
        <ele>78.97</ele>
        <time>2014-04-13T07:46:12Z</time>
      </trkpt>
      <trkpt lat="47.8526" lon="-1.76551">
        <ele>78</ele>
        <time>2014-04-13T07:46:15Z</time>
      </trkpt>
      <trkpt lat="47.85257" lon="-1.76554">
        <ele>77.52</ele>
        <time>2014-04-13T07:46:18Z</time>
      </trkpt>
      <trkpt lat="47.85243" lon="-1.76553">
        <ele>75.6</ele>
        <time>2014-04-13T07:46:22Z</time>
      </trkpt>
      <trkpt lat="47.85233" lon="-1.76552">
        <ele>75.12</ele>
        <time>2014-04-13T07:46:27Z</time>
      </trkpt>
      <trkpt lat="47.85232" lon="-1.76546">
        <ele>75.6</ele>
        <time>2014-04-13T07:46:29Z</time>
      </trkpt>
      <trkpt lat="47.85226" lon="-1.76541">
        <ele>75.12</ele>
        <time>2014-04-13T07:46:35Z</time>
      </trkpt>
      <trkpt lat="47.85207" lon="-1.76548">
        <ele>71.27</ele>
        <time>2014-04-13T07:46:43Z</time>
      </trkpt>
      <trkpt lat="47.85188" lon="-1.76552">
        <ele>67.91</ele>
        <time>2014-04-13T07:46:51Z</time>
      </trkpt>
      <trkpt lat="47.85187" lon="-1.76556">
        <ele>66.95</ele>
        <time>2014-04-13T07:46:53Z</time>
      </trkpt>
      <trkpt lat="47.85176" lon="-1.76556">
        <ele>66.95</ele>
        <time>2014-04-13T07:46:57Z</time>
      </trkpt>
      <trkpt lat="47.85174" lon="-1.76558">
        <ele>65.99</ele>
        <time>2014-04-13T07:46:59Z</time>
      </trkpt>
      <trkpt lat="47.85178" lon="-1.76572">
        <ele>63.1</ele>
        <time>2014-04-13T07:47:02Z</time>
      </trkpt>
      <trkpt lat="47.85174" lon="-1.76577">
        <ele>62.62</ele>
        <time>2014-04-13T07:47:05Z</time>
      </trkpt>
      <trkpt lat="47.85172" lon="-1.76576">
        <ele>62.62</ele>
        <time>2014-04-13T07:47:06Z</time>
      </trkpt>
      <trkpt lat="47.85169" lon="-1.76575">
        <ele>62.14</ele>
        <time>2014-04-13T07:47:07Z</time>
      </trkpt>
      <trkpt lat="47.8516" lon="-1.76583">
        <ele>62.62</ele>
        <time>2014-04-13T07:47:11Z</time>
      </trkpt>
      <trkpt lat="47.85154" lon="-1.76584">
        <ele>63.58</ele>
        <time>2014-04-13T07:47:13Z</time>
      </trkpt>
      <trkpt lat="47.8514" lon="-1.76577">
        <ele>63.58</ele>
        <time>2014-04-13T07:47:18Z</time>
      </trkpt>
      <trkpt lat="47.85119" lon="-1.76555">
        <ele>61.66</ele>
        <time>2014-04-13T07:47:27Z</time>
      </trkpt>
      <trkpt lat="47.85105" lon="-1.76543">
        <ele>63.1</ele>
        <time>2014-04-13T07:47:38Z</time>
      </trkpt>
      <trkpt lat="47.85105" lon="-1.76541">
        <ele>63.58</ele>
        <time>2014-04-13T07:47:39Z</time>
      </trkpt>
      <trkpt lat="47.85093" lon="-1.76526">
        <ele>62.62</ele>
        <time>2014-04-13T07:47:47Z</time>
      </trkpt>
      <trkpt lat="47.85097" lon="-1.76534">
        <ele>62.14</ele>
        <time>2014-04-13T07:47:50Z</time>
      </trkpt>
      <trkpt lat="47.851" lon="-1.76545">
        <ele>62.14</ele>
        <time>2014-04-13T07:47:54Z</time>
      </trkpt>
      <trkpt lat="47.85112" lon="-1.76571">
        <ele>62.14</ele>
        <time>2014-04-13T07:48:03Z</time>
      </trkpt>
      <trkpt lat="47.85113" lon="-1.76574">
        <ele>61.66</ele>
        <time>2014-04-13T07:48:04Z</time>
      </trkpt>
      <trkpt lat="47.85122" lon="-1.76583">
        <ele>60.7</ele>
        <time>2014-04-13T07:48:07Z</time>
      </trkpt>
      <trkpt lat="47.85135" lon="-1.76601">
        <ele>60.7</ele>
        <time>2014-04-13T07:48:13Z</time>
      </trkpt>
      <trkpt lat="47.85144" lon="-1.76615">
        <ele>60.7</ele>
        <time>2014-04-13T07:48:17Z</time>
      </trkpt>
      <trkpt lat="47.8515" lon="-1.7661">
        <ele>58.78</ele>
        <time>2014-04-13T07:48:21Z</time>
      </trkpt>
      <trkpt lat="47.85144" lon="-1.76608">
        <ele>59.26</ele>
        <time>2014-04-13T07:48:24Z</time>
      </trkpt>
      <trkpt lat="47.85141" lon="-1.76596">
        <ele>62.14</ele>
        <time>2014-04-13T07:48:32Z</time>
      </trkpt>
      <trkpt lat="47.85145" lon="-1.76597">
        <ele>63.1</ele>
        <time>2014-04-13T07:48:34Z</time>
      </trkpt>
      <trkpt lat="47.8515" lon="-1.76599">
        <ele>63.1</ele>
        <time>2014-04-13T07:48:36Z</time>
      </trkpt>
      <trkpt lat="47.85164" lon="-1.76587">
        <ele>63.1</ele>
        <time>2014-04-13T07:48:43Z</time>
      </trkpt>
      <trkpt lat="47.85178" lon="-1.76616">
        <ele>64.55</ele>
        <time>2014-04-13T07:48:53Z</time>
      </trkpt>
      <trkpt lat="47.85184" lon="-1.76618">
        <ele>65.03</ele>
        <time>2014-04-13T07:48:56Z</time>
      </trkpt>
      <trkpt lat="47.85188" lon="-1.76601">
        <ele>66.47</ele>
        <time>2014-04-13T07:49:04Z</time>
      </trkpt>
      <trkpt lat="47.85193" lon="-1.7659">
        <ele>66.95</ele>
        <time>2014-04-13T07:49:09Z</time>
      </trkpt>
      <trkpt lat="47.85199" lon="-1.76582">
        <ele>65.03</ele>
        <time>2014-04-13T07:49:14Z</time>
      </trkpt>
      <trkpt lat="47.85204" lon="-1.76592">
        <ele>65.99</ele>
        <time>2014-04-13T07:49:19Z</time>
      </trkpt>
      <trkpt lat="47.85209" lon="-1.76607">
        <ele>69.35</ele>
        <time>2014-04-13T07:49:25Z</time>
      </trkpt>
      <trkpt lat="47.85211" lon="-1.76611">
        <ele>69.35</ele>
        <time>2014-04-13T07:49:29Z</time>
      </trkpt>
      <trkpt lat="47.85218" lon="-1.76604">
        <ele>67.43</ele>
        <time>2014-04-13T07:49:33Z</time>
      </trkpt>
      <trkpt lat="47.85221" lon="-1.76607">
        <ele>67.91</ele>
        <time>2014-04-13T07:49:35Z</time>
      </trkpt>
      <trkpt lat="47.85227" lon="-1.76615">
        <ele>68.87</ele>
        <time>2014-04-13T07:49:39Z</time>
      </trkpt>
      <trkpt lat="47.85235" lon="-1.76624">
        <ele>67.91</ele>
        <time>2014-04-13T07:49:43Z</time>
      </trkpt>
      <trkpt lat="47.85237" lon="-1.76628">
        <ele>67.91</ele>
        <time>2014-04-13T07:49:44Z</time>
      </trkpt>
      <trkpt lat="47.85238" lon="-1.76639">
        <ele>69.35</ele>
        <time>2014-04-13T07:49:48Z</time>
      </trkpt>
      <trkpt lat="47.85254" lon="-1.76644">
        <ele>70.31</ele>
        <time>2014-04-13T07:49:56Z</time>
      </trkpt>
      <trkpt lat="47.85268" lon="-1.76646">
        <ele>71.27</ele>
        <time>2014-04-13T07:50:02Z</time>
      </trkpt>
      <trkpt lat="47.85275" lon="-1.76636">
        <ele>72.24</ele>
        <time>2014-04-13T07:50:06Z</time>
      </trkpt>
      <trkpt lat="47.85281" lon="-1.76628">
        <ele>73.68</ele>
        <time>2014-04-13T07:50:10Z</time>
      </trkpt>
      <trkpt lat="47.85293" lon="-1.76636">
        <ele>73.68</ele>
        <time>2014-04-13T07:50:15Z</time>
      </trkpt>
      <trkpt lat="47.85296" lon="-1.7664">
        <ele>74.16</ele>
        <time>2014-04-13T07:50:17Z</time>
      </trkpt>
      <trkpt lat="47.85297" lon="-1.76667">
        <ele>72.24</ele>
        <time>2014-04-13T07:50:22Z</time>
      </trkpt>
      <trkpt lat="47.85297" lon="-1.76675">
        <ele>71.76</ele>
        <time>2014-04-13T07:50:23Z</time>
      </trkpt>
      <trkpt lat="47.85296" lon="-1.76684">
        <ele>70.79</ele>
        <time>2014-04-13T07:50:24Z</time>
      </trkpt>
      <trkpt lat="47.85291" lon="-1.76748">
        <ele>67.43</ele>
        <time>2014-04-13T07:50:30Z</time>
      </trkpt>
      <trkpt lat="47.8529" lon="-1.76767">
        <ele>66.47</ele>
        <time>2014-04-13T07:50:32Z</time>
      </trkpt>
      <trkpt lat="47.8529" lon="-1.76774">
        <ele>66.47</ele>
        <time>2014-04-13T07:50:33Z</time>
      </trkpt>
      <trkpt lat="47.85292" lon="-1.76781">
        <ele>65.99</ele>
        <time>2014-04-13T07:50:34Z</time>
      </trkpt>
      <trkpt lat="47.85295" lon="-1.76786">
        <ele>65.99</ele>
        <time>2014-04-13T07:50:35Z</time>
      </trkpt>
      <trkpt lat="47.85299" lon="-1.76788">
        <ele>65.99</ele>
        <time>2014-04-13T07:50:36Z</time>
      </trkpt>
      <trkpt lat="47.85303" lon="-1.7679">
        <ele>65.99</ele>
        <time>2014-04-13T07:50:37Z</time>
      </trkpt>
      <trkpt lat="47.85306" lon="-1.7679">
        <ele>66.47</ele>
        <time>2014-04-13T07:50:38Z</time>
      </trkpt>
      <trkpt lat="47.8531" lon="-1.76789">
        <ele>66.95</ele>
        <time>2014-04-13T07:50:39Z</time>
      </trkpt>
      <trkpt lat="47.85344" lon="-1.7679">
        <ele>68.87</ele>
        <time>2014-04-13T07:50:49Z</time>
      </trkpt>
      <trkpt lat="47.85399" lon="-1.76796">
        <ele>71.27</ele>
        <time>2014-04-13T07:51:04Z</time>
      </trkpt>
      <trkpt lat="47.85435" lon="-1.76799">
        <ele>72.72</ele>
        <time>2014-04-13T07:51:15Z</time>
      </trkpt>
      <trkpt lat="47.85479" lon="-1.76801">
        <ele>74.16</ele>
        <time>2014-04-13T07:51:28Z</time>
      </trkpt>
      <trkpt lat="47.85526" lon="-1.76804">
        <ele>76.08</ele>
        <time>2014-04-13T07:51:41Z</time>
      </trkpt>
      <trkpt lat="47.85576" lon="-1.76808">
        <ele>78</ele>
        <time>2014-04-13T07:51:56Z</time>
      </trkpt>
      <trkpt lat="47.85623" lon="-1.7681">
        <ele>78.97</ele>
        <time>2014-04-13T07:52:08Z</time>
      </trkpt>
      <trkpt lat="47.85679" lon="-1.76813">
        <ele>79.93</ele>
        <time>2014-04-13T07:52:22Z</time>
      </trkpt>
      <trkpt lat="47.85758" lon="-1.76817">
        <ele>78.97</ele>
        <time>2014-04-13T07:52:38Z</time>
      </trkpt>
      <trkpt lat="47.85778" lon="-1.76819">
        <ele>78.48</ele>
        <time>2014-04-13T07:52:42Z</time>
      </trkpt>
      <trkpt lat="47.85783" lon="-1.76822">
        <ele>78</ele>
        <time>2014-04-13T07:52:43Z</time>
      </trkpt>
      <trkpt lat="47.85787" lon="-1.76826">
        <ele>77.52</ele>
        <time>2014-04-13T07:52:44Z</time>
      </trkpt>
      <trkpt lat="47.85791" lon="-1.76833">
        <ele>77.52</ele>
        <time>2014-04-13T07:52:45Z</time>
      </trkpt>
      <trkpt lat="47.85793" lon="-1.76841">
        <ele>76.56</ele>
        <time>2014-04-13T07:52:46Z</time>
      </trkpt>
      <trkpt lat="47.85794" lon="-1.7685">
        <ele>76.08</ele>
        <time>2014-04-13T07:52:47Z</time>
      </trkpt>
      <trkpt lat="47.85795" lon="-1.76861">
        <ele>75.6</ele>
        <time>2014-04-13T07:52:48Z</time>
      </trkpt>
      <trkpt lat="47.85795" lon="-1.76872">
        <ele>74.64</ele>
        <time>2014-04-13T07:52:49Z</time>
      </trkpt>
      <trkpt lat="47.85795" lon="-1.76936">
        <ele>71.27</ele>
        <time>2014-04-13T07:52:54Z</time>
      </trkpt>
      <trkpt lat="47.85798" lon="-1.76965">
        <ele>69.35</ele>
        <time>2014-04-13T07:52:56Z</time>
      </trkpt>
      <trkpt lat="47.858" lon="-1.7698">
        <ele>67.91</ele>
        <time>2014-04-13T07:52:57Z</time>
      </trkpt>
      <trkpt lat="47.85807" lon="-1.77007">
        <ele>66.47</ele>
        <time>2014-04-13T07:52:59Z</time>
      </trkpt>
      <trkpt lat="47.85813" lon="-1.77019">
        <ele>65.99</ele>
        <time>2014-04-13T07:53:00Z</time>
      </trkpt>
      <trkpt lat="47.85819" lon="-1.77029">
        <ele>65.03</ele>
        <time>2014-04-13T07:53:01Z</time>
      </trkpt>
      <trkpt lat="47.85826" lon="-1.77035">
        <ele>64.07</ele>
        <time>2014-04-13T07:53:02Z</time>
      </trkpt>
      <trkpt lat="47.85833" lon="-1.77039">
        <ele>63.58</ele>
        <time>2014-04-13T07:53:03Z</time>
      </trkpt>
      <trkpt lat="47.85839" lon="-1.77041">
        <ele>62.62</ele>
        <time>2014-04-13T07:53:04Z</time>
      </trkpt>
      <trkpt lat="47.85844" lon="-1.77043">
        <ele>62.14</ele>
        <time>2014-04-13T07:53:05Z</time>
      </trkpt>
      <trkpt lat="47.85859" lon="-1.77046">
        <ele>58.78</ele>
        <time>2014-04-13T07:53:09Z</time>
      </trkpt>
      <trkpt lat="47.85865" lon="-1.77053">
        <ele>57.82</ele>
        <time>2014-04-13T07:53:12Z</time>
      </trkpt>
      <trkpt lat="47.85878" lon="-1.7706">
        <ele>53.97</ele>
        <time>2014-04-13T07:53:18Z</time>
      </trkpt>
      <trkpt lat="47.85881" lon="-1.77058">
        <ele>53.49</ele>
        <time>2014-04-13T07:53:19Z</time>
      </trkpt>
      <trkpt lat="47.85891" lon="-1.77061">
        <ele>49.65</ele>
        <time>2014-04-13T07:53:25Z</time>
      </trkpt>
      <trkpt lat="47.85892" lon="-1.77062">
        <ele>50.61</ele>
        <time>2014-04-13T07:53:26Z</time>
      </trkpt>
      <trkpt lat="47.85891" lon="-1.77071">
        <ele>48.2</ele>
        <time>2014-04-13T07:53:30Z</time>
      </trkpt>
      <trkpt lat="47.85887" lon="-1.77087">
        <ele>44.84</ele>
        <time>2014-04-13T07:53:33Z</time>
      </trkpt>
      <trkpt lat="47.85885" lon="-1.77093">
        <ele>44.36</ele>
        <time>2014-04-13T07:53:34Z</time>
      </trkpt>
      <trkpt lat="47.85883" lon="-1.77099">
        <ele>42.44</ele>
        <time>2014-04-13T07:53:35Z</time>
      </trkpt>
      <trkpt lat="47.85881" lon="-1.77106">
        <ele>41.47</ele>
        <time>2014-04-13T07:53:36Z</time>
      </trkpt>
      <trkpt lat="47.85878" lon="-1.7711">
        <ele>41.47</ele>
        <time>2014-04-13T07:53:37Z</time>
      </trkpt>
      <trkpt lat="47.85874" lon="-1.77112">
        <ele>41.47</ele>
        <time>2014-04-13T07:53:38Z</time>
      </trkpt>
      <trkpt lat="47.85872" lon="-1.77113">
        <ele>41.47</ele>
        <time>2014-04-13T07:53:39Z</time>
      </trkpt>
      <trkpt lat="47.85869" lon="-1.77118">
        <ele>42.92</ele>
        <time>2014-04-13T07:53:49Z</time>
      </trkpt>
      <trkpt lat="47.85867" lon="-1.7712">
        <ele>42.92</ele>
        <time>2014-04-13T07:53:53Z</time>
      </trkpt>
      <trkpt lat="47.85863" lon="-1.77123">
        <ele>43.4</ele>
        <time>2014-04-13T07:53:56Z</time>
      </trkpt>
      <trkpt lat="47.85861" lon="-1.77124">
        <ele>43.4</ele>
        <time>2014-04-13T07:53:57Z</time>
      </trkpt>
      <trkpt lat="47.85845" lon="-1.77151">
        <ele>40.99</ele>
        <time>2014-04-13T07:54:05Z</time>
      </trkpt>
      <trkpt lat="47.85835" lon="-1.77172">
        <ele>40.51</ele>
        <time>2014-04-13T07:54:09Z</time>
      </trkpt>
      <trkpt lat="47.85816" lon="-1.77186">
        <ele>40.99</ele>
        <time>2014-04-13T07:54:18Z</time>
      </trkpt>
      <trkpt lat="47.85814" lon="-1.77185">
        <ele>41.47</ele>
        <time>2014-04-13T07:54:19Z</time>
      </trkpt>
      <trkpt lat="47.85808" lon="-1.7719">
        <ele>43.4</ele>
        <time>2014-04-13T07:54:22Z</time>
      </trkpt>
      <trkpt lat="47.85791" lon="-1.77216">
        <ele>41.47</ele>
        <time>2014-04-13T07:54:30Z</time>
      </trkpt>
      <trkpt lat="47.85788" lon="-1.7722">
        <ele>41.47</ele>
        <time>2014-04-13T07:54:31Z</time>
      </trkpt>
      <trkpt lat="47.85785" lon="-1.7723">
        <ele>40.03</ele>
        <time>2014-04-13T07:54:33Z</time>
      </trkpt>
      <trkpt lat="47.85778" lon="-1.7726">
        <ele>37.15</ele>
        <time>2014-04-13T07:54:37Z</time>
      </trkpt>
      <trkpt lat="47.85776" lon="-1.77262">
        <ele>36.67</ele>
        <time>2014-04-13T07:54:38Z</time>
      </trkpt>
      <trkpt lat="47.85767" lon="-1.77265">
        <ele>37.15</ele>
        <time>2014-04-13T07:54:42Z</time>
      </trkpt>
      <trkpt lat="47.85764" lon="-1.77264">
        <ele>37.15</ele>
        <time>2014-04-13T07:54:43Z</time>
      </trkpt>
      <trkpt lat="47.85748" lon="-1.77282">
        <ele>34.26</ele>
        <time>2014-04-13T07:54:49Z</time>
      </trkpt>
      <trkpt lat="47.85716" lon="-1.77278">
        <ele>33.78</ele>
        <time>2014-04-13T07:54:59Z</time>
      </trkpt>
      <trkpt lat="47.85711" lon="-1.77277">
        <ele>33.78</ele>
        <time>2014-04-13T07:55:00Z</time>
      </trkpt>
      <trkpt lat="47.85682" lon="-1.77283">
        <ele>33.78</ele>
        <time>2014-04-13T07:55:08Z</time>
      </trkpt>
      <trkpt lat="47.85655" lon="-1.77289">
        <ele>34.26</ele>
        <time>2014-04-13T07:55:15Z</time>
      </trkpt>
      <trkpt lat="47.85638" lon="-1.77288">
        <ele>34.26</ele>
        <time>2014-04-13T07:55:20Z</time>
      </trkpt>
      <trkpt lat="47.85602" lon="-1.77286">
        <ele>35.23</ele>
        <time>2014-04-13T07:55:30Z</time>
      </trkpt>
      <trkpt lat="47.85595" lon="-1.77273">
        <ele>37.15</ele>
        <time>2014-04-13T07:55:35Z</time>
      </trkpt>
      <trkpt lat="47.85592" lon="-1.77259">
        <ele>38.59</ele>
        <time>2014-04-13T07:55:39Z</time>
      </trkpt>
      <trkpt lat="47.85587" lon="-1.77251">
        <ele>40.03</ele>
        <time>2014-04-13T07:55:42Z</time>
      </trkpt>
      <trkpt lat="47.85572" lon="-1.77232">
        <ele>41.47</ele>
        <time>2014-04-13T07:55:53Z</time>
      </trkpt>
      <trkpt lat="47.85563" lon="-1.77218">
        <ele>43.4</ele>
        <time>2014-04-13T07:55:59Z</time>
      </trkpt>
      <trkpt lat="47.85558" lon="-1.77205">
        <ele>47.24</ele>
        <time>2014-04-13T07:56:05Z</time>
      </trkpt>
      <trkpt lat="47.85558" lon="-1.77203">
        <ele>47.72</ele>
        <time>2014-04-13T07:56:07Z</time>
      </trkpt>
      <trkpt lat="47.85555" lon="-1.77181">
        <ele>51.09</ele>
        <time>2014-04-13T07:56:15Z</time>
      </trkpt>
      <trkpt lat="47.85551" lon="-1.77165">
        <ele>53.49</ele>
        <time>2014-04-13T07:56:25Z</time>
      </trkpt>
      <trkpt lat="47.85546" lon="-1.77155">
        <ele>54.93</ele>
        <time>2014-04-13T07:56:39Z</time>
      </trkpt>
      <trkpt lat="47.85536" lon="-1.77153">
        <ele>53.97</ele>
        <time>2014-04-13T07:56:45Z</time>
      </trkpt>
      <trkpt lat="47.85531" lon="-1.77152">
        <ele>53.49</ele>
        <time>2014-04-13T07:56:49Z</time>
      </trkpt>
      <trkpt lat="47.8552" lon="-1.77149">
        <ele>52.05</ele>
        <time>2014-04-13T07:56:54Z</time>
      </trkpt>
      <trkpt lat="47.85518" lon="-1.77144">
        <ele>52.53</ele>
        <time>2014-04-13T07:56:56Z</time>
      </trkpt>
      <trkpt lat="47.85506" lon="-1.7714">
        <ele>51.57</ele>
        <time>2014-04-13T07:57:03Z</time>
      </trkpt>
      <trkpt lat="47.85502" lon="-1.77141">
        <ele>50.13</ele>
        <time>2014-04-13T07:57:06Z</time>
      </trkpt>
      <trkpt lat="47.85517" lon="-1.77158">
        <ele>49.16</ele>
        <time>2014-04-13T07:57:17Z</time>
      </trkpt>
      <trkpt lat="47.85521" lon="-1.77159">
        <ele>50.13</ele>
        <time>2014-04-13T07:57:19Z</time>
      </trkpt>
      <trkpt lat="47.8553" lon="-1.77171">
        <ele>50.61</ele>
        <time>2014-04-13T07:57:24Z</time>
      </trkpt>
      <trkpt lat="47.85536" lon="-1.77184">
        <ele>48.68</ele>
        <time>2014-04-13T07:57:32Z</time>
      </trkpt>
      <trkpt lat="47.85527" lon="-1.77193">
        <ele>45.32</ele>
        <time>2014-04-13T07:57:38Z</time>
      </trkpt>
      <trkpt lat="47.85536" lon="-1.77197">
        <ele>45.8</ele>
        <time>2014-04-13T07:57:44Z</time>
      </trkpt>
      <trkpt lat="47.85547" lon="-1.77206">
        <ele>45.32</ele>
        <time>2014-04-13T07:57:50Z</time>
      </trkpt>
      <trkpt lat="47.85548" lon="-1.77212">
        <ele>42.92</ele>
        <time>2014-04-13T07:57:53Z</time>
      </trkpt>
      <trkpt lat="47.85543" lon="-1.7722">
        <ele>40.99</ele>
        <time>2014-04-13T07:57:56Z</time>
      </trkpt>
      <trkpt lat="47.85527" lon="-1.77216">
        <ele>40.51</ele>
        <time>2014-04-13T07:58:05Z</time>
      </trkpt>
      <trkpt lat="47.85514" lon="-1.77202">
        <ele>41.47</ele>
        <time>2014-04-13T07:58:11Z</time>
      </trkpt>
      <trkpt lat="47.85487" lon="-1.77168">
        <ele>42.92</ele>
        <time>2014-04-13T07:58:24Z</time>
      </trkpt>
      <trkpt lat="47.85465" lon="-1.77146">
        <ele>43.4</ele>
        <time>2014-04-13T07:58:34Z</time>
      </trkpt>
      <trkpt lat="47.85458" lon="-1.77131">
        <ele>46.76</ele>
        <time>2014-04-13T07:58:42Z</time>
      </trkpt>
      <trkpt lat="47.85461" lon="-1.77125">
        <ele>47.24</ele>
        <time>2014-04-13T07:58:44Z</time>
      </trkpt>
      <trkpt lat="47.8547" lon="-1.77103">
        <ele>50.61</ele>
        <time>2014-04-13T07:58:53Z</time>
      </trkpt>
      <trkpt lat="47.85471" lon="-1.771">
        <ele>51.57</ele>
        <time>2014-04-13T07:58:55Z</time>
      </trkpt>
      <trkpt lat="47.85477" lon="-1.77096">
        <ele>53.01</ele>
        <time>2014-04-13T07:58:59Z</time>
      </trkpt>
      <trkpt lat="47.85486" lon="-1.77101">
        <ele>53.97</ele>
        <time>2014-04-13T07:59:04Z</time>
      </trkpt>
      <trkpt lat="47.855" lon="-1.77115">
        <ele>55.41</ele>
        <time>2014-04-13T07:59:12Z</time>
      </trkpt>
      <trkpt lat="47.85507" lon="-1.77122">
        <ele>55.41</ele>
        <time>2014-04-13T07:59:15Z</time>
      </trkpt>
      <trkpt lat="47.85531" lon="-1.77132">
        <ele>57.82</ele>
        <time>2014-04-13T07:59:28Z</time>
      </trkpt>
      <trkpt lat="47.85538" lon="-1.77129">
        <ele>58.78</ele>
        <time>2014-04-13T07:59:32Z</time>
      </trkpt>
      <trkpt lat="47.85542" lon="-1.77098">
        <ele>61.66</ele>
        <time>2014-04-13T07:59:44Z</time>
      </trkpt>
      <trkpt lat="47.8554" lon="-1.77088">
        <ele>62.14</ele>
        <time>2014-04-13T07:59:47Z</time>
      </trkpt>
      <trkpt lat="47.85531" lon="-1.77086">
        <ele>62.14</ele>
        <time>2014-04-13T07:59:51Z</time>
      </trkpt>
      <trkpt lat="47.85517" lon="-1.7709">
        <ele>59.74</ele>
        <time>2014-04-13T07:59:54Z</time>
      </trkpt>
      <trkpt lat="47.85511" lon="-1.7709">
        <ele>59.26</ele>
        <time>2014-04-13T07:59:55Z</time>
      </trkpt>
      <trkpt lat="47.855" lon="-1.77088">
        <ele>58.3</ele>
        <time>2014-04-13T07:59:57Z</time>
      </trkpt>
      <trkpt lat="47.85473" lon="-1.77068">
        <ele>58.78</ele>
        <time>2014-04-13T08:00:06Z</time>
      </trkpt>
      <trkpt lat="47.85457" lon="-1.77037">
        <ele>60.7</ele>
        <time>2014-04-13T08:00:18Z</time>
      </trkpt>
      <trkpt lat="47.85439" lon="-1.76997">
        <ele>62.14</ele>
        <time>2014-04-13T08:00:33Z</time>
      </trkpt>
      <trkpt lat="47.85429" lon="-1.77014">
        <ele>59.74</ele>
        <time>2014-04-13T08:00:42Z</time>
      </trkpt>
      <trkpt lat="47.85432" lon="-1.77037">
        <ele>56.86</ele>
        <time>2014-04-13T08:00:46Z</time>
      </trkpt>
      <trkpt lat="47.8542" lon="-1.77051">
        <ele>52.53</ele>
        <time>2014-04-13T08:00:54Z</time>
      </trkpt>
      <trkpt lat="47.85392" lon="-1.77042">
        <ele>55.41</ele>
        <time>2014-04-13T08:01:07Z</time>
      </trkpt>
      <trkpt lat="47.85386" lon="-1.77038">
        <ele>55.41</ele>
        <time>2014-04-13T08:01:10Z</time>
      </trkpt>
      <trkpt lat="47.85379" lon="-1.77047">
        <ele>53.97</ele>
        <time>2014-04-13T08:01:17Z</time>
      </trkpt>
      <trkpt lat="47.85379" lon="-1.77057">
        <ele>52.53</ele>
        <time>2014-04-13T08:01:21Z</time>
      </trkpt>
      <trkpt lat="47.85363" lon="-1.77038">
        <ele>53.01</ele>
        <time>2014-04-13T08:01:29Z</time>
      </trkpt>
      <trkpt lat="47.85361" lon="-1.77035">
        <ele>53.01</ele>
        <time>2014-04-13T08:01:30Z</time>
      </trkpt>
      <trkpt lat="47.85331" lon="-1.77005">
        <ele>54.45</ele>
        <time>2014-04-13T08:01:42Z</time>
      </trkpt>
      <trkpt lat="47.85316" lon="-1.77001">
        <ele>53.49</ele>
        <time>2014-04-13T08:01:46Z</time>
      </trkpt>
      <trkpt lat="47.8527" lon="-1.76968">
        <ele>53.97</ele>
        <time>2014-04-13T08:01:58Z</time>
      </trkpt>
      <trkpt lat="47.85253" lon="-1.76953">
        <ele>53.49</ele>
        <time>2014-04-13T08:02:02Z</time>
      </trkpt>
      <trkpt lat="47.85228" lon="-1.76931">
        <ele>53.01</ele>
        <time>2014-04-13T08:02:08Z</time>
      </trkpt>
      <trkpt lat="47.85219" lon="-1.76922">
        <ele>53.01</ele>
        <time>2014-04-13T08:02:10Z</time>
      </trkpt>
      <trkpt lat="47.85177" lon="-1.76892">
        <ele>52.53</ele>
        <time>2014-04-13T08:02:20Z</time>
      </trkpt>
      <trkpt lat="47.85165" lon="-1.76885">
        <ele>51.09</ele>
        <time>2014-04-13T08:02:23Z</time>
      </trkpt>
      <trkpt lat="47.85161" lon="-1.76882">
        <ele>51.09</ele>
        <time>2014-04-13T08:02:24Z</time>
      </trkpt>
      <trkpt lat="47.85158" lon="-1.76877">
        <ele>50.61</ele>
        <time>2014-04-13T08:02:25Z</time>
      </trkpt>
      <trkpt lat="47.85156" lon="-1.76872">
        <ele>51.09</ele>
        <time>2014-04-13T08:02:26Z</time>
      </trkpt>
      <trkpt lat="47.85155" lon="-1.76867">
        <ele>51.09</ele>
        <time>2014-04-13T08:02:27Z</time>
      </trkpt>
      <trkpt lat="47.85154" lon="-1.76862">
        <ele>51.57</ele>
        <time>2014-04-13T08:02:28Z</time>
      </trkpt>
      <trkpt lat="47.85154" lon="-1.76856">
        <ele>51.57</ele>
        <time>2014-04-13T08:02:29Z</time>
      </trkpt>
      <trkpt lat="47.85154" lon="-1.76852">
        <ele>52.05</ele>
        <time>2014-04-13T08:02:30Z</time>
      </trkpt>
      <trkpt lat="47.85154" lon="-1.76846">
        <ele>52.53</ele>
        <time>2014-04-13T08:02:31Z</time>
      </trkpt>
      <trkpt lat="47.85154" lon="-1.76781">
        <ele>55.41</ele>
        <time>2014-04-13T08:02:43Z</time>
      </trkpt>
      <trkpt lat="47.85154" lon="-1.76723">
        <ele>56.86</ele>
        <time>2014-04-13T08:02:53Z</time>
      </trkpt>
      <trkpt lat="47.85154" lon="-1.76717">
        <ele>56.86</ele>
        <time>2014-04-13T08:02:54Z</time>
      </trkpt>
      <trkpt lat="47.85154" lon="-1.7671">
        <ele>57.34</ele>
        <time>2014-04-13T08:02:55Z</time>
      </trkpt>
      <trkpt lat="47.85153" lon="-1.76704">
        <ele>57.34</ele>
        <time>2014-04-13T08:02:56Z</time>
      </trkpt>
      <trkpt lat="47.85151" lon="-1.76698">
        <ele>57.34</ele>
        <time>2014-04-13T08:02:57Z</time>
      </trkpt>
      <trkpt lat="47.8515" lon="-1.76692">
        <ele>57.34</ele>
        <time>2014-04-13T08:02:58Z</time>
      </trkpt>
      <trkpt lat="47.85122" lon="-1.76621">
        <ele>58.3</ele>
        <time>2014-04-13T08:03:11Z</time>
      </trkpt>
      <trkpt lat="47.85089" lon="-1.76538">
        <ele>61.66</ele>
        <time>2014-04-13T08:03:27Z</time>
      </trkpt>
      <trkpt lat="47.85056" lon="-1.76452">
        <ele>60.7</ele>
        <time>2014-04-13T08:03:42Z</time>
      </trkpt>
      <trkpt lat="47.85044" lon="-1.7642">
        <ele>60.7</ele>
        <time>2014-04-13T08:03:47Z</time>
      </trkpt>
      <trkpt lat="47.8504" lon="-1.764">
        <ele>60.7</ele>
        <time>2014-04-13T08:03:50Z</time>
      </trkpt>
      <trkpt lat="47.85028" lon="-1.76297">
        <ele>62.14</ele>
        <time>2014-04-13T08:04:06Z</time>
      </trkpt>
      <trkpt lat="47.8502" lon="-1.76218">
        <ele>62.62</ele>
        <time>2014-04-13T08:04:18Z</time>
      </trkpt>
      <trkpt lat="47.85018" lon="-1.76211">
        <ele>62.14</ele>
        <time>2014-04-13T08:04:19Z</time>
      </trkpt>
      <trkpt lat="47.85015" lon="-1.76205">
        <ele>62.14</ele>
        <time>2014-04-13T08:04:20Z</time>
      </trkpt>
      <trkpt lat="47.85013" lon="-1.76199">
        <ele>62.14</ele>
        <time>2014-04-13T08:04:21Z</time>
      </trkpt>
      <trkpt lat="47.85009" lon="-1.76193">
        <ele>62.62</ele>
        <time>2014-04-13T08:04:22Z</time>
      </trkpt>
      <trkpt lat="47.85005" lon="-1.76188">
        <ele>62.14</ele>
        <time>2014-04-13T08:04:23Z</time>
      </trkpt>
      <trkpt lat="47.85002" lon="-1.76184">
        <ele>62.14</ele>
        <time>2014-04-13T08:04:24Z</time>
      </trkpt>
      <trkpt lat="47.84998" lon="-1.7618">
        <ele>62.14</ele>
        <time>2014-04-13T08:04:25Z</time>
      </trkpt>
      <trkpt lat="47.84963" lon="-1.7614">
        <ele>63.1</ele>
        <time>2014-04-13T08:04:35Z</time>
      </trkpt>
      <trkpt lat="47.8496" lon="-1.76136">
        <ele>63.1</ele>
        <time>2014-04-13T08:04:36Z</time>
      </trkpt>
      <trkpt lat="47.84953" lon="-1.76128">
        <ele>63.58</ele>
        <time>2014-04-13T08:04:38Z</time>
      </trkpt>
      <trkpt lat="47.84918" lon="-1.761">
        <ele>64.07</ele>
        <time>2014-04-13T08:04:49Z</time>
      </trkpt>
      <trkpt lat="47.84917" lon="-1.76096">
        <ele>64.55</ele>
        <time>2014-04-13T08:04:50Z</time>
      </trkpt>
      <trkpt lat="47.84917" lon="-1.76093">
        <ele>65.03</ele>
        <time>2014-04-13T08:04:51Z</time>
      </trkpt>
      <trkpt lat="47.84917" lon="-1.76091">
        <ele>65.51</ele>
        <time>2014-04-13T08:04:52Z</time>
      </trkpt>
      <trkpt lat="47.84919" lon="-1.76085">
        <ele>65.99</ele>
        <time>2014-04-13T08:04:54Z</time>
      </trkpt>
      <trkpt lat="47.84913" lon="-1.76075">
        <ele>65.51</ele>
        <time>2014-04-13T08:04:58Z</time>
      </trkpt>
      <trkpt lat="47.8491" lon="-1.76059">
        <ele>67.91</ele>
        <time>2014-04-13T08:05:05Z</time>
      </trkpt>
      <trkpt lat="47.84902" lon="-1.76052">
        <ele>66.95</ele>
        <time>2014-04-13T08:05:09Z</time>
      </trkpt>
      <trkpt lat="47.84899" lon="-1.76042">
        <ele>68.39</ele>
        <time>2014-04-13T08:05:12Z</time>
      </trkpt>
      <trkpt lat="47.84894" lon="-1.76033">
        <ele>68.87</ele>
        <time>2014-04-13T08:05:19Z</time>
      </trkpt>
      <trkpt lat="47.84896" lon="-1.76009">
        <ele>71.76</ele>
        <time>2014-04-13T08:05:27Z</time>
      </trkpt>
      <trkpt lat="47.84897" lon="-1.76">
        <ele>71.27</ele>
        <time>2014-04-13T08:05:30Z</time>
      </trkpt>
      <trkpt lat="47.84902" lon="-1.75989">
        <ele>72.24</ele>
        <time>2014-04-13T08:05:34Z</time>
      </trkpt>
      <trkpt lat="47.84908" lon="-1.75968">
        <ele>74.16</ele>
        <time>2014-04-13T08:05:43Z</time>
      </trkpt>
      <trkpt lat="47.84891" lon="-1.75982">
        <ele>70.31</ele>
        <time>2014-04-13T08:05:49Z</time>
      </trkpt>
      <trkpt lat="47.84874" lon="-1.7598">
        <ele>70.31</ele>
        <time>2014-04-13T08:05:57Z</time>
      </trkpt>
      <trkpt lat="47.84863" lon="-1.75983">
        <ele>69.83</ele>
        <time>2014-04-13T08:06:00Z</time>
      </trkpt>
      <trkpt lat="47.84853" lon="-1.75968">
        <ele>70.79</ele>
        <time>2014-04-13T08:06:08Z</time>
      </trkpt>
      <trkpt lat="47.84869" lon="-1.75961">
        <ele>71.76</ele>
        <time>2014-04-13T08:06:17Z</time>
      </trkpt>
      <trkpt lat="47.84871" lon="-1.7596">
        <ele>71.76</ele>
        <time>2014-04-13T08:06:18Z</time>
      </trkpt>
      <trkpt lat="47.84874" lon="-1.75958">
        <ele>71.76</ele>
        <time>2014-04-13T08:06:20Z</time>
      </trkpt>
      <trkpt lat="47.84881" lon="-1.75946">
        <ele>73.2</ele>
        <time>2014-04-13T08:06:26Z</time>
      </trkpt>
      <trkpt lat="47.84883" lon="-1.75941">
        <ele>74.16</ele>
        <time>2014-04-13T08:06:32Z</time>
      </trkpt>
      <trkpt lat="47.84875" lon="-1.7593">
        <ele>73.68</ele>
        <time>2014-04-13T08:06:38Z</time>
      </trkpt>
      <trkpt lat="47.8487" lon="-1.75948">
        <ele>72.24</ele>
        <time>2014-04-13T08:06:44Z</time>
      </trkpt>
      <trkpt lat="47.84853" lon="-1.75953">
        <ele>71.76</ele>
        <time>2014-04-13T08:06:53Z</time>
      </trkpt>
      <trkpt lat="47.84853" lon="-1.75951">
        <ele>71.76</ele>
        <time>2014-04-13T08:06:54Z</time>
      </trkpt>
      <trkpt lat="47.84858" lon="-1.75936">
        <ele>72.24</ele>
        <time>2014-04-13T08:07:00Z</time>
      </trkpt>
      <trkpt lat="47.84853" lon="-1.75912">
        <ele>73.2</ele>
        <time>2014-04-13T08:07:08Z</time>
      </trkpt>
      <trkpt lat="47.84861" lon="-1.75909">
        <ele>74.16</ele>
        <time>2014-04-13T08:07:13Z</time>
      </trkpt>
      <trkpt lat="47.8487" lon="-1.75918">
        <ele>74.64</ele>
        <time>2014-04-13T08:07:18Z</time>
      </trkpt>
      <trkpt lat="47.84872" lon="-1.7592">
        <ele>75.12</ele>
        <time>2014-04-13T08:07:19Z</time>
      </trkpt>
      <trkpt lat="47.84873" lon="-1.75903">
        <ele>73.68</ele>
        <time>2014-04-13T08:07:25Z</time>
      </trkpt>
      <trkpt lat="47.8487" lon="-1.75895">
        <ele>76.08</ele>
        <time>2014-04-13T08:07:27Z</time>
      </trkpt>
      <trkpt lat="47.84862" lon="-1.75866">
        <ele>75.6</ele>
        <time>2014-04-13T08:07:35Z</time>
      </trkpt>
      <trkpt lat="47.84863" lon="-1.75857">
        <ele>76.08</ele>
        <time>2014-04-13T08:07:45Z</time>
      </trkpt>
      <trkpt lat="47.84864" lon="-1.75844">
        <ele>75.6</ele>
        <time>2014-04-13T08:07:49Z</time>
      </trkpt>
      <trkpt lat="47.84866" lon="-1.75832">
        <ele>78.48</ele>
        <time>2014-04-13T08:07:53Z</time>
      </trkpt>
      <trkpt lat="47.84868" lon="-1.75828">
        <ele>78.97</ele>
        <time>2014-04-13T08:07:55Z</time>
      </trkpt>
      <trkpt lat="47.84872" lon="-1.75831">
        <ele>78.97</ele>
        <time>2014-04-13T08:07:59Z</time>
      </trkpt>
      <trkpt lat="47.84884" lon="-1.75816">
        <ele>80.41</ele>
        <time>2014-04-13T08:08:09Z</time>
      </trkpt>
      <trkpt lat="47.84873" lon="-1.75808">
        <ele>80.41</ele>
        <time>2014-04-13T08:08:17Z</time>
      </trkpt>
      <trkpt lat="47.84869" lon="-1.75808">
        <ele>79.93</ele>
        <time>2014-04-13T08:08:18Z</time>
      </trkpt>
      <trkpt lat="47.84836" lon="-1.75813">
        <ele>76.56</ele>
        <time>2014-04-13T08:08:24Z</time>
      </trkpt>
      <trkpt lat="47.8483" lon="-1.75814">
        <ele>76.08</ele>
        <time>2014-04-13T08:08:25Z</time>
      </trkpt>
      <trkpt lat="47.84786" lon="-1.75823">
        <ele>73.2</ele>
        <time>2014-04-13T08:08:31Z</time>
      </trkpt>
      <trkpt lat="47.8478" lon="-1.75823">
        <ele>72.72</ele>
        <time>2014-04-13T08:08:32Z</time>
      </trkpt>
      <trkpt lat="47.84775" lon="-1.7582">
        <ele>72.24</ele>
        <time>2014-04-13T08:08:33Z</time>
      </trkpt>
      <trkpt lat="47.8477" lon="-1.75814">
        <ele>72.24</ele>
        <time>2014-04-13T08:08:34Z</time>
      </trkpt>
      <trkpt lat="47.84766" lon="-1.75808">
        <ele>72.24</ele>
        <time>2014-04-13T08:08:35Z</time>
      </trkpt>
      <trkpt lat="47.84762" lon="-1.75802">
        <ele>71.76</ele>
        <time>2014-04-13T08:08:36Z</time>
      </trkpt>
      <trkpt lat="47.84737" lon="-1.75748">
        <ele>71.27</ele>
        <time>2014-04-13T08:08:44Z</time>
      </trkpt>
      <trkpt lat="47.84731" lon="-1.75736">
        <ele>71.27</ele>
        <time>2014-04-13T08:08:46Z</time>
      </trkpt>
      <trkpt lat="47.84728" lon="-1.75729">
        <ele>71.27</ele>
        <time>2014-04-13T08:08:47Z</time>
      </trkpt>
      <trkpt lat="47.84722" lon="-1.75718">
        <ele>71.27</ele>
        <time>2014-04-13T08:08:49Z</time>
      </trkpt>
      <trkpt lat="47.84706" lon="-1.75687">
        <ele>71.76</ele>
        <time>2014-04-13T08:08:55Z</time>
      </trkpt>
      <trkpt lat="47.84703" lon="-1.75682">
        <ele>71.76</ele>
        <time>2014-04-13T08:08:56Z</time>
      </trkpt>
      <trkpt lat="47.847" lon="-1.75677">
        <ele>71.27</ele>
        <time>2014-04-13T08:08:57Z</time>
      </trkpt>
      <trkpt lat="47.84681" lon="-1.75643">
        <ele>71.76</ele>
        <time>2014-04-13T08:09:04Z</time>
      </trkpt>
      <trkpt lat="47.84649" lon="-1.75581">
        <ele>70.79</ele>
        <time>2014-04-13T08:09:16Z</time>
      </trkpt>
      <trkpt lat="47.84627" lon="-1.75535">
        <ele>70.31</ele>
        <time>2014-04-13T08:09:27Z</time>
      </trkpt>
      <trkpt lat="47.84612" lon="-1.75495">
        <ele>69.83</ele>
        <time>2014-04-13T08:09:34Z</time>
      </trkpt>
      <trkpt lat="47.8461" lon="-1.7549">
        <ele>69.83</ele>
        <time>2014-04-13T08:09:35Z</time>
      </trkpt>
      <trkpt lat="47.84592" lon="-1.75448">
        <ele>69.35</ele>
        <time>2014-04-13T08:09:43Z</time>
      </trkpt>
      <trkpt lat="47.84582" lon="-1.75425">
        <ele>69.35</ele>
        <time>2014-04-13T08:09:47Z</time>
      </trkpt>
      <trkpt lat="47.84557" lon="-1.75334">
        <ele>68.39</ele>
        <time>2014-04-13T08:10:03Z</time>
      </trkpt>
      <trkpt lat="47.84537" lon="-1.75261">
        <ele>67.43</ele>
        <time>2014-04-13T08:10:16Z</time>
      </trkpt>
      <trkpt lat="47.8453" lon="-1.75222">
        <ele>66.95</ele>
        <time>2014-04-13T08:10:22Z</time>
      </trkpt>
      <trkpt lat="47.84529" lon="-1.75215">
        <ele>66.95</ele>
        <time>2014-04-13T08:10:23Z</time>
      </trkpt>
      <trkpt lat="47.84521" lon="-1.75127">
        <ele>66.47</ele>
        <time>2014-04-13T08:10:36Z</time>
      </trkpt>
      <trkpt lat="47.84521" lon="-1.75055">
        <ele>65.51</ele>
        <time>2014-04-13T08:10:49Z</time>
      </trkpt>
      <trkpt lat="47.84513" lon="-1.74983">
        <ele>65.51</ele>
        <time>2014-04-13T08:11:02Z</time>
      </trkpt>
      <trkpt lat="47.84512" lon="-1.74977">
        <ele>65.51</ele>
        <time>2014-04-13T08:11:03Z</time>
      </trkpt>
      <trkpt lat="47.84511" lon="-1.74918">
        <ele>65.51</ele>
        <time>2014-04-13T08:11:14Z</time>
      </trkpt>
      <trkpt lat="47.84508" lon="-1.7486">
        <ele>65.51</ele>
        <time>2014-04-13T08:11:24Z</time>
      </trkpt>
      <trkpt lat="47.84506" lon="-1.74834">
        <ele>66.95</ele>
        <time>2014-04-13T08:11:28Z</time>
      </trkpt>
      <trkpt lat="47.845" lon="-1.74756">
        <ele>65.51</ele>
        <time>2014-04-13T08:11:40Z</time>
      </trkpt>
      <trkpt lat="47.84501" lon="-1.7475">
        <ele>65.51</ele>
        <time>2014-04-13T08:11:41Z</time>
      </trkpt>
      <trkpt lat="47.84521" lon="-1.74694">
        <ele>66.47</ele>
        <time>2014-04-13T08:11:52Z</time>
      </trkpt>
      <trkpt lat="47.84533" lon="-1.74655">
        <ele>66.95</ele>
        <time>2014-04-13T08:12:01Z</time>
      </trkpt>
      <trkpt lat="47.84531" lon="-1.74651">
        <ele>66.95</ele>
        <time>2014-04-13T08:12:02Z</time>
      </trkpt>
      <trkpt lat="47.84529" lon="-1.74649">
        <ele>66.47</ele>
        <time>2014-04-13T08:12:03Z</time>
      </trkpt>
      <trkpt lat="47.84525" lon="-1.74648">
        <ele>66.47</ele>
        <time>2014-04-13T08:12:04Z</time>
      </trkpt>
      <trkpt lat="47.84521" lon="-1.74647">
        <ele>65.99</ele>
        <time>2014-04-13T08:12:05Z</time>
      </trkpt>
      <trkpt lat="47.84517" lon="-1.74645">
        <ele>65.51</ele>
        <time>2014-04-13T08:12:06Z</time>
      </trkpt>
      <trkpt lat="47.84513" lon="-1.74644">
        <ele>65.51</ele>
        <time>2014-04-13T08:12:07Z</time>
      </trkpt>
      <trkpt lat="47.84458" lon="-1.74624">
        <ele>62.62</ele>
        <time>2014-04-13T08:12:17Z</time>
      </trkpt>
      <trkpt lat="47.84445" lon="-1.74618">
        <ele>61.66</ele>
        <time>2014-04-13T08:12:19Z</time>
      </trkpt>
      <trkpt lat="47.84439" lon="-1.74617">
        <ele>61.18</ele>
        <time>2014-04-13T08:12:20Z</time>
      </trkpt>
      <trkpt lat="47.8438" lon="-1.74604">
        <ele>58.78</ele>
        <time>2014-04-13T08:12:30Z</time>
      </trkpt>
      <trkpt lat="47.84374" lon="-1.74604">
        <ele>58.78</ele>
        <time>2014-04-13T08:12:31Z</time>
      </trkpt>
      <trkpt lat="47.84315" lon="-1.74602">
        <ele>57.82</ele>
        <time>2014-04-13T08:12:42Z</time>
      </trkpt>
      <trkpt lat="47.84311" lon="-1.746">
        <ele>57.82</ele>
        <time>2014-04-13T08:12:43Z</time>
      </trkpt>
      <trkpt lat="47.84305" lon="-1.746">
        <ele>57.82</ele>
        <time>2014-04-13T08:12:44Z</time>
      </trkpt>
      <trkpt lat="47.8428" lon="-1.74599">
        <ele>57.34</ele>
        <time>2014-04-13T08:12:49Z</time>
      </trkpt>
      <trkpt lat="47.84265" lon="-1.74601">
        <ele>56.86</ele>
        <time>2014-04-13T08:12:52Z</time>
      </trkpt>
      <trkpt lat="47.84261" lon="-1.746">
        <ele>56.86</ele>
        <time>2014-04-13T08:12:53Z</time>
      </trkpt>
      <trkpt lat="47.84247" lon="-1.74597">
        <ele>56.86</ele>
        <time>2014-04-13T08:12:56Z</time>
      </trkpt>
      <trkpt lat="47.84242" lon="-1.74597">
        <ele>56.86</ele>
        <time>2014-04-13T08:12:57Z</time>
      </trkpt>
      <trkpt lat="47.84228" lon="-1.74598">
        <ele>56.86</ele>
        <time>2014-04-13T08:13:00Z</time>
      </trkpt>
      <trkpt lat="47.84224" lon="-1.74599">
        <ele>56.37</ele>
        <time>2014-04-13T08:13:01Z</time>
      </trkpt>
      <trkpt lat="47.84211" lon="-1.74604">
        <ele>56.37</ele>
        <time>2014-04-13T08:13:04Z</time>
      </trkpt>
      <trkpt lat="47.84207" lon="-1.74607">
        <ele>55.89</ele>
        <time>2014-04-13T08:13:05Z</time>
      </trkpt>
      <trkpt lat="47.84186" lon="-1.74619">
        <ele>55.41</ele>
        <time>2014-04-13T08:13:09Z</time>
      </trkpt>
      <trkpt lat="47.84181" lon="-1.74621">
        <ele>54.93</ele>
        <time>2014-04-13T08:13:10Z</time>
      </trkpt>
      <trkpt lat="47.84157" lon="-1.7463">
        <ele>52.05</ele>
        <time>2014-04-13T08:13:14Z</time>
      </trkpt>
      <trkpt lat="47.84151" lon="-1.74633">
        <ele>51.09</ele>
        <time>2014-04-13T08:13:15Z</time>
      </trkpt>
      <trkpt lat="47.84144" lon="-1.74635">
        <ele>50.61</ele>
        <time>2014-04-13T08:13:16Z</time>
      </trkpt>
      <trkpt lat="47.84138" lon="-1.74637">
        <ele>50.13</ele>
        <time>2014-04-13T08:13:17Z</time>
      </trkpt>
      <trkpt lat="47.84131" lon="-1.74639">
        <ele>50.13</ele>
        <time>2014-04-13T08:13:18Z</time>
      </trkpt>
      <trkpt lat="47.84125" lon="-1.74641">
        <ele>49.65</ele>
        <time>2014-04-13T08:13:19Z</time>
      </trkpt>
      <trkpt lat="47.84113" lon="-1.74644">
        <ele>48.68</ele>
        <time>2014-04-13T08:13:21Z</time>
      </trkpt>
      <trkpt lat="47.84107" lon="-1.74645">
        <ele>48.2</ele>
        <time>2014-04-13T08:13:22Z</time>
      </trkpt>
      <trkpt lat="47.841" lon="-1.74646">
        <ele>47.72</ele>
        <time>2014-04-13T08:13:23Z</time>
      </trkpt>
      <trkpt lat="47.84094" lon="-1.74647">
        <ele>47.72</ele>
        <time>2014-04-13T08:13:24Z</time>
      </trkpt>
      <trkpt lat="47.84087" lon="-1.74649">
        <ele>47.24</ele>
        <time>2014-04-13T08:13:25Z</time>
      </trkpt>
      <trkpt lat="47.84074" lon="-1.74651">
        <ele>46.76</ele>
        <time>2014-04-13T08:13:27Z</time>
      </trkpt>
      <trkpt lat="47.84068" lon="-1.74652">
        <ele>47.72</ele>
        <time>2014-04-13T08:13:28Z</time>
      </trkpt>
      <trkpt lat="47.84062" lon="-1.74652">
        <ele>46.28</ele>
        <time>2014-04-13T08:13:29Z</time>
      </trkpt>
      <trkpt lat="47.84032" lon="-1.74658">
        <ele>44.84</ele>
        <time>2014-04-13T08:13:34Z</time>
      </trkpt>
      <trkpt lat="47.84026" lon="-1.74657">
        <ele>44.84</ele>
        <time>2014-04-13T08:13:35Z</time>
      </trkpt>
      <trkpt lat="47.83998" lon="-1.74656">
        <ele>43.88</ele>
        <time>2014-04-13T08:13:40Z</time>
      </trkpt>
      <trkpt lat="47.83969" lon="-1.74655">
        <ele>42.92</ele>
        <time>2014-04-13T08:13:46Z</time>
      </trkpt>
      <trkpt lat="47.83963" lon="-1.74656">
        <ele>42.92</ele>
        <time>2014-04-13T08:13:47Z</time>
      </trkpt>
      <trkpt lat="47.83957" lon="-1.74657">
        <ele>42.44</ele>
        <time>2014-04-13T08:13:48Z</time>
      </trkpt>
      <trkpt lat="47.83952" lon="-1.74657">
        <ele>42.44</ele>
        <time>2014-04-13T08:13:49Z</time>
      </trkpt>
      <trkpt lat="47.83946" lon="-1.74657">
        <ele>41.95</ele>
        <time>2014-04-13T08:13:50Z</time>
      </trkpt>
      <trkpt lat="47.83918" lon="-1.74655">
        <ele>42.44</ele>
        <time>2014-04-13T08:13:58Z</time>
      </trkpt>
      <trkpt lat="47.8391" lon="-1.74656">
        <ele>41.95</ele>
        <time>2014-04-13T08:14:00Z</time>
      </trkpt>
      <trkpt lat="47.83905" lon="-1.74658">
        <ele>41.95</ele>
        <time>2014-04-13T08:14:01Z</time>
      </trkpt>
      <trkpt lat="47.839" lon="-1.7466">
        <ele>41.47</ele>
        <time>2014-04-13T08:14:02Z</time>
      </trkpt>
      <trkpt lat="47.8384" lon="-1.74682">
        <ele>38.59</ele>
        <time>2014-04-13T08:14:13Z</time>
      </trkpt>
      <trkpt lat="47.83817" lon="-1.74687">
        <ele>37.63</ele>
        <time>2014-04-13T08:14:17Z</time>
      </trkpt>
      <trkpt lat="47.83741" lon="-1.74668">
        <ele>35.23</ele>
        <time>2014-04-13T08:14:30Z</time>
      </trkpt>
      <trkpt lat="47.83727" lon="-1.74663">
        <ele>35.23</ele>
        <time>2014-04-13T08:14:33Z</time>
      </trkpt>
      <trkpt lat="47.83723" lon="-1.74662">
        <ele>35.23</ele>
        <time>2014-04-13T08:14:34Z</time>
      </trkpt>
      <trkpt lat="47.83713" lon="-1.74661">
        <ele>35.23</ele>
        <time>2014-04-13T08:14:36Z</time>
      </trkpt>
      <trkpt lat="47.83642" lon="-1.74649">
        <ele>36.19</ele>
        <time>2014-04-13T08:14:52Z</time>
      </trkpt>
      <trkpt lat="47.83585" lon="-1.74658">
        <ele>35.23</ele>
        <time>2014-04-13T08:15:06Z</time>
      </trkpt>
      <trkpt lat="47.8355" lon="-1.7467">
        <ele>34.26</ele>
        <time>2014-04-13T08:15:19Z</time>
      </trkpt>
      <trkpt lat="47.83551" lon="-1.7467">
        <ele>33.3</ele>
        <time>2014-04-13T08:15:31Z</time>
      </trkpt>
      <trkpt lat="47.8355" lon="-1.74668">
        <ele>33.78</ele>
        <time>2014-04-13T08:16:10Z</time>
      </trkpt>
      <trkpt lat="47.8355" lon="-1.74668">
        <ele>33.3</ele>
        <time>2014-04-13T08:16:52Z</time>
      </trkpt>
      <trkpt lat="47.8355" lon="-1.7467">
        <ele>34.74</ele>
        <time>2014-04-13T08:17:29Z</time>
      </trkpt>
      <trkpt lat="47.83551" lon="-1.74669">
        <ele>33.78</ele>
        <time>2014-04-13T08:18:16Z</time>
      </trkpt>
      <trkpt lat="47.83551" lon="-1.74669">
        <ele>33.78</ele>
        <time>2014-04-13T08:18:41Z</time>
      </trkpt>
      <trkpt lat="47.8355" lon="-1.74668">
        <ele>34.26</ele>
        <time>2014-04-13T08:19:09Z</time>
      </trkpt>
      <trkpt lat="47.83548" lon="-1.74668">
        <ele>34.26</ele>
        <time>2014-04-13T08:19:10Z</time>
      </trkpt>
      <trkpt lat="47.83547" lon="-1.74667">
        <ele>34.26</ele>
        <time>2014-04-13T08:19:11Z</time>
      </trkpt>
      <trkpt lat="47.83545" lon="-1.74666">
        <ele>34.26</ele>
        <time>2014-04-13T08:19:12Z</time>
      </trkpt>
      <trkpt lat="47.83548" lon="-1.74633">
        <ele>33.78</ele>
        <time>2014-04-13T08:19:19Z</time>
      </trkpt>
      <trkpt lat="47.83549" lon="-1.74627">
        <ele>33.78</ele>
        <time>2014-04-13T08:19:20Z</time>
      </trkpt>
      <trkpt lat="47.83569" lon="-1.74554">
        <ele>34.74</ele>
        <time>2014-04-13T08:19:33Z</time>
      </trkpt>
      <trkpt lat="47.83573" lon="-1.74537">
        <ele>35.23</ele>
        <time>2014-04-13T08:19:36Z</time>
      </trkpt>
      <trkpt lat="47.83589" lon="-1.7447">
        <ele>35.71</ele>
        <time>2014-04-13T08:19:47Z</time>
      </trkpt>
      <trkpt lat="47.83607" lon="-1.74387">
        <ele>36.19</ele>
        <time>2014-04-13T08:20:00Z</time>
      </trkpt>
      <trkpt lat="47.83615" lon="-1.74354">
        <ele>36.67</ele>
        <time>2014-04-13T08:20:05Z</time>
      </trkpt>
      <trkpt lat="47.83639" lon="-1.74252">
        <ele>36.67</ele>
        <time>2014-04-13T08:20:20Z</time>
      </trkpt>
      <trkpt lat="47.83641" lon="-1.74246">
        <ele>36.67</ele>
        <time>2014-04-13T08:20:21Z</time>
      </trkpt>
      <trkpt lat="47.83643" lon="-1.7424">
        <ele>36.67</ele>
        <time>2014-04-13T08:20:22Z</time>
      </trkpt>
      <trkpt lat="47.83649" lon="-1.74227">
        <ele>36.19</ele>
        <time>2014-04-13T08:20:25Z</time>
      </trkpt>
      <trkpt lat="47.83663" lon="-1.74219">
        <ele>36.19</ele>
        <time>2014-04-13T08:20:29Z</time>
      </trkpt>
      <trkpt lat="47.8369" lon="-1.74201">
        <ele>37.63</ele>
        <time>2014-04-13T08:20:36Z</time>
      </trkpt>
      <trkpt lat="47.83702" lon="-1.74192">
        <ele>37.63</ele>
        <time>2014-04-13T08:20:39Z</time>
      </trkpt>
      <trkpt lat="47.83706" lon="-1.7419">
        <ele>37.63</ele>
        <time>2014-04-13T08:20:40Z</time>
      </trkpt>
      <trkpt lat="47.83733" lon="-1.7417">
        <ele>38.11</ele>
        <time>2014-04-13T08:20:47Z</time>
      </trkpt>
      <trkpt lat="47.83793" lon="-1.74124">
        <ele>39.07</ele>
        <time>2014-04-13T08:21:02Z</time>
      </trkpt>
      <trkpt lat="47.83827" lon="-1.74098">
        <ele>39.07</ele>
        <time>2014-04-13T08:21:10Z</time>
      </trkpt>
      <trkpt lat="47.83829" lon="-1.74093">
        <ele>39.55</ele>
        <time>2014-04-13T08:21:11Z</time>
      </trkpt>
      <trkpt lat="47.83829" lon="-1.74086">
        <ele>39.55</ele>
        <time>2014-04-13T08:21:12Z</time>
      </trkpt>
      <trkpt lat="47.83827" lon="-1.7408">
        <ele>39.55</ele>
        <time>2014-04-13T08:21:13Z</time>
      </trkpt>
      <trkpt lat="47.83824" lon="-1.74075">
        <ele>39.55</ele>
        <time>2014-04-13T08:21:14Z</time>
      </trkpt>
      <trkpt lat="47.8382" lon="-1.7407">
        <ele>39.07</ele>
        <time>2014-04-13T08:21:15Z</time>
      </trkpt>
      <trkpt lat="47.83816" lon="-1.74065">
        <ele>39.07</ele>
        <time>2014-04-13T08:21:16Z</time>
      </trkpt>
      <trkpt lat="47.83811" lon="-1.74059">
        <ele>38.59</ele>
        <time>2014-04-13T08:21:17Z</time>
      </trkpt>
      <trkpt lat="47.83748" lon="-1.73972">
        <ele>37.15</ele>
        <time>2014-04-13T08:21:31Z</time>
      </trkpt>
      <trkpt lat="47.83745" lon="-1.73964">
        <ele>37.15</ele>
        <time>2014-04-13T08:21:32Z</time>
      </trkpt>
      <trkpt lat="47.83743" lon="-1.73956">
        <ele>37.15</ele>
        <time>2014-04-13T08:21:33Z</time>
      </trkpt>
      <trkpt lat="47.83741" lon="-1.73948">
        <ele>37.63</ele>
        <time>2014-04-13T08:21:34Z</time>
      </trkpt>
      <trkpt lat="47.8374" lon="-1.73939">
        <ele>37.63</ele>
        <time>2014-04-13T08:21:35Z</time>
      </trkpt>
      <trkpt lat="47.83739" lon="-1.7393">
        <ele>37.63</ele>
        <time>2014-04-13T08:21:36Z</time>
      </trkpt>
      <trkpt lat="47.8373" lon="-1.73869">
        <ele>37.15</ele>
        <time>2014-04-13T08:21:43Z</time>
      </trkpt>
      <trkpt lat="47.83731" lon="-1.7386">
        <ele>37.15</ele>
        <time>2014-04-13T08:21:44Z</time>
      </trkpt>
      <trkpt lat="47.83759" lon="-1.73731">
        <ele>38.11</ele>
        <time>2014-04-13T08:22:00Z</time>
      </trkpt>
      <trkpt lat="47.83788" lon="-1.7361">
        <ele>39.55</ele>
        <time>2014-04-13T08:22:16Z</time>
      </trkpt>
      <trkpt lat="47.83817" lon="-1.73488">
        <ele>41.47</ele>
        <time>2014-04-13T08:22:33Z</time>
      </trkpt>
      <trkpt lat="47.83844" lon="-1.73374">
        <ele>42.92</ele>
        <time>2014-04-13T08:22:49Z</time>
      </trkpt>
      <trkpt lat="47.83868" lon="-1.73276">
        <ele>43.88</ele>
        <time>2014-04-13T08:23:03Z</time>
      </trkpt>
      <trkpt lat="47.83898" lon="-1.73146">
        <ele>45.32</ele>
        <time>2014-04-13T08:23:21Z</time>
      </trkpt>
      <trkpt lat="47.839" lon="-1.73139">
        <ele>45.32</ele>
        <time>2014-04-13T08:23:22Z</time>
      </trkpt>
      <trkpt lat="47.83932" lon="-1.73001">
        <ele>46.28</ele>
        <time>2014-04-13T08:23:41Z</time>
      </trkpt>
      <trkpt lat="47.8394" lon="-1.72972">
        <ele>46.76</ele>
        <time>2014-04-13T08:23:45Z</time>
      </trkpt>
      <trkpt lat="47.8397" lon="-1.72839">
        <ele>47.72</ele>
        <time>2014-04-13T08:24:03Z</time>
      </trkpt>
      <trkpt lat="47.83987" lon="-1.7277">
        <ele>48.68</ele>
        <time>2014-04-13T08:24:13Z</time>
      </trkpt>
      <trkpt lat="47.83989" lon="-1.72756">
        <ele>48.68</ele>
        <time>2014-04-13T08:24:15Z</time>
      </trkpt>
      <trkpt lat="47.84016" lon="-1.72644">
        <ele>49.16</ele>
        <time>2014-04-13T08:24:31Z</time>
      </trkpt>
      <trkpt lat="47.84028" lon="-1.72589">
        <ele>49.65</ele>
        <time>2014-04-13T08:24:39Z</time>
      </trkpt>
      <trkpt lat="47.84059" lon="-1.72461">
        <ele>50.13</ele>
        <time>2014-04-13T08:24:56Z</time>
      </trkpt>
      <trkpt lat="47.84089" lon="-1.72331">
        <ele>50.13</ele>
        <time>2014-04-13T08:25:13Z</time>
      </trkpt>
      <trkpt lat="47.84116" lon="-1.7221">
        <ele>51.57</ele>
        <time>2014-04-13T08:25:30Z</time>
      </trkpt>
      <trkpt lat="47.84147" lon="-1.72085">
        <ele>52.05</ele>
        <time>2014-04-13T08:25:48Z</time>
      </trkpt>
      <trkpt lat="47.84173" lon="-1.71976">
        <ele>53.01</ele>
        <time>2014-04-13T08:26:04Z</time>
      </trkpt>
      <trkpt lat="47.84203" lon="-1.71846">
        <ele>53.97</ele>
        <time>2014-04-13T08:26:23Z</time>
      </trkpt>
      <trkpt lat="47.84223" lon="-1.71764">
        <ele>53.97</ele>
        <time>2014-04-13T08:26:35Z</time>
      </trkpt>
      <trkpt lat="47.84224" lon="-1.71757">
        <ele>54.45</ele>
        <time>2014-04-13T08:26:36Z</time>
      </trkpt>
      <trkpt lat="47.84254" lon="-1.71628">
        <ele>54.93</ele>
        <time>2014-04-13T08:26:55Z</time>
      </trkpt>
      <trkpt lat="47.84282" lon="-1.71518">
        <ele>55.41</ele>
        <time>2014-04-13T08:27:12Z</time>
      </trkpt>
      <trkpt lat="47.84289" lon="-1.71485">
        <ele>54.93</ele>
        <time>2014-04-13T08:27:17Z</time>
      </trkpt>
      <trkpt lat="47.84291" lon="-1.71478">
        <ele>54.93</ele>
        <time>2014-04-13T08:27:18Z</time>
      </trkpt>
      <trkpt lat="47.84292" lon="-1.71471">
        <ele>54.93</ele>
        <time>2014-04-13T08:27:19Z</time>
      </trkpt>
      <trkpt lat="47.84297" lon="-1.71443">
        <ele>54.93</ele>
        <time>2014-04-13T08:27:23Z</time>
      </trkpt>
      <trkpt lat="47.84298" lon="-1.71437">
        <ele>54.93</ele>
        <time>2014-04-13T08:27:24Z</time>
      </trkpt>
      <trkpt lat="47.84312" lon="-1.71362">
        <ele>54.93</ele>
        <time>2014-04-13T08:27:35Z</time>
      </trkpt>
      <trkpt lat="47.84313" lon="-1.71355">
        <ele>54.93</ele>
        <time>2014-04-13T08:27:36Z</time>
      </trkpt>
      <trkpt lat="47.84314" lon="-1.71348">
        <ele>55.41</ele>
        <time>2014-04-13T08:27:37Z</time>
      </trkpt>
      <trkpt lat="47.84323" lon="-1.71251">
        <ele>55.41</ele>
        <time>2014-04-13T08:27:50Z</time>
      </trkpt>
      <trkpt lat="47.84323" lon="-1.71243">
        <ele>55.41</ele>
        <time>2014-04-13T08:27:51Z</time>
      </trkpt>
      <trkpt lat="47.84323" lon="-1.71236">
        <ele>55.41</ele>
        <time>2014-04-13T08:27:52Z</time>
      </trkpt>
      <trkpt lat="47.84321" lon="-1.71211">
        <ele>55.89</ele>
        <time>2014-04-13T08:27:56Z</time>
      </trkpt>
      <trkpt lat="47.84321" lon="-1.71197">
        <ele>55.89</ele>
        <time>2014-04-13T08:27:58Z</time>
      </trkpt>
      <trkpt lat="47.84321" lon="-1.7119">
        <ele>55.89</ele>
        <time>2014-04-13T08:27:59Z</time>
      </trkpt>
      <trkpt lat="47.84321" lon="-1.71183">
        <ele>55.89</ele>
        <time>2014-04-13T08:28:00Z</time>
      </trkpt>
      <trkpt lat="47.84321" lon="-1.71148">
        <ele>56.37</ele>
        <time>2014-04-13T08:28:05Z</time>
      </trkpt>
      <trkpt lat="47.84321" lon="-1.71141">
        <ele>56.37</ele>
        <time>2014-04-13T08:28:06Z</time>
      </trkpt>
      <trkpt lat="47.84321" lon="-1.71135">
        <ele>56.37</ele>
        <time>2014-04-13T08:28:07Z</time>
      </trkpt>
      <trkpt lat="47.84321" lon="-1.71128">
        <ele>56.37</ele>
        <time>2014-04-13T08:28:08Z</time>
      </trkpt>
      <trkpt lat="47.84321" lon="-1.71122">
        <ele>56.86</ele>
        <time>2014-04-13T08:28:09Z</time>
      </trkpt>
      <trkpt lat="47.8432" lon="-1.71116">
        <ele>56.86</ele>
        <time>2014-04-13T08:28:10Z</time>
      </trkpt>
      <trkpt lat="47.84317" lon="-1.71111">
        <ele>56.86</ele>
        <time>2014-04-13T08:28:11Z</time>
      </trkpt>
      <trkpt lat="47.8431" lon="-1.7111">
        <ele>56.37</ele>
        <time>2014-04-13T08:28:13Z</time>
      </trkpt>
      <trkpt lat="47.84307" lon="-1.71113">
        <ele>55.89</ele>
        <time>2014-04-13T08:28:14Z</time>
      </trkpt>
      <trkpt lat="47.84303" lon="-1.71116">
        <ele>55.41</ele>
        <time>2014-04-13T08:28:15Z</time>
      </trkpt>
      <trkpt lat="47.84295" lon="-1.71119">
        <ele>54.93</ele>
        <time>2014-04-13T08:28:18Z</time>
      </trkpt>
      <trkpt lat="47.84291" lon="-1.71118">
        <ele>54.93</ele>
        <time>2014-04-13T08:28:20Z</time>
      </trkpt>
      <trkpt lat="47.84288" lon="-1.71119">
        <ele>54.93</ele>
        <time>2014-04-13T08:28:23Z</time>
      </trkpt>
      <trkpt lat="47.84287" lon="-1.7112">
        <ele>55.41</ele>
        <time>2014-04-13T08:28:24Z</time>
      </trkpt>
      <trkpt lat="47.84286" lon="-1.7112">
        <ele>55.41</ele>
        <time>2014-04-13T08:28:25Z</time>
      </trkpt>
      <trkpt lat="47.84285" lon="-1.71122">
        <ele>55.41</ele>
        <time>2014-04-13T08:28:26Z</time>
      </trkpt>
      <trkpt lat="47.84284" lon="-1.71123">
        <ele>54.93</ele>
        <time>2014-04-13T08:28:27Z</time>
      </trkpt>
      <trkpt lat="47.84282" lon="-1.71122">
        <ele>54.93</ele>
        <time>2014-04-13T08:28:28Z</time>
      </trkpt>
      <trkpt lat="47.8428" lon="-1.71119">
        <ele>54.93</ele>
        <time>2014-04-13T08:28:29Z</time>
      </trkpt>
      <trkpt lat="47.84278" lon="-1.71117">
        <ele>55.41</ele>
        <time>2014-04-13T08:28:30Z</time>
      </trkpt>
      <trkpt lat="47.84276" lon="-1.71116">
        <ele>54.93</ele>
        <time>2014-04-13T08:28:31Z</time>
      </trkpt>
      <trkpt lat="47.84274" lon="-1.71116">
        <ele>54.45</ele>
        <time>2014-04-13T08:28:32Z</time>
      </trkpt>
      <trkpt lat="47.84271" lon="-1.71115">
        <ele>54.45</ele>
        <time>2014-04-13T08:28:33Z</time>
      </trkpt>
      <trkpt lat="47.84268" lon="-1.71116">
        <ele>54.45</ele>
        <time>2014-04-13T08:28:34Z</time>
      </trkpt>
      <trkpt lat="47.84264" lon="-1.71117">
        <ele>53.97</ele>
        <time>2014-04-13T08:28:35Z</time>
      </trkpt>
      <trkpt lat="47.84257" lon="-1.71121">
        <ele>53.97</ele>
        <time>2014-04-13T08:28:37Z</time>
      </trkpt>
      <trkpt lat="47.84253" lon="-1.7112">
        <ele>53.97</ele>
        <time>2014-04-13T08:28:38Z</time>
      </trkpt>
      <trkpt lat="47.8425" lon="-1.71116">
        <ele>53.97</ele>
        <time>2014-04-13T08:28:39Z</time>
      </trkpt>
      <trkpt lat="47.84249" lon="-1.7111">
        <ele>53.97</ele>
        <time>2014-04-13T08:28:40Z</time>
      </trkpt>
      <trkpt lat="47.84248" lon="-1.71104">
        <ele>53.97</ele>
        <time>2014-04-13T08:28:41Z</time>
      </trkpt>
      <trkpt lat="47.84247" lon="-1.71098">
        <ele>53.97</ele>
        <time>2014-04-13T08:28:42Z</time>
      </trkpt>
      <trkpt lat="47.84246" lon="-1.71092">
        <ele>53.97</ele>
        <time>2014-04-13T08:28:43Z</time>
      </trkpt>
      <trkpt lat="47.84244" lon="-1.71079">
        <ele>53.97</ele>
        <time>2014-04-13T08:28:45Z</time>
      </trkpt>
      <trkpt lat="47.84233" lon="-1.70947">
        <ele>55.89</ele>
        <time>2014-04-13T08:29:05Z</time>
      </trkpt>
      <trkpt lat="47.8422" lon="-1.70827">
        <ele>58.3</ele>
        <time>2014-04-13T08:29:24Z</time>
      </trkpt>
      <trkpt lat="47.84203" lon="-1.70725">
        <ele>60.22</ele>
        <time>2014-04-13T08:29:41Z</time>
      </trkpt>
      <trkpt lat="47.84187" lon="-1.7067">
        <ele>61.18</ele>
        <time>2014-04-13T08:29:53Z</time>
      </trkpt>
      <trkpt lat="47.84183" lon="-1.70656">
        <ele>61.66</ele>
        <time>2014-04-13T08:29:56Z</time>
      </trkpt>
      <trkpt lat="47.84184" lon="-1.70651">
        <ele>61.66</ele>
        <time>2014-04-13T08:29:57Z</time>
      </trkpt>
      <trkpt lat="47.84186" lon="-1.70637">
        <ele>62.14</ele>
        <time>2014-04-13T08:30:00Z</time>
      </trkpt>
      <trkpt lat="47.84184" lon="-1.70632">
        <ele>62.62</ele>
        <time>2014-04-13T08:30:01Z</time>
      </trkpt>
      <trkpt lat="47.84155" lon="-1.7056">
        <ele>63.1</ele>
        <time>2014-04-13T08:30:15Z</time>
      </trkpt>
      <trkpt lat="47.84153" lon="-1.70554">
        <ele>63.58</ele>
        <time>2014-04-13T08:30:16Z</time>
      </trkpt>
      <trkpt lat="47.84151" lon="-1.70549">
        <ele>63.1</ele>
        <time>2014-04-13T08:30:17Z</time>
      </trkpt>
      <trkpt lat="47.84144" lon="-1.70532">
        <ele>63.58</ele>
        <time>2014-04-13T08:30:20Z</time>
      </trkpt>
      <trkpt lat="47.84138" lon="-1.70516">
        <ele>63.58</ele>
        <time>2014-04-13T08:30:23Z</time>
      </trkpt>
      <trkpt lat="47.84134" lon="-1.70505">
        <ele>64.07</ele>
        <time>2014-04-13T08:30:25Z</time>
      </trkpt>
      <trkpt lat="47.84132" lon="-1.70499">
        <ele>64.07</ele>
        <time>2014-04-13T08:30:26Z</time>
      </trkpt>
      <trkpt lat="47.84114" lon="-1.70457">
        <ele>64.55</ele>
        <time>2014-04-13T08:30:34Z</time>
      </trkpt>
      <trkpt lat="47.84083" lon="-1.70377">
        <ele>65.51</ele>
        <time>2014-04-13T08:30:48Z</time>
      </trkpt>
      <trkpt lat="47.84057" lon="-1.70312">
        <ele>65.99</ele>
        <time>2014-04-13T08:31:00Z</time>
      </trkpt>
      <trkpt lat="47.84032" lon="-1.70248">
        <ele>66.95</ele>
        <time>2014-04-13T08:31:13Z</time>
      </trkpt>
      <trkpt lat="47.84017" lon="-1.70209">
        <ele>67.43</ele>
        <time>2014-04-13T08:31:23Z</time>
      </trkpt>
      <trkpt lat="47.84013" lon="-1.70198">
        <ele>67.91</ele>
        <time>2014-04-13T08:31:25Z</time>
      </trkpt>
      <trkpt lat="47.8399" lon="-1.7014">
        <ele>67.91</ele>
        <time>2014-04-13T08:31:36Z</time>
      </trkpt>
      <trkpt lat="47.8396" lon="-1.70061">
        <ele>69.35</ele>
        <time>2014-04-13T08:31:50Z</time>
      </trkpt>
      <trkpt lat="47.83948" lon="-1.70034">
        <ele>69.35</ele>
        <time>2014-04-13T08:31:55Z</time>
      </trkpt>
      <trkpt lat="47.83946" lon="-1.70029">
        <ele>69.35</ele>
        <time>2014-04-13T08:31:56Z</time>
      </trkpt>
      <trkpt lat="47.83944" lon="-1.70024">
        <ele>69.83</ele>
        <time>2014-04-13T08:31:57Z</time>
      </trkpt>
      <trkpt lat="47.83934" lon="-1.69999">
        <ele>69.83</ele>
        <time>2014-04-13T08:32:02Z</time>
      </trkpt>
      <trkpt lat="47.83932" lon="-1.69994">
        <ele>70.31</ele>
        <time>2014-04-13T08:32:03Z</time>
      </trkpt>
      <trkpt lat="47.8393" lon="-1.69988">
        <ele>70.31</ele>
        <time>2014-04-13T08:32:04Z</time>
      </trkpt>
      <trkpt lat="47.83903" lon="-1.69923">
        <ele>70.31</ele>
        <time>2014-04-13T08:32:16Z</time>
      </trkpt>
      <trkpt lat="47.83901" lon="-1.69917">
        <ele>70.31</ele>
        <time>2014-04-13T08:32:17Z</time>
      </trkpt>
      <trkpt lat="47.83898" lon="-1.69911">
        <ele>70.31</ele>
        <time>2014-04-13T08:32:18Z</time>
      </trkpt>
      <trkpt lat="47.83896" lon="-1.69905">
        <ele>70.79</ele>
        <time>2014-04-13T08:32:19Z</time>
      </trkpt>
      <trkpt lat="47.83894" lon="-1.69899">
        <ele>70.31</ele>
        <time>2014-04-13T08:32:20Z</time>
      </trkpt>
      <trkpt lat="47.8389" lon="-1.69886">
        <ele>70.31</ele>
        <time>2014-04-13T08:32:22Z</time>
      </trkpt>
      <trkpt lat="47.83887" lon="-1.6988">
        <ele>70.79</ele>
        <time>2014-04-13T08:32:23Z</time>
      </trkpt>
      <trkpt lat="47.8386" lon="-1.6981">
        <ele>70.79</ele>
        <time>2014-04-13T08:32:35Z</time>
      </trkpt>
      <trkpt lat="47.83833" lon="-1.69735">
        <ele>71.27</ele>
        <time>2014-04-13T08:32:47Z</time>
      </trkpt>
      <trkpt lat="47.83825" lon="-1.69711">
        <ele>71.27</ele>
        <time>2014-04-13T08:32:51Z</time>
      </trkpt>
      <trkpt lat="47.83822" lon="-1.69704">
        <ele>71.27</ele>
        <time>2014-04-13T08:32:52Z</time>
      </trkpt>
      <trkpt lat="47.83802" lon="-1.69643">
        <ele>71.27</ele>
        <time>2014-04-13T08:33:02Z</time>
      </trkpt>
      <trkpt lat="47.83796" lon="-1.69623">
        <ele>71.27</ele>
        <time>2014-04-13T08:33:05Z</time>
      </trkpt>
      <trkpt lat="47.83789" lon="-1.69597">
        <ele>71.76</ele>
        <time>2014-04-13T08:33:09Z</time>
      </trkpt>
      <trkpt lat="47.83788" lon="-1.69591">
        <ele>71.76</ele>
        <time>2014-04-13T08:33:10Z</time>
      </trkpt>
      <trkpt lat="47.8378" lon="-1.69565">
        <ele>71.76</ele>
        <time>2014-04-13T08:33:14Z</time>
      </trkpt>
      <trkpt lat="47.83777" lon="-1.6956">
        <ele>71.76</ele>
        <time>2014-04-13T08:33:15Z</time>
      </trkpt>
      <trkpt lat="47.83774" lon="-1.69555">
        <ele>71.76</ele>
        <time>2014-04-13T08:33:16Z</time>
      </trkpt>
      <trkpt lat="47.83769" lon="-1.69552">
        <ele>71.76</ele>
        <time>2014-04-13T08:33:17Z</time>
      </trkpt>
      <trkpt lat="47.83765" lon="-1.69548">
        <ele>71.76</ele>
        <time>2014-04-13T08:33:18Z</time>
      </trkpt>
      <trkpt lat="47.83715" lon="-1.69514">
        <ele>71.76</ele>
        <time>2014-04-13T08:33:30Z</time>
      </trkpt>
      <trkpt lat="47.83703" lon="-1.69506">
        <ele>69.35</ele>
        <time>2014-04-13T08:33:34Z</time>
      </trkpt>
      <trkpt lat="47.83701" lon="-1.69501">
        <ele>68.87</ele>
        <time>2014-04-13T08:33:35Z</time>
      </trkpt>
      <trkpt lat="47.83701" lon="-1.69496">
        <ele>68.87</ele>
        <time>2014-04-13T08:33:36Z</time>
      </trkpt>
      <trkpt lat="47.83701" lon="-1.6949">
        <ele>68.87</ele>
        <time>2014-04-13T08:33:37Z</time>
      </trkpt>
      <trkpt lat="47.83702" lon="-1.69483">
        <ele>69.35</ele>
        <time>2014-04-13T08:33:38Z</time>
      </trkpt>
      <trkpt lat="47.83711" lon="-1.69431">
        <ele>69.35</ele>
        <time>2014-04-13T08:33:46Z</time>
      </trkpt>
      <trkpt lat="47.83711" lon="-1.69424">
        <ele>69.35</ele>
        <time>2014-04-13T08:33:47Z</time>
      </trkpt>
      <trkpt lat="47.83711" lon="-1.69417">
        <ele>69.35</ele>
        <time>2014-04-13T08:33:48Z</time>
      </trkpt>
      <trkpt lat="47.83709" lon="-1.69405">
        <ele>69.83</ele>
        <time>2014-04-13T08:33:50Z</time>
      </trkpt>
      <trkpt lat="47.83708" lon="-1.69399">
        <ele>70.31</ele>
        <time>2014-04-13T08:33:51Z</time>
      </trkpt>
      <trkpt lat="47.83695" lon="-1.69368">
        <ele>72.24</ele>
        <time>2014-04-13T08:33:58Z</time>
      </trkpt>
      <trkpt lat="47.83696" lon="-1.69365">
        <ele>72.24</ele>
        <time>2014-04-13T08:33:59Z</time>
      </trkpt>
      <trkpt lat="47.83699" lon="-1.69364">
        <ele>72.72</ele>
        <time>2014-04-13T08:34:00Z</time>
      </trkpt>
      <trkpt lat="47.83701" lon="-1.69365">
        <ele>72.72</ele>
        <time>2014-04-13T08:34:01Z</time>
      </trkpt>
      <trkpt lat="47.83704" lon="-1.69367">
        <ele>72.72</ele>
        <time>2014-04-13T08:34:02Z</time>
      </trkpt>
      <trkpt lat="47.83706" lon="-1.69369">
        <ele>72.72</ele>
        <time>2014-04-13T08:34:03Z</time>
      </trkpt>
      <trkpt lat="47.83708" lon="-1.69372">
        <ele>73.2</ele>
        <time>2014-04-13T08:34:04Z</time>
      </trkpt>
      <trkpt lat="47.83711" lon="-1.69376">
        <ele>72.72</ele>
        <time>2014-04-13T08:34:05Z</time>
      </trkpt>
      <trkpt lat="47.83713" lon="-1.6938">
        <ele>72.72</ele>
        <time>2014-04-13T08:34:06Z</time>
      </trkpt>
      <trkpt lat="47.83714" lon="-1.69384">
        <ele>73.2</ele>
        <time>2014-04-13T08:34:07Z</time>
      </trkpt>
      <trkpt lat="47.83716" lon="-1.69388">
        <ele>73.2</ele>
        <time>2014-04-13T08:34:08Z</time>
      </trkpt>
      <trkpt lat="47.83717" lon="-1.69393">
        <ele>73.2</ele>
        <time>2014-04-13T08:34:09Z</time>
      </trkpt>
      <trkpt lat="47.83718" lon="-1.69398">
        <ele>73.2</ele>
        <time>2014-04-13T08:34:10Z</time>
      </trkpt>
      <trkpt lat="47.83719" lon="-1.69403">
        <ele>73.2</ele>
        <time>2014-04-13T08:34:11Z</time>
      </trkpt>
      <trkpt lat="47.83725" lon="-1.69443">
        <ele>73.2</ele>
        <time>2014-04-13T08:34:19Z</time>
      </trkpt>
      <trkpt lat="47.83727" lon="-1.69445">
        <ele>73.2</ele>
        <time>2014-04-13T08:34:20Z</time>
      </trkpt>
      <trkpt lat="47.8373" lon="-1.69447">
        <ele>73.68</ele>
        <time>2014-04-13T08:34:21Z</time>
      </trkpt>
      <trkpt lat="47.83732" lon="-1.69448">
        <ele>74.16</ele>
        <time>2014-04-13T08:34:22Z</time>
      </trkpt>
      <trkpt lat="47.83734" lon="-1.69451">
        <ele>74.64</ele>
        <time>2014-04-13T08:34:23Z</time>
      </trkpt>
      <trkpt lat="47.83736" lon="-1.69454">
        <ele>74.16</ele>
        <time>2014-04-13T08:34:24Z</time>
      </trkpt>
      <trkpt lat="47.83739" lon="-1.69456">
        <ele>74.64</ele>
        <time>2014-04-13T08:34:25Z</time>
      </trkpt>
      <trkpt lat="47.83751" lon="-1.69462">
        <ele>75.12</ele>
        <time>2014-04-13T08:34:29Z</time>
      </trkpt>
      <trkpt lat="47.83756" lon="-1.69462">
        <ele>75.12</ele>
        <time>2014-04-13T08:34:31Z</time>
      </trkpt>
      <trkpt lat="47.83758" lon="-1.69465">
        <ele>75.12</ele>
        <time>2014-04-13T08:34:32Z</time>
      </trkpt>
      <trkpt lat="47.8377" lon="-1.69472">
        <ele>75.12</ele>
        <time>2014-04-13T08:34:36Z</time>
      </trkpt>
      <trkpt lat="47.83771" lon="-1.69474">
        <ele>75.6</ele>
        <time>2014-04-13T08:34:37Z</time>
      </trkpt>
      <trkpt lat="47.83773" lon="-1.69474">
        <ele>76.08</ele>
        <time>2014-04-13T08:34:38Z</time>
      </trkpt>
      <trkpt lat="47.83775" lon="-1.69475">
        <ele>76.08</ele>
        <time>2014-04-13T08:34:39Z</time>
      </trkpt>
      <trkpt lat="47.83776" lon="-1.69474">
        <ele>76.56</ele>
        <time>2014-04-13T08:34:40Z</time>
      </trkpt>
      <trkpt lat="47.83777" lon="-1.69473">
        <ele>77.04</ele>
        <time>2014-04-13T08:34:41Z</time>
      </trkpt>
      <trkpt lat="47.83782" lon="-1.69475">
        <ele>77.52</ele>
        <time>2014-04-13T08:34:45Z</time>
      </trkpt>
      <trkpt lat="47.83784" lon="-1.69476">
        <ele>78</ele>
        <time>2014-04-13T08:34:46Z</time>
      </trkpt>
      <trkpt lat="47.8379" lon="-1.69478">
        <ele>78.97</ele>
        <time>2014-04-13T08:34:51Z</time>
      </trkpt>
      <trkpt lat="47.83792" lon="-1.69478">
        <ele>79.45</ele>
        <time>2014-04-13T08:34:52Z</time>
      </trkpt>
      <trkpt lat="47.83794" lon="-1.69478">
        <ele>79.45</ele>
        <time>2014-04-13T08:34:53Z</time>
      </trkpt>
      <trkpt lat="47.83796" lon="-1.6948">
        <ele>79.93</ele>
        <time>2014-04-13T08:34:54Z</time>
      </trkpt>
      <trkpt lat="47.83798" lon="-1.69483">
        <ele>79.45</ele>
        <time>2014-04-13T08:34:55Z</time>
      </trkpt>
      <trkpt lat="47.83801" lon="-1.69483">
        <ele>78.97</ele>
        <time>2014-04-13T08:34:56Z</time>
      </trkpt>
      <trkpt lat="47.83803" lon="-1.69484">
        <ele>79.45</ele>
        <time>2014-04-13T08:34:57Z</time>
      </trkpt>
      <trkpt lat="47.83805" lon="-1.69483">
        <ele>79.93</ele>
        <time>2014-04-13T08:34:58Z</time>
      </trkpt>
      <trkpt lat="47.83807" lon="-1.69483">
        <ele>80.41</ele>
        <time>2014-04-13T08:34:59Z</time>
      </trkpt>
      <trkpt lat="47.83809" lon="-1.69482">
        <ele>80.89</ele>
        <time>2014-04-13T08:35:00Z</time>
      </trkpt>
      <trkpt lat="47.83812" lon="-1.69483">
        <ele>80.89</ele>
        <time>2014-04-13T08:35:02Z</time>
      </trkpt>
      <trkpt lat="47.83814" lon="-1.69485">
        <ele>80.89</ele>
        <time>2014-04-13T08:35:03Z</time>
      </trkpt>
      <trkpt lat="47.83817" lon="-1.69487">
        <ele>80.41</ele>
        <time>2014-04-13T08:35:04Z</time>
      </trkpt>
      <trkpt lat="47.8382" lon="-1.69489">
        <ele>80.41</ele>
        <time>2014-04-13T08:35:05Z</time>
      </trkpt>
      <trkpt lat="47.83823" lon="-1.6949">
        <ele>80.41</ele>
        <time>2014-04-13T08:35:06Z</time>
      </trkpt>
      <trkpt lat="47.83825" lon="-1.69491">
        <ele>80.89</ele>
        <time>2014-04-13T08:35:07Z</time>
      </trkpt>
      <trkpt lat="47.8383" lon="-1.69492">
        <ele>80.89</ele>
        <time>2014-04-13T08:35:09Z</time>
      </trkpt>
      <trkpt lat="47.83833" lon="-1.69495">
        <ele>81.37</ele>
        <time>2014-04-13T08:35:11Z</time>
      </trkpt>
      <trkpt lat="47.83835" lon="-1.69497">
        <ele>80.89</ele>
        <time>2014-04-13T08:35:12Z</time>
      </trkpt>
      <trkpt lat="47.83836" lon="-1.69499">
        <ele>80.41</ele>
        <time>2014-04-13T08:35:13Z</time>
      </trkpt>
      <trkpt lat="47.83844" lon="-1.69504">
        <ele>79.45</ele>
        <time>2014-04-13T08:35:16Z</time>
      </trkpt>
      <trkpt lat="47.83847" lon="-1.69504">
        <ele>79.45</ele>
        <time>2014-04-13T08:35:17Z</time>
      </trkpt>
      <trkpt lat="47.83849" lon="-1.69506">
        <ele>79.93</ele>
        <time>2014-04-13T08:35:18Z</time>
      </trkpt>
      <trkpt lat="47.83852" lon="-1.69507">
        <ele>79.93</ele>
        <time>2014-04-13T08:35:19Z</time>
      </trkpt>
      <trkpt lat="47.83854" lon="-1.69508">
        <ele>79.93</ele>
        <time>2014-04-13T08:35:20Z</time>
      </trkpt>
      <trkpt lat="47.83856" lon="-1.69509">
        <ele>79.93</ele>
        <time>2014-04-13T08:35:21Z</time>
      </trkpt>
      <trkpt lat="47.83859" lon="-1.6951">
        <ele>79.93</ele>
        <time>2014-04-13T08:35:22Z</time>
      </trkpt>
      <trkpt lat="47.83861" lon="-1.69511">
        <ele>80.41</ele>
        <time>2014-04-13T08:35:23Z</time>
      </trkpt>
      <trkpt lat="47.83864" lon="-1.69512">
        <ele>79.93</ele>
        <time>2014-04-13T08:35:24Z</time>
      </trkpt>
      <trkpt lat="47.83866" lon="-1.69512">
        <ele>79.93</ele>
        <time>2014-04-13T08:35:25Z</time>
      </trkpt>
      <trkpt lat="47.8387" lon="-1.69514">
        <ele>80.41</ele>
        <time>2014-04-13T08:35:29Z</time>
      </trkpt>
      <trkpt lat="47.83876" lon="-1.69514">
        <ele>80.89</ele>
        <time>2014-04-13T08:35:32Z</time>
      </trkpt>
      <trkpt lat="47.83884" lon="-1.69511">
        <ele>82.81</ele>
        <time>2014-04-13T08:35:37Z</time>
      </trkpt>
      <trkpt lat="47.8389" lon="-1.69509">
        <ele>83.29</ele>
        <time>2014-04-13T08:35:39Z</time>
      </trkpt>
      <trkpt lat="47.83903" lon="-1.69489">
        <ele>84.73</ele>
        <time>2014-04-13T08:35:47Z</time>
      </trkpt>
      <trkpt lat="47.83903" lon="-1.6948">
        <ele>87.14</ele>
        <time>2014-04-13T08:35:57Z</time>
      </trkpt>
      <trkpt lat="47.83904" lon="-1.6948">
        <ele>87.14</ele>
        <time>2014-04-13T08:36:00Z</time>
      </trkpt>
      <trkpt lat="47.83904" lon="-1.69486">
        <ele>88.1</ele>
        <time>2014-04-13T08:36:03Z</time>
      </trkpt>
      <trkpt lat="47.83902" lon="-1.69489">
        <ele>88.1</ele>
        <time>2014-04-13T08:36:05Z</time>
      </trkpt>
      <trkpt lat="47.83888" lon="-1.69486">
        <ele>89.06</ele>
        <time>2014-04-13T08:36:13Z</time>
      </trkpt>
      <trkpt lat="47.83864" lon="-1.69485">
        <ele>87.14</ele>
        <time>2014-04-13T08:36:19Z</time>
      </trkpt>
      <trkpt lat="47.83854" lon="-1.69482">
        <ele>86.18</ele>
        <time>2014-04-13T08:36:21Z</time>
      </trkpt>
      <trkpt lat="47.83833" lon="-1.69478">
        <ele>84.73</ele>
        <time>2014-04-13T08:36:25Z</time>
      </trkpt>
      <trkpt lat="47.83828" lon="-1.69476">
        <ele>84.25</ele>
        <time>2014-04-13T08:36:26Z</time>
      </trkpt>
      <trkpt lat="47.83822" lon="-1.69474">
        <ele>83.77</ele>
        <time>2014-04-13T08:36:27Z</time>
      </trkpt>
      <trkpt lat="47.83806" lon="-1.69468">
        <ele>82.33</ele>
        <time>2014-04-13T08:36:30Z</time>
      </trkpt>
      <trkpt lat="47.83802" lon="-1.69466">
        <ele>81.85</ele>
        <time>2014-04-13T08:36:31Z</time>
      </trkpt>
      <trkpt lat="47.83799" lon="-1.69463">
        <ele>81.37</ele>
        <time>2014-04-13T08:36:32Z</time>
      </trkpt>
      <trkpt lat="47.83797" lon="-1.69459">
        <ele>80.89</ele>
        <time>2014-04-13T08:36:33Z</time>
      </trkpt>
      <trkpt lat="47.83797" lon="-1.69455">
        <ele>80.41</ele>
        <time>2014-04-13T08:36:34Z</time>
      </trkpt>
      <trkpt lat="47.83799" lon="-1.69453">
        <ele>80.89</ele>
        <time>2014-04-13T08:36:35Z</time>
      </trkpt>
      <trkpt lat="47.83801" lon="-1.69453">
        <ele>80.89</ele>
        <time>2014-04-13T08:36:36Z</time>
      </trkpt>
      <trkpt lat="47.83803" lon="-1.69454">
        <ele>80.89</ele>
        <time>2014-04-13T08:36:37Z</time>
      </trkpt>
      <trkpt lat="47.83806" lon="-1.69456">
        <ele>80.89</ele>
        <time>2014-04-13T08:36:38Z</time>
      </trkpt>
      <trkpt lat="47.83809" lon="-1.69457">
        <ele>80.89</ele>
        <time>2014-04-13T08:36:39Z</time>
      </trkpt>
      <trkpt lat="47.83821" lon="-1.69458">
        <ele>80.89</ele>
        <time>2014-04-13T08:36:43Z</time>
      </trkpt>
      <trkpt lat="47.83824" lon="-1.69456">
        <ele>81.37</ele>
        <time>2014-04-13T08:36:44Z</time>
      </trkpt>
      <trkpt lat="47.83831" lon="-1.69442">
        <ele>83.29</ele>
        <time>2014-04-13T08:36:49Z</time>
      </trkpt>
      <trkpt lat="47.83833" lon="-1.69442">
        <ele>83.77</ele>
        <time>2014-04-13T08:36:50Z</time>
      </trkpt>
      <trkpt lat="47.83836" lon="-1.69442">
        <ele>83.77</ele>
        <time>2014-04-13T08:36:51Z</time>
      </trkpt>
      <trkpt lat="47.83838" lon="-1.69443">
        <ele>84.25</ele>
        <time>2014-04-13T08:36:52Z</time>
      </trkpt>
      <trkpt lat="47.8384" lon="-1.69443">
        <ele>84.25</ele>
        <time>2014-04-13T08:36:53Z</time>
      </trkpt>
      <trkpt lat="47.83842" lon="-1.69444">
        <ele>84.73</ele>
        <time>2014-04-13T08:36:54Z</time>
      </trkpt>
      <trkpt lat="47.83844" lon="-1.69443">
        <ele>84.73</ele>
        <time>2014-04-13T08:36:55Z</time>
      </trkpt>
      <trkpt lat="47.83845" lon="-1.69441">
        <ele>85.21</ele>
        <time>2014-04-13T08:36:56Z</time>
      </trkpt>
      <trkpt lat="47.83848" lon="-1.6944">
        <ele>86.18</ele>
        <time>2014-04-13T08:36:58Z</time>
      </trkpt>
      <trkpt lat="47.83849" lon="-1.6944">
        <ele>86.66</ele>
        <time>2014-04-13T08:37:00Z</time>
      </trkpt>
      <trkpt lat="47.8385" lon="-1.69441">
        <ele>86.18</ele>
        <time>2014-04-13T08:37:01Z</time>
      </trkpt>
      <trkpt lat="47.83852" lon="-1.69442">
        <ele>86.18</ele>
        <time>2014-04-13T08:37:02Z</time>
      </trkpt>
      <trkpt lat="47.83857" lon="-1.69443">
        <ele>86.18</ele>
        <time>2014-04-13T08:37:05Z</time>
      </trkpt>
      <trkpt lat="47.83859" lon="-1.69444">
        <ele>86.66</ele>
        <time>2014-04-13T08:37:06Z</time>
      </trkpt>
      <trkpt lat="47.83861" lon="-1.69443">
        <ele>86.66</ele>
        <time>2014-04-13T08:37:07Z</time>
      </trkpt>
      <trkpt lat="47.83863" lon="-1.69442">
        <ele>86.66</ele>
        <time>2014-04-13T08:37:08Z</time>
      </trkpt>
      <trkpt lat="47.83864" lon="-1.69441">
        <ele>87.62</ele>
        <time>2014-04-13T08:37:09Z</time>
      </trkpt>
      <trkpt lat="47.83869" lon="-1.69438">
        <ele>88.58</ele>
        <time>2014-04-13T08:37:12Z</time>
      </trkpt>
      <trkpt lat="47.83871" lon="-1.69439">
        <ele>89.06</ele>
        <time>2014-04-13T08:37:13Z</time>
      </trkpt>
      <trkpt lat="47.83873" lon="-1.6944">
        <ele>89.06</ele>
        <time>2014-04-13T08:37:14Z</time>
      </trkpt>
      <trkpt lat="47.83882" lon="-1.69442">
        <ele>88.1</ele>
        <time>2014-04-13T08:37:17Z</time>
      </trkpt>
      <trkpt lat="47.83888" lon="-1.69436">
        <ele>90.02</ele>
        <time>2014-04-13T08:37:21Z</time>
      </trkpt>
      <trkpt lat="47.8389" lon="-1.69435">
        <ele>90.5</ele>
        <time>2014-04-13T08:37:22Z</time>
      </trkpt>
      <trkpt lat="47.83892" lon="-1.69436">
        <ele>90.5</ele>
        <time>2014-04-13T08:37:23Z</time>
      </trkpt>
      <trkpt lat="47.83895" lon="-1.69436">
        <ele>90.5</ele>
        <time>2014-04-13T08:37:24Z</time>
      </trkpt>
      <trkpt lat="47.83897" lon="-1.69436">
        <ele>90.02</ele>
        <time>2014-04-13T08:37:25Z</time>
      </trkpt>
      <trkpt lat="47.83899" lon="-1.69435">
        <ele>90.02</ele>
        <time>2014-04-13T08:37:26Z</time>
      </trkpt>
      <trkpt lat="47.839" lon="-1.69436">
        <ele>90.02</ele>
        <time>2014-04-13T08:37:27Z</time>
      </trkpt>
      <trkpt lat="47.83902" lon="-1.69438">
        <ele>90.02</ele>
        <time>2014-04-13T08:37:28Z</time>
      </trkpt>
      <trkpt lat="47.83905" lon="-1.6944">
        <ele>89.54</ele>
        <time>2014-04-13T08:37:29Z</time>
      </trkpt>
      <trkpt lat="47.83908" lon="-1.69441">
        <ele>88.58</ele>
        <time>2014-04-13T08:37:30Z</time>
      </trkpt>
      <trkpt lat="47.83912" lon="-1.69442">
        <ele>89.54</ele>
        <time>2014-04-13T08:37:31Z</time>
      </trkpt>
      <trkpt lat="47.83915" lon="-1.69441">
        <ele>88.1</ele>
        <time>2014-04-13T08:37:32Z</time>
      </trkpt>
      <trkpt lat="47.83916" lon="-1.69438">
        <ele>87.62</ele>
        <time>2014-04-13T08:37:33Z</time>
      </trkpt>
      <trkpt lat="47.83918" lon="-1.69436">
        <ele>88.58</ele>
        <time>2014-04-13T08:37:34Z</time>
      </trkpt>
      <trkpt lat="47.83919" lon="-1.69434">
        <ele>89.06</ele>
        <time>2014-04-13T08:37:35Z</time>
      </trkpt>
      <trkpt lat="47.83921" lon="-1.69431">
        <ele>90.02</ele>
        <time>2014-04-13T08:37:37Z</time>
      </trkpt>
      <trkpt lat="47.83924" lon="-1.69425">
        <ele>91.46</ele>
        <time>2014-04-13T08:37:41Z</time>
      </trkpt>
      <trkpt lat="47.83937" lon="-1.69429">
        <ele>88.1</ele>
        <time>2014-04-13T08:37:47Z</time>
      </trkpt>
      <trkpt lat="47.83941" lon="-1.69416">
        <ele>88.1</ele>
        <time>2014-04-13T08:37:52Z</time>
      </trkpt>
      <trkpt lat="47.83931" lon="-1.69411">
        <ele>90.5</ele>
        <time>2014-04-13T08:38:02Z</time>
      </trkpt>
      <trkpt lat="47.83919" lon="-1.69417">
        <ele>93.87</ele>
        <time>2014-04-13T08:38:11Z</time>
      </trkpt>
      <trkpt lat="47.83902" lon="-1.69421">
        <ele>96.27</ele>
        <time>2014-04-13T08:38:21Z</time>
      </trkpt>
      <trkpt lat="47.83871" lon="-1.69421">
        <ele>92.9</ele>
        <time>2014-04-13T08:38:27Z</time>
      </trkpt>
      <trkpt lat="47.83849" lon="-1.69423">
        <ele>89.06</ele>
        <time>2014-04-13T08:38:30Z</time>
      </trkpt>
      <trkpt lat="47.83828" lon="-1.69425">
        <ele>86.18</ele>
        <time>2014-04-13T08:38:34Z</time>
      </trkpt>
      <trkpt lat="47.83817" lon="-1.69422">
        <ele>84.25</ele>
        <time>2014-04-13T08:38:37Z</time>
      </trkpt>
      <trkpt lat="47.83818" lon="-1.69412">
        <ele>83.29</ele>
        <time>2014-04-13T08:38:40Z</time>
      </trkpt>
      <trkpt lat="47.83836" lon="-1.69407">
        <ele>85.21</ele>
        <time>2014-04-13T08:38:49Z</time>
      </trkpt>
      <trkpt lat="47.83843" lon="-1.69391">
        <ele>83.77</ele>
        <time>2014-04-13T08:38:55Z</time>
      </trkpt>
      <trkpt lat="47.83848" lon="-1.6939">
        <ele>84.25</ele>
        <time>2014-04-13T08:38:57Z</time>
      </trkpt>
      <trkpt lat="47.83851" lon="-1.69392">
        <ele>84.73</ele>
        <time>2014-04-13T08:38:59Z</time>
      </trkpt>
      <trkpt lat="47.83874" lon="-1.69383">
        <ele>85.21</ele>
        <time>2014-04-13T08:39:10Z</time>
      </trkpt>
      <trkpt lat="47.83882" lon="-1.69383">
        <ele>85.69</ele>
        <time>2014-04-13T08:39:14Z</time>
      </trkpt>
      <trkpt lat="47.83905" lon="-1.69389">
        <ele>88.1</ele>
        <time>2014-04-13T08:39:26Z</time>
      </trkpt>
      <trkpt lat="47.83911" lon="-1.69386">
        <ele>86.66</ele>
        <time>2014-04-13T08:39:29Z</time>
      </trkpt>
      <trkpt lat="47.83916" lon="-1.69388">
        <ele>87.62</ele>
        <time>2014-04-13T08:39:32Z</time>
      </trkpt>
      <trkpt lat="47.83932" lon="-1.69391">
        <ele>88.58</ele>
        <time>2014-04-13T08:39:40Z</time>
      </trkpt>
      <trkpt lat="47.8395" lon="-1.69393">
        <ele>85.69</ele>
        <time>2014-04-13T08:39:49Z</time>
      </trkpt>
      <trkpt lat="47.83934" lon="-1.69375">
        <ele>84.73</ele>
        <time>2014-04-13T08:39:56Z</time>
      </trkpt>
      <trkpt lat="47.83929" lon="-1.69374">
        <ele>84.25</ele>
        <time>2014-04-13T08:39:57Z</time>
      </trkpt>
      <trkpt lat="47.8392" lon="-1.69373">
        <ele>83.77</ele>
        <time>2014-04-13T08:39:59Z</time>
      </trkpt>
      <trkpt lat="47.83915" lon="-1.69373">
        <ele>83.77</ele>
        <time>2014-04-13T08:40:00Z</time>
      </trkpt>
      <trkpt lat="47.83851" lon="-1.6937">
        <ele>80.41</ele>
        <time>2014-04-13T08:40:11Z</time>
      </trkpt>
      <trkpt lat="47.83845" lon="-1.6937">
        <ele>80.41</ele>
        <time>2014-04-13T08:40:12Z</time>
      </trkpt>
      <trkpt lat="47.83825" lon="-1.69369">
        <ele>79.45</ele>
        <time>2014-04-13T08:40:15Z</time>
      </trkpt>
      <trkpt lat="47.83818" lon="-1.69369">
        <ele>78.48</ele>
        <time>2014-04-13T08:40:16Z</time>
      </trkpt>
      <trkpt lat="47.83811" lon="-1.69368">
        <ele>78</ele>
        <time>2014-04-13T08:40:17Z</time>
      </trkpt>
      <trkpt lat="47.83741" lon="-1.69355">
        <ele>74.64</ele>
        <time>2014-04-13T08:40:28Z</time>
      </trkpt>
      <trkpt lat="47.83739" lon="-1.69357">
        <ele>74.16</ele>
        <time>2014-04-13T08:40:29Z</time>
      </trkpt>
      <trkpt lat="47.83736" lon="-1.69358">
        <ele>72.72</ele>
        <time>2014-04-13T08:40:30Z</time>
      </trkpt>
      <trkpt lat="47.83734" lon="-1.69358">
        <ele>72.24</ele>
        <time>2014-04-13T08:40:31Z</time>
      </trkpt>
      <trkpt lat="47.83733" lon="-1.69357">
        <ele>72.24</ele>
        <time>2014-04-13T08:40:32Z</time>
      </trkpt>
      <trkpt lat="47.83732" lon="-1.69351">
        <ele>72.24</ele>
        <time>2014-04-13T08:40:37Z</time>
      </trkpt>
      <trkpt lat="47.83732" lon="-1.69348">
        <ele>72.24</ele>
        <time>2014-04-13T08:40:38Z</time>
      </trkpt>
      <trkpt lat="47.83732" lon="-1.69345">
        <ele>71.76</ele>
        <time>2014-04-13T08:40:39Z</time>
      </trkpt>
      <trkpt lat="47.83732" lon="-1.69342">
        <ele>72.24</ele>
        <time>2014-04-13T08:40:40Z</time>
      </trkpt>
      <trkpt lat="47.83732" lon="-1.69337">
        <ele>72.24</ele>
        <time>2014-04-13T08:40:41Z</time>
      </trkpt>
      <trkpt lat="47.83723" lon="-1.69278">
        <ele>72.24</ele>
        <time>2014-04-13T08:40:51Z</time>
      </trkpt>
      <trkpt lat="47.83721" lon="-1.69272">
        <ele>72.24</ele>
        <time>2014-04-13T08:40:52Z</time>
      </trkpt>
      <trkpt lat="47.83709" lon="-1.692">
        <ele>72.24</ele>
        <time>2014-04-13T08:41:02Z</time>
      </trkpt>
      <trkpt lat="47.83708" lon="-1.69193">
        <ele>72.24</ele>
        <time>2014-04-13T08:41:03Z</time>
      </trkpt>
      <trkpt lat="47.83707" lon="-1.69186">
        <ele>71.76</ele>
        <time>2014-04-13T08:41:04Z</time>
      </trkpt>
      <trkpt lat="47.83704" lon="-1.69172">
        <ele>72.24</ele>
        <time>2014-04-13T08:41:06Z</time>
      </trkpt>
      <trkpt lat="47.83695" lon="-1.69121">
        <ele>71.76</ele>
        <time>2014-04-13T08:41:13Z</time>
      </trkpt>
      <trkpt lat="47.83677" lon="-1.69026">
        <ele>71.76</ele>
        <time>2014-04-13T08:41:25Z</time>
      </trkpt>
      <trkpt lat="47.83668" lon="-1.68987">
        <ele>71.76</ele>
        <time>2014-04-13T08:41:30Z</time>
      </trkpt>
      <trkpt lat="47.83648" lon="-1.68886">
        <ele>71.76</ele>
        <time>2014-04-13T08:41:43Z</time>
      </trkpt>
      <trkpt lat="47.83632" lon="-1.68827">
        <ele>71.76</ele>
        <time>2014-04-13T08:41:51Z</time>
      </trkpt>
      <trkpt lat="47.8363" lon="-1.6882">
        <ele>71.76</ele>
        <time>2014-04-13T08:41:52Z</time>
      </trkpt>
      <trkpt lat="47.83628" lon="-1.68813">
        <ele>71.76</ele>
        <time>2014-04-13T08:41:53Z</time>
      </trkpt>
      <trkpt lat="47.83625" lon="-1.68798">
        <ele>71.76</ele>
        <time>2014-04-13T08:41:55Z</time>
      </trkpt>
      <trkpt lat="47.83621" lon="-1.68785">
        <ele>72.24</ele>
        <time>2014-04-13T08:41:57Z</time>
      </trkpt>
      <trkpt lat="47.8362" lon="-1.68777">
        <ele>72.24</ele>
        <time>2014-04-13T08:41:58Z</time>
      </trkpt>
      <trkpt lat="47.83619" lon="-1.68769">
        <ele>71.76</ele>
        <time>2014-04-13T08:41:59Z</time>
      </trkpt>
      <trkpt lat="47.83618" lon="-1.68761">
        <ele>71.76</ele>
        <time>2014-04-13T08:42:00Z</time>
      </trkpt>
      <trkpt lat="47.83616" lon="-1.68753">
        <ele>71.76</ele>
        <time>2014-04-13T08:42:01Z</time>
      </trkpt>
      <trkpt lat="47.83615" lon="-1.68745">
        <ele>71.76</ele>
        <time>2014-04-13T08:42:02Z</time>
      </trkpt>
      <trkpt lat="47.83606" lon="-1.68703">
        <ele>71.76</ele>
        <time>2014-04-13T08:42:07Z</time>
      </trkpt>
      <trkpt lat="47.83603" lon="-1.68696">
        <ele>71.76</ele>
        <time>2014-04-13T08:42:08Z</time>
      </trkpt>
      <trkpt lat="47.83601" lon="-1.68689">
        <ele>71.76</ele>
        <time>2014-04-13T08:42:09Z</time>
      </trkpt>
      <trkpt lat="47.83591" lon="-1.68657">
        <ele>71.76</ele>
        <time>2014-04-13T08:42:14Z</time>
      </trkpt>
      <trkpt lat="47.83588" lon="-1.6865">
        <ele>71.76</ele>
        <time>2014-04-13T08:42:15Z</time>
      </trkpt>
      <trkpt lat="47.83551" lon="-1.68563">
        <ele>71.27</ele>
        <time>2014-04-13T08:42:28Z</time>
      </trkpt>
      <trkpt lat="47.83522" lon="-1.68515">
        <ele>67.91</ele>
        <time>2014-04-13T08:42:35Z</time>
      </trkpt>
      <trkpt lat="47.83513" lon="-1.68499">
        <ele>65.99</ele>
        <time>2014-04-13T08:42:39Z</time>
      </trkpt>
      <trkpt lat="47.83506" lon="-1.68486">
        <ele>65.51</ele>
        <time>2014-04-13T08:42:43Z</time>
      </trkpt>
      <trkpt lat="47.83503" lon="-1.68484">
        <ele>65.51</ele>
        <time>2014-04-13T08:42:44Z</time>
      </trkpt>
      <trkpt lat="47.83499" lon="-1.68485">
        <ele>65.51</ele>
        <time>2014-04-13T08:42:45Z</time>
      </trkpt>
      <trkpt lat="47.83494" lon="-1.68487">
        <ele>65.51</ele>
        <time>2014-04-13T08:42:47Z</time>
      </trkpt>
      <trkpt lat="47.83491" lon="-1.68485">
        <ele>65.99</ele>
        <time>2014-04-13T08:42:48Z</time>
      </trkpt>
      <trkpt lat="47.83489" lon="-1.68482">
        <ele>65.51</ele>
        <time>2014-04-13T08:42:49Z</time>
      </trkpt>
      <trkpt lat="47.83483" lon="-1.68474">
        <ele>65.99</ele>
        <time>2014-04-13T08:42:51Z</time>
      </trkpt>
      <trkpt lat="47.83425" lon="-1.68414">
        <ele>65.51</ele>
        <time>2014-04-13T08:43:05Z</time>
      </trkpt>
      <trkpt lat="47.834" lon="-1.68388">
        <ele>65.99</ele>
        <time>2014-04-13T08:43:11Z</time>
      </trkpt>
      <trkpt lat="47.83396" lon="-1.68384">
        <ele>65.99</ele>
        <time>2014-04-13T08:43:12Z</time>
      </trkpt>
      <trkpt lat="47.83377" lon="-1.68368">
        <ele>67.43</ele>
        <time>2014-04-13T08:43:17Z</time>
      </trkpt>
      <trkpt lat="47.83362" lon="-1.68358">
        <ele>67.91</ele>
        <time>2014-04-13T08:43:21Z</time>
      </trkpt>
      <trkpt lat="47.83317" lon="-1.68331">
        <ele>69.35</ele>
        <time>2014-04-13T08:43:33Z</time>
      </trkpt>
      <trkpt lat="47.83287" lon="-1.68311">
        <ele>69.35</ele>
        <time>2014-04-13T08:43:40Z</time>
      </trkpt>
      <trkpt lat="47.83259" lon="-1.68294">
        <ele>69.35</ele>
        <time>2014-04-13T08:43:46Z</time>
      </trkpt>
      <trkpt lat="47.83218" lon="-1.6827">
        <ele>68.87</ele>
        <time>2014-04-13T08:43:55Z</time>
      </trkpt>
      <trkpt lat="47.83199" lon="-1.68259">
        <ele>69.35</ele>
        <time>2014-04-13T08:43:59Z</time>
      </trkpt>
      <trkpt lat="47.83179" lon="-1.68247">
        <ele>69.35</ele>
        <time>2014-04-13T08:44:03Z</time>
      </trkpt>
      <trkpt lat="47.83135" lon="-1.68219">
        <ele>69.83</ele>
        <time>2014-04-13T08:44:12Z</time>
      </trkpt>
      <trkpt lat="47.83126" lon="-1.68213">
        <ele>69.83</ele>
        <time>2014-04-13T08:44:14Z</time>
      </trkpt>
      <trkpt lat="47.83077" lon="-1.68174">
        <ele>70.79</ele>
        <time>2014-04-13T08:44:26Z</time>
      </trkpt>
      <trkpt lat="47.83035" lon="-1.68138">
        <ele>71.27</ele>
        <time>2014-04-13T08:44:37Z</time>
      </trkpt>
      <trkpt lat="47.83018" lon="-1.68121">
        <ele>71.76</ele>
        <time>2014-04-13T08:44:42Z</time>
      </trkpt>
      <trkpt lat="47.83011" lon="-1.68113">
        <ele>71.76</ele>
        <time>2014-04-13T08:44:44Z</time>
      </trkpt>
      <trkpt lat="47.83007" lon="-1.68109">
        <ele>72.24</ele>
        <time>2014-04-13T08:44:45Z</time>
      </trkpt>
      <trkpt lat="47.82972" lon="-1.68072">
        <ele>72.72</ele>
        <time>2014-04-13T08:44:55Z</time>
      </trkpt>
      <trkpt lat="47.82958" lon="-1.68054">
        <ele>73.2</ele>
        <time>2014-04-13T08:44:59Z</time>
      </trkpt>
      <trkpt lat="47.82954" lon="-1.6805">
        <ele>73.2</ele>
        <time>2014-04-13T08:45:00Z</time>
      </trkpt>
      <trkpt lat="47.82951" lon="-1.68046">
        <ele>73.2</ele>
        <time>2014-04-13T08:45:01Z</time>
      </trkpt>
      <trkpt lat="47.82948" lon="-1.68042">
        <ele>73.2</ele>
        <time>2014-04-13T08:45:02Z</time>
      </trkpt>
      <trkpt lat="47.82944" lon="-1.68037">
        <ele>73.2</ele>
        <time>2014-04-13T08:45:03Z</time>
      </trkpt>
      <trkpt lat="47.829" lon="-1.67978">
        <ele>74.16</ele>
        <time>2014-04-13T08:45:16Z</time>
      </trkpt>
      <trkpt lat="47.82896" lon="-1.67973">
        <ele>74.16</ele>
        <time>2014-04-13T08:45:17Z</time>
      </trkpt>
      <trkpt lat="47.82868" lon="-1.67927">
        <ele>75.12</ele>
        <time>2014-04-13T08:45:26Z</time>
      </trkpt>
      <trkpt lat="47.82831" lon="-1.67864">
        <ele>76.08</ele>
        <time>2014-04-13T08:45:39Z</time>
      </trkpt>
      <trkpt lat="47.82828" lon="-1.67859">
        <ele>76.08</ele>
        <time>2014-04-13T08:45:40Z</time>
      </trkpt>
      <trkpt lat="47.82802" lon="-1.67802">
        <ele>77.04</ele>
        <time>2014-04-13T08:45:51Z</time>
      </trkpt>
      <trkpt lat="47.82791" lon="-1.67778">
        <ele>77.04</ele>
        <time>2014-04-13T08:45:55Z</time>
      </trkpt>
      <trkpt lat="47.82788" lon="-1.67772">
        <ele>77.04</ele>
        <time>2014-04-13T08:45:56Z</time>
      </trkpt>
      <trkpt lat="47.82786" lon="-1.67767">
        <ele>77.04</ele>
        <time>2014-04-13T08:45:57Z</time>
      </trkpt>
      <trkpt lat="47.82784" lon="-1.67762">
        <ele>77.04</ele>
        <time>2014-04-13T08:45:58Z</time>
      </trkpt>
      <trkpt lat="47.82782" lon="-1.67756">
        <ele>77.52</ele>
        <time>2014-04-13T08:45:59Z</time>
      </trkpt>
      <trkpt lat="47.8278" lon="-1.67751">
        <ele>77.04</ele>
        <time>2014-04-13T08:46:00Z</time>
      </trkpt>
      <trkpt lat="47.82752" lon="-1.67684">
        <ele>78.48</ele>
        <time>2014-04-13T08:46:13Z</time>
      </trkpt>
      <trkpt lat="47.82734" lon="-1.67633">
        <ele>78.97</ele>
        <time>2014-04-13T08:46:21Z</time>
      </trkpt>
      <trkpt lat="47.82708" lon="-1.67542">
        <ele>79.93</ele>
        <time>2014-04-13T08:46:36Z</time>
      </trkpt>
      <trkpt lat="47.82695" lon="-1.67487">
        <ele>80.41</ele>
        <time>2014-04-13T08:46:45Z</time>
      </trkpt>
      <trkpt lat="47.82687" lon="-1.67459">
        <ele>80.89</ele>
        <time>2014-04-13T08:46:50Z</time>
      </trkpt>
      <trkpt lat="47.82677" lon="-1.67402">
        <ele>81.85</ele>
        <time>2014-04-13T08:47:00Z</time>
      </trkpt>
      <trkpt lat="47.82672" lon="-1.67366">
        <ele>82.33</ele>
        <time>2014-04-13T08:47:06Z</time>
      </trkpt>
      <trkpt lat="47.82659" lon="-1.67276">
        <ele>83.29</ele>
        <time>2014-04-13T08:47:20Z</time>
      </trkpt>
      <trkpt lat="47.8265" lon="-1.67193">
        <ele>84.25</ele>
        <time>2014-04-13T08:47:33Z</time>
      </trkpt>
      <trkpt lat="47.82645" lon="-1.67164">
        <ele>84.73</ele>
        <time>2014-04-13T08:47:41Z</time>
      </trkpt>
      <trkpt lat="47.82642" lon="-1.67114">
        <ele>85.21</ele>
        <time>2014-04-13T08:47:50Z</time>
      </trkpt>
      <trkpt lat="47.82641" lon="-1.67082">
        <ele>85.69</ele>
        <time>2014-04-13T08:47:58Z</time>
      </trkpt>
      <trkpt lat="47.8264" lon="-1.67072">
        <ele>86.18</ele>
        <time>2014-04-13T08:48:00Z</time>
      </trkpt>
      <trkpt lat="47.82643" lon="-1.67035">
        <ele>86.66</ele>
        <time>2014-04-13T08:48:10Z</time>
      </trkpt>
      <trkpt lat="47.82643" lon="-1.67025">
        <ele>86.66</ele>
        <time>2014-04-13T08:48:13Z</time>
      </trkpt>
      <trkpt lat="47.82647" lon="-1.67001">
        <ele>87.62</ele>
        <time>2014-04-13T08:48:20Z</time>
      </trkpt>
      <trkpt lat="47.82649" lon="-1.66973">
        <ele>87.62</ele>
        <time>2014-04-13T08:48:26Z</time>
      </trkpt>
      <trkpt lat="47.82653" lon="-1.66943">
        <ele>88.1</ele>
        <time>2014-04-13T08:48:33Z</time>
      </trkpt>
      <trkpt lat="47.82652" lon="-1.66934">
        <ele>88.58</ele>
        <time>2014-04-13T08:48:35Z</time>
      </trkpt>
      <trkpt lat="47.82653" lon="-1.66912">
        <ele>88.58</ele>
        <time>2014-04-13T08:48:41Z</time>
      </trkpt>
      <trkpt lat="47.82657" lon="-1.66873">
        <ele>89.06</ele>
        <time>2014-04-13T08:48:49Z</time>
      </trkpt>
      <trkpt lat="47.82658" lon="-1.66839">
        <ele>90.02</ele>
        <time>2014-04-13T08:48:56Z</time>
      </trkpt>
      <trkpt lat="47.82658" lon="-1.66834">
        <ele>89.54</ele>
        <time>2014-04-13T08:48:57Z</time>
      </trkpt>
      <trkpt lat="47.82662" lon="-1.66826">
        <ele>89.06</ele>
        <time>2014-04-13T08:48:59Z</time>
      </trkpt>
      <trkpt lat="47.8267" lon="-1.66788">
        <ele>89.54</ele>
        <time>2014-04-13T08:49:09Z</time>
      </trkpt>
      <trkpt lat="47.82672" lon="-1.66771">
        <ele>90.02</ele>
        <time>2014-04-13T08:49:13Z</time>
      </trkpt>
      <trkpt lat="47.82674" lon="-1.66748">
        <ele>90.5</ele>
        <time>2014-04-13T08:49:18Z</time>
      </trkpt>
      <trkpt lat="47.82684" lon="-1.66705">
        <ele>90.98</ele>
        <time>2014-04-13T08:49:28Z</time>
      </trkpt>
      <trkpt lat="47.82686" lon="-1.66688">
        <ele>91.94</ele>
        <time>2014-04-13T08:49:32Z</time>
      </trkpt>
      <trkpt lat="47.82692" lon="-1.66662">
        <ele>90.98</ele>
        <time>2014-04-13T08:49:40Z</time>
      </trkpt>
      <trkpt lat="47.82688" lon="-1.6666">
        <ele>90.98</ele>
        <time>2014-04-13T08:49:42Z</time>
      </trkpt>
      <trkpt lat="47.82649" lon="-1.6666">
        <ele>94.35</ele>
        <time>2014-04-13T08:49:56Z</time>
      </trkpt>
      <trkpt lat="47.82614" lon="-1.66659">
        <ele>97.23</ele>
        <time>2014-04-13T08:50:08Z</time>
      </trkpt>
      <trkpt lat="47.82567" lon="-1.66657">
        <ele>100.11</ele>
        <time>2014-04-13T08:50:23Z</time>
      </trkpt>
      <trkpt lat="47.82513" lon="-1.66652">
        <ele>102.52</ele>
        <time>2014-04-13T08:50:40Z</time>
      </trkpt>
      <trkpt lat="47.82465" lon="-1.66647">
        <ele>105.4</ele>
        <time>2014-04-13T08:50:55Z</time>
      </trkpt>
      <trkpt lat="47.82404" lon="-1.66642">
        <ele>107.81</ele>
        <time>2014-04-13T08:51:13Z</time>
      </trkpt>
      <trkpt lat="47.82377" lon="-1.66637">
        <ele>107.81</ele>
        <time>2014-04-13T08:51:20Z</time>
      </trkpt>
      <trkpt lat="47.82364" lon="-1.66631">
        <ele>107.81</ele>
        <time>2014-04-13T08:51:23Z</time>
      </trkpt>
      <trkpt lat="47.82359" lon="-1.66628">
        <ele>108.29</ele>
        <time>2014-04-13T08:51:24Z</time>
      </trkpt>
      <trkpt lat="47.82337" lon="-1.66614">
        <ele>108.29</ele>
        <time>2014-04-13T08:51:29Z</time>
      </trkpt>
      <trkpt lat="47.82328" lon="-1.66609">
        <ele>108.29</ele>
        <time>2014-04-13T08:51:31Z</time>
      </trkpt>
      <trkpt lat="47.82323" lon="-1.66607">
        <ele>109.25</ele>
        <time>2014-04-13T08:51:32Z</time>
      </trkpt>
      <trkpt lat="47.82272" lon="-1.66577">
        <ele>108.29</ele>
        <time>2014-04-13T08:51:43Z</time>
      </trkpt>
      <trkpt lat="47.82267" lon="-1.66575">
        <ele>108.29</ele>
        <time>2014-04-13T08:51:44Z</time>
      </trkpt>
      <trkpt lat="47.82214" lon="-1.66544">
        <ele>108.29</ele>
        <time>2014-04-13T08:51:55Z</time>
      </trkpt>
      <trkpt lat="47.8221" lon="-1.66541">
        <ele>108.29</ele>
        <time>2014-04-13T08:51:56Z</time>
      </trkpt>
      <trkpt lat="47.82152" lon="-1.66461">
        <ele>108.29</ele>
        <time>2014-04-13T08:52:11Z</time>
      </trkpt>
      <trkpt lat="47.82099" lon="-1.66377">
        <ele>109.25</ele>
        <time>2014-04-13T08:52:25Z</time>
      </trkpt>
      <trkpt lat="47.82065" lon="-1.66322">
        <ele>109.25</ele>
        <time>2014-04-13T08:52:34Z</time>
      </trkpt>
      <trkpt lat="47.82061" lon="-1.66318">
        <ele>109.25</ele>
        <time>2014-04-13T08:52:35Z</time>
      </trkpt>
      <trkpt lat="47.82002" lon="-1.66275">
        <ele>108.77</ele>
        <time>2014-04-13T08:52:46Z</time>
      </trkpt>
      <trkpt lat="47.81987" lon="-1.66259">
        <ele>108.77</ele>
        <time>2014-04-13T08:52:49Z</time>
      </trkpt>
      <trkpt lat="47.81983" lon="-1.66253">
        <ele>108.77</ele>
        <time>2014-04-13T08:52:50Z</time>
      </trkpt>
      <trkpt lat="47.81979" lon="-1.66246">
        <ele>108.77</ele>
        <time>2014-04-13T08:52:51Z</time>
      </trkpt>
      <trkpt lat="47.8194" lon="-1.66174">
        <ele>108.77</ele>
        <time>2014-04-13T08:53:01Z</time>
      </trkpt>
      <trkpt lat="47.81936" lon="-1.66168">
        <ele>108.77</ele>
        <time>2014-04-13T08:53:02Z</time>
      </trkpt>
      <trkpt lat="47.81872" lon="-1.66099">
        <ele>107.81</ele>
        <time>2014-04-13T08:53:15Z</time>
      </trkpt>
      <trkpt lat="47.81866" lon="-1.66095">
        <ele>107.81</ele>
        <time>2014-04-13T08:53:16Z</time>
      </trkpt>
      <trkpt lat="47.8186" lon="-1.66094">
        <ele>107.81</ele>
        <time>2014-04-13T08:53:17Z</time>
      </trkpt>
      <trkpt lat="47.81854" lon="-1.66095">
        <ele>107.81</ele>
        <time>2014-04-13T08:53:18Z</time>
      </trkpt>
      <trkpt lat="47.81849" lon="-1.661">
        <ele>107.32</ele>
        <time>2014-04-13T08:53:19Z</time>
      </trkpt>
      <trkpt lat="47.81845" lon="-1.66106">
        <ele>107.32</ele>
        <time>2014-04-13T08:53:20Z</time>
      </trkpt>
      <trkpt lat="47.81841" lon="-1.66113">
        <ele>106.84</ele>
        <time>2014-04-13T08:53:21Z</time>
      </trkpt>
      <trkpt lat="47.81837" lon="-1.66121">
        <ele>106.84</ele>
        <time>2014-04-13T08:53:22Z</time>
      </trkpt>
      <trkpt lat="47.81785" lon="-1.66229">
        <ele>103.96</ele>
        <time>2014-04-13T08:53:35Z</time>
      </trkpt>
      <trkpt lat="47.81758" lon="-1.66275">
        <ele>100.11</ele>
        <time>2014-04-13T08:53:40Z</time>
      </trkpt>
      <trkpt lat="47.8175" lon="-1.66281">
        <ele>99.15</ele>
        <time>2014-04-13T08:53:41Z</time>
      </trkpt>
      <trkpt lat="47.81741" lon="-1.66285">
        <ele>98.19</ele>
        <time>2014-04-13T08:53:42Z</time>
      </trkpt>
      <trkpt lat="47.81731" lon="-1.66287">
        <ele>97.23</ele>
        <time>2014-04-13T08:53:43Z</time>
      </trkpt>
      <trkpt lat="47.81721" lon="-1.66286">
        <ele>96.27</ele>
        <time>2014-04-13T08:53:44Z</time>
      </trkpt>
      <trkpt lat="47.81711" lon="-1.66283">
        <ele>95.79</ele>
        <time>2014-04-13T08:53:45Z</time>
      </trkpt>
      <trkpt lat="47.81674" lon="-1.66269">
        <ele>93.39</ele>
        <time>2014-04-13T08:53:51Z</time>
      </trkpt>
      <trkpt lat="47.81667" lon="-1.66265">
        <ele>92.9</ele>
        <time>2014-04-13T08:53:53Z</time>
      </trkpt>
      <trkpt lat="47.81664" lon="-1.66261">
        <ele>92.42</ele>
        <time>2014-04-13T08:53:54Z</time>
      </trkpt>
      <trkpt lat="47.81663" lon="-1.66258">
        <ele>92.42</ele>
        <time>2014-04-13T08:53:55Z</time>
      </trkpt>
      <trkpt lat="47.81662" lon="-1.66256">
        <ele>92.9</ele>
        <time>2014-04-13T08:53:56Z</time>
      </trkpt>
      <trkpt lat="47.81661" lon="-1.66253">
        <ele>92.9</ele>
        <time>2014-04-13T08:53:57Z</time>
      </trkpt>
      <trkpt lat="47.81659" lon="-1.66251">
        <ele>93.39</ele>
        <time>2014-04-13T08:53:58Z</time>
      </trkpt>
      <trkpt lat="47.8165" lon="-1.66243">
        <ele>94.35</ele>
        <time>2014-04-13T08:54:02Z</time>
      </trkpt>
      <trkpt lat="47.81648" lon="-1.6624">
        <ele>94.35</ele>
        <time>2014-04-13T08:54:03Z</time>
      </trkpt>
      <trkpt lat="47.81647" lon="-1.66237">
        <ele>94.35</ele>
        <time>2014-04-13T08:54:04Z</time>
      </trkpt>
      <trkpt lat="47.81645" lon="-1.66235">
        <ele>94.35</ele>
        <time>2014-04-13T08:54:05Z</time>
      </trkpt>
      <trkpt lat="47.81644" lon="-1.66231">
        <ele>94.35</ele>
        <time>2014-04-13T08:54:06Z</time>
      </trkpt>
      <trkpt lat="47.81642" lon="-1.66228">
        <ele>94.35</ele>
        <time>2014-04-13T08:54:07Z</time>
      </trkpt>
      <trkpt lat="47.81641" lon="-1.66225">
        <ele>94.35</ele>
        <time>2014-04-13T08:54:08Z</time>
      </trkpt>
      <trkpt lat="47.81641" lon="-1.66221">
        <ele>94.83</ele>
        <time>2014-04-13T08:54:09Z</time>
      </trkpt>
      <trkpt lat="47.8164" lon="-1.66217">
        <ele>94.83</ele>
        <time>2014-04-13T08:54:10Z</time>
      </trkpt>
      <trkpt lat="47.81639" lon="-1.66214">
        <ele>95.31</ele>
        <time>2014-04-13T08:54:11Z</time>
      </trkpt>
      <trkpt lat="47.81635" lon="-1.66203">
        <ele>94.83</ele>
        <time>2014-04-13T08:54:14Z</time>
      </trkpt>
      <trkpt lat="47.81634" lon="-1.66199">
        <ele>94.83</ele>
        <time>2014-04-13T08:54:15Z</time>
      </trkpt>
      <trkpt lat="47.81633" lon="-1.66195">
        <ele>94.83</ele>
        <time>2014-04-13T08:54:16Z</time>
      </trkpt>
      <trkpt lat="47.81632" lon="-1.66191">
        <ele>95.31</ele>
        <time>2014-04-13T08:54:17Z</time>
      </trkpt>
      <trkpt lat="47.8163" lon="-1.66188">
        <ele>94.83</ele>
        <time>2014-04-13T08:54:18Z</time>
      </trkpt>
      <trkpt lat="47.81628" lon="-1.66184">
        <ele>94.35</ele>
        <time>2014-04-13T08:54:19Z</time>
      </trkpt>
      <trkpt lat="47.81626" lon="-1.6618">
        <ele>94.35</ele>
        <time>2014-04-13T08:54:20Z</time>
      </trkpt>
      <trkpt lat="47.81625" lon="-1.66177">
        <ele>94.83</ele>
        <time>2014-04-13T08:54:21Z</time>
      </trkpt>
      <trkpt lat="47.81623" lon="-1.66174">
        <ele>94.35</ele>
        <time>2014-04-13T08:54:22Z</time>
      </trkpt>
      <trkpt lat="47.8162" lon="-1.66171">
        <ele>94.35</ele>
        <time>2014-04-13T08:54:23Z</time>
      </trkpt>
      <trkpt lat="47.81616" lon="-1.66168">
        <ele>93.87</ele>
        <time>2014-04-13T08:54:24Z</time>
      </trkpt>
      <trkpt lat="47.81613" lon="-1.66164">
        <ele>93.87</ele>
        <time>2014-04-13T08:54:25Z</time>
      </trkpt>
      <trkpt lat="47.8161" lon="-1.66161">
        <ele>92.42</ele>
        <time>2014-04-13T08:54:26Z</time>
      </trkpt>
      <trkpt lat="47.81607" lon="-1.66157">
        <ele>91.94</ele>
        <time>2014-04-13T08:54:27Z</time>
      </trkpt>
      <trkpt lat="47.81605" lon="-1.66152">
        <ele>91.94</ele>
        <time>2014-04-13T08:54:28Z</time>
      </trkpt>
      <trkpt lat="47.81604" lon="-1.66147">
        <ele>91.46</ele>
        <time>2014-04-13T08:54:29Z</time>
      </trkpt>
      <trkpt lat="47.81603" lon="-1.66142">
        <ele>91.94</ele>
        <time>2014-04-13T08:54:30Z</time>
      </trkpt>
      <trkpt lat="47.81602" lon="-1.66139">
        <ele>91.94</ele>
        <time>2014-04-13T08:54:31Z</time>
      </trkpt>
      <trkpt lat="47.81602" lon="-1.66135">
        <ele>91.94</ele>
        <time>2014-04-13T08:54:32Z</time>
      </trkpt>
      <trkpt lat="47.81601" lon="-1.66131">
        <ele>91.94</ele>
        <time>2014-04-13T08:54:33Z</time>
      </trkpt>
      <trkpt lat="47.81601" lon="-1.66127">
        <ele>91.94</ele>
        <time>2014-04-13T08:54:34Z</time>
      </trkpt>
      <trkpt lat="47.81601" lon="-1.66124">
        <ele>91.94</ele>
        <time>2014-04-13T08:54:35Z</time>
      </trkpt>
      <trkpt lat="47.81601" lon="-1.66121">
        <ele>92.42</ele>
        <time>2014-04-13T08:54:36Z</time>
      </trkpt>
      <trkpt lat="47.81602" lon="-1.66115">
        <ele>93.87</ele>
        <time>2014-04-13T08:54:39Z</time>
      </trkpt>
      <trkpt lat="47.81593" lon="-1.66097">
        <ele>92.9</ele>
        <time>2014-04-13T08:54:44Z</time>
      </trkpt>
      <trkpt lat="47.81596" lon="-1.66082">
        <ele>94.83</ele>
        <time>2014-04-13T08:54:49Z</time>
      </trkpt>
      <trkpt lat="47.81599" lon="-1.66076">
        <ele>95.31</ele>
        <time>2014-04-13T08:54:51Z</time>
      </trkpt>
      <trkpt lat="47.81604" lon="-1.66049">
        <ele>96.75</ele>
        <time>2014-04-13T08:54:58Z</time>
      </trkpt>
      <trkpt lat="47.81594" lon="-1.66007">
        <ele>95.79</ele>
        <time>2014-04-13T08:55:06Z</time>
      </trkpt>
      <trkpt lat="47.81594" lon="-1.65994">
        <ele>95.79</ele>
        <time>2014-04-13T08:55:08Z</time>
      </trkpt>
      <trkpt lat="47.81587" lon="-1.65977">
        <ele>95.31</ele>
        <time>2014-04-13T08:55:12Z</time>
      </trkpt>
      <trkpt lat="47.81583" lon="-1.65965">
        <ele>94.35</ele>
        <time>2014-04-13T08:55:14Z</time>
      </trkpt>
      <trkpt lat="47.81574" lon="-1.65947">
        <ele>92.42</ele>
        <time>2014-04-13T08:55:17Z</time>
      </trkpt>
      <trkpt lat="47.81572" lon="-1.6594">
        <ele>91.94</ele>
        <time>2014-04-13T08:55:18Z</time>
      </trkpt>
      <trkpt lat="47.81571" lon="-1.65934">
        <ele>91.46</ele>
        <time>2014-04-13T08:55:19Z</time>
      </trkpt>
      <trkpt lat="47.81571" lon="-1.65927">
        <ele>90.98</ele>
        <time>2014-04-13T08:55:20Z</time>
      </trkpt>
      <trkpt lat="47.81571" lon="-1.65919">
        <ele>90.5</ele>
        <time>2014-04-13T08:55:21Z</time>
      </trkpt>
      <trkpt lat="47.81571" lon="-1.65913">
        <ele>90.02</ele>
        <time>2014-04-13T08:55:22Z</time>
      </trkpt>
      <trkpt lat="47.81577" lon="-1.65877">
        <ele>88.1</ele>
        <time>2014-04-13T08:55:27Z</time>
      </trkpt>
      <trkpt lat="47.8158" lon="-1.65872">
        <ele>88.1</ele>
        <time>2014-04-13T08:55:28Z</time>
      </trkpt>
      <trkpt lat="47.81582" lon="-1.65869">
        <ele>88.1</ele>
        <time>2014-04-13T08:55:29Z</time>
      </trkpt>
      <trkpt lat="47.81584" lon="-1.65865">
        <ele>88.1</ele>
        <time>2014-04-13T08:55:30Z</time>
      </trkpt>
      <trkpt lat="47.81587" lon="-1.65862">
        <ele>88.1</ele>
        <time>2014-04-13T08:55:31Z</time>
      </trkpt>
      <trkpt lat="47.81589" lon="-1.65861">
        <ele>88.1</ele>
        <time>2014-04-13T08:55:32Z</time>
      </trkpt>
      <trkpt lat="47.81611" lon="-1.65824">
        <ele>90.98</ele>
        <time>2014-04-13T08:55:43Z</time>
      </trkpt>
      <trkpt lat="47.81617" lon="-1.65811">
        <ele>91.94</ele>
        <time>2014-04-13T08:55:47Z</time>
      </trkpt>
      <trkpt lat="47.81616" lon="-1.65807">
        <ele>91.94</ele>
        <time>2014-04-13T08:55:48Z</time>
      </trkpt>
      <trkpt lat="47.81614" lon="-1.65794">
        <ele>90.02</ele>
        <time>2014-04-13T08:55:52Z</time>
      </trkpt>
      <trkpt lat="47.81616" lon="-1.65785">
        <ele>90.5</ele>
        <time>2014-04-13T08:55:55Z</time>
      </trkpt>
      <trkpt lat="47.81622" lon="-1.65771">
        <ele>89.54</ele>
        <time>2014-04-13T08:56:02Z</time>
      </trkpt>
      <trkpt lat="47.8163" lon="-1.65762">
        <ele>90.98</ele>
        <time>2014-04-13T08:56:08Z</time>
      </trkpt>
      <trkpt lat="47.81639" lon="-1.65744">
        <ele>91.94</ele>
        <time>2014-04-13T08:56:15Z</time>
      </trkpt>
      <trkpt lat="47.81646" lon="-1.65733">
        <ele>92.42</ele>
        <time>2014-04-13T08:56:19Z</time>
      </trkpt>
      <trkpt lat="47.81662" lon="-1.65686">
        <ele>93.39</ele>
        <time>2014-04-13T08:56:32Z</time>
      </trkpt>
      <trkpt lat="47.81672" lon="-1.65654">
        <ele>92.42</ele>
        <time>2014-04-13T08:56:42Z</time>
      </trkpt>
      <trkpt lat="47.81685" lon="-1.65622">
        <ele>91.94</ele>
        <time>2014-04-13T08:56:53Z</time>
      </trkpt>
      <trkpt lat="47.81691" lon="-1.65606">
        <ele>91.94</ele>
        <time>2014-04-13T08:56:58Z</time>
      </trkpt>
      <trkpt lat="47.81691" lon="-1.65596">
        <ele>91.46</ele>
        <time>2014-04-13T08:57:00Z</time>
      </trkpt>
      <trkpt lat="47.81691" lon="-1.6559">
        <ele>90.98</ele>
        <time>2014-04-13T08:57:01Z</time>
      </trkpt>
      <trkpt lat="47.81692" lon="-1.65584">
        <ele>90.5</ele>
        <time>2014-04-13T08:57:02Z</time>
      </trkpt>
      <trkpt lat="47.81693" lon="-1.65579">
        <ele>90.02</ele>
        <time>2014-04-13T08:57:03Z</time>
      </trkpt>
      <trkpt lat="47.81696" lon="-1.65575">
        <ele>90.02</ele>
        <time>2014-04-13T08:57:04Z</time>
      </trkpt>
      <trkpt lat="47.81698" lon="-1.65571">
        <ele>89.54</ele>
        <time>2014-04-13T08:57:05Z</time>
      </trkpt>
      <trkpt lat="47.817" lon="-1.65567">
        <ele>89.54</ele>
        <time>2014-04-13T08:57:06Z</time>
      </trkpt>
      <trkpt lat="47.81703" lon="-1.65562">
        <ele>90.98</ele>
        <time>2014-04-13T08:57:09Z</time>
      </trkpt>
      <trkpt lat="47.81704" lon="-1.65559">
        <ele>90.5</ele>
        <time>2014-04-13T08:57:10Z</time>
      </trkpt>
      <trkpt lat="47.81704" lon="-1.65556">
        <ele>90.02</ele>
        <time>2014-04-13T08:57:11Z</time>
      </trkpt>
      <trkpt lat="47.81705" lon="-1.65554">
        <ele>90.02</ele>
        <time>2014-04-13T08:57:12Z</time>
      </trkpt>
      <trkpt lat="47.81706" lon="-1.65551">
        <ele>90.02</ele>
        <time>2014-04-13T08:57:13Z</time>
      </trkpt>
      <trkpt lat="47.81708" lon="-1.65548">
        <ele>90.02</ele>
        <time>2014-04-13T08:57:14Z</time>
      </trkpt>
      <trkpt lat="47.81709" lon="-1.65545">
        <ele>90.5</ele>
        <time>2014-04-13T08:57:15Z</time>
      </trkpt>
      <trkpt lat="47.8171" lon="-1.65542">
        <ele>90.5</ele>
        <time>2014-04-13T08:57:16Z</time>
      </trkpt>
      <trkpt lat="47.81725" lon="-1.65506">
        <ele>91.94</ele>
        <time>2014-04-13T08:57:27Z</time>
      </trkpt>
      <trkpt lat="47.81732" lon="-1.65483">
        <ele>92.9</ele>
        <time>2014-04-13T08:57:34Z</time>
      </trkpt>
      <trkpt lat="47.81744" lon="-1.65445">
        <ele>92.42</ele>
        <time>2014-04-13T08:57:46Z</time>
      </trkpt>
      <trkpt lat="47.81747" lon="-1.65434">
        <ele>91.94</ele>
        <time>2014-04-13T08:57:49Z</time>
      </trkpt>
      <trkpt lat="47.81761" lon="-1.65404">
        <ele>92.42</ele>
        <time>2014-04-13T08:57:58Z</time>
      </trkpt>
      <trkpt lat="47.81774" lon="-1.65372">
        <ele>93.39</ele>
        <time>2014-04-13T08:58:08Z</time>
      </trkpt>
      <trkpt lat="47.81778" lon="-1.6536">
        <ele>93.39</ele>
        <time>2014-04-13T08:58:12Z</time>
      </trkpt>
      <trkpt lat="47.81786" lon="-1.65339">
        <ele>93.87</ele>
        <time>2014-04-13T08:58:19Z</time>
      </trkpt>
      <trkpt lat="47.8179" lon="-1.65331">
        <ele>94.35</ele>
        <time>2014-04-13T08:58:22Z</time>
      </trkpt>
      <trkpt lat="47.81797" lon="-1.65302">
        <ele>93.39</ele>
        <time>2014-04-13T08:58:30Z</time>
      </trkpt>
      <trkpt lat="47.81802" lon="-1.65286">
        <ele>93.39</ele>
        <time>2014-04-13T08:58:34Z</time>
      </trkpt>
      <trkpt lat="47.81813" lon="-1.65276">
        <ele>94.83</ele>
        <time>2014-04-13T08:58:43Z</time>
      </trkpt>
      <trkpt lat="47.81823" lon="-1.65257">
        <ele>95.79</ele>
        <time>2014-04-13T08:58:54Z</time>
      </trkpt>
      <trkpt lat="47.81824" lon="-1.65256">
        <ele>95.79</ele>
        <time>2014-04-13T08:58:55Z</time>
      </trkpt>
      <trkpt lat="47.81839" lon="-1.65254">
        <ele>96.75</ele>
        <time>2014-04-13T08:59:02Z</time>
      </trkpt>
      <trkpt lat="47.81843" lon="-1.65253">
        <ele>97.23</ele>
        <time>2014-04-13T08:59:04Z</time>
      </trkpt>
      <trkpt lat="47.81851" lon="-1.65256">
        <ele>97.71</ele>
        <time>2014-04-13T08:59:08Z</time>
      </trkpt>
      <trkpt lat="47.81862" lon="-1.65257">
        <ele>98.67</ele>
        <time>2014-04-13T08:59:14Z</time>
      </trkpt>
      <trkpt lat="47.81873" lon="-1.65262">
        <ele>99.63</ele>
        <time>2014-04-13T08:59:21Z</time>
      </trkpt>
      <trkpt lat="47.81876" lon="-1.65264">
        <ele>100.11</ele>
        <time>2014-04-13T08:59:23Z</time>
      </trkpt>
      <trkpt lat="47.81895" lon="-1.65283">
        <ele>102.04</ele>
        <time>2014-04-13T08:59:33Z</time>
      </trkpt>
      <trkpt lat="47.8191" lon="-1.65299">
        <ele>102.04</ele>
        <time>2014-04-13T08:59:42Z</time>
      </trkpt>
      <trkpt lat="47.8192" lon="-1.65303">
        <ele>103</ele>
        <time>2014-04-13T08:59:49Z</time>
      </trkpt>
      <trkpt lat="47.81924" lon="-1.65314">
        <ele>103.48</ele>
        <time>2014-04-13T08:59:55Z</time>
      </trkpt>
      <trkpt lat="47.81926" lon="-1.65324">
        <ele>103.48</ele>
        <time>2014-04-13T08:59:58Z</time>
      </trkpt>
      <trkpt lat="47.81927" lon="-1.65347">
        <ele>103.96</ele>
        <time>2014-04-13T09:00:06Z</time>
      </trkpt>
      <trkpt lat="47.81937" lon="-1.65351">
        <ele>104.44</ele>
        <time>2014-04-13T09:00:12Z</time>
      </trkpt>
      <trkpt lat="47.81947" lon="-1.65346">
        <ele>104.44</ele>
        <time>2014-04-13T09:00:18Z</time>
      </trkpt>
      <trkpt lat="47.81955" lon="-1.6534">
        <ele>104.44</ele>
        <time>2014-04-13T09:00:23Z</time>
      </trkpt>
      <trkpt lat="47.81964" lon="-1.6531">
        <ele>103.96</ele>
        <time>2014-04-13T09:00:32Z</time>
      </trkpt>
      <trkpt lat="47.81975" lon="-1.65292">
        <ele>103.48</ele>
        <time>2014-04-13T09:00:39Z</time>
      </trkpt>
      <trkpt lat="47.81985" lon="-1.65279">
        <ele>103.48</ele>
        <time>2014-04-13T09:00:47Z</time>
      </trkpt>
      <trkpt lat="47.81987" lon="-1.65275">
        <ele>103.48</ele>
        <time>2014-04-13T09:00:49Z</time>
      </trkpt>
      <trkpt lat="47.81991" lon="-1.65273">
        <ele>103.96</ele>
        <time>2014-04-13T09:00:52Z</time>
      </trkpt>
      <trkpt lat="47.82005" lon="-1.65257">
        <ele>103.48</ele>
        <time>2014-04-13T09:00:58Z</time>
      </trkpt>
      <trkpt lat="47.82015" lon="-1.65243">
        <ele>103.48</ele>
        <time>2014-04-13T09:01:04Z</time>
      </trkpt>
      <trkpt lat="47.82025" lon="-1.65236">
        <ele>103</ele>
        <time>2014-04-13T09:01:10Z</time>
      </trkpt>
      <trkpt lat="47.82038" lon="-1.65235">
        <ele>103.48</ele>
        <time>2014-04-13T09:01:15Z</time>
      </trkpt>
      <trkpt lat="47.8205" lon="-1.65246">
        <ele>103.96</ele>
        <time>2014-04-13T09:01:22Z</time>
      </trkpt>
      <trkpt lat="47.82069" lon="-1.65261">
        <ele>103.96</ele>
        <time>2014-04-13T09:01:33Z</time>
      </trkpt>
      <trkpt lat="47.8208" lon="-1.65264">
        <ele>103.96</ele>
        <time>2014-04-13T09:01:38Z</time>
      </trkpt>
      <trkpt lat="47.82089" lon="-1.65266">
        <ele>103.96</ele>
        <time>2014-04-13T09:01:42Z</time>
      </trkpt>
      <trkpt lat="47.82096" lon="-1.65259">
        <ele>103.96</ele>
        <time>2014-04-13T09:01:48Z</time>
      </trkpt>
      <trkpt lat="47.82103" lon="-1.65258">
        <ele>103.96</ele>
        <time>2014-04-13T09:01:52Z</time>
      </trkpt>
      <trkpt lat="47.82117" lon="-1.65246">
        <ele>103.48</ele>
        <time>2014-04-13T09:02:00Z</time>
      </trkpt>
      <trkpt lat="47.82126" lon="-1.65221">
        <ele>103.48</ele>
        <time>2014-04-13T09:02:07Z</time>
      </trkpt>
      <trkpt lat="47.82129" lon="-1.65209">
        <ele>103.48</ele>
        <time>2014-04-13T09:02:12Z</time>
      </trkpt>
      <trkpt lat="47.82153" lon="-1.65191">
        <ele>103.48</ele>
        <time>2014-04-13T09:02:24Z</time>
      </trkpt>
      <trkpt lat="47.82159" lon="-1.65181">
        <ele>103.48</ele>
        <time>2014-04-13T09:02:27Z</time>
      </trkpt>
      <trkpt lat="47.82166" lon="-1.65171">
        <ele>103.48</ele>
        <time>2014-04-13T09:02:31Z</time>
      </trkpt>
      <trkpt lat="47.82173" lon="-1.65167">
        <ele>103</ele>
        <time>2014-04-13T09:02:35Z</time>
      </trkpt>
      <trkpt lat="47.82179" lon="-1.65141">
        <ele>103</ele>
        <time>2014-04-13T09:02:45Z</time>
      </trkpt>
      <trkpt lat="47.82179" lon="-1.65136">
        <ele>103</ele>
        <time>2014-04-13T09:02:47Z</time>
      </trkpt>
      <trkpt lat="47.82167" lon="-1.6512">
        <ele>103</ele>
        <time>2014-04-13T09:02:55Z</time>
      </trkpt>
      <trkpt lat="47.82153" lon="-1.65114">
        <ele>103</ele>
        <time>2014-04-13T09:03:04Z</time>
      </trkpt>
      <trkpt lat="47.8213" lon="-1.65098">
        <ele>103</ele>
        <time>2014-04-13T09:03:15Z</time>
      </trkpt>
      <trkpt lat="47.82129" lon="-1.65096">
        <ele>102.52</ele>
        <time>2014-04-13T09:03:16Z</time>
      </trkpt>
      <trkpt lat="47.82128" lon="-1.6509">
        <ele>103</ele>
        <time>2014-04-13T09:03:18Z</time>
      </trkpt>
      <trkpt lat="47.82121" lon="-1.65078">
        <ele>102.52</ele>
        <time>2014-04-13T09:03:22Z</time>
      </trkpt>
      <trkpt lat="47.82115" lon="-1.65062">
        <ele>102.52</ele>
        <time>2014-04-13T09:03:26Z</time>
      </trkpt>
      <trkpt lat="47.82109" lon="-1.65052">
        <ele>102.04</ele>
        <time>2014-04-13T09:03:30Z</time>
      </trkpt>
      <trkpt lat="47.82107" lon="-1.65036">
        <ele>102.04</ele>
        <time>2014-04-13T09:03:35Z</time>
      </trkpt>
      <trkpt lat="47.82108" lon="-1.65026">
        <ele>102.04</ele>
        <time>2014-04-13T09:03:38Z</time>
      </trkpt>
      <trkpt lat="47.82098" lon="-1.65022">
        <ele>101.56</ele>
        <time>2014-04-13T09:03:44Z</time>
      </trkpt>
      <trkpt lat="47.82097" lon="-1.65043">
        <ele>101.56</ele>
        <time>2014-04-13T09:03:52Z</time>
      </trkpt>
      <trkpt lat="47.82097" lon="-1.65055">
        <ele>101.56</ele>
        <time>2014-04-13T09:03:56Z</time>
      </trkpt>
      <trkpt lat="47.82096" lon="-1.65059">
        <ele>101.56</ele>
        <time>2014-04-13T09:03:58Z</time>
      </trkpt>
      <trkpt lat="47.82088" lon="-1.65078">
        <ele>101.56</ele>
        <time>2014-04-13T09:04:05Z</time>
      </trkpt>
      <trkpt lat="47.82085" lon="-1.65107">
        <ele>102.04</ele>
        <time>2014-04-13T09:04:16Z</time>
      </trkpt>
      <trkpt lat="47.82082" lon="-1.65117">
        <ele>101.56</ele>
        <time>2014-04-13T09:04:21Z</time>
      </trkpt>
      <trkpt lat="47.82066" lon="-1.65101">
        <ele>101.56</ele>
        <time>2014-04-13T09:04:32Z</time>
      </trkpt>
      <trkpt lat="47.82062" lon="-1.65098">
        <ele>101.08</ele>
        <time>2014-04-13T09:04:34Z</time>
      </trkpt>
      <trkpt lat="47.82046" lon="-1.65081">
        <ele>100.6</ele>
        <time>2014-04-13T09:04:43Z</time>
      </trkpt>
      <trkpt lat="47.82046" lon="-1.65075">
        <ele>100.6</ele>
        <time>2014-04-13T09:04:46Z</time>
      </trkpt>
      <trkpt lat="47.82047" lon="-1.65069">
        <ele>100.6</ele>
        <time>2014-04-13T09:04:48Z</time>
      </trkpt>
      <trkpt lat="47.82047" lon="-1.65059">
        <ele>100.11</ele>
        <time>2014-04-13T09:04:52Z</time>
      </trkpt>
      <trkpt lat="47.82048" lon="-1.65031">
        <ele>99.63</ele>
        <time>2014-04-13T09:05:01Z</time>
      </trkpt>
      <trkpt lat="47.82046" lon="-1.65007">
        <ele>98.67</ele>
        <time>2014-04-13T09:05:06Z</time>
      </trkpt>
      <trkpt lat="47.82045" lon="-1.65001">
        <ele>98.19</ele>
        <time>2014-04-13T09:05:08Z</time>
      </trkpt>
      <trkpt lat="47.82042" lon="-1.64996">
        <ele>98.19</ele>
        <time>2014-04-13T09:05:10Z</time>
      </trkpt>
      <trkpt lat="47.82041" lon="-1.64991">
        <ele>97.71</ele>
        <time>2014-04-13T09:05:13Z</time>
      </trkpt>
      <trkpt lat="47.82042" lon="-1.64975">
        <ele>96.27</ele>
        <time>2014-04-13T09:05:18Z</time>
      </trkpt>
      <trkpt lat="47.82041" lon="-1.64972">
        <ele>95.79</ele>
        <time>2014-04-13T09:05:19Z</time>
      </trkpt>
      <trkpt lat="47.82047" lon="-1.64942">
        <ele>94.35</ele>
        <time>2014-04-13T09:05:27Z</time>
      </trkpt>
      <trkpt lat="47.82048" lon="-1.64927">
        <ele>93.39</ele>
        <time>2014-04-13T09:05:30Z</time>
      </trkpt>
      <trkpt lat="47.82049" lon="-1.64918">
        <ele>92.9</ele>
        <time>2014-04-13T09:05:33Z</time>
      </trkpt>
      <trkpt lat="47.82047" lon="-1.64897">
        <ele>91.46</ele>
        <time>2014-04-13T09:05:40Z</time>
      </trkpt>
      <trkpt lat="47.82046" lon="-1.64881">
        <ele>90.98</ele>
        <time>2014-04-13T09:05:43Z</time>
      </trkpt>
      <trkpt lat="47.82054" lon="-1.64853">
        <ele>90.5</ele>
        <time>2014-04-13T09:05:51Z</time>
      </trkpt>
      <trkpt lat="47.82047" lon="-1.64835">
        <ele>88.1</ele>
        <time>2014-04-13T09:05:58Z</time>
      </trkpt>
      <trkpt lat="47.82044" lon="-1.64831">
        <ele>87.14</ele>
        <time>2014-04-13T09:06:00Z</time>
      </trkpt>
      <trkpt lat="47.8204" lon="-1.64827">
        <ele>86.18</ele>
        <time>2014-04-13T09:06:02Z</time>
      </trkpt>
      <trkpt lat="47.82032" lon="-1.64828">
        <ele>85.69</ele>
        <time>2014-04-13T09:06:06Z</time>
      </trkpt>
      <trkpt lat="47.82024" lon="-1.64812">
        <ele>82.33</ele>
        <time>2014-04-13T09:06:11Z</time>
      </trkpt>
      <trkpt lat="47.82027" lon="-1.64806">
        <ele>82.81</ele>
        <time>2014-04-13T09:06:13Z</time>
      </trkpt>
      <trkpt lat="47.82029" lon="-1.64802">
        <ele>82.81</ele>
        <time>2014-04-13T09:06:15Z</time>
      </trkpt>
      <trkpt lat="47.82028" lon="-1.64795">
        <ele>80.41</ele>
        <time>2014-04-13T09:06:20Z</time>
      </trkpt>
      <trkpt lat="47.82033" lon="-1.64782">
        <ele>80.41</ele>
        <time>2014-04-13T09:06:24Z</time>
      </trkpt>
      <trkpt lat="47.82042" lon="-1.64773">
        <ele>81.85</ele>
        <time>2014-04-13T09:06:29Z</time>
      </trkpt>
      <trkpt lat="47.8205" lon="-1.6477">
        <ele>83.29</ele>
        <time>2014-04-13T09:06:34Z</time>
      </trkpt>
      <trkpt lat="47.82058" lon="-1.64754">
        <ele>81.85</ele>
        <time>2014-04-13T09:06:41Z</time>
      </trkpt>
      <trkpt lat="47.82059" lon="-1.64741">
        <ele>79.45</ele>
        <time>2014-04-13T09:06:45Z</time>
      </trkpt>
      <trkpt lat="47.82064" lon="-1.64732">
        <ele>79.93</ele>
        <time>2014-04-13T09:06:58Z</time>
      </trkpt>
      <trkpt lat="47.82075" lon="-1.64735">
        <ele>82.81</ele>
        <time>2014-04-13T09:07:10Z</time>
      </trkpt>
      <trkpt lat="47.82079" lon="-1.64736">
        <ele>83.29</ele>
        <time>2014-04-13T09:07:17Z</time>
      </trkpt>
      <trkpt lat="47.82092" lon="-1.64727">
        <ele>83.77</ele>
        <time>2014-04-13T09:07:27Z</time>
      </trkpt>
      <trkpt lat="47.82096" lon="-1.64744">
        <ele>86.18</ele>
        <time>2014-04-13T09:07:38Z</time>
      </trkpt>
      <trkpt lat="47.82099" lon="-1.64755">
        <ele>89.54</ele>
        <time>2014-04-13T09:07:48Z</time>
      </trkpt>
      <trkpt lat="47.82101" lon="-1.64767">
        <ele>91.94</ele>
        <time>2014-04-13T09:07:56Z</time>
      </trkpt>
      <trkpt lat="47.82101" lon="-1.64775">
        <ele>92.42</ele>
        <time>2014-04-13T09:08:00Z</time>
      </trkpt>
      <trkpt lat="47.82104" lon="-1.64783">
        <ele>93.39</ele>
        <time>2014-04-13T09:08:04Z</time>
      </trkpt>
      <trkpt lat="47.8211" lon="-1.64785">
        <ele>94.35</ele>
        <time>2014-04-13T09:08:09Z</time>
      </trkpt>
      <trkpt lat="47.82113" lon="-1.64787">
        <ele>95.31</ele>
        <time>2014-04-13T09:08:13Z</time>
      </trkpt>
      <trkpt lat="47.82118" lon="-1.64795">
        <ele>95.79</ele>
        <time>2014-04-13T09:08:18Z</time>
      </trkpt>
      <trkpt lat="47.82123" lon="-1.64795">
        <ele>96.27</ele>
        <time>2014-04-13T09:08:23Z</time>
      </trkpt>
      <trkpt lat="47.82126" lon="-1.64801">
        <ele>96.75</ele>
        <time>2014-04-13T09:08:26Z</time>
      </trkpt>
      <trkpt lat="47.8213" lon="-1.64803">
        <ele>97.23</ele>
        <time>2014-04-13T09:08:29Z</time>
      </trkpt>
      <trkpt lat="47.82131" lon="-1.64806">
        <ele>96.75</ele>
        <time>2014-04-13T09:08:31Z</time>
      </trkpt>
      <trkpt lat="47.82129" lon="-1.64815">
        <ele>97.71</ele>
        <time>2014-04-13T09:08:36Z</time>
      </trkpt>
      <trkpt lat="47.82127" lon="-1.64829">
        <ele>97.71</ele>
        <time>2014-04-13T09:08:42Z</time>
      </trkpt>
      <trkpt lat="47.82127" lon="-1.64833">
        <ele>98.19</ele>
        <time>2014-04-13T09:08:44Z</time>
      </trkpt>
      <trkpt lat="47.8213" lon="-1.64837">
        <ele>98.19</ele>
        <time>2014-04-13T09:08:47Z</time>
      </trkpt>
      <trkpt lat="47.82151" lon="-1.64846">
        <ele>99.15</ele>
        <time>2014-04-13T09:08:58Z</time>
      </trkpt>
      <trkpt lat="47.82169" lon="-1.64856">
        <ele>100.11</ele>
        <time>2014-04-13T09:09:05Z</time>
      </trkpt>
      <trkpt lat="47.8218" lon="-1.64862">
        <ele>100.6</ele>
        <time>2014-04-13T09:09:10Z</time>
      </trkpt>
      <trkpt lat="47.8221" lon="-1.64873">
        <ele>100.6</ele>
        <time>2014-04-13T09:09:21Z</time>
      </trkpt>
      <trkpt lat="47.82256" lon="-1.64871">
        <ele>100.6</ele>
        <time>2014-04-13T09:09:33Z</time>
      </trkpt>
      <trkpt lat="47.8229" lon="-1.6488">
        <ele>100.11</ele>
        <time>2014-04-13T09:09:42Z</time>
      </trkpt>
      <trkpt lat="47.82347" lon="-1.64882">
        <ele>98.67</ele>
        <time>2014-04-13T09:09:55Z</time>
      </trkpt>
      <trkpt lat="47.82367" lon="-1.64882">
        <ele>98.19</ele>
        <time>2014-04-13T09:10:01Z</time>
      </trkpt>
      <trkpt lat="47.8237" lon="-1.64879">
        <ele>97.71</ele>
        <time>2014-04-13T09:10:03Z</time>
      </trkpt>
      <trkpt lat="47.82376" lon="-1.64869">
        <ele>98.19</ele>
        <time>2014-04-13T09:10:07Z</time>
      </trkpt>
      <trkpt lat="47.82374" lon="-1.64864">
        <ele>97.71</ele>
        <time>2014-04-13T09:10:08Z</time>
      </trkpt>
      <trkpt lat="47.82371" lon="-1.64859">
        <ele>97.71</ele>
        <time>2014-04-13T09:10:09Z</time>
      </trkpt>
      <trkpt lat="47.82369" lon="-1.64853">
        <ele>98.19</ele>
        <time>2014-04-13T09:10:10Z</time>
      </trkpt>
      <trkpt lat="47.82354" lon="-1.64827">
        <ele>98.19</ele>
        <time>2014-04-13T09:10:15Z</time>
      </trkpt>
      <trkpt lat="47.82352" lon="-1.64821">
        <ele>97.71</ele>
        <time>2014-04-13T09:10:16Z</time>
      </trkpt>
      <trkpt lat="47.82351" lon="-1.64814">
        <ele>98.19</ele>
        <time>2014-04-13T09:10:17Z</time>
      </trkpt>
      <trkpt lat="47.82351" lon="-1.64807">
        <ele>97.23</ele>
        <time>2014-04-13T09:10:18Z</time>
      </trkpt>
      <trkpt lat="47.82351" lon="-1.648">
        <ele>97.23</ele>
        <time>2014-04-13T09:10:19Z</time>
      </trkpt>
      <trkpt lat="47.82352" lon="-1.64793">
        <ele>96.27</ele>
        <time>2014-04-13T09:10:20Z</time>
      </trkpt>
      <trkpt lat="47.82352" lon="-1.64787">
        <ele>96.27</ele>
        <time>2014-04-13T09:10:21Z</time>
      </trkpt>
      <trkpt lat="47.82351" lon="-1.64784">
        <ele>96.27</ele>
        <time>2014-04-13T09:10:22Z</time>
      </trkpt>
      <trkpt lat="47.82351" lon="-1.64781">
        <ele>96.27</ele>
        <time>2014-04-13T09:10:23Z</time>
      </trkpt>
      <trkpt lat="47.82349" lon="-1.64781">
        <ele>96.27</ele>
        <time>2014-04-13T09:10:24Z</time>
      </trkpt>
      <trkpt lat="47.82348" lon="-1.64779">
        <ele>96.27</ele>
        <time>2014-04-13T09:10:25Z</time>
      </trkpt>
      <trkpt lat="47.82348" lon="-1.64776">
        <ele>96.27</ele>
        <time>2014-04-13T09:10:26Z</time>
      </trkpt>
      <trkpt lat="47.82347" lon="-1.64773">
        <ele>96.27</ele>
        <time>2014-04-13T09:10:27Z</time>
      </trkpt>
      <trkpt lat="47.82345" lon="-1.64771">
        <ele>96.27</ele>
        <time>2014-04-13T09:10:28Z</time>
      </trkpt>
      <trkpt lat="47.82343" lon="-1.64768">
        <ele>96.27</ele>
        <time>2014-04-13T09:10:29Z</time>
      </trkpt>
      <trkpt lat="47.82342" lon="-1.64765">
        <ele>96.27</ele>
        <time>2014-04-13T09:10:30Z</time>
      </trkpt>
      <trkpt lat="47.82342" lon="-1.64761">
        <ele>95.79</ele>
        <time>2014-04-13T09:10:31Z</time>
      </trkpt>
      <trkpt lat="47.82341" lon="-1.64758">
        <ele>95.79</ele>
        <time>2014-04-13T09:10:32Z</time>
      </trkpt>
      <trkpt lat="47.8234" lon="-1.64755">
        <ele>95.79</ele>
        <time>2014-04-13T09:10:33Z</time>
      </trkpt>
      <trkpt lat="47.82337" lon="-1.64751">
        <ele>95.31</ele>
        <time>2014-04-13T09:10:34Z</time>
      </trkpt>
      <trkpt lat="47.82334" lon="-1.64748">
        <ele>95.31</ele>
        <time>2014-04-13T09:10:35Z</time>
      </trkpt>
      <trkpt lat="47.82331" lon="-1.64748">
        <ele>95.31</ele>
        <time>2014-04-13T09:10:36Z</time>
      </trkpt>
      <trkpt lat="47.82328" lon="-1.64747">
        <ele>95.79</ele>
        <time>2014-04-13T09:10:37Z</time>
      </trkpt>
      <trkpt lat="47.82325" lon="-1.64745">
        <ele>95.79</ele>
        <time>2014-04-13T09:10:38Z</time>
      </trkpt>
      <trkpt lat="47.82322" lon="-1.64743">
        <ele>95.79</ele>
        <time>2014-04-13T09:10:39Z</time>
      </trkpt>
      <trkpt lat="47.8232" lon="-1.6474">
        <ele>95.79</ele>
        <time>2014-04-13T09:10:40Z</time>
      </trkpt>
      <trkpt lat="47.82314" lon="-1.6473">
        <ele>95.79</ele>
        <time>2014-04-13T09:10:43Z</time>
      </trkpt>
      <trkpt lat="47.82312" lon="-1.64727">
        <ele>95.79</ele>
        <time>2014-04-13T09:10:44Z</time>
      </trkpt>
      <trkpt lat="47.8231" lon="-1.64724">
        <ele>95.31</ele>
        <time>2014-04-13T09:10:45Z</time>
      </trkpt>
      <trkpt lat="47.82307" lon="-1.64721">
        <ele>95.31</ele>
        <time>2014-04-13T09:10:46Z</time>
      </trkpt>
      <trkpt lat="47.82302" lon="-1.64712">
        <ele>95.31</ele>
        <time>2014-04-13T09:10:50Z</time>
      </trkpt>
      <trkpt lat="47.82302" lon="-1.64708">
        <ele>94.83</ele>
        <time>2014-04-13T09:10:51Z</time>
      </trkpt>
      <trkpt lat="47.823" lon="-1.64705">
        <ele>94.83</ele>
        <time>2014-04-13T09:10:52Z</time>
      </trkpt>
      <trkpt lat="47.82298" lon="-1.64703">
        <ele>94.83</ele>
        <time>2014-04-13T09:10:53Z</time>
      </trkpt>
      <trkpt lat="47.82296" lon="-1.647">
        <ele>94.83</ele>
        <time>2014-04-13T09:10:54Z</time>
      </trkpt>
      <trkpt lat="47.82294" lon="-1.64697">
        <ele>94.83</ele>
        <time>2014-04-13T09:10:55Z</time>
      </trkpt>
      <trkpt lat="47.82294" lon="-1.64693">
        <ele>94.35</ele>
        <time>2014-04-13T09:10:56Z</time>
      </trkpt>
      <trkpt lat="47.82295" lon="-1.64689">
        <ele>94.35</ele>
        <time>2014-04-13T09:10:57Z</time>
      </trkpt>
      <trkpt lat="47.82294" lon="-1.64683">
        <ele>93.87</ele>
        <time>2014-04-13T09:10:58Z</time>
      </trkpt>
      <trkpt lat="47.82292" lon="-1.64678">
        <ele>93.87</ele>
        <time>2014-04-13T09:10:59Z</time>
      </trkpt>
      <trkpt lat="47.8229" lon="-1.64676">
        <ele>93.39</ele>
        <time>2014-04-13T09:11:00Z</time>
      </trkpt>
      <trkpt lat="47.82288" lon="-1.64676">
        <ele>93.39</ele>
        <time>2014-04-13T09:11:01Z</time>
      </trkpt>
      <trkpt lat="47.82285" lon="-1.64675">
        <ele>93.87</ele>
        <time>2014-04-13T09:11:02Z</time>
      </trkpt>
      <trkpt lat="47.82279" lon="-1.64674">
        <ele>93.87</ele>
        <time>2014-04-13T09:11:05Z</time>
      </trkpt>
      <trkpt lat="47.82274" lon="-1.64674">
        <ele>93.87</ele>
        <time>2014-04-13T09:11:07Z</time>
      </trkpt>
      <trkpt lat="47.82261" lon="-1.64661">
        <ele>91.46</ele>
        <time>2014-04-13T09:11:12Z</time>
      </trkpt>
      <trkpt lat="47.82258" lon="-1.64657">
        <ele>90.98</ele>
        <time>2014-04-13T09:11:13Z</time>
      </trkpt>
      <trkpt lat="47.82252" lon="-1.64648">
        <ele>90.02</ele>
        <time>2014-04-13T09:11:15Z</time>
      </trkpt>
      <trkpt lat="47.82249" lon="-1.64645">
        <ele>89.54</ele>
        <time>2014-04-13T09:11:16Z</time>
      </trkpt>
      <trkpt lat="47.82246" lon="-1.64641">
        <ele>89.06</ele>
        <time>2014-04-13T09:11:17Z</time>
      </trkpt>
      <trkpt lat="47.82244" lon="-1.64638">
        <ele>89.06</ele>
        <time>2014-04-13T09:11:18Z</time>
      </trkpt>
      <trkpt lat="47.82243" lon="-1.64636">
        <ele>89.06</ele>
        <time>2014-04-13T09:11:19Z</time>
      </trkpt>
      <trkpt lat="47.82243" lon="-1.64625">
        <ele>86.66</ele>
        <time>2014-04-13T09:11:25Z</time>
      </trkpt>
      <trkpt lat="47.82247" lon="-1.64615">
        <ele>85.69</ele>
        <time>2014-04-13T09:11:31Z</time>
      </trkpt>
      <trkpt lat="47.82247" lon="-1.64606">
        <ele>88.1</ele>
        <time>2014-04-13T09:11:36Z</time>
      </trkpt>
      <trkpt lat="47.8225" lon="-1.64603">
        <ele>88.1</ele>
        <time>2014-04-13T09:11:39Z</time>
      </trkpt>
      <trkpt lat="47.82256" lon="-1.64598">
        <ele>88.1</ele>
        <time>2014-04-13T09:11:43Z</time>
      </trkpt>
      <trkpt lat="47.82264" lon="-1.64588">
        <ele>86.66</ele>
        <time>2014-04-13T09:11:47Z</time>
      </trkpt>
      <trkpt lat="47.82278" lon="-1.64577">
        <ele>85.21</ele>
        <time>2014-04-13T09:11:54Z</time>
      </trkpt>
      <trkpt lat="47.82282" lon="-1.64572">
        <ele>84.73</ele>
        <time>2014-04-13T09:11:56Z</time>
      </trkpt>
      <trkpt lat="47.82295" lon="-1.64578">
        <ele>85.21</ele>
        <time>2014-04-13T09:12:04Z</time>
      </trkpt>
      <trkpt lat="47.82303" lon="-1.64583">
        <ele>85.69</ele>
        <time>2014-04-13T09:12:06Z</time>
      </trkpt>
      <trkpt lat="47.82324" lon="-1.64614">
        <ele>87.14</ele>
        <time>2014-04-13T09:12:18Z</time>
      </trkpt>
      <trkpt lat="47.82325" lon="-1.64633">
        <ele>89.06</ele>
        <time>2014-04-13T09:12:24Z</time>
      </trkpt>
      <trkpt lat="47.82325" lon="-1.64636">
        <ele>89.06</ele>
        <time>2014-04-13T09:12:25Z</time>
      </trkpt>
      <trkpt lat="47.82328" lon="-1.64671">
        <ele>91.94</ele>
        <time>2014-04-13T09:12:36Z</time>
      </trkpt>
      <trkpt lat="47.82331" lon="-1.64674">
        <ele>91.94</ele>
        <time>2014-04-13T09:12:40Z</time>
      </trkpt>
      <trkpt lat="47.82341" lon="-1.64661">
        <ele>88.58</ele>
        <time>2014-04-13T09:12:46Z</time>
      </trkpt>
      <trkpt lat="47.82344" lon="-1.64664">
        <ele>88.1</ele>
        <time>2014-04-13T09:12:48Z</time>
      </trkpt>
      <trkpt lat="47.82348" lon="-1.6467">
        <ele>87.62</ele>
        <time>2014-04-13T09:12:50Z</time>
      </trkpt>
      <trkpt lat="47.82352" lon="-1.64673">
        <ele>87.14</ele>
        <time>2014-04-13T09:12:52Z</time>
      </trkpt>
      <trkpt lat="47.82368" lon="-1.64699">
        <ele>87.62</ele>
        <time>2014-04-13T09:13:02Z</time>
      </trkpt>
      <trkpt lat="47.82383" lon="-1.64734">
        <ele>88.1</ele>
        <time>2014-04-13T09:13:12Z</time>
      </trkpt>
      <trkpt lat="47.82385" lon="-1.64737">
        <ele>88.58</ele>
        <time>2014-04-13T09:13:13Z</time>
      </trkpt>
      <trkpt lat="47.82397" lon="-1.64754">
        <ele>88.58</ele>
        <time>2014-04-13T09:13:18Z</time>
      </trkpt>
      <trkpt lat="47.82407" lon="-1.64774">
        <ele>89.06</ele>
        <time>2014-04-13T09:13:27Z</time>
      </trkpt>
      <trkpt lat="47.82413" lon="-1.64786">
        <ele>89.54</ele>
        <time>2014-04-13T09:13:31Z</time>
      </trkpt>
      <trkpt lat="47.82419" lon="-1.64799">
        <ele>89.54</ele>
        <time>2014-04-13T09:13:36Z</time>
      </trkpt>
      <trkpt lat="47.82419" lon="-1.64814">
        <ele>90.98</ele>
        <time>2014-04-13T09:13:42Z</time>
      </trkpt>
      <trkpt lat="47.8242" lon="-1.64839">
        <ele>92.9</ele>
        <time>2014-04-13T09:13:52Z</time>
      </trkpt>
      <trkpt lat="47.8242" lon="-1.64842">
        <ele>92.9</ele>
        <time>2014-04-13T09:13:53Z</time>
      </trkpt>
      <trkpt lat="47.82415" lon="-1.64857">
        <ele>93.87</ele>
        <time>2014-04-13T09:13:58Z</time>
      </trkpt>
      <trkpt lat="47.82415" lon="-1.6486">
        <ele>93.87</ele>
        <time>2014-04-13T09:13:59Z</time>
      </trkpt>
      <trkpt lat="47.82421" lon="-1.64885">
        <ele>93.87</ele>
        <time>2014-04-13T09:14:07Z</time>
      </trkpt>
      <trkpt lat="47.82417" lon="-1.64902">
        <ele>94.35</ele>
        <time>2014-04-13T09:14:12Z</time>
      </trkpt>
      <trkpt lat="47.82421" lon="-1.64927">
        <ele>94.35</ele>
        <time>2014-04-13T09:14:18Z</time>
      </trkpt>
      <trkpt lat="47.82424" lon="-1.64931">
        <ele>93.87</ele>
        <time>2014-04-13T09:14:19Z</time>
      </trkpt>
      <trkpt lat="47.82427" lon="-1.64937">
        <ele>93.87</ele>
        <time>2014-04-13T09:14:20Z</time>
      </trkpt>
      <trkpt lat="47.82435" lon="-1.64955">
        <ele>93.87</ele>
        <time>2014-04-13T09:14:23Z</time>
      </trkpt>
      <trkpt lat="47.82438" lon="-1.64961">
        <ele>93.39</ele>
        <time>2014-04-13T09:14:24Z</time>
      </trkpt>
      <trkpt lat="47.82475" lon="-1.65045">
        <ele>94.35</ele>
        <time>2014-04-13T09:14:38Z</time>
      </trkpt>
      <trkpt lat="47.82487" lon="-1.65065">
        <ele>94.83</ele>
        <time>2014-04-13T09:14:42Z</time>
      </trkpt>
      <trkpt lat="47.8249" lon="-1.6507">
        <ele>94.83</ele>
        <time>2014-04-13T09:14:43Z</time>
      </trkpt>
      <trkpt lat="47.82492" lon="-1.65075">
        <ele>95.31</ele>
        <time>2014-04-13T09:14:44Z</time>
      </trkpt>
      <trkpt lat="47.82513" lon="-1.65115">
        <ele>96.75</ele>
        <time>2014-04-13T09:14:52Z</time>
      </trkpt>
      <trkpt lat="47.82516" lon="-1.6512">
        <ele>96.75</ele>
        <time>2014-04-13T09:14:53Z</time>
      </trkpt>
      <trkpt lat="47.82519" lon="-1.65125">
        <ele>96.75</ele>
        <time>2014-04-13T09:14:54Z</time>
      </trkpt>
      <trkpt lat="47.8253" lon="-1.65151">
        <ele>97.71</ele>
        <time>2014-04-13T09:14:59Z</time>
      </trkpt>
      <trkpt lat="47.82543" lon="-1.65176">
        <ele>97.71</ele>
        <time>2014-04-13T09:15:04Z</time>
      </trkpt>
      <trkpt lat="47.82546" lon="-1.65181">
        <ele>98.19</ele>
        <time>2014-04-13T09:15:05Z</time>
      </trkpt>
      <trkpt lat="47.82593" lon="-1.65276">
        <ele>99.15</ele>
        <time>2014-04-13T09:15:21Z</time>
      </trkpt>
      <trkpt lat="47.8265" lon="-1.65389">
        <ele>100.6</ele>
        <time>2014-04-13T09:15:39Z</time>
      </trkpt>
      <trkpt lat="47.82709" lon="-1.65503">
        <ele>100.6</ele>
        <time>2014-04-13T09:15:57Z</time>
      </trkpt>
      <trkpt lat="47.82733" lon="-1.65538">
        <ele>101.08</ele>
        <time>2014-04-13T09:16:03Z</time>
      </trkpt>
      <trkpt lat="47.82782" lon="-1.656">
        <ele>100.6</ele>
        <time>2014-04-13T09:16:14Z</time>
      </trkpt>
      <trkpt lat="47.82862" lon="-1.657">
        <ele>99.63</ele>
        <time>2014-04-13T09:16:31Z</time>
      </trkpt>
      <trkpt lat="47.82877" lon="-1.65716">
        <ele>99.63</ele>
        <time>2014-04-13T09:16:34Z</time>
      </trkpt>
      <trkpt lat="47.82951" lon="-1.65753">
        <ele>99.15</ele>
        <time>2014-04-13T09:16:47Z</time>
      </trkpt>
      <trkpt lat="47.83016" lon="-1.65783">
        <ele>99.63</ele>
        <time>2014-04-13T09:16:59Z</time>
      </trkpt>
      <trkpt lat="47.83021" lon="-1.65782">
        <ele>99.63</ele>
        <time>2014-04-13T09:17:00Z</time>
      </trkpt>
      <trkpt lat="47.83025" lon="-1.65778">
        <ele>99.63</ele>
        <time>2014-04-13T09:17:01Z</time>
      </trkpt>
      <trkpt lat="47.83029" lon="-1.65773">
        <ele>99.63</ele>
        <time>2014-04-13T09:17:02Z</time>
      </trkpt>
      <trkpt lat="47.83032" lon="-1.65769">
        <ele>99.63</ele>
        <time>2014-04-13T09:17:03Z</time>
      </trkpt>
      <trkpt lat="47.83033" lon="-1.65766">
        <ele>101.08</ele>
        <time>2014-04-13T09:17:04Z</time>
      </trkpt>
      <trkpt lat="47.83034" lon="-1.65763">
        <ele>101.56</ele>
        <time>2014-04-13T09:17:05Z</time>
      </trkpt>
      <trkpt lat="47.83036" lon="-1.65759">
        <ele>101.08</ele>
        <time>2014-04-13T09:17:06Z</time>
      </trkpt>
      <trkpt lat="47.83037" lon="-1.65756">
        <ele>101.08</ele>
        <time>2014-04-13T09:17:07Z</time>
      </trkpt>
      <trkpt lat="47.83038" lon="-1.65753">
        <ele>101.08</ele>
        <time>2014-04-13T09:17:08Z</time>
      </trkpt>
      <trkpt lat="47.83039" lon="-1.65749">
        <ele>100.6</ele>
        <time>2014-04-13T09:17:09Z</time>
      </trkpt>
      <trkpt lat="47.83039" lon="-1.65743">
        <ele>100.6</ele>
        <time>2014-04-13T09:17:10Z</time>
      </trkpt>
      <trkpt lat="47.8304" lon="-1.65739">
        <ele>100.11</ele>
        <time>2014-04-13T09:17:11Z</time>
      </trkpt>
      <trkpt lat="47.8304" lon="-1.65734">
        <ele>100.11</ele>
        <time>2014-04-13T09:17:12Z</time>
      </trkpt>
      <trkpt lat="47.8304" lon="-1.65728">
        <ele>100.11</ele>
        <time>2014-04-13T09:17:13Z</time>
      </trkpt>
      <trkpt lat="47.83041" lon="-1.65722">
        <ele>100.11</ele>
        <time>2014-04-13T09:17:14Z</time>
      </trkpt>
      <trkpt lat="47.83042" lon="-1.65715">
        <ele>100.11</ele>
        <time>2014-04-13T09:17:15Z</time>
      </trkpt>
      <trkpt lat="47.83043" lon="-1.65709">
        <ele>100.11</ele>
        <time>2014-04-13T09:17:16Z</time>
      </trkpt>
      <trkpt lat="47.83048" lon="-1.65674">
        <ele>100.11</ele>
        <time>2014-04-13T09:17:22Z</time>
      </trkpt>
      <trkpt lat="47.83049" lon="-1.65671">
        <ele>100.11</ele>
        <time>2014-04-13T09:17:23Z</time>
      </trkpt>
      <trkpt lat="47.83049" lon="-1.65668">
        <ele>99.63</ele>
        <time>2014-04-13T09:17:24Z</time>
      </trkpt>
      <trkpt lat="47.8305" lon="-1.65665">
        <ele>100.11</ele>
        <time>2014-04-13T09:17:26Z</time>
      </trkpt>
      <trkpt lat="47.83051" lon="-1.65664">
        <ele>100.11</ele>
        <time>2014-04-13T09:17:27Z</time>
      </trkpt>
      <trkpt lat="47.83052" lon="-1.65662">
        <ele>100.11</ele>
        <time>2014-04-13T09:17:28Z</time>
      </trkpt>
      <trkpt lat="47.83051" lon="-1.65659">
        <ele>100.11</ele>
        <time>2014-04-13T09:17:29Z</time>
      </trkpt>
      <trkpt lat="47.83052" lon="-1.65657">
        <ele>100.11</ele>
        <time>2014-04-13T09:17:30Z</time>
      </trkpt>
      <trkpt lat="47.83052" lon="-1.65654">
        <ele>100.11</ele>
        <time>2014-04-13T09:17:31Z</time>
      </trkpt>
      <trkpt lat="47.83053" lon="-1.65651">
        <ele>99.63</ele>
        <time>2014-04-13T09:17:32Z</time>
      </trkpt>
      <trkpt lat="47.83053" lon="-1.65648">
        <ele>100.11</ele>
        <time>2014-04-13T09:17:33Z</time>
      </trkpt>
      <trkpt lat="47.83054" lon="-1.65645">
        <ele>100.11</ele>
        <time>2014-04-13T09:17:34Z</time>
      </trkpt>
      <trkpt lat="47.83054" lon="-1.65642">
        <ele>100.6</ele>
        <time>2014-04-13T09:17:35Z</time>
      </trkpt>
      <trkpt lat="47.83053" lon="-1.65639">
        <ele>100.11</ele>
        <time>2014-04-13T09:17:36Z</time>
      </trkpt>
      <trkpt lat="47.83054" lon="-1.65636">
        <ele>100.11</ele>
        <time>2014-04-13T09:17:37Z</time>
      </trkpt>
      <trkpt lat="47.83054" lon="-1.65634">
        <ele>100.11</ele>
        <time>2014-04-13T09:17:38Z</time>
      </trkpt>
      <trkpt lat="47.83056" lon="-1.65633">
        <ele>100.11</ele>
        <time>2014-04-13T09:17:39Z</time>
      </trkpt>
      <trkpt lat="47.83059" lon="-1.65632">
        <ele>99.63</ele>
        <time>2014-04-13T09:17:41Z</time>
      </trkpt>
      <trkpt lat="47.83056" lon="-1.65627">
        <ele>100.11</ele>
        <time>2014-04-13T09:17:44Z</time>
      </trkpt>
      <trkpt lat="47.83061" lon="-1.65607">
        <ele>100.11</ele>
        <time>2014-04-13T09:17:52Z</time>
      </trkpt>
      <trkpt lat="47.83055" lon="-1.65591">
        <ele>98.67</ele>
        <time>2014-04-13T09:17:59Z</time>
      </trkpt>
      <trkpt lat="47.83057" lon="-1.65585">
        <ele>98.67</ele>
        <time>2014-04-13T09:18:02Z</time>
      </trkpt>
      <trkpt lat="47.8306" lon="-1.65585">
        <ele>99.63</ele>
        <time>2014-04-13T09:18:05Z</time>
      </trkpt>
      <trkpt lat="47.8306" lon="-1.6557">
        <ele>99.15</ele>
        <time>2014-04-13T09:18:11Z</time>
      </trkpt>
      <trkpt lat="47.8306" lon="-1.65565">
        <ele>99.15</ele>
        <time>2014-04-13T09:18:13Z</time>
      </trkpt>
      <trkpt lat="47.8307" lon="-1.65556">
        <ele>100.11</ele>
        <time>2014-04-13T09:18:21Z</time>
      </trkpt>
      <trkpt lat="47.83075" lon="-1.65539">
        <ele>100.11</ele>
        <time>2014-04-13T09:18:28Z</time>
      </trkpt>
      <trkpt lat="47.83073" lon="-1.65528">
        <ele>100.11</ele>
        <time>2014-04-13T09:18:34Z</time>
      </trkpt>
      <trkpt lat="47.83077" lon="-1.65519">
        <ele>100.11</ele>
        <time>2014-04-13T09:18:39Z</time>
      </trkpt>
      <trkpt lat="47.83078" lon="-1.65506">
        <ele>100.11</ele>
        <time>2014-04-13T09:18:46Z</time>
      </trkpt>
      <trkpt lat="47.83075" lon="-1.65503">
        <ele>100.11</ele>
        <time>2014-04-13T09:18:48Z</time>
      </trkpt>
      <trkpt lat="47.83076" lon="-1.65493">
        <ele>100.11</ele>
        <time>2014-04-13T09:18:53Z</time>
      </trkpt>
      <trkpt lat="47.8308" lon="-1.65496">
        <ele>100.11</ele>
        <time>2014-04-13T09:18:56Z</time>
      </trkpt>
      <trkpt lat="47.83082" lon="-1.65489">
        <ele>99.63</ele>
        <time>2014-04-13T09:19:00Z</time>
      </trkpt>
      <trkpt lat="47.83073" lon="-1.65485">
        <ele>99.63</ele>
        <time>2014-04-13T09:19:04Z</time>
      </trkpt>
      <trkpt lat="47.83074" lon="-1.65478">
        <ele>100.11</ele>
        <time>2014-04-13T09:19:08Z</time>
      </trkpt>
      <trkpt lat="47.83089" lon="-1.65475">
        <ele>99.63</ele>
        <time>2014-04-13T09:19:17Z</time>
      </trkpt>
      <trkpt lat="47.83085" lon="-1.65473">
        <ele>99.63</ele>
        <time>2014-04-13T09:19:19Z</time>
      </trkpt>
      <trkpt lat="47.83079" lon="-1.6546">
        <ele>100.11</ele>
        <time>2014-04-13T09:19:24Z</time>
      </trkpt>
      <trkpt lat="47.83086" lon="-1.65449">
        <ele>99.63</ele>
        <time>2014-04-13T09:19:31Z</time>
      </trkpt>
      <trkpt lat="47.83088" lon="-1.65459">
        <ele>99.63</ele>
        <time>2014-04-13T09:19:34Z</time>
      </trkpt>
      <trkpt lat="47.83101" lon="-1.65449">
        <ele>99.63</ele>
        <time>2014-04-13T09:19:42Z</time>
      </trkpt>
      <trkpt lat="47.83102" lon="-1.65447">
        <ele>100.11</ele>
        <time>2014-04-13T09:19:43Z</time>
      </trkpt>
      <trkpt lat="47.83091" lon="-1.65436">
        <ele>99.63</ele>
        <time>2014-04-13T09:19:49Z</time>
      </trkpt>
      <trkpt lat="47.83097" lon="-1.65418">
        <ele>99.63</ele>
        <time>2014-04-13T09:19:57Z</time>
      </trkpt>
      <trkpt lat="47.83108" lon="-1.65425">
        <ele>99.63</ele>
        <time>2014-04-13T09:20:01Z</time>
      </trkpt>
      <trkpt lat="47.83103" lon="-1.65414">
        <ele>99.63</ele>
        <time>2014-04-13T09:20:10Z</time>
      </trkpt>
      <trkpt lat="47.83091" lon="-1.65408">
        <ele>99.63</ele>
        <time>2014-04-13T09:20:14Z</time>
      </trkpt>
      <trkpt lat="47.83094" lon="-1.65394">
        <ele>99.63</ele>
        <time>2014-04-13T09:20:19Z</time>
      </trkpt>
      <trkpt lat="47.83113" lon="-1.65396">
        <ele>99.15</ele>
        <time>2014-04-13T09:20:29Z</time>
      </trkpt>
      <trkpt lat="47.83107" lon="-1.65386">
        <ele>99.63</ele>
        <time>2014-04-13T09:20:35Z</time>
      </trkpt>
      <trkpt lat="47.83108" lon="-1.65385">
        <ele>99.63</ele>
        <time>2014-04-13T09:20:36Z</time>
      </trkpt>
      <trkpt lat="47.83121" lon="-1.65372">
        <ele>99.15</ele>
        <time>2014-04-13T09:20:42Z</time>
      </trkpt>
      <trkpt lat="47.83112" lon="-1.65354">
        <ele>99.63</ele>
        <time>2014-04-13T09:20:49Z</time>
      </trkpt>
      <trkpt lat="47.83107" lon="-1.65353">
        <ele>99.63</ele>
        <time>2014-04-13T09:20:51Z</time>
      </trkpt>
      <trkpt lat="47.83092" lon="-1.65352">
        <ele>99.63</ele>
        <time>2014-04-13T09:20:59Z</time>
      </trkpt>
      <trkpt lat="47.83087" lon="-1.65347">
        <ele>99.63</ele>
        <time>2014-04-13T09:21:01Z</time>
      </trkpt>
      <trkpt lat="47.83085" lon="-1.65325">
        <ele>99.63</ele>
        <time>2014-04-13T09:21:06Z</time>
      </trkpt>
      <trkpt lat="47.8309" lon="-1.65235">
        <ele>99.63</ele>
        <time>2014-04-13T09:21:19Z</time>
      </trkpt>
      <trkpt lat="47.8309" lon="-1.65228">
        <ele>99.63</ele>
        <time>2014-04-13T09:21:20Z</time>
      </trkpt>
      <trkpt lat="47.8309" lon="-1.6522">
        <ele>100.11</ele>
        <time>2014-04-13T09:21:21Z</time>
      </trkpt>
      <trkpt lat="47.8309" lon="-1.65126">
        <ele>99.63</ele>
        <time>2014-04-13T09:21:33Z</time>
      </trkpt>
      <trkpt lat="47.8309" lon="-1.65082">
        <ele>99.63</ele>
        <time>2014-04-13T09:21:38Z</time>
      </trkpt>
      <trkpt lat="47.83085" lon="-1.6504">
        <ele>99.63</ele>
        <time>2014-04-13T09:21:43Z</time>
      </trkpt>
      <trkpt lat="47.83084" lon="-1.65032">
        <ele>99.63</ele>
        <time>2014-04-13T09:21:44Z</time>
      </trkpt>
      <trkpt lat="47.8308" lon="-1.64978">
        <ele>99.63</ele>
        <time>2014-04-13T09:21:50Z</time>
      </trkpt>
      <trkpt lat="47.83065" lon="-1.64854">
        <ele>99.15</ele>
        <time>2014-04-13T09:22:04Z</time>
      </trkpt>
      <trkpt lat="47.83044" lon="-1.6473">
        <ele>98.67</ele>
        <time>2014-04-13T09:22:18Z</time>
      </trkpt>
      <trkpt lat="47.83031" lon="-1.64669">
        <ele>98.67</ele>
        <time>2014-04-13T09:22:25Z</time>
      </trkpt>
      <trkpt lat="47.83029" lon="-1.64653">
        <ele>98.67</ele>
        <time>2014-04-13T09:22:27Z</time>
      </trkpt>
      <trkpt lat="47.83028" lon="-1.64646">
        <ele>98.67</ele>
        <time>2014-04-13T09:22:28Z</time>
      </trkpt>
      <trkpt lat="47.83027" lon="-1.6464">
        <ele>98.19</ele>
        <time>2014-04-13T09:22:29Z</time>
      </trkpt>
      <trkpt lat="47.83026" lon="-1.64635">
        <ele>98.19</ele>
        <time>2014-04-13T09:22:30Z</time>
      </trkpt>
      <trkpt lat="47.83026" lon="-1.64631">
        <ele>98.67</ele>
        <time>2014-04-13T09:22:31Z</time>
      </trkpt>
      <trkpt lat="47.83026" lon="-1.64626">
        <ele>98.67</ele>
        <time>2014-04-13T09:22:32Z</time>
      </trkpt>
      <trkpt lat="47.83029" lon="-1.64623">
        <ele>98.19</ele>
        <time>2014-04-13T09:22:33Z</time>
      </trkpt>
      <trkpt lat="47.83033" lon="-1.64621">
        <ele>98.19</ele>
        <time>2014-04-13T09:22:34Z</time>
      </trkpt>
      <trkpt lat="47.83038" lon="-1.6462">
        <ele>98.19</ele>
        <time>2014-04-13T09:22:35Z</time>
      </trkpt>
      <trkpt lat="47.83044" lon="-1.64619">
        <ele>98.19</ele>
        <time>2014-04-13T09:22:36Z</time>
      </trkpt>
      <trkpt lat="47.83049" lon="-1.64618">
        <ele>98.19</ele>
        <time>2014-04-13T09:22:37Z</time>
      </trkpt>
      <trkpt lat="47.83055" lon="-1.64619">
        <ele>98.19</ele>
        <time>2014-04-13T09:22:38Z</time>
      </trkpt>
      <trkpt lat="47.83126" lon="-1.64625">
        <ele>97.71</ele>
        <time>2014-04-13T09:22:52Z</time>
      </trkpt>
      <trkpt lat="47.83136" lon="-1.64628">
        <ele>98.19</ele>
        <time>2014-04-13T09:22:59Z</time>
      </trkpt>
      <trkpt lat="47.83137" lon="-1.6463">
        <ele>98.19</ele>
        <time>2014-04-13T09:23:00Z</time>
      </trkpt>
      <trkpt lat="47.8314" lon="-1.64631">
        <ele>98.19</ele>
        <time>2014-04-13T09:23:01Z</time>
      </trkpt>
      <trkpt lat="47.83144" lon="-1.64632">
        <ele>98.19</ele>
        <time>2014-04-13T09:23:02Z</time>
      </trkpt>
      <trkpt lat="47.83148" lon="-1.64632">
        <ele>97.71</ele>
        <time>2014-04-13T09:23:03Z</time>
      </trkpt>
      <trkpt lat="47.83153" lon="-1.64632">
        <ele>97.71</ele>
        <time>2014-04-13T09:23:04Z</time>
      </trkpt>
      <trkpt lat="47.83226" lon="-1.64638">
        <ele>97.71</ele>
        <time>2014-04-13T09:23:17Z</time>
      </trkpt>
      <trkpt lat="47.83304" lon="-1.64638">
        <ele>97.71</ele>
        <time>2014-04-13T09:23:31Z</time>
      </trkpt>
      <trkpt lat="47.83384" lon="-1.64611">
        <ele>97.71</ele>
        <time>2014-04-13T09:23:46Z</time>
      </trkpt>
      <trkpt lat="47.83472" lon="-1.64582">
        <ele>97.23</ele>
        <time>2014-04-13T09:24:02Z</time>
      </trkpt>
      <trkpt lat="47.83569" lon="-1.6455">
        <ele>95.31</ele>
        <time>2014-04-13T09:24:18Z</time>
      </trkpt>
      <trkpt lat="47.83582" lon="-1.64547">
        <ele>94.83</ele>
        <time>2014-04-13T09:24:20Z</time>
      </trkpt>
      <trkpt lat="47.83589" lon="-1.64548">
        <ele>94.35</ele>
        <time>2014-04-13T09:24:21Z</time>
      </trkpt>
      <trkpt lat="47.83595" lon="-1.64551">
        <ele>94.35</ele>
        <time>2014-04-13T09:24:22Z</time>
      </trkpt>
      <trkpt lat="47.83601" lon="-1.64556">
        <ele>93.87</ele>
        <time>2014-04-13T09:24:23Z</time>
      </trkpt>
      <trkpt lat="47.83607" lon="-1.64561">
        <ele>93.87</ele>
        <time>2014-04-13T09:24:24Z</time>
      </trkpt>
      <trkpt lat="47.83678" lon="-1.6465">
        <ele>93.39</ele>
        <time>2014-04-13T09:24:39Z</time>
      </trkpt>
      <trkpt lat="47.83755" lon="-1.6475">
        <ele>91.46</ele>
        <time>2014-04-13T09:24:56Z</time>
      </trkpt>
      <trkpt lat="47.83758" lon="-1.64757">
        <ele>90.98</ele>
        <time>2014-04-13T09:24:57Z</time>
      </trkpt>
      <trkpt lat="47.83761" lon="-1.64766">
        <ele>90.98</ele>
        <time>2014-04-13T09:24:58Z</time>
      </trkpt>
      <trkpt lat="47.83783" lon="-1.64908">
        <ele>91.46</ele>
        <time>2014-04-13T09:25:15Z</time>
      </trkpt>
      <trkpt lat="47.83808" lon="-1.65071">
        <ele>89.54</ele>
        <time>2014-04-13T09:25:34Z</time>
      </trkpt>
      <trkpt lat="47.83812" lon="-1.65078">
        <ele>89.54</ele>
        <time>2014-04-13T09:25:35Z</time>
      </trkpt>
      <trkpt lat="47.83817" lon="-1.65082">
        <ele>90.02</ele>
        <time>2014-04-13T09:25:36Z</time>
      </trkpt>
      <trkpt lat="47.83824" lon="-1.65084">
        <ele>89.06</ele>
        <time>2014-04-13T09:25:37Z</time>
      </trkpt>
      <trkpt lat="47.83831" lon="-1.65085">
        <ele>88.1</ele>
        <time>2014-04-13T09:25:38Z</time>
      </trkpt>
      <trkpt lat="47.83868" lon="-1.65096">
        <ele>84.73</ele>
        <time>2014-04-13T09:25:43Z</time>
      </trkpt>
      <trkpt lat="47.83876" lon="-1.65102">
        <ele>83.77</ele>
        <time>2014-04-13T09:25:44Z</time>
      </trkpt>
      <trkpt lat="47.83884" lon="-1.65108">
        <ele>82.81</ele>
        <time>2014-04-13T09:25:45Z</time>
      </trkpt>
      <trkpt lat="47.83909" lon="-1.65134">
        <ele>79.45</ele>
        <time>2014-04-13T09:25:48Z</time>
      </trkpt>
      <trkpt lat="47.83934" lon="-1.6516">
        <ele>76.08</ele>
        <time>2014-04-13T09:25:51Z</time>
      </trkpt>
      <trkpt lat="47.83945" lon="-1.65176">
        <ele>74.64</ele>
        <time>2014-04-13T09:25:53Z</time>
      </trkpt>
      <trkpt lat="47.83949" lon="-1.65186">
        <ele>73.68</ele>
        <time>2014-04-13T09:25:54Z</time>
      </trkpt>
      <trkpt lat="47.83952" lon="-1.65197">
        <ele>73.2</ele>
        <time>2014-04-13T09:25:55Z</time>
      </trkpt>
      <trkpt lat="47.83952" lon="-1.65207">
        <ele>73.68</ele>
        <time>2014-04-13T09:25:56Z</time>
      </trkpt>
      <trkpt lat="47.83952" lon="-1.65218">
        <ele>73.68</ele>
        <time>2014-04-13T09:25:57Z</time>
      </trkpt>
      <trkpt lat="47.83952" lon="-1.65227">
        <ele>73.68</ele>
        <time>2014-04-13T09:25:58Z</time>
      </trkpt>
      <trkpt lat="47.83952" lon="-1.65237">
        <ele>74.16</ele>
        <time>2014-04-13T09:25:59Z</time>
      </trkpt>
      <trkpt lat="47.83954" lon="-1.65336">
        <ele>77.04</ele>
        <time>2014-04-13T09:26:12Z</time>
      </trkpt>
      <trkpt lat="47.83958" lon="-1.65397">
        <ele>80.41</ele>
        <time>2014-04-13T09:26:22Z</time>
      </trkpt>
      <trkpt lat="47.83972" lon="-1.65461">
        <ele>82.81</ele>
        <time>2014-04-13T09:26:34Z</time>
      </trkpt>
      <trkpt lat="47.83988" lon="-1.65551">
        <ele>86.18</ele>
        <time>2014-04-13T09:26:50Z</time>
      </trkpt>
      <trkpt lat="47.83999" lon="-1.65629">
        <ele>88.58</ele>
        <time>2014-04-13T09:27:04Z</time>
      </trkpt>
      <trkpt lat="47.84006" lon="-1.65705">
        <ele>91.46</ele>
        <time>2014-04-13T09:27:17Z</time>
      </trkpt>
      <trkpt lat="47.84006" lon="-1.65711">
        <ele>91.46</ele>
        <time>2014-04-13T09:27:18Z</time>
      </trkpt>
      <trkpt lat="47.84003" lon="-1.658">
        <ele>94.35</ele>
        <time>2014-04-13T09:27:33Z</time>
      </trkpt>
      <trkpt lat="47.84003" lon="-1.65857">
        <ele>95.79</ele>
        <time>2014-04-13T09:27:43Z</time>
      </trkpt>
      <trkpt lat="47.84005" lon="-1.65863">
        <ele>95.79</ele>
        <time>2014-04-13T09:27:44Z</time>
      </trkpt>
      <trkpt lat="47.84012" lon="-1.65884">
        <ele>95.79</ele>
        <time>2014-04-13T09:27:49Z</time>
      </trkpt>
      <trkpt lat="47.84015" lon="-1.65886">
        <ele>95.79</ele>
        <time>2014-04-13T09:27:50Z</time>
      </trkpt>
      <trkpt lat="47.84018" lon="-1.65888">
        <ele>95.79</ele>
        <time>2014-04-13T09:27:51Z</time>
      </trkpt>
      <trkpt lat="47.84038" lon="-1.65896">
        <ele>97.71</ele>
        <time>2014-04-13T09:28:00Z</time>
      </trkpt>
      <trkpt lat="47.84038" lon="-1.65909">
        <ele>98.19</ele>
        <time>2014-04-13T09:28:04Z</time>
      </trkpt>
      <trkpt lat="47.84035" lon="-1.65926">
        <ele>97.71</ele>
        <time>2014-04-13T09:28:08Z</time>
      </trkpt>
      <trkpt lat="47.84037" lon="-1.65942">
        <ele>96.75</ele>
        <time>2014-04-13T09:28:13Z</time>
      </trkpt>
      <trkpt lat="47.84053" lon="-1.65953">
        <ele>96.75</ele>
        <time>2014-04-13T09:28:20Z</time>
      </trkpt>
      <trkpt lat="47.84056" lon="-1.65946">
        <ele>97.23</ele>
        <time>2014-04-13T09:28:24Z</time>
      </trkpt>
      <trkpt lat="47.84057" lon="-1.65928">
        <ele>97.71</ele>
        <time>2014-04-13T09:28:30Z</time>
      </trkpt>
      <trkpt lat="47.84062" lon="-1.6592">
        <ele>97.71</ele>
        <time>2014-04-13T09:28:38Z</time>
      </trkpt>
      <trkpt lat="47.84062" lon="-1.65919">
        <ele>97.71</ele>
        <time>2014-04-13T09:28:39Z</time>
      </trkpt>
      <trkpt lat="47.84061" lon="-1.65916">
        <ele>97.71</ele>
        <time>2014-04-13T09:28:41Z</time>
      </trkpt>
      <trkpt lat="47.84058" lon="-1.6591">
        <ele>97.71</ele>
        <time>2014-04-13T09:28:46Z</time>
      </trkpt>
      <trkpt lat="47.84052" lon="-1.65903">
        <ele>97.23</ele>
        <time>2014-04-13T09:28:54Z</time>
      </trkpt>
      <trkpt lat="47.84057" lon="-1.65899">
        <ele>95.79</ele>
        <time>2014-04-13T09:29:02Z</time>
      </trkpt>
      <trkpt lat="47.84059" lon="-1.65903">
        <ele>96.75</ele>
        <time>2014-04-13T09:29:06Z</time>
      </trkpt>
      <trkpt lat="47.8406" lon="-1.65908">
        <ele>97.71</ele>
        <time>2014-04-13T09:29:10Z</time>
      </trkpt>
      <trkpt lat="47.84065" lon="-1.65913">
        <ele>97.71</ele>
        <time>2014-04-13T09:29:15Z</time>
      </trkpt>
      <trkpt lat="47.84071" lon="-1.65934">
        <ele>96.75</ele>
        <time>2014-04-13T09:29:25Z</time>
      </trkpt>
      <trkpt lat="47.84072" lon="-1.65944">
        <ele>95.79</ele>
        <time>2014-04-13T09:29:34Z</time>
      </trkpt>
      <trkpt lat="47.84073" lon="-1.65943">
        <ele>95.79</ele>
        <time>2014-04-13T09:29:35Z</time>
      </trkpt>
      <trkpt lat="47.84078" lon="-1.65935">
        <ele>96.27</ele>
        <time>2014-04-13T09:29:41Z</time>
      </trkpt>
      <trkpt lat="47.84079" lon="-1.6592">
        <ele>96.27</ele>
        <time>2014-04-13T09:29:47Z</time>
      </trkpt>
      <trkpt lat="47.84078" lon="-1.65908">
        <ele>95.79</ele>
        <time>2014-04-13T09:29:53Z</time>
      </trkpt>
      <trkpt lat="47.84083" lon="-1.65902">
        <ele>94.83</ele>
        <time>2014-04-13T09:30:05Z</time>
      </trkpt>
      <trkpt lat="47.84084" lon="-1.65904">
        <ele>95.31</ele>
        <time>2014-04-13T09:30:12Z</time>
      </trkpt>
      <trkpt lat="47.84085" lon="-1.65907">
        <ele>95.79</ele>
        <time>2014-04-13T09:30:14Z</time>
      </trkpt>
      <trkpt lat="47.84085" lon="-1.65911">
        <ele>95.79</ele>
        <time>2014-04-13T09:30:17Z</time>
      </trkpt>
      <trkpt lat="47.84088" lon="-1.6591">
        <ele>95.31</ele>
        <time>2014-04-13T09:30:19Z</time>
      </trkpt>
      <trkpt lat="47.84096" lon="-1.6591">
        <ele>92.9</ele>
        <time>2014-04-13T09:30:26Z</time>
      </trkpt>
      <trkpt lat="47.841" lon="-1.65917">
        <ele>91.94</ele>
        <time>2014-04-13T09:30:29Z</time>
      </trkpt>
      <trkpt lat="47.84101" lon="-1.65923">
        <ele>91.94</ele>
        <time>2014-04-13T09:30:31Z</time>
      </trkpt>
      <trkpt lat="47.84077" lon="-1.65962">
        <ele>93.87</ele>
        <time>2014-04-13T09:30:44Z</time>
      </trkpt>
      <trkpt lat="47.84053" lon="-1.65965">
        <ele>94.83</ele>
        <time>2014-04-13T09:30:55Z</time>
      </trkpt>
      <trkpt lat="47.84052" lon="-1.65967">
        <ele>94.35</ele>
        <time>2014-04-13T09:31:22Z</time>
      </trkpt>
      <trkpt lat="47.84046" lon="-1.65974">
        <ele>94.83</ele>
        <time>2014-04-13T09:31:41Z</time>
      </trkpt>
      <trkpt lat="47.8404" lon="-1.65977">
        <ele>95.31</ele>
        <time>2014-04-13T09:31:43Z</time>
      </trkpt>
      <trkpt lat="47.84034" lon="-1.65984">
        <ele>95.31</ele>
        <time>2014-04-13T09:31:45Z</time>
      </trkpt>
      <trkpt lat="47.84033" lon="-1.6599">
        <ele>95.31</ele>
        <time>2014-04-13T09:31:46Z</time>
      </trkpt>
      <trkpt lat="47.84025" lon="-1.66048">
        <ele>94.83</ele>
        <time>2014-04-13T09:31:56Z</time>
      </trkpt>
      <trkpt lat="47.84024" lon="-1.66053">
        <ele>94.83</ele>
        <time>2014-04-13T09:31:57Z</time>
      </trkpt>
      <trkpt lat="47.84021" lon="-1.66065">
        <ele>94.83</ele>
        <time>2014-04-13T09:31:59Z</time>
      </trkpt>
      <trkpt lat="47.84017" lon="-1.66086">
        <ele>95.31</ele>
        <time>2014-04-13T09:32:02Z</time>
      </trkpt>
      <trkpt lat="47.84017" lon="-1.66101">
        <ele>95.31</ele>
        <time>2014-04-13T09:32:04Z</time>
      </trkpt>
      <trkpt lat="47.84021" lon="-1.66203">
        <ele>97.71</ele>
        <time>2014-04-13T09:32:18Z</time>
      </trkpt>
      <trkpt lat="47.84027" lon="-1.66339">
        <ele>97.71</ele>
        <time>2014-04-13T09:32:34Z</time>
      </trkpt>
      <trkpt lat="47.84036" lon="-1.66488">
        <ele>97.23</ele>
        <time>2014-04-13T09:32:50Z</time>
      </trkpt>
      <trkpt lat="47.84035" lon="-1.66626">
        <ele>95.79</ele>
        <time>2014-04-13T09:33:04Z</time>
      </trkpt>
      <trkpt lat="47.84024" lon="-1.66756">
        <ele>92.9</ele>
        <time>2014-04-13T09:33:16Z</time>
      </trkpt>
      <trkpt lat="47.84009" lon="-1.66884">
        <ele>89.54</ele>
        <time>2014-04-13T09:33:27Z</time>
      </trkpt>
      <trkpt lat="47.83988" lon="-1.67013">
        <ele>86.18</ele>
        <time>2014-04-13T09:33:38Z</time>
      </trkpt>
      <trkpt lat="47.83965" lon="-1.67139">
        <ele>82.81</ele>
        <time>2014-04-13T09:33:49Z</time>
      </trkpt>
      <trkpt lat="47.83959" lon="-1.67182">
        <ele>82.33</ele>
        <time>2014-04-13T09:33:53Z</time>
      </trkpt>
      <trkpt lat="47.83937" lon="-1.67316">
        <ele>79.45</ele>
        <time>2014-04-13T09:34:06Z</time>
      </trkpt>
      <trkpt lat="47.83928" lon="-1.67384">
        <ele>76.56</ele>
        <time>2014-04-13T09:34:13Z</time>
      </trkpt>
      <trkpt lat="47.83927" lon="-1.674">
        <ele>75.6</ele>
        <time>2014-04-13T09:34:15Z</time>
      </trkpt>
      <trkpt lat="47.83924" lon="-1.67437">
        <ele>73.68</ele>
        <time>2014-04-13T09:34:21Z</time>
      </trkpt>
      <trkpt lat="47.83926" lon="-1.67439">
        <ele>74.16</ele>
        <time>2014-04-13T09:34:22Z</time>
      </trkpt>
      <trkpt lat="47.83928" lon="-1.67439">
        <ele>74.16</ele>
        <time>2014-04-13T09:34:23Z</time>
      </trkpt>
      <trkpt lat="47.8393" lon="-1.6744">
        <ele>74.64</ele>
        <time>2014-04-13T09:34:24Z</time>
      </trkpt>
      <trkpt lat="47.83933" lon="-1.6744">
        <ele>75.12</ele>
        <time>2014-04-13T09:34:25Z</time>
      </trkpt>
      <trkpt lat="47.8396" lon="-1.67436">
        <ele>78</ele>
        <time>2014-04-13T09:34:35Z</time>
      </trkpt>
      <trkpt lat="47.83992" lon="-1.67437">
        <ele>80.89</ele>
        <time>2014-04-13T09:34:45Z</time>
      </trkpt>
      <trkpt lat="47.84018" lon="-1.67443">
        <ele>83.77</ele>
        <time>2014-04-13T09:34:55Z</time>
      </trkpt>
      <trkpt lat="47.84019" lon="-1.67444">
        <ele>84.25</ele>
        <time>2014-04-13T09:34:56Z</time>
      </trkpt>
      <trkpt lat="47.84021" lon="-1.67445">
        <ele>84.73</ele>
        <time>2014-04-13T09:34:57Z</time>
      </trkpt>
      <trkpt lat="47.84023" lon="-1.67445">
        <ele>85.21</ele>
        <time>2014-04-13T09:34:58Z</time>
      </trkpt>
      <trkpt lat="47.8404" lon="-1.67446">
        <ele>87.14</ele>
        <time>2014-04-13T09:35:05Z</time>
      </trkpt>
      <trkpt lat="47.84042" lon="-1.67445">
        <ele>87.62</ele>
        <time>2014-04-13T09:35:06Z</time>
      </trkpt>
      <trkpt lat="47.84053" lon="-1.67445">
        <ele>88.58</ele>
        <time>2014-04-13T09:35:10Z</time>
      </trkpt>
      <trkpt lat="47.8408" lon="-1.67432">
        <ele>91.46</ele>
        <time>2014-04-13T09:35:22Z</time>
      </trkpt>
      <trkpt lat="47.8411" lon="-1.67405">
        <ele>92.42</ele>
        <time>2014-04-13T09:35:32Z</time>
      </trkpt>
      <trkpt lat="47.84153" lon="-1.67382">
        <ele>91.94</ele>
        <time>2014-04-13T09:35:43Z</time>
      </trkpt>
      <trkpt lat="47.84217" lon="-1.6736">
        <ele>92.9</ele>
        <time>2014-04-13T09:35:59Z</time>
      </trkpt>
      <trkpt lat="47.8425" lon="-1.67338">
        <ele>92.42</ele>
        <time>2014-04-13T09:36:09Z</time>
      </trkpt>
      <trkpt lat="47.84262" lon="-1.67329">
        <ele>91.46</ele>
        <time>2014-04-13T09:36:12Z</time>
      </trkpt>
      <trkpt lat="47.84272" lon="-1.67324">
        <ele>90.98</ele>
        <time>2014-04-13T09:36:14Z</time>
      </trkpt>
      <trkpt lat="47.84306" lon="-1.67329">
        <ele>89.06</ele>
        <time>2014-04-13T09:36:20Z</time>
      </trkpt>
      <trkpt lat="47.84325" lon="-1.67318">
        <ele>87.62</ele>
        <time>2014-04-13T09:36:25Z</time>
      </trkpt>
      <trkpt lat="47.8435" lon="-1.67278">
        <ele>87.14</ele>
        <time>2014-04-13T09:36:33Z</time>
      </trkpt>
      <trkpt lat="47.84355" lon="-1.67267">
        <ele>87.14</ele>
        <time>2014-04-13T09:36:35Z</time>
      </trkpt>
      <trkpt lat="47.84397" lon="-1.67257">
        <ele>84.25</ele>
        <time>2014-04-13T09:36:44Z</time>
      </trkpt>
      <trkpt lat="47.84417" lon="-1.67256">
        <ele>80.89</ele>
        <time>2014-04-13T09:36:47Z</time>
      </trkpt>
      <trkpt lat="47.8444" lon="-1.67258">
        <ele>77.52</ele>
        <time>2014-04-13T09:36:50Z</time>
      </trkpt>
      <trkpt lat="47.84463" lon="-1.6726">
        <ele>73.68</ele>
        <time>2014-04-13T09:36:53Z</time>
      </trkpt>
      <trkpt lat="47.84477" lon="-1.67262">
        <ele>71.76</ele>
        <time>2014-04-13T09:36:55Z</time>
      </trkpt>
      <trkpt lat="47.84495" lon="-1.67252">
        <ele>69.35</ele>
        <time>2014-04-13T09:36:58Z</time>
      </trkpt>
      <trkpt lat="47.84499" lon="-1.67244">
        <ele>68.39</ele>
        <time>2014-04-13T09:36:59Z</time>
      </trkpt>
      <trkpt lat="47.84502" lon="-1.67236">
        <ele>68.39</ele>
        <time>2014-04-13T09:37:00Z</time>
      </trkpt>
      <trkpt lat="47.84504" lon="-1.67229">
        <ele>67.91</ele>
        <time>2014-04-13T09:37:01Z</time>
      </trkpt>
      <trkpt lat="47.84507" lon="-1.67224">
        <ele>67.91</ele>
        <time>2014-04-13T09:37:02Z</time>
      </trkpt>
      <trkpt lat="47.8451" lon="-1.67221">
        <ele>66.95</ele>
        <time>2014-04-13T09:37:03Z</time>
      </trkpt>
      <trkpt lat="47.84515" lon="-1.67218">
        <ele>66.47</ele>
        <time>2014-04-13T09:37:04Z</time>
      </trkpt>
      <trkpt lat="47.8452" lon="-1.67214">
        <ele>65.03</ele>
        <time>2014-04-13T09:37:05Z</time>
      </trkpt>
      <trkpt lat="47.84523" lon="-1.67208">
        <ele>64.55</ele>
        <time>2014-04-13T09:37:06Z</time>
      </trkpt>
      <trkpt lat="47.84526" lon="-1.67202">
        <ele>64.55</ele>
        <time>2014-04-13T09:37:07Z</time>
      </trkpt>
      <trkpt lat="47.84527" lon="-1.67195">
        <ele>65.03</ele>
        <time>2014-04-13T09:37:08Z</time>
      </trkpt>
      <trkpt lat="47.84528" lon="-1.67189">
        <ele>65.51</ele>
        <time>2014-04-13T09:37:09Z</time>
      </trkpt>
      <trkpt lat="47.84538" lon="-1.6715">
        <ele>68.39</ele>
        <time>2014-04-13T09:37:16Z</time>
      </trkpt>
      <trkpt lat="47.84547" lon="-1.67108">
        <ele>71.76</ele>
        <time>2014-04-13T09:37:24Z</time>
      </trkpt>
      <trkpt lat="47.84554" lon="-1.67081">
        <ele>73.68</ele>
        <time>2014-04-13T09:37:29Z</time>
      </trkpt>
      <trkpt lat="47.84563" lon="-1.67031">
        <ele>76.56</ele>
        <time>2014-04-13T09:37:38Z</time>
      </trkpt>
      <trkpt lat="47.84564" lon="-1.67025">
        <ele>76.56</ele>
        <time>2014-04-13T09:37:39Z</time>
      </trkpt>
      <trkpt lat="47.84565" lon="-1.67019">
        <ele>77.04</ele>
        <time>2014-04-13T09:37:40Z</time>
      </trkpt>
      <trkpt lat="47.84579" lon="-1.66925">
        <ele>76.56</ele>
        <time>2014-04-13T09:37:53Z</time>
      </trkpt>
      <trkpt lat="47.84581" lon="-1.66916">
        <ele>76.08</ele>
        <time>2014-04-13T09:37:54Z</time>
      </trkpt>
      <trkpt lat="47.84584" lon="-1.66907">
        <ele>76.08</ele>
        <time>2014-04-13T09:37:55Z</time>
      </trkpt>
      <trkpt lat="47.84595" lon="-1.66881">
        <ele>75.12</ele>
        <time>2014-04-13T09:37:58Z</time>
      </trkpt>
      <trkpt lat="47.84624" lon="-1.66828">
        <ele>71.76</ele>
        <time>2014-04-13T09:38:04Z</time>
      </trkpt>
      <trkpt lat="47.84628" lon="-1.66818">
        <ele>71.27</ele>
        <time>2014-04-13T09:38:05Z</time>
      </trkpt>
      <trkpt lat="47.84632" lon="-1.66807">
        <ele>71.27</ele>
        <time>2014-04-13T09:38:06Z</time>
      </trkpt>
      <trkpt lat="47.84639" lon="-1.66784">
        <ele>70.31</ele>
        <time>2014-04-13T09:38:08Z</time>
      </trkpt>
      <trkpt lat="47.84642" lon="-1.6676">
        <ele>69.83</ele>
        <time>2014-04-13T09:38:10Z</time>
      </trkpt>
      <trkpt lat="47.84643" lon="-1.66749">
        <ele>69.83</ele>
        <time>2014-04-13T09:38:11Z</time>
      </trkpt>
      <trkpt lat="47.84643" lon="-1.66737">
        <ele>69.35</ele>
        <time>2014-04-13T09:38:12Z</time>
      </trkpt>
      <trkpt lat="47.84641" lon="-1.66596">
        <ele>69.83</ele>
        <time>2014-04-13T09:38:25Z</time>
      </trkpt>
      <trkpt lat="47.8464" lon="-1.66431">
        <ele>68.39</ele>
        <time>2014-04-13T09:38:40Z</time>
      </trkpt>
      <trkpt lat="47.84652" lon="-1.66419">
        <ele>68.39</ele>
        <time>2014-04-13T09:38:45Z</time>
      </trkpt>
      <trkpt lat="47.84663" lon="-1.66423">
        <ele>66.95</ele>
        <time>2014-04-13T09:38:48Z</time>
      </trkpt>
      <trkpt lat="47.84667" lon="-1.66426">
        <ele>66.47</ele>
        <time>2014-04-13T09:38:49Z</time>
      </trkpt>
      <trkpt lat="47.84671" lon="-1.66428">
        <ele>66.47</ele>
        <time>2014-04-13T09:38:50Z</time>
      </trkpt>
      <trkpt lat="47.8469" lon="-1.66438">
        <ele>64.55</ele>
        <time>2014-04-13T09:38:55Z</time>
      </trkpt>
      <trkpt lat="47.84695" lon="-1.6644">
        <ele>64.55</ele>
        <time>2014-04-13T09:38:56Z</time>
      </trkpt>
      <trkpt lat="47.84714" lon="-1.66452">
        <ele>63.58</ele>
        <time>2014-04-13T09:39:01Z</time>
      </trkpt>
      <trkpt lat="47.84717" lon="-1.66454">
        <ele>63.1</ele>
        <time>2014-04-13T09:39:02Z</time>
      </trkpt>
      <trkpt lat="47.84721" lon="-1.66457">
        <ele>63.1</ele>
        <time>2014-04-13T09:39:03Z</time>
      </trkpt>
      <trkpt lat="47.84737" lon="-1.66464">
        <ele>61.66</ele>
        <time>2014-04-13T09:39:09Z</time>
      </trkpt>
      <trkpt lat="47.84738" lon="-1.66467">
        <ele>61.18</ele>
        <time>2014-04-13T09:39:10Z</time>
      </trkpt>
      <trkpt lat="47.84739" lon="-1.6647">
        <ele>61.66</ele>
        <time>2014-04-13T09:39:11Z</time>
      </trkpt>
      <trkpt lat="47.8474" lon="-1.66473">
        <ele>61.66</ele>
        <time>2014-04-13T09:39:12Z</time>
      </trkpt>
      <trkpt lat="47.84742" lon="-1.66476">
        <ele>61.66</ele>
        <time>2014-04-13T09:39:13Z</time>
      </trkpt>
      <trkpt lat="47.84743" lon="-1.66478">
        <ele>61.66</ele>
        <time>2014-04-13T09:39:14Z</time>
      </trkpt>
      <trkpt lat="47.84743" lon="-1.66479">
        <ele>62.62</ele>
        <time>2014-04-13T09:39:15Z</time>
      </trkpt>
      <trkpt lat="47.84752" lon="-1.66503">
        <ele>60.7</ele>
        <time>2014-04-13T09:39:24Z</time>
      </trkpt>
      <trkpt lat="47.84758" lon="-1.66509">
        <ele>60.7</ele>
        <time>2014-04-13T09:39:26Z</time>
      </trkpt>
      <trkpt lat="47.84764" lon="-1.66516">
        <ele>60.22</ele>
        <time>2014-04-13T09:39:28Z</time>
      </trkpt>
      <trkpt lat="47.84767" lon="-1.6652">
        <ele>60.22</ele>
        <time>2014-04-13T09:39:29Z</time>
      </trkpt>
      <trkpt lat="47.8477" lon="-1.66524">
        <ele>59.74</ele>
        <time>2014-04-13T09:39:30Z</time>
      </trkpt>
      <trkpt lat="47.84773" lon="-1.66527">
        <ele>59.74</ele>
        <time>2014-04-13T09:39:31Z</time>
      </trkpt>
      <trkpt lat="47.84777" lon="-1.6653">
        <ele>59.26</ele>
        <time>2014-04-13T09:39:32Z</time>
      </trkpt>
      <trkpt lat="47.84779" lon="-1.66534">
        <ele>59.26</ele>
        <time>2014-04-13T09:39:33Z</time>
      </trkpt>
      <trkpt lat="47.84781" lon="-1.66537">
        <ele>58.78</ele>
        <time>2014-04-13T09:39:34Z</time>
      </trkpt>
      <trkpt lat="47.84784" lon="-1.66539">
        <ele>58.78</ele>
        <time>2014-04-13T09:39:35Z</time>
      </trkpt>
      <trkpt lat="47.84795" lon="-1.66554">
        <ele>57.82</ele>
        <time>2014-04-13T09:39:39Z</time>
      </trkpt>
      <trkpt lat="47.84798" lon="-1.66557">
        <ele>57.34</ele>
        <time>2014-04-13T09:39:40Z</time>
      </trkpt>
      <trkpt lat="47.84801" lon="-1.66559">
        <ele>56.86</ele>
        <time>2014-04-13T09:39:41Z</time>
      </trkpt>
      <trkpt lat="47.84804" lon="-1.66563">
        <ele>56.37</ele>
        <time>2014-04-13T09:39:42Z</time>
      </trkpt>
      <trkpt lat="47.84806" lon="-1.66568">
        <ele>56.37</ele>
        <time>2014-04-13T09:39:43Z</time>
      </trkpt>
      <trkpt lat="47.84809" lon="-1.66573">
        <ele>55.89</ele>
        <time>2014-04-13T09:39:44Z</time>
      </trkpt>
      <trkpt lat="47.84812" lon="-1.66577">
        <ele>55.41</ele>
        <time>2014-04-13T09:39:45Z</time>
      </trkpt>
      <trkpt lat="47.84816" lon="-1.6658">
        <ele>54.93</ele>
        <time>2014-04-13T09:39:46Z</time>
      </trkpt>
      <trkpt lat="47.8482" lon="-1.66584">
        <ele>54.45</ele>
        <time>2014-04-13T09:39:47Z</time>
      </trkpt>
      <trkpt lat="47.84824" lon="-1.66588">
        <ele>54.45</ele>
        <time>2014-04-13T09:39:48Z</time>
      </trkpt>
      <trkpt lat="47.84847" lon="-1.66617">
        <ele>52.53</ele>
        <time>2014-04-13T09:39:56Z</time>
      </trkpt>
      <trkpt lat="47.84852" lon="-1.66626">
        <ele>52.53</ele>
        <time>2014-04-13T09:39:58Z</time>
      </trkpt>
      <trkpt lat="47.84854" lon="-1.66631">
        <ele>52.05</ele>
        <time>2014-04-13T09:39:59Z</time>
      </trkpt>
      <trkpt lat="47.84857" lon="-1.66636">
        <ele>52.05</ele>
        <time>2014-04-13T09:40:00Z</time>
      </trkpt>
      <trkpt lat="47.84862" lon="-1.66646">
        <ele>51.57</ele>
        <time>2014-04-13T09:40:02Z</time>
      </trkpt>
      <trkpt lat="47.84864" lon="-1.66651">
        <ele>51.57</ele>
        <time>2014-04-13T09:40:03Z</time>
      </trkpt>
      <trkpt lat="47.84866" lon="-1.66656">
        <ele>51.57</ele>
        <time>2014-04-13T09:40:04Z</time>
      </trkpt>
      <trkpt lat="47.84884" lon="-1.66699">
        <ele>50.13</ele>
        <time>2014-04-13T09:40:12Z</time>
      </trkpt>
      <trkpt lat="47.84895" lon="-1.66723">
        <ele>49.65</ele>
        <time>2014-04-13T09:40:16Z</time>
      </trkpt>
      <trkpt lat="47.849" lon="-1.66736">
        <ele>49.65</ele>
        <time>2014-04-13T09:40:18Z</time>
      </trkpt>
      <trkpt lat="47.84921" lon="-1.66797">
        <ele>48.68</ele>
        <time>2014-04-13T09:40:27Z</time>
      </trkpt>
      <trkpt lat="47.84948" lon="-1.66875">
        <ele>46.76</ele>
        <time>2014-04-13T09:40:38Z</time>
      </trkpt>
      <trkpt lat="47.8496" lon="-1.66909">
        <ele>45.8</ele>
        <time>2014-04-13T09:40:43Z</time>
      </trkpt>
      <trkpt lat="47.84962" lon="-1.66916">
        <ele>45.32</ele>
        <time>2014-04-13T09:40:44Z</time>
      </trkpt>
      <trkpt lat="47.84965" lon="-1.66922">
        <ele>45.32</ele>
        <time>2014-04-13T09:40:45Z</time>
      </trkpt>
      <trkpt lat="47.8497" lon="-1.66935">
        <ele>44.84</ele>
        <time>2014-04-13T09:40:47Z</time>
      </trkpt>
      <trkpt lat="47.84972" lon="-1.66941">
        <ele>44.84</ele>
        <time>2014-04-13T09:40:48Z</time>
      </trkpt>
      <trkpt lat="47.84974" lon="-1.66947">
        <ele>44.36</ele>
        <time>2014-04-13T09:40:49Z</time>
      </trkpt>
      <trkpt lat="47.84975" lon="-1.66952">
        <ele>44.36</ele>
        <time>2014-04-13T09:40:50Z</time>
      </trkpt>
      <trkpt lat="47.84974" lon="-1.66956">
        <ele>43.88</ele>
        <time>2014-04-13T09:40:51Z</time>
      </trkpt>
      <trkpt lat="47.84971" lon="-1.66958">
        <ele>43.88</ele>
        <time>2014-04-13T09:40:52Z</time>
      </trkpt>
      <trkpt lat="47.84968" lon="-1.66957">
        <ele>44.36</ele>
        <time>2014-04-13T09:40:53Z</time>
      </trkpt>
      <trkpt lat="47.84965" lon="-1.66958">
        <ele>44.36</ele>
        <time>2014-04-13T09:40:54Z</time>
      </trkpt>
      <trkpt lat="47.84963" lon="-1.6696">
        <ele>44.36</ele>
        <time>2014-04-13T09:40:55Z</time>
      </trkpt>
      <trkpt lat="47.84964" lon="-1.66965">
        <ele>44.84</ele>
        <time>2014-04-13T09:40:56Z</time>
      </trkpt>
      <trkpt lat="47.84967" lon="-1.66969">
        <ele>43.88</ele>
        <time>2014-04-13T09:40:57Z</time>
      </trkpt>
      <trkpt lat="47.84972" lon="-1.66973">
        <ele>43.88</ele>
        <time>2014-04-13T09:40:58Z</time>
      </trkpt>
      <trkpt lat="47.84976" lon="-1.6698">
        <ele>43.4</ele>
        <time>2014-04-13T09:40:59Z</time>
      </trkpt>
      <trkpt lat="47.8498" lon="-1.66987">
        <ele>43.4</ele>
        <time>2014-04-13T09:41:00Z</time>
      </trkpt>
      <trkpt lat="47.84983" lon="-1.66996">
        <ele>42.92</ele>
        <time>2014-04-13T09:41:01Z</time>
      </trkpt>
      <trkpt lat="47.84987" lon="-1.67005">
        <ele>42.44</ele>
        <time>2014-04-13T09:41:02Z</time>
      </trkpt>
      <trkpt lat="47.8499" lon="-1.67015">
        <ele>41.95</ele>
        <time>2014-04-13T09:41:03Z</time>
      </trkpt>
      <trkpt lat="47.85012" lon="-1.67098">
        <ele>40.03</ele>
        <time>2014-04-13T09:41:11Z</time>
      </trkpt>
      <trkpt lat="47.85016" lon="-1.67106">
        <ele>40.03</ele>
        <time>2014-04-13T09:41:12Z</time>
      </trkpt>
      <trkpt lat="47.85027" lon="-1.67129">
        <ele>40.03</ele>
        <time>2014-04-13T09:41:15Z</time>
      </trkpt>
      <trkpt lat="47.85031" lon="-1.67135">
        <ele>39.55</ele>
        <time>2014-04-13T09:41:16Z</time>
      </trkpt>
      <trkpt lat="47.85032" lon="-1.67141">
        <ele>39.55</ele>
        <time>2014-04-13T09:41:17Z</time>
      </trkpt>
      <trkpt lat="47.85032" lon="-1.67147">
        <ele>39.55</ele>
        <time>2014-04-13T09:41:18Z</time>
      </trkpt>
      <trkpt lat="47.85031" lon="-1.67152">
        <ele>39.55</ele>
        <time>2014-04-13T09:41:19Z</time>
      </trkpt>
      <trkpt lat="47.85028" lon="-1.67156">
        <ele>39.55</ele>
        <time>2014-04-13T09:41:20Z</time>
      </trkpt>
      <trkpt lat="47.85024" lon="-1.6716">
        <ele>40.51</ele>
        <time>2014-04-13T09:41:21Z</time>
      </trkpt>
      <trkpt lat="47.85021" lon="-1.67164">
        <ele>40.99</ele>
        <time>2014-04-13T09:41:22Z</time>
      </trkpt>
      <trkpt lat="47.85018" lon="-1.67168">
        <ele>40.99</ele>
        <time>2014-04-13T09:41:23Z</time>
      </trkpt>
      <trkpt lat="47.85016" lon="-1.67172">
        <ele>40.99</ele>
        <time>2014-04-13T09:41:24Z</time>
      </trkpt>
      <trkpt lat="47.85013" lon="-1.67174">
        <ele>41.47</ele>
        <time>2014-04-13T09:41:25Z</time>
      </trkpt>
      <trkpt lat="47.85011" lon="-1.67178">
        <ele>41.47</ele>
        <time>2014-04-13T09:41:26Z</time>
      </trkpt>
      <trkpt lat="47.85011" lon="-1.67182">
        <ele>41.47</ele>
        <time>2014-04-13T09:41:27Z</time>
      </trkpt>
      <trkpt lat="47.85012" lon="-1.67187">
        <ele>41.95</ele>
        <time>2014-04-13T09:41:28Z</time>
      </trkpt>
      <trkpt lat="47.85015" lon="-1.6721">
        <ele>42.92</ele>
        <time>2014-04-13T09:41:32Z</time>
      </trkpt>
      <trkpt lat="47.85017" lon="-1.6723">
        <ele>43.88</ele>
        <time>2014-04-13T09:41:35Z</time>
      </trkpt>
      <trkpt lat="47.85024" lon="-1.67252">
        <ele>44.84</ele>
        <time>2014-04-13T09:41:39Z</time>
      </trkpt>
      <trkpt lat="47.85028" lon="-1.67254">
        <ele>45.32</ele>
        <time>2014-04-13T09:41:40Z</time>
      </trkpt>
      <trkpt lat="47.85032" lon="-1.67255">
        <ele>45.32</ele>
        <time>2014-04-13T09:41:41Z</time>
      </trkpt>
      <trkpt lat="47.8504" lon="-1.67251">
        <ele>45.8</ele>
        <time>2014-04-13T09:41:43Z</time>
      </trkpt>
      <trkpt lat="47.85043" lon="-1.67248">
        <ele>45.8</ele>
        <time>2014-04-13T09:41:44Z</time>
      </trkpt>
      <trkpt lat="47.85047" lon="-1.67244">
        <ele>45.32</ele>
        <time>2014-04-13T09:41:45Z</time>
      </trkpt>
      <trkpt lat="47.85055" lon="-1.67237">
        <ele>45.32</ele>
        <time>2014-04-13T09:41:47Z</time>
      </trkpt>
      <trkpt lat="47.85057" lon="-1.67231">
        <ele>44.84</ele>
        <time>2014-04-13T09:41:48Z</time>
      </trkpt>
      <trkpt lat="47.85059" lon="-1.67226">
        <ele>44.84</ele>
        <time>2014-04-13T09:41:49Z</time>
      </trkpt>
      <trkpt lat="47.85069" lon="-1.6724">
        <ele>46.28</ele>
        <time>2014-04-13T09:41:55Z</time>
      </trkpt>
      <trkpt lat="47.8507" lon="-1.67244">
        <ele>46.76</ele>
        <time>2014-04-13T09:41:56Z</time>
      </trkpt>
      <trkpt lat="47.85093" lon="-1.67296">
        <ele>47.24</ele>
        <time>2014-04-13T09:42:09Z</time>
      </trkpt>
      <trkpt lat="47.8511" lon="-1.67356">
        <ele>48.68</ele>
        <time>2014-04-13T09:42:24Z</time>
      </trkpt>
      <trkpt lat="47.85124" lon="-1.67401">
        <ele>50.13</ele>
        <time>2014-04-13T09:42:36Z</time>
      </trkpt>
      <trkpt lat="47.85147" lon="-1.6746">
        <ele>49.65</ele>
        <time>2014-04-13T09:42:50Z</time>
      </trkpt>
      <trkpt lat="47.85149" lon="-1.67465">
        <ele>49.65</ele>
        <time>2014-04-13T09:42:51Z</time>
      </trkpt>
      <trkpt lat="47.85151" lon="-1.67468">
        <ele>50.13</ele>
        <time>2014-04-13T09:42:52Z</time>
      </trkpt>
      <trkpt lat="47.85153" lon="-1.67472">
        <ele>50.61</ele>
        <time>2014-04-13T09:42:53Z</time>
      </trkpt>
      <trkpt lat="47.85154" lon="-1.67476">
        <ele>50.61</ele>
        <time>2014-04-13T09:42:54Z</time>
      </trkpt>
      <trkpt lat="47.85156" lon="-1.6748">
        <ele>50.61</ele>
        <time>2014-04-13T09:42:55Z</time>
      </trkpt>
      <trkpt lat="47.85157" lon="-1.67484">
        <ele>50.61</ele>
        <time>2014-04-13T09:42:56Z</time>
      </trkpt>
      <trkpt lat="47.8518" lon="-1.67552">
        <ele>50.61</ele>
        <time>2014-04-13T09:43:10Z</time>
      </trkpt>
      <trkpt lat="47.85213" lon="-1.6764">
        <ele>49.65</ele>
        <time>2014-04-13T09:43:26Z</time>
      </trkpt>
      <trkpt lat="47.85238" lon="-1.67705">
        <ele>46.76</ele>
        <time>2014-04-13T09:43:35Z</time>
      </trkpt>
      <trkpt lat="47.85241" lon="-1.67713">
        <ele>45.8</ele>
        <time>2014-04-13T09:43:36Z</time>
      </trkpt>
      <trkpt lat="47.85244" lon="-1.67722">
        <ele>45.8</ele>
        <time>2014-04-13T09:43:37Z</time>
      </trkpt>
      <trkpt lat="47.85251" lon="-1.67747">
        <ele>45.32</ele>
        <time>2014-04-13T09:43:40Z</time>
      </trkpt>
      <trkpt lat="47.85252" lon="-1.67755">
        <ele>45.32</ele>
        <time>2014-04-13T09:43:41Z</time>
      </trkpt>
      <trkpt lat="47.85254" lon="-1.67763">
        <ele>44.84</ele>
        <time>2014-04-13T09:43:42Z</time>
      </trkpt>
      <trkpt lat="47.85257" lon="-1.67771">
        <ele>44.84</ele>
        <time>2014-04-13T09:43:43Z</time>
      </trkpt>
      <trkpt lat="47.8526" lon="-1.67777">
        <ele>44.84</ele>
        <time>2014-04-13T09:43:44Z</time>
      </trkpt>
      <trkpt lat="47.85264" lon="-1.67791">
        <ele>44.84</ele>
        <time>2014-04-13T09:43:46Z</time>
      </trkpt>
      <trkpt lat="47.85269" lon="-1.67805">
        <ele>44.84</ele>
        <time>2014-04-13T09:43:48Z</time>
      </trkpt>
      <trkpt lat="47.85271" lon="-1.67811">
        <ele>44.84</ele>
        <time>2014-04-13T09:43:49Z</time>
      </trkpt>
      <trkpt lat="47.85303" lon="-1.67898">
        <ele>46.28</ele>
        <time>2014-04-13T09:44:03Z</time>
      </trkpt>
      <trkpt lat="47.85321" lon="-1.67973">
        <ele>48.2</ele>
        <time>2014-04-13T09:44:16Z</time>
      </trkpt>
      <trkpt lat="47.85316" lon="-1.67988">
        <ele>48.68</ele>
        <time>2014-04-13T09:44:19Z</time>
      </trkpt>
      <trkpt lat="47.85314" lon="-1.67993">
        <ele>48.68</ele>
        <time>2014-04-13T09:44:20Z</time>
      </trkpt>
      <trkpt lat="47.85312" lon="-1.67998">
        <ele>49.16</ele>
        <time>2014-04-13T09:44:21Z</time>
      </trkpt>
      <trkpt lat="47.85309" lon="-1.68002">
        <ele>49.16</ele>
        <time>2014-04-13T09:44:22Z</time>
      </trkpt>
      <trkpt lat="47.85306" lon="-1.68007">
        <ele>49.65</ele>
        <time>2014-04-13T09:44:23Z</time>
      </trkpt>
      <trkpt lat="47.85248" lon="-1.68054">
        <ele>50.61</ele>
        <time>2014-04-13T09:44:38Z</time>
      </trkpt>
      <trkpt lat="47.8521" lon="-1.68068">
        <ele>53.01</ele>
        <time>2014-04-13T09:44:47Z</time>
      </trkpt>
      <trkpt lat="47.85205" lon="-1.68069">
        <ele>53.01</ele>
        <time>2014-04-13T09:44:48Z</time>
      </trkpt>
      <trkpt lat="47.85201" lon="-1.68071">
        <ele>53.01</ele>
        <time>2014-04-13T09:44:49Z</time>
      </trkpt>
      <trkpt lat="47.85197" lon="-1.68072">
        <ele>53.49</ele>
        <time>2014-04-13T09:44:50Z</time>
      </trkpt>
      <trkpt lat="47.85192" lon="-1.68074">
        <ele>53.49</ele>
        <time>2014-04-13T09:44:51Z</time>
      </trkpt>
      <trkpt lat="47.85188" lon="-1.68076">
        <ele>53.97</ele>
        <time>2014-04-13T09:44:52Z</time>
      </trkpt>
      <trkpt lat="47.85183" lon="-1.68077">
        <ele>53.97</ele>
        <time>2014-04-13T09:44:53Z</time>
      </trkpt>
      <trkpt lat="47.85139" lon="-1.68087">
        <ele>55.89</ele>
        <time>2014-04-13T09:45:03Z</time>
      </trkpt>
      <trkpt lat="47.85097" lon="-1.68093">
        <ele>58.78</ele>
        <time>2014-04-13T09:45:14Z</time>
      </trkpt>
      <trkpt lat="47.85095" lon="-1.68098">
        <ele>58.78</ele>
        <time>2014-04-13T09:45:15Z</time>
      </trkpt>
      <trkpt lat="47.85094" lon="-1.68102">
        <ele>59.26</ele>
        <time>2014-04-13T09:45:16Z</time>
      </trkpt>
      <trkpt lat="47.85092" lon="-1.68113">
        <ele>59.26</ele>
        <time>2014-04-13T09:45:18Z</time>
      </trkpt>
      <trkpt lat="47.85091" lon="-1.6812">
        <ele>59.26</ele>
        <time>2014-04-13T09:45:19Z</time>
      </trkpt>
      <trkpt lat="47.85091" lon="-1.68127">
        <ele>59.26</ele>
        <time>2014-04-13T09:45:20Z</time>
      </trkpt>
      <trkpt lat="47.8509" lon="-1.68134">
        <ele>59.26</ele>
        <time>2014-04-13T09:45:21Z</time>
      </trkpt>
      <trkpt lat="47.85089" lon="-1.6814">
        <ele>59.26</ele>
        <time>2014-04-13T09:45:22Z</time>
      </trkpt>
      <trkpt lat="47.8509" lon="-1.68157">
        <ele>59.74</ele>
        <time>2014-04-13T09:45:25Z</time>
      </trkpt>
      <trkpt lat="47.85093" lon="-1.6816">
        <ele>59.74</ele>
        <time>2014-04-13T09:45:26Z</time>
      </trkpt>
      <trkpt lat="47.85096" lon="-1.6816">
        <ele>59.26</ele>
        <time>2014-04-13T09:45:27Z</time>
      </trkpt>
      <trkpt lat="47.85099" lon="-1.68158">
        <ele>59.74</ele>
        <time>2014-04-13T09:45:28Z</time>
      </trkpt>
      <trkpt lat="47.85103" lon="-1.68157">
        <ele>59.26</ele>
        <time>2014-04-13T09:45:29Z</time>
      </trkpt>
      <trkpt lat="47.8516" lon="-1.68156">
        <ele>57.34</ele>
        <time>2014-04-13T09:45:42Z</time>
      </trkpt>
      <trkpt lat="47.85193" lon="-1.68169">
        <ele>55.89</ele>
        <time>2014-04-13T09:45:49Z</time>
      </trkpt>
      <trkpt lat="47.85197" lon="-1.68172">
        <ele>55.41</ele>
        <time>2014-04-13T09:45:50Z</time>
      </trkpt>
      <trkpt lat="47.85201" lon="-1.68176">
        <ele>55.41</ele>
        <time>2014-04-13T09:45:51Z</time>
      </trkpt>
      <trkpt lat="47.85204" lon="-1.6818">
        <ele>55.41</ele>
        <time>2014-04-13T09:45:52Z</time>
      </trkpt>
      <trkpt lat="47.85207" lon="-1.68185">
        <ele>55.41</ele>
        <time>2014-04-13T09:45:53Z</time>
      </trkpt>
      <trkpt lat="47.85209" lon="-1.6819">
        <ele>55.41</ele>
        <time>2014-04-13T09:45:54Z</time>
      </trkpt>
      <trkpt lat="47.85211" lon="-1.68196">
        <ele>55.41</ele>
        <time>2014-04-13T09:45:55Z</time>
      </trkpt>
      <trkpt lat="47.85213" lon="-1.68201">
        <ele>55.41</ele>
        <time>2014-04-13T09:45:56Z</time>
      </trkpt>
      <trkpt lat="47.85221" lon="-1.68229">
        <ele>55.41</ele>
        <time>2014-04-13T09:46:01Z</time>
      </trkpt>
      <trkpt lat="47.85222" lon="-1.68235">
        <ele>55.41</ele>
        <time>2014-04-13T09:46:02Z</time>
      </trkpt>
      <trkpt lat="47.85221" lon="-1.68241">
        <ele>55.89</ele>
        <time>2014-04-13T09:46:03Z</time>
      </trkpt>
      <trkpt lat="47.8521" lon="-1.68298">
        <ele>57.82</ele>
        <time>2014-04-13T09:46:13Z</time>
      </trkpt>
      <trkpt lat="47.85209" lon="-1.68304">
        <ele>57.82</ele>
        <time>2014-04-13T09:46:14Z</time>
      </trkpt>
      <trkpt lat="47.85208" lon="-1.6831">
        <ele>58.3</ele>
        <time>2014-04-13T09:46:15Z</time>
      </trkpt>
      <trkpt lat="47.85207" lon="-1.68316">
        <ele>58.3</ele>
        <time>2014-04-13T09:46:16Z</time>
      </trkpt>
      <trkpt lat="47.85206" lon="-1.68323">
        <ele>58.3</ele>
        <time>2014-04-13T09:46:17Z</time>
      </trkpt>
      <trkpt lat="47.85199" lon="-1.68358">
        <ele>58.78</ele>
        <time>2014-04-13T09:46:22Z</time>
      </trkpt>
      <trkpt lat="47.85198" lon="-1.68364">
        <ele>59.26</ele>
        <time>2014-04-13T09:46:23Z</time>
      </trkpt>
      <trkpt lat="47.85197" lon="-1.68371">
        <ele>58.78</ele>
        <time>2014-04-13T09:46:24Z</time>
      </trkpt>
      <trkpt lat="47.85196" lon="-1.68377">
        <ele>59.74</ele>
        <time>2014-04-13T09:46:25Z</time>
      </trkpt>
      <trkpt lat="47.85194" lon="-1.68382">
        <ele>59.74</ele>
        <time>2014-04-13T09:46:26Z</time>
      </trkpt>
      <trkpt lat="47.85181" lon="-1.68443">
        <ele>62.14</ele>
        <time>2014-04-13T09:46:37Z</time>
      </trkpt>
      <trkpt lat="47.85177" lon="-1.6846">
        <ele>62.62</ele>
        <time>2014-04-13T09:46:40Z</time>
      </trkpt>
      <trkpt lat="47.85172" lon="-1.6849">
        <ele>63.58</ele>
        <time>2014-04-13T09:46:45Z</time>
      </trkpt>
      <trkpt lat="47.85158" lon="-1.68568">
        <ele>66.47</ele>
        <time>2014-04-13T09:46:59Z</time>
      </trkpt>
      <trkpt lat="47.85149" lon="-1.68623">
        <ele>67.91</ele>
        <time>2014-04-13T09:47:09Z</time>
      </trkpt>
      <trkpt lat="47.85137" lon="-1.68684">
        <ele>70.79</ele>
        <time>2014-04-13T09:47:21Z</time>
      </trkpt>
      <trkpt lat="47.8512" lon="-1.68765">
        <ele>73.2</ele>
        <time>2014-04-13T09:47:36Z</time>
      </trkpt>
      <trkpt lat="47.85118" lon="-1.68771">
        <ele>73.2</ele>
        <time>2014-04-13T09:47:37Z</time>
      </trkpt>
      <trkpt lat="47.8511" lon="-1.68791">
        <ele>71.76</ele>
        <time>2014-04-13T09:47:40Z</time>
      </trkpt>
      <trkpt lat="47.85106" lon="-1.68798">
        <ele>71.27</ele>
        <time>2014-04-13T09:47:41Z</time>
      </trkpt>
      <trkpt lat="47.85102" lon="-1.68802">
        <ele>71.27</ele>
        <time>2014-04-13T09:47:42Z</time>
      </trkpt>
      <trkpt lat="47.85098" lon="-1.68804">
        <ele>71.76</ele>
        <time>2014-04-13T09:47:43Z</time>
      </trkpt>
      <trkpt lat="47.85094" lon="-1.68805">
        <ele>71.76</ele>
        <time>2014-04-13T09:47:44Z</time>
      </trkpt>
      <trkpt lat="47.8509" lon="-1.68806">
        <ele>72.24</ele>
        <time>2014-04-13T09:47:45Z</time>
      </trkpt>
      <trkpt lat="47.85085" lon="-1.68807">
        <ele>72.24</ele>
        <time>2014-04-13T09:47:46Z</time>
      </trkpt>
      <trkpt lat="47.85081" lon="-1.68808">
        <ele>72.24</ele>
        <time>2014-04-13T09:47:47Z</time>
      </trkpt>
      <trkpt lat="47.85077" lon="-1.68809">
        <ele>72.24</ele>
        <time>2014-04-13T09:47:48Z</time>
      </trkpt>
      <trkpt lat="47.85073" lon="-1.6881">
        <ele>72.72</ele>
        <time>2014-04-13T09:47:49Z</time>
      </trkpt>
      <trkpt lat="47.85065" lon="-1.68812">
        <ele>72.72</ele>
        <time>2014-04-13T09:47:51Z</time>
      </trkpt>
      <trkpt lat="47.85062" lon="-1.68813">
        <ele>72.72</ele>
        <time>2014-04-13T09:47:52Z</time>
      </trkpt>
      <trkpt lat="47.85014" lon="-1.6884">
        <ele>76.08</ele>
        <time>2014-04-13T09:48:05Z</time>
      </trkpt>
      <trkpt lat="47.84972" lon="-1.68885">
        <ele>78.97</ele>
        <time>2014-04-13T09:48:19Z</time>
      </trkpt>
      <trkpt lat="47.8494" lon="-1.68884">
        <ele>81.85</ele>
        <time>2014-04-13T09:48:29Z</time>
      </trkpt>
      <trkpt lat="47.84938" lon="-1.6888">
        <ele>82.33</ele>
        <time>2014-04-13T09:48:30Z</time>
      </trkpt>
      <trkpt lat="47.84936" lon="-1.68875">
        <ele>82.33</ele>
        <time>2014-04-13T09:48:31Z</time>
      </trkpt>
      <trkpt lat="47.8492" lon="-1.68831">
        <ele>83.29</ele>
        <time>2014-04-13T09:48:40Z</time>
      </trkpt>
      <trkpt lat="47.84916" lon="-1.68829">
        <ele>83.29</ele>
        <time>2014-04-13T09:48:41Z</time>
      </trkpt>
      <trkpt lat="47.84913" lon="-1.68827">
        <ele>83.77</ele>
        <time>2014-04-13T09:48:42Z</time>
      </trkpt>
      <trkpt lat="47.84909" lon="-1.68827">
        <ele>83.77</ele>
        <time>2014-04-13T09:48:43Z</time>
      </trkpt>
      <trkpt lat="47.84906" lon="-1.68828">
        <ele>83.77</ele>
        <time>2014-04-13T09:48:44Z</time>
      </trkpt>
      <trkpt lat="47.84902" lon="-1.68828">
        <ele>84.25</ele>
        <time>2014-04-13T09:48:45Z</time>
      </trkpt>
      <trkpt lat="47.84859" lon="-1.68834">
        <ele>86.66</ele>
        <time>2014-04-13T09:48:57Z</time>
      </trkpt>
      <trkpt lat="47.84814" lon="-1.68861">
        <ele>88.58</ele>
        <time>2014-04-13T09:49:10Z</time>
      </trkpt>
      <trkpt lat="47.8478" lon="-1.68899">
        <ele>90.02</ele>
        <time>2014-04-13T09:49:20Z</time>
      </trkpt>
      <trkpt lat="47.84777" lon="-1.68904">
        <ele>90.02</ele>
        <time>2014-04-13T09:49:21Z</time>
      </trkpt>
      <trkpt lat="47.84774" lon="-1.68909">
        <ele>90.02</ele>
        <time>2014-04-13T09:49:22Z</time>
      </trkpt>
      <trkpt lat="47.84768" lon="-1.68918">
        <ele>90.02</ele>
        <time>2014-04-13T09:49:24Z</time>
      </trkpt>
      <trkpt lat="47.84765" lon="-1.68923">
        <ele>90.02</ele>
        <time>2014-04-13T09:49:25Z</time>
      </trkpt>
      <trkpt lat="47.84762" lon="-1.68929">
        <ele>90.5</ele>
        <time>2014-04-13T09:49:26Z</time>
      </trkpt>
      <trkpt lat="47.84759" lon="-1.68935">
        <ele>90.5</ele>
        <time>2014-04-13T09:49:27Z</time>
      </trkpt>
      <trkpt lat="47.84757" lon="-1.68942">
        <ele>90.5</ele>
        <time>2014-04-13T09:49:28Z</time>
      </trkpt>
      <trkpt lat="47.84755" lon="-1.68948">
        <ele>90.02</ele>
        <time>2014-04-13T09:49:29Z</time>
      </trkpt>
      <trkpt lat="47.84753" lon="-1.68955">
        <ele>90.5</ele>
        <time>2014-04-13T09:49:30Z</time>
      </trkpt>
      <trkpt lat="47.84751" lon="-1.68968">
        <ele>90.02</ele>
        <time>2014-04-13T09:49:32Z</time>
      </trkpt>
      <trkpt lat="47.8475" lon="-1.68975">
        <ele>90.02</ele>
        <time>2014-04-13T09:49:33Z</time>
      </trkpt>
      <trkpt lat="47.84749" lon="-1.68981">
        <ele>90.02</ele>
        <time>2014-04-13T09:49:34Z</time>
      </trkpt>
      <trkpt lat="47.84748" lon="-1.68987">
        <ele>90.02</ele>
        <time>2014-04-13T09:49:35Z</time>
      </trkpt>
      <trkpt lat="47.84746" lon="-1.68991">
        <ele>90.02</ele>
        <time>2014-04-13T09:49:36Z</time>
      </trkpt>
      <trkpt lat="47.84743" lon="-1.68994">
        <ele>90.02</ele>
        <time>2014-04-13T09:49:37Z</time>
      </trkpt>
      <trkpt lat="47.8474" lon="-1.68995">
        <ele>90.02</ele>
        <time>2014-04-13T09:49:38Z</time>
      </trkpt>
      <trkpt lat="47.84736" lon="-1.68996">
        <ele>91.46</ele>
        <time>2014-04-13T09:49:39Z</time>
      </trkpt>
      <trkpt lat="47.84733" lon="-1.68998">
        <ele>90.5</ele>
        <time>2014-04-13T09:49:40Z</time>
      </trkpt>
      <trkpt lat="47.84729" lon="-1.69002">
        <ele>90.5</ele>
        <time>2014-04-13T09:49:41Z</time>
      </trkpt>
      <trkpt lat="47.84726" lon="-1.69006">
        <ele>90.5</ele>
        <time>2014-04-13T09:49:42Z</time>
      </trkpt>
      <trkpt lat="47.84715" lon="-1.69021">
        <ele>90.5</ele>
        <time>2014-04-13T09:49:45Z</time>
      </trkpt>
      <trkpt lat="47.84712" lon="-1.69027">
        <ele>90.98</ele>
        <time>2014-04-13T09:49:46Z</time>
      </trkpt>
      <trkpt lat="47.84708" lon="-1.69032">
        <ele>90.5</ele>
        <time>2014-04-13T09:49:47Z</time>
      </trkpt>
      <trkpt lat="47.84704" lon="-1.69036">
        <ele>90.5</ele>
        <time>2014-04-13T09:49:48Z</time>
      </trkpt>
      <trkpt lat="47.84699" lon="-1.6904">
        <ele>90.98</ele>
        <time>2014-04-13T09:49:49Z</time>
      </trkpt>
      <trkpt lat="47.84694" lon="-1.69043">
        <ele>90.5</ele>
        <time>2014-04-13T09:49:50Z</time>
      </trkpt>
      <trkpt lat="47.8469" lon="-1.69045">
        <ele>90.98</ele>
        <time>2014-04-13T09:49:51Z</time>
      </trkpt>
      <trkpt lat="47.84685" lon="-1.69046">
        <ele>90.98</ele>
        <time>2014-04-13T09:49:52Z</time>
      </trkpt>
      <trkpt lat="47.84675" lon="-1.69045">
        <ele>91.46</ele>
        <time>2014-04-13T09:49:54Z</time>
      </trkpt>
      <trkpt lat="47.84671" lon="-1.69044">
        <ele>90.98</ele>
        <time>2014-04-13T09:49:55Z</time>
      </trkpt>
      <trkpt lat="47.84667" lon="-1.6904">
        <ele>91.46</ele>
        <time>2014-04-13T09:49:56Z</time>
      </trkpt>
      <trkpt lat="47.84656" lon="-1.69028">
        <ele>91.94</ele>
        <time>2014-04-13T09:49:59Z</time>
      </trkpt>
      <trkpt lat="47.84653" lon="-1.69024">
        <ele>91.94</ele>
        <time>2014-04-13T09:50:00Z</time>
      </trkpt>
      <trkpt lat="47.84649" lon="-1.6902">
        <ele>92.42</ele>
        <time>2014-04-13T09:50:01Z</time>
      </trkpt>
      <trkpt lat="47.84645" lon="-1.69018">
        <ele>92.42</ele>
        <time>2014-04-13T09:50:02Z</time>
      </trkpt>
      <trkpt lat="47.84641" lon="-1.69015">
        <ele>92.42</ele>
        <time>2014-04-13T09:50:03Z</time>
      </trkpt>
      <trkpt lat="47.84608" lon="-1.68985">
        <ele>93.87</ele>
        <time>2014-04-13T09:50:11Z</time>
      </trkpt>
      <trkpt lat="47.84605" lon="-1.68981">
        <ele>94.35</ele>
        <time>2014-04-13T09:50:12Z</time>
      </trkpt>
      <trkpt lat="47.84601" lon="-1.68976">
        <ele>94.35</ele>
        <time>2014-04-13T09:50:13Z</time>
      </trkpt>
      <trkpt lat="47.84564" lon="-1.68924">
        <ele>96.27</ele>
        <time>2014-04-13T09:50:24Z</time>
      </trkpt>
      <trkpt lat="47.84545" lon="-1.68896">
        <ele>97.23</ele>
        <time>2014-04-13T09:50:32Z</time>
      </trkpt>
      <trkpt lat="47.84542" lon="-1.68897">
        <ele>97.23</ele>
        <time>2014-04-13T09:50:36Z</time>
      </trkpt>
      <trkpt lat="47.84541" lon="-1.68897">
        <ele>97.71</ele>
        <time>2014-04-13T09:50:37Z</time>
      </trkpt>
      <trkpt lat="47.84538" lon="-1.68898">
        <ele>97.71</ele>
        <time>2014-04-13T09:50:52Z</time>
      </trkpt>
    </trkseg>
  </trk>
</gpx>